<?xml version="1.0" encoding="UTF-8" standalone="no" ?>
<gpx xmlns="http://www.topografix.com/GPX/1/1" xmlns:xsi="http://www.w3.org/2001/XMLSchema-instance" xsi:schemaLocation="http://www.topografix.com/GPX/1/1 http://www.topografix.com/GPX/1/1/gpx.xsd" version="1.1" creator="VisuGPX - https://www.visugpx.com">
  <metadata>
    <name>cmj 1</name>
  </metadata>
  <trk>
    <name><![CDATA[9635577-VARRETOURCMJ2020]]></name>
    <trkseg>
      <trkpt lat="46.5113" lon="5.83979">
        <ele>910</ele>
        <time>2019-05-19T16:44:11Z</time>
      </trkpt>
      <trkpt lat="46.51141" lon="5.8398">
        <ele>910</ele>
        <time>2019-05-19T16:44:13Z</time>
      </trkpt>
      <trkpt lat="46.51154" lon="5.83977">
        <ele>910</ele>
        <time>2019-05-19T16:44:15Z</time>
      </trkpt>
      <trkpt lat="46.51159" lon="5.83983">
        <ele>910</ele>
        <time>2019-05-19T16:44:16Z</time>
      </trkpt>
      <trkpt lat="46.51163" lon="5.83982">
        <ele>910</ele>
        <time>2019-05-19T16:44:17Z</time>
      </trkpt>
      <trkpt lat="46.51166" lon="5.83975">
        <ele>910</ele>
        <time>2019-05-19T16:44:18Z</time>
      </trkpt>
      <trkpt lat="46.51166" lon="5.8397">
        <ele>910</ele>
        <time>2019-05-19T16:44:19Z</time>
      </trkpt>
      <trkpt lat="46.51161" lon="5.83965">
        <ele>911</ele>
        <time>2019-05-19T16:44:20Z</time>
      </trkpt>
      <trkpt lat="46.51162" lon="5.83951">
        <ele>911</ele>
        <time>2019-05-19T16:44:22Z</time>
      </trkpt>
      <trkpt lat="46.51173" lon="5.83908">
        <ele>914</ele>
        <time>2019-05-19T16:44:27Z</time>
      </trkpt>
      <trkpt lat="46.51191" lon="5.83857">
        <ele>922</ele>
        <time>2019-05-19T16:44:34Z</time>
      </trkpt>
      <trkpt lat="46.51194" lon="5.83841">
        <ele>924</ele>
        <time>2019-05-19T16:44:36Z</time>
      </trkpt>
      <trkpt lat="46.51193" lon="5.83818">
        <ele>927</ele>
        <time>2019-05-19T16:44:39Z</time>
      </trkpt>
      <trkpt lat="46.51184" lon="5.83799">
        <ele>929</ele>
        <time>2019-05-19T16:44:42Z</time>
      </trkpt>
      <trkpt lat="46.5117" lon="5.83787">
        <ele>930</ele>
        <time>2019-05-19T16:44:45Z</time>
      </trkpt>
      <trkpt lat="46.51135" lon="5.83781">
        <ele>927</ele>
        <time>2019-05-19T16:44:51Z</time>
      </trkpt>
      <trkpt lat="46.51129" lon="5.83779">
        <ele>927</ele>
        <time>2019-05-19T16:44:52Z</time>
      </trkpt>
      <trkpt lat="46.5112" lon="5.83768">
        <ele>928</ele>
        <time>2019-05-19T16:44:54Z</time>
      </trkpt>
      <trkpt lat="46.51115" lon="5.83756">
        <ele>929</ele>
        <time>2019-05-19T16:44:56Z</time>
      </trkpt>
      <trkpt lat="46.51111" lon="5.83739">
        <ele>931</ele>
        <time>2019-05-19T16:44:58Z</time>
      </trkpt>
      <trkpt lat="46.51112" lon="5.83729">
        <ele>933</ele>
        <time>2019-05-19T16:44:59Z</time>
      </trkpt>
      <trkpt lat="46.51118" lon="5.8371">
        <ele>936</ele>
        <time>2019-05-19T16:45:02Z</time>
      </trkpt>
      <trkpt lat="46.51148" lon="5.83657">
        <ele>942</ele>
        <time>2019-05-19T16:45:10Z</time>
      </trkpt>
      <trkpt lat="46.51162" lon="5.83637">
        <ele>942</ele>
        <time>2019-05-19T16:45:14Z</time>
      </trkpt>
      <trkpt lat="46.51195" lon="5.83604">
        <ele>942</ele>
        <time>2019-05-19T16:45:21Z</time>
      </trkpt>
      <trkpt lat="46.51215" lon="5.83573">
        <ele>943</ele>
        <time>2019-05-19T16:45:26Z</time>
      </trkpt>
      <trkpt lat="46.51231" lon="5.83543">
        <ele>945</ele>
        <time>2019-05-19T16:45:31Z</time>
      </trkpt>
      <trkpt lat="46.51264" lon="5.83498">
        <ele>948</ele>
        <time>2019-05-19T16:45:39Z</time>
      </trkpt>
      <trkpt lat="46.51277" lon="5.83478">
        <ele>949</ele>
        <time>2019-05-19T16:45:42Z</time>
      </trkpt>
      <trkpt lat="46.51292" lon="5.8345">
        <ele>951</ele>
        <time>2019-05-19T16:45:47Z</time>
      </trkpt>
      <trkpt lat="46.51301" lon="5.83428">
        <ele>951</ele>
        <time>2019-05-19T16:45:50Z</time>
      </trkpt>
      <trkpt lat="46.51336" lon="5.83371">
        <ele>952</ele>
        <time>2019-05-19T16:45:59Z</time>
      </trkpt>
      <trkpt lat="46.51358" lon="5.83313">
        <ele>950</ele>
        <time>2019-05-19T16:46:07Z</time>
      </trkpt>
      <trkpt lat="46.51401" lon="5.83168">
        <ele>953</ele>
        <time>2019-05-19T16:46:27Z</time>
      </trkpt>
      <trkpt lat="46.51408" lon="5.83132">
        <ele>954</ele>
        <time>2019-05-19T16:46:31Z</time>
      </trkpt>
      <trkpt lat="46.51409" lon="5.83115">
        <ele>955</ele>
        <time>2019-05-19T16:46:33Z</time>
      </trkpt>
      <trkpt lat="46.51407" lon="5.83099">
        <ele>956</ele>
        <time>2019-05-19T16:46:35Z</time>
      </trkpt>
      <trkpt lat="46.51404" lon="5.83083">
        <ele>956</ele>
        <time>2019-05-19T16:46:37Z</time>
      </trkpt>
      <trkpt lat="46.51397" lon="5.83065">
        <ele>957</ele>
        <time>2019-05-19T16:46:40Z</time>
      </trkpt>
      <trkpt lat="46.51387" lon="5.8305">
        <ele>958</ele>
        <time>2019-05-19T16:46:42Z</time>
      </trkpt>
      <trkpt lat="46.51347" lon="5.83018">
        <ele>955</ele>
        <time>2019-05-19T16:46:50Z</time>
      </trkpt>
      <trkpt lat="46.51336" lon="5.83001">
        <ele>953</ele>
        <time>2019-05-19T16:46:53Z</time>
      </trkpt>
      <trkpt lat="46.5133" lon="5.82986">
        <ele>954</ele>
        <time>2019-05-19T16:46:55Z</time>
      </trkpt>
      <trkpt lat="46.51325" lon="5.82959">
        <ele>956</ele>
        <time>2019-05-19T16:46:59Z</time>
      </trkpt>
      <trkpt lat="46.51325" lon="5.82935">
        <ele>957</ele>
        <time>2019-05-19T16:47:02Z</time>
      </trkpt>
      <trkpt lat="46.51331" lon="5.82886">
        <ele>958</ele>
        <time>2019-05-19T16:47:08Z</time>
      </trkpt>
      <trkpt lat="46.51331" lon="5.82868">
        <ele>959</ele>
        <time>2019-05-19T16:47:10Z</time>
      </trkpt>
      <trkpt lat="46.51329" lon="5.82849">
        <ele>960</ele>
        <time>2019-05-19T16:47:12Z</time>
      </trkpt>
      <trkpt lat="46.5132" lon="5.8282">
        <ele>960</ele>
        <time>2019-05-19T16:47:16Z</time>
      </trkpt>
      <trkpt lat="46.51303" lon="5.82776">
        <ele>960</ele>
        <time>2019-05-19T16:47:23Z</time>
      </trkpt>
      <trkpt lat="46.51255" lon="5.82692">
        <ele>959</ele>
        <time>2019-05-19T16:47:36Z</time>
      </trkpt>
      <trkpt lat="46.51245" lon="5.82668">
        <ele>960</ele>
        <time>2019-05-19T16:47:39Z</time>
      </trkpt>
      <trkpt lat="46.51215" lon="5.82628">
        <ele>960</ele>
        <time>2019-05-19T16:47:47Z</time>
      </trkpt>
      <trkpt lat="46.51198" lon="5.82615">
        <ele>960</ele>
        <time>2019-05-19T16:47:50Z</time>
      </trkpt>
      <trkpt lat="46.51154" lon="5.82599">
        <ele>959</ele>
        <time>2019-05-19T16:47:58Z</time>
      </trkpt>
      <trkpt lat="46.51121" lon="5.82597">
        <ele>959</ele>
        <time>2019-05-19T16:48:04Z</time>
      </trkpt>
      <trkpt lat="46.51096" lon="5.82589">
        <ele>960</ele>
        <time>2019-05-19T16:48:08Z</time>
      </trkpt>
      <trkpt lat="46.51086" lon="5.82579">
        <ele>960</ele>
        <time>2019-05-19T16:48:11Z</time>
      </trkpt>
      <trkpt lat="46.51079" lon="5.82566">
        <ele>961</ele>
        <time>2019-05-19T16:48:13Z</time>
      </trkpt>
      <trkpt lat="46.51059" lon="5.82487">
        <ele>965</ele>
        <time>2019-05-19T16:48:23Z</time>
      </trkpt>
      <trkpt lat="46.51046" lon="5.82463">
        <ele>965</ele>
        <time>2019-05-19T16:48:27Z</time>
      </trkpt>
      <trkpt lat="46.51023" lon="5.82427">
        <ele>964</ele>
        <time>2019-05-19T16:48:33Z</time>
      </trkpt>
      <trkpt lat="46.51018" lon="5.82407">
        <ele>964</ele>
        <time>2019-05-19T16:48:35Z</time>
      </trkpt>
      <trkpt lat="46.51017" lon="5.82386">
        <ele>963</ele>
        <time>2019-05-19T16:48:38Z</time>
      </trkpt>
      <trkpt lat="46.51031" lon="5.8232">
        <ele>962</ele>
        <time>2019-05-19T16:48:46Z</time>
      </trkpt>
      <trkpt lat="46.51045" lon="5.82284">
        <ele>961</ele>
        <time>2019-05-19T16:48:51Z</time>
      </trkpt>
      <trkpt lat="46.51069" lon="5.82256">
        <ele>961</ele>
        <time>2019-05-19T16:48:57Z</time>
      </trkpt>
      <trkpt lat="46.51158" lon="5.82175">
        <ele>961</ele>
        <time>2019-05-19T16:49:16Z</time>
      </trkpt>
      <trkpt lat="46.51174" lon="5.82151">
        <ele>961</ele>
        <time>2019-05-19T16:49:20Z</time>
      </trkpt>
      <trkpt lat="46.51202" lon="5.82077">
        <ele>960</ele>
        <time>2019-05-19T16:49:30Z</time>
      </trkpt>
      <trkpt lat="46.51217" lon="5.82049">
        <ele>962</ele>
        <time>2019-05-19T16:49:34Z</time>
      </trkpt>
      <trkpt lat="46.51281" lon="5.81978">
        <ele>964</ele>
        <time>2019-05-19T16:49:49Z</time>
      </trkpt>
      <trkpt lat="46.5131" lon="5.81936">
        <ele>963</ele>
        <time>2019-05-19T16:49:56Z</time>
      </trkpt>
      <trkpt lat="46.51342" lon="5.8191">
        <ele>960</ele>
        <time>2019-05-19T16:50:03Z</time>
      </trkpt>
      <trkpt lat="46.51371" lon="5.81906">
        <ele>957</ele>
        <time>2019-05-19T16:50:08Z</time>
      </trkpt>
      <trkpt lat="46.51421" lon="5.81915">
        <ele>953</ele>
        <time>2019-05-19T16:50:17Z</time>
      </trkpt>
      <trkpt lat="46.51495" lon="5.81944">
        <ele>946</ele>
        <time>2019-05-19T16:50:30Z</time>
      </trkpt>
      <trkpt lat="46.5152" lon="5.81974">
        <ele>944</ele>
        <time>2019-05-19T16:50:36Z</time>
      </trkpt>
      <trkpt lat="46.51532" lon="5.82024">
        <ele>945</ele>
        <time>2019-05-19T16:50:43Z</time>
      </trkpt>
      <trkpt lat="46.51541" lon="5.82078">
        <ele>945</ele>
        <time>2019-05-19T16:50:49Z</time>
      </trkpt>
      <trkpt lat="46.51554" lon="5.82096">
        <ele>944</ele>
        <time>2019-05-19T16:50:53Z</time>
      </trkpt>
      <trkpt lat="46.51596" lon="5.82105">
        <ele>938</ele>
        <time>2019-05-19T16:51:00Z</time>
      </trkpt>
      <trkpt lat="46.51643" lon="5.82105">
        <ele>937</ele>
        <time>2019-05-19T16:51:08Z</time>
      </trkpt>
      <trkpt lat="46.51685" lon="5.82084">
        <ele>933</ele>
        <time>2019-05-19T16:51:16Z</time>
      </trkpt>
      <trkpt lat="46.51737" lon="5.82024">
        <ele>927</ele>
        <time>2019-05-19T16:51:28Z</time>
      </trkpt>
      <trkpt lat="46.51753" lon="5.82024">
        <ele>927</ele>
        <time>2019-05-19T16:51:31Z</time>
      </trkpt>
      <trkpt lat="46.518" lon="5.82049">
        <ele>927</ele>
        <time>2019-05-19T16:51:40Z</time>
      </trkpt>
      <trkpt lat="46.51871" lon="5.82039">
        <ele>923</ele>
        <time>2019-05-19T16:51:53Z</time>
      </trkpt>
      <trkpt lat="46.51915" lon="5.82041">
        <ele>922</ele>
        <time>2019-05-19T16:52:00Z</time>
      </trkpt>
      <trkpt lat="46.51964" lon="5.82054">
        <ele>920</ele>
        <time>2019-05-19T16:52:09Z</time>
      </trkpt>
      <trkpt lat="46.52003" lon="5.82068">
        <ele>919</ele>
        <time>2019-05-19T16:52:16Z</time>
      </trkpt>
      <trkpt lat="46.52048" lon="5.82054">
        <ele>915</ele>
        <time>2019-05-19T16:52:25Z</time>
      </trkpt>
      <trkpt lat="46.52082" lon="5.82036">
        <ele>912</ele>
        <time>2019-05-19T16:52:31Z</time>
      </trkpt>
      <trkpt lat="46.52115" lon="5.82014">
        <ele>908</ele>
        <time>2019-05-19T16:52:38Z</time>
      </trkpt>
      <trkpt lat="46.52144" lon="5.82014">
        <ele>907</ele>
        <time>2019-05-19T16:52:43Z</time>
      </trkpt>
      <trkpt lat="46.52168" lon="5.8201">
        <ele>905</ele>
        <time>2019-05-19T16:52:47Z</time>
      </trkpt>
      <trkpt lat="46.52199" lon="5.81997">
        <ele>902</ele>
        <time>2019-05-19T16:52:53Z</time>
      </trkpt>
      <trkpt lat="46.52224" lon="5.8198">
        <ele>896</ele>
        <time>2019-05-19T16:52:58Z</time>
      </trkpt>
      <trkpt lat="46.5224" lon="5.81977">
        <ele>894</ele>
        <time>2019-05-19T16:53:01Z</time>
      </trkpt>
      <trkpt lat="46.52255" lon="5.81986">
        <ele>895</ele>
        <time>2019-05-19T16:53:03Z</time>
      </trkpt>
      <trkpt lat="46.52289" lon="5.82046">
        <ele>902</ele>
        <time>2019-05-19T16:53:13Z</time>
      </trkpt>
      <trkpt lat="46.52304" lon="5.82054">
        <ele>901</ele>
        <time>2019-05-19T16:53:16Z</time>
      </trkpt>
      <trkpt lat="46.52314" lon="5.82056">
        <ele>900</ele>
        <time>2019-05-19T16:53:18Z</time>
      </trkpt>
      <trkpt lat="46.52322" lon="5.82051">
        <ele>898</ele>
        <time>2019-05-19T16:53:19Z</time>
      </trkpt>
      <trkpt lat="46.52327" lon="5.82042">
        <ele>896</ele>
        <time>2019-05-19T16:53:21Z</time>
      </trkpt>
      <trkpt lat="46.5233" lon="5.82012">
        <ele>890</ele>
        <time>2019-05-19T16:53:24Z</time>
      </trkpt>
      <trkpt lat="46.52324" lon="5.81993">
        <ele>886</ele>
        <time>2019-05-19T16:53:27Z</time>
      </trkpt>
      <trkpt lat="46.5231" lon="5.81981">
        <ele>884</ele>
        <time>2019-05-19T16:53:30Z</time>
      </trkpt>
      <trkpt lat="46.52283" lon="5.81984">
        <ele>889</ele>
        <time>2019-05-19T16:53:35Z</time>
      </trkpt>
      <trkpt lat="46.5227" lon="5.81978">
        <ele>890</ele>
        <time>2019-05-19T16:53:37Z</time>
      </trkpt>
      <trkpt lat="46.52261" lon="5.81952">
        <ele>883</ele>
        <time>2019-05-19T16:53:41Z</time>
      </trkpt>
      <trkpt lat="46.52218" lon="5.81908">
        <ele>875</ele>
        <time>2019-05-19T16:53:50Z</time>
      </trkpt>
      <trkpt lat="46.52197" lon="5.81895">
        <ele>873</ele>
        <time>2019-05-19T16:53:54Z</time>
      </trkpt>
      <trkpt lat="46.52179" lon="5.81892">
        <ele>875</ele>
        <time>2019-05-19T16:53:57Z</time>
      </trkpt>
      <trkpt lat="46.52154" lon="5.81899">
        <ele>881</ele>
        <time>2019-05-19T16:54:02Z</time>
      </trkpt>
      <trkpt lat="46.52134" lon="5.81889">
        <ele>881</ele>
        <time>2019-05-19T16:54:05Z</time>
      </trkpt>
      <trkpt lat="46.52103" lon="5.81891">
        <ele>886</ele>
        <time>2019-05-19T16:54:11Z</time>
      </trkpt>
      <trkpt lat="46.52085" lon="5.81885">
        <ele>887</ele>
        <time>2019-05-19T16:54:14Z</time>
      </trkpt>
      <trkpt lat="46.51996" lon="5.81707">
        <ele>872</ele>
        <time>2019-05-19T16:54:41Z</time>
      </trkpt>
      <trkpt lat="46.51944" lon="5.81624">
        <ele>864</ele>
        <time>2019-05-19T16:54:55Z</time>
      </trkpt>
      <trkpt lat="46.51909" lon="5.81606">
        <ele>871</ele>
        <time>2019-05-19T16:55:02Z</time>
      </trkpt>
      <trkpt lat="46.51888" lon="5.8158">
        <ele>873</ele>
        <time>2019-05-19T16:55:06Z</time>
      </trkpt>
      <trkpt lat="46.51868" lon="5.81512">
        <ele>861</ele>
        <time>2019-05-19T16:55:16Z</time>
      </trkpt>
      <trkpt lat="46.51842" lon="5.81474">
        <ele>858</ele>
        <time>2019-05-19T16:55:22Z</time>
      </trkpt>
      <trkpt lat="46.51784" lon="5.8144">
        <ele>865</ele>
        <time>2019-05-19T16:55:33Z</time>
      </trkpt>
      <trkpt lat="46.51727" lon="5.81399">
        <ele>865</ele>
        <time>2019-05-19T16:55:45Z</time>
      </trkpt>
      <trkpt lat="46.51661" lon="5.81337">
        <ele>857</ele>
        <time>2019-05-19T16:55:59Z</time>
      </trkpt>
      <trkpt lat="46.51623" lon="5.81284">
        <ele>853</ele>
        <time>2019-05-19T16:56:08Z</time>
      </trkpt>
      <trkpt lat="46.5153" lon="5.81188">
        <ele>848</ele>
        <time>2019-05-19T16:56:28Z</time>
      </trkpt>
      <trkpt lat="46.51515" lon="5.81148">
        <ele>838</ele>
        <time>2019-05-19T16:56:34Z</time>
      </trkpt>
      <trkpt lat="46.51492" lon="5.81106">
        <ele>833</ele>
        <time>2019-05-19T16:56:40Z</time>
      </trkpt>
      <trkpt lat="46.51458" lon="5.81062">
        <ele>835</ele>
        <time>2019-05-19T16:56:48Z</time>
      </trkpt>
      <trkpt lat="46.51403" lon="5.80999">
        <ele>828</ele>
        <time>2019-05-19T16:57:01Z</time>
      </trkpt>
      <trkpt lat="46.51373" lon="5.80951">
        <ele>821</ele>
        <time>2019-05-19T16:57:09Z</time>
      </trkpt>
      <trkpt lat="46.51368" lon="5.80906">
        <ele>811</ele>
        <time>2019-05-19T16:57:14Z</time>
      </trkpt>
      <trkpt lat="46.51397" lon="5.8076">
        <ele>803</ele>
        <time>2019-05-19T16:57:33Z</time>
      </trkpt>
      <trkpt lat="46.51425" lon="5.80643">
        <ele>802</ele>
        <time>2019-05-19T16:57:48Z</time>
      </trkpt>
      <trkpt lat="46.51457" lon="5.80498">
        <ele>793</ele>
        <time>2019-05-19T16:58:07Z</time>
      </trkpt>
      <trkpt lat="46.51445" lon="5.80493">
        <ele>793</ele>
        <time>2019-05-19T16:58:09Z</time>
      </trkpt>
      <trkpt lat="46.51441" lon="5.80488">
        <ele>793</ele>
        <time>2019-05-19T16:58:10Z</time>
      </trkpt>
      <trkpt lat="46.51429" lon="5.80467">
        <ele>794</ele>
        <time>2019-05-19T16:58:13Z</time>
      </trkpt>
      <trkpt lat="46.51403" lon="5.80358">
        <ele>797</ele>
        <time>2019-05-19T16:58:27Z</time>
      </trkpt>
      <trkpt lat="46.51394" lon="5.80334">
        <ele>798</ele>
        <time>2019-05-19T16:58:31Z</time>
      </trkpt>
      <trkpt lat="46.51379" lon="5.80306">
        <ele>795</ele>
        <time>2019-05-19T16:58:35Z</time>
      </trkpt>
      <trkpt lat="46.51361" lon="5.80287">
        <ele>793</ele>
        <time>2019-05-19T16:58:39Z</time>
      </trkpt>
      <trkpt lat="46.51326" lon="5.80261">
        <ele>789</ele>
        <time>2019-05-19T16:58:46Z</time>
      </trkpt>
      <trkpt lat="46.51291" lon="5.8024">
        <ele>788</ele>
        <time>2019-05-19T16:58:53Z</time>
      </trkpt>
      <trkpt lat="46.51256" lon="5.80209">
        <ele>787</ele>
        <time>2019-05-19T16:59:00Z</time>
      </trkpt>
      <trkpt lat="46.51238" lon="5.8017">
        <ele>787</ele>
        <time>2019-05-19T16:59:06Z</time>
      </trkpt>
      <trkpt lat="46.51223" lon="5.8008">
        <ele>788</ele>
        <time>2019-05-19T16:59:17Z</time>
      </trkpt>
      <trkpt lat="46.51201" lon="5.80012">
        <ele>787</ele>
        <time>2019-05-19T16:59:26Z</time>
      </trkpt>
      <trkpt lat="46.51148" lon="5.799">
        <ele>788</ele>
        <time>2019-05-19T16:59:43Z</time>
      </trkpt>
      <trkpt lat="46.5113" lon="5.79834">
        <ele>792</ele>
        <time>2019-05-19T16:59:52Z</time>
      </trkpt>
      <trkpt lat="46.51112" lon="5.79792">
        <ele>794</ele>
        <time>2019-05-19T16:59:58Z</time>
      </trkpt>
      <trkpt lat="46.51087" lon="5.79756">
        <ele>794</ele>
        <time>2019-05-19T17:00:04Z</time>
      </trkpt>
      <trkpt lat="46.51059" lon="5.79727">
        <ele>795</ele>
        <time>2019-05-19T17:00:10Z</time>
      </trkpt>
      <trkpt lat="46.51022" lon="5.79679">
        <ele>797</ele>
        <time>2019-05-19T17:00:19Z</time>
      </trkpt>
      <trkpt lat="46.51003" lon="5.79634">
        <ele>800</ele>
        <time>2019-05-19T17:00:25Z</time>
      </trkpt>
      <trkpt lat="46.50975" lon="5.79579">
        <ele>803</ele>
        <time>2019-05-19T17:00:34Z</time>
      </trkpt>
      <trkpt lat="46.50908" lon="5.79467">
        <ele>808</ele>
        <time>2019-05-19T17:00:52Z</time>
      </trkpt>
      <trkpt lat="46.50864" lon="5.79386">
        <ele>813</ele>
        <time>2019-05-19T17:01:05Z</time>
      </trkpt>
      <trkpt lat="46.50853" lon="5.79379">
        <ele>813</ele>
        <time>2019-05-19T17:01:07Z</time>
      </trkpt>
      <trkpt lat="46.5081" lon="5.79382">
        <ele>814</ele>
        <time>2019-05-19T17:01:14Z</time>
      </trkpt>
      <trkpt lat="46.50797" lon="5.79379">
        <ele>814</ele>
        <time>2019-05-19T17:01:17Z</time>
      </trkpt>
      <trkpt lat="46.50791" lon="5.79375">
        <ele>814</ele>
        <time>2019-05-19T17:01:18Z</time>
      </trkpt>
      <trkpt lat="46.50783" lon="5.79361">
        <ele>815</ele>
        <time>2019-05-19T17:01:20Z</time>
      </trkpt>
      <trkpt lat="46.5078" lon="5.79347">
        <ele>815</ele>
        <time>2019-05-19T17:01:22Z</time>
      </trkpt>
      <trkpt lat="46.50699" lon="5.79372">
        <ele>813</ele>
        <time>2019-05-19T17:01:37Z</time>
      </trkpt>
      <trkpt lat="46.50669" lon="5.79376">
        <ele>812</ele>
        <time>2019-05-19T17:01:42Z</time>
      </trkpt>
      <trkpt lat="46.5051" lon="5.79342">
        <ele>808</ele>
        <time>2019-05-19T17:02:11Z</time>
      </trkpt>
      <trkpt lat="46.50479" lon="5.79332">
        <ele>808</ele>
        <time>2019-05-19T17:02:16Z</time>
      </trkpt>
      <trkpt lat="46.5042" lon="5.79276">
        <ele>806</ele>
        <time>2019-05-19T17:02:29Z</time>
      </trkpt>
      <trkpt lat="46.50397" lon="5.7927">
        <ele>805</ele>
        <time>2019-05-19T17:02:33Z</time>
      </trkpt>
      <trkpt lat="46.50311" lon="5.79256">
        <ele>804</ele>
        <time>2019-05-19T17:02:48Z</time>
      </trkpt>
      <trkpt lat="46.50264" lon="5.79228">
        <ele>805</ele>
        <time>2019-05-19T17:02:57Z</time>
      </trkpt>
      <trkpt lat="46.50238" lon="5.79201">
        <ele>806</ele>
        <time>2019-05-19T17:03:03Z</time>
      </trkpt>
      <trkpt lat="46.50166" lon="5.79107">
        <ele>808</ele>
        <time>2019-05-19T17:03:20Z</time>
      </trkpt>
      <trkpt lat="46.50141" lon="5.79089">
        <ele>807</ele>
        <time>2019-05-19T17:03:25Z</time>
      </trkpt>
      <trkpt lat="46.50128" lon="5.79085">
        <ele>807</ele>
        <time>2019-05-19T17:03:28Z</time>
      </trkpt>
      <trkpt lat="46.50114" lon="5.79088">
        <ele>808</ele>
        <time>2019-05-19T17:03:30Z</time>
      </trkpt>
      <trkpt lat="46.50088" lon="5.79111">
        <ele>811</ele>
        <time>2019-05-19T17:03:36Z</time>
      </trkpt>
      <trkpt lat="46.50058" lon="5.79148">
        <ele>815</ele>
        <time>2019-05-19T17:03:43Z</time>
      </trkpt>
      <trkpt lat="46.50018" lon="5.79166">
        <ele>816</ele>
        <time>2019-05-19T17:03:50Z</time>
      </trkpt>
      <trkpt lat="46.49997" lon="5.79188">
        <ele>815</ele>
        <time>2019-05-19T17:03:55Z</time>
      </trkpt>
      <trkpt lat="46.49981" lon="5.79235">
        <ele>815</ele>
        <time>2019-05-19T17:04:01Z</time>
      </trkpt>
      <trkpt lat="46.49973" lon="5.79268">
        <ele>815</ele>
        <time>2019-05-19T17:04:05Z</time>
      </trkpt>
      <trkpt lat="46.49968" lon="5.79303">
        <ele>816</ele>
        <time>2019-05-19T17:04:10Z</time>
      </trkpt>
      <trkpt lat="46.49965" lon="5.79359">
        <ele>817</ele>
        <time>2019-05-19T17:04:17Z</time>
      </trkpt>
      <trkpt lat="46.49957" lon="5.79384">
        <ele>817</ele>
        <time>2019-05-19T17:04:20Z</time>
      </trkpt>
      <trkpt lat="46.49941" lon="5.79413">
        <ele>816</ele>
        <time>2019-05-19T17:04:25Z</time>
      </trkpt>
      <trkpt lat="46.49905" lon="5.7944">
        <ele>815</ele>
        <time>2019-05-19T17:04:32Z</time>
      </trkpt>
      <trkpt lat="46.49859" lon="5.79469">
        <ele>815</ele>
        <time>2019-05-19T17:04:41Z</time>
      </trkpt>
      <trkpt lat="46.49806" lon="5.79496">
        <ele>814</ele>
        <time>2019-05-19T17:04:51Z</time>
      </trkpt>
      <trkpt lat="46.49733" lon="5.7952">
        <ele>812</ele>
        <time>2019-05-19T17:05:04Z</time>
      </trkpt>
      <trkpt lat="46.49683" lon="5.79557">
        <ele>812</ele>
        <time>2019-05-19T17:05:14Z</time>
      </trkpt>
      <trkpt lat="46.49482" lon="5.79602">
        <ele>813</ele>
        <time>2019-05-19T17:05:50Z</time>
      </trkpt>
      <trkpt lat="46.49453" lon="5.79594">
        <ele>814</ele>
        <time>2019-05-19T17:05:55Z</time>
      </trkpt>
      <trkpt lat="46.49385" lon="5.79563">
        <ele>814</ele>
        <time>2019-05-19T17:06:08Z</time>
      </trkpt>
      <trkpt lat="46.49369" lon="5.79561">
        <ele>814</ele>
        <time>2019-05-19T17:06:11Z</time>
      </trkpt>
      <trkpt lat="46.49365" lon="5.79563">
        <ele>814</ele>
        <time>2019-05-19T17:06:12Z</time>
      </trkpt>
      <trkpt lat="46.4936" lon="5.79565">
        <ele>814</ele>
        <time>2019-05-19T17:06:13Z</time>
      </trkpt>
      <trkpt lat="46.49345" lon="5.79582">
        <ele>815</ele>
        <time>2019-05-19T17:06:16Z</time>
      </trkpt>
      <trkpt lat="46.49306" lon="5.79634">
        <ele>816</ele>
        <time>2019-05-19T17:06:25Z</time>
      </trkpt>
      <trkpt lat="46.49289" lon="5.79653">
        <ele>815</ele>
        <time>2019-05-19T17:06:29Z</time>
      </trkpt>
      <trkpt lat="46.49277" lon="5.79664">
        <ele>815</ele>
        <time>2019-05-19T17:06:32Z</time>
      </trkpt>
      <trkpt lat="46.49264" lon="5.79671">
        <ele>814</ele>
        <time>2019-05-19T17:06:34Z</time>
      </trkpt>
      <trkpt lat="46.49257" lon="5.79672">
        <ele>814</ele>
        <time>2019-05-19T17:06:36Z</time>
      </trkpt>
      <trkpt lat="46.49236" lon="5.79672">
        <ele>813</ele>
        <time>2019-05-19T17:06:39Z</time>
      </trkpt>
      <trkpt lat="46.4918" lon="5.79663">
        <ele>813</ele>
        <time>2019-05-19T17:06:49Z</time>
      </trkpt>
      <trkpt lat="46.4916" lon="5.79653">
        <ele>812</ele>
        <time>2019-05-19T17:06:53Z</time>
      </trkpt>
      <trkpt lat="46.49142" lon="5.79639">
        <ele>811</ele>
        <time>2019-05-19T17:06:57Z</time>
      </trkpt>
      <trkpt lat="46.49125" lon="5.7963">
        <ele>810</ele>
        <time>2019-05-19T17:07:00Z</time>
      </trkpt>
      <trkpt lat="46.49019" lon="5.79601">
        <ele>810</ele>
        <time>2019-05-19T17:07:19Z</time>
      </trkpt>
      <trkpt lat="46.49009" lon="5.79595">
        <ele>810</ele>
        <time>2019-05-19T17:07:21Z</time>
      </trkpt>
      <trkpt lat="46.48979" lon="5.79572">
        <ele>808</ele>
        <time>2019-05-19T17:07:27Z</time>
      </trkpt>
      <trkpt lat="46.48963" lon="5.79567">
        <ele>806</ele>
        <time>2019-05-19T17:07:30Z</time>
      </trkpt>
      <trkpt lat="46.48954" lon="5.79568">
        <ele>806</ele>
        <time>2019-05-19T17:07:32Z</time>
      </trkpt>
      <trkpt lat="46.48935" lon="5.79574">
        <ele>807</ele>
        <time>2019-05-19T17:07:35Z</time>
      </trkpt>
      <trkpt lat="46.48897" lon="5.79602">
        <ele>809</ele>
        <time>2019-05-19T17:07:43Z</time>
      </trkpt>
      <trkpt lat="46.48879" lon="5.79608">
        <ele>809</ele>
        <time>2019-05-19T17:07:46Z</time>
      </trkpt>
      <trkpt lat="46.48828" lon="5.79605">
        <ele>808</ele>
        <time>2019-05-19T17:07:55Z</time>
      </trkpt>
      <trkpt lat="46.48797" lon="5.79605">
        <ele>808</ele>
        <time>2019-05-19T17:08:01Z</time>
      </trkpt>
      <trkpt lat="46.48689" lon="5.79626">
        <ele>812</ele>
        <time>2019-05-19T17:08:20Z</time>
      </trkpt>
      <trkpt lat="46.48668" lon="5.79626">
        <ele>812</ele>
        <time>2019-05-19T17:08:24Z</time>
      </trkpt>
      <trkpt lat="46.48653" lon="5.79621">
        <ele>813</ele>
        <time>2019-05-19T17:08:26Z</time>
      </trkpt>
      <trkpt lat="46.4863" lon="5.79602">
        <ele>814</ele>
        <time>2019-05-19T17:08:31Z</time>
      </trkpt>
      <trkpt lat="46.48498" lon="5.79468">
        <ele>822</ele>
        <time>2019-05-19T17:09:00Z</time>
      </trkpt>
      <trkpt lat="46.48428" lon="5.79472">
        <ele>825</ele>
        <time>2019-05-19T17:09:12Z</time>
      </trkpt>
      <trkpt lat="46.4838" lon="5.79445">
        <ele>827</ele>
        <time>2019-05-19T17:09:21Z</time>
      </trkpt>
      <trkpt lat="46.48201" lon="5.7935">
        <ele>829</ele>
        <time>2019-05-19T17:09:55Z</time>
      </trkpt>
      <trkpt lat="46.48172" lon="5.79342">
        <ele>828</ele>
        <time>2019-05-19T17:10:01Z</time>
      </trkpt>
      <trkpt lat="46.48017" lon="5.79403">
        <ele>832</ele>
        <time>2019-05-19T17:10:29Z</time>
      </trkpt>
      <trkpt lat="46.47911" lon="5.79397">
        <ele>836</ele>
        <time>2019-05-19T17:10:48Z</time>
      </trkpt>
      <trkpt lat="46.47878" lon="5.79376">
        <ele>839</ele>
        <time>2019-05-19T17:10:54Z</time>
      </trkpt>
      <trkpt lat="46.47812" lon="5.79269">
        <ele>836</ele>
        <time>2019-05-19T17:11:12Z</time>
      </trkpt>
      <trkpt lat="46.4778" lon="5.79253">
        <ele>834</ele>
        <time>2019-05-19T17:11:18Z</time>
      </trkpt>
      <trkpt lat="46.47708" lon="5.79278">
        <ele>840</ele>
        <time>2019-05-19T17:11:31Z</time>
      </trkpt>
      <trkpt lat="46.47632" lon="5.79253">
        <ele>836</ele>
        <time>2019-05-19T17:11:45Z</time>
      </trkpt>
      <trkpt lat="46.47583" lon="5.79252">
        <ele>834</ele>
        <time>2019-05-19T17:11:54Z</time>
      </trkpt>
      <trkpt lat="46.47548" lon="5.79268">
        <ele>834</ele>
        <time>2019-05-19T17:12:00Z</time>
      </trkpt>
      <trkpt lat="46.47471" lon="5.79342">
        <ele>836</ele>
        <time>2019-05-19T17:12:17Z</time>
      </trkpt>
      <trkpt lat="46.47402" lon="5.79423">
        <ele>841</ele>
        <time>2019-05-19T17:12:33Z</time>
      </trkpt>
      <trkpt lat="46.47214" lon="5.79482">
        <ele>842</ele>
        <time>2019-05-19T17:13:07Z</time>
      </trkpt>
      <trkpt lat="46.47194" lon="5.79481">
        <ele>844</ele>
        <time>2019-05-19T17:13:10Z</time>
      </trkpt>
      <trkpt lat="46.47118" lon="5.79422">
        <ele>851</ele>
        <time>2019-05-19T17:13:26Z</time>
      </trkpt>
      <trkpt lat="46.47107" lon="5.7941">
        <ele>852</ele>
        <time>2019-05-19T17:13:28Z</time>
      </trkpt>
      <trkpt lat="46.47091" lon="5.79381">
        <ele>851</ele>
        <time>2019-05-19T17:13:33Z</time>
      </trkpt>
      <trkpt lat="46.47075" lon="5.79337">
        <ele>848</ele>
        <time>2019-05-19T17:13:39Z</time>
      </trkpt>
      <trkpt lat="46.47061" lon="5.79316">
        <ele>848</ele>
        <time>2019-05-19T17:13:42Z</time>
      </trkpt>
      <trkpt lat="46.47041" lon="5.79297">
        <ele>849</ele>
        <time>2019-05-19T17:13:47Z</time>
      </trkpt>
      <trkpt lat="46.47018" lon="5.7929">
        <ele>851</ele>
        <time>2019-05-19T17:13:51Z</time>
      </trkpt>
      <trkpt lat="46.46966" lon="5.79307">
        <ele>855</ele>
        <time>2019-05-19T17:14:00Z</time>
      </trkpt>
      <trkpt lat="46.46887" lon="5.79305">
        <ele>852</ele>
        <time>2019-05-19T17:14:14Z</time>
      </trkpt>
      <trkpt lat="46.46799" lon="5.79352">
        <ele>851</ele>
        <time>2019-05-19T17:14:31Z</time>
      </trkpt>
      <trkpt lat="46.46671" lon="5.79449">
        <ele>846</ele>
        <time>2019-05-19T17:14:57Z</time>
      </trkpt>
      <trkpt lat="46.46566" lon="5.79552">
        <ele>843</ele>
        <time>2019-05-19T17:15:19Z</time>
      </trkpt>
      <trkpt lat="46.46535" lon="5.79609">
        <ele>853</ele>
        <time>2019-05-19T17:15:28Z</time>
      </trkpt>
      <trkpt lat="46.46491" lon="5.79637">
        <ele>856</ele>
        <time>2019-05-19T17:15:37Z</time>
      </trkpt>
      <trkpt lat="46.46462" lon="5.79635">
        <ele>854</ele>
        <time>2019-05-19T17:15:42Z</time>
      </trkpt>
      <trkpt lat="46.46383" lon="5.79617">
        <ele>844</ele>
        <time>2019-05-19T17:15:56Z</time>
      </trkpt>
      <trkpt lat="46.46363" lon="5.79617">
        <ele>842</ele>
        <time>2019-05-19T17:16:00Z</time>
      </trkpt>
      <trkpt lat="46.46318" lon="5.79641">
        <ele>842</ele>
        <time>2019-05-19T17:16:08Z</time>
      </trkpt>
      <trkpt lat="46.46304" lon="5.79644">
        <ele>841</ele>
        <time>2019-05-19T17:16:11Z</time>
      </trkpt>
      <trkpt lat="46.46289" lon="5.79641">
        <ele>840</ele>
        <time>2019-05-19T17:16:13Z</time>
      </trkpt>
      <trkpt lat="46.46273" lon="5.7963">
        <ele>838</ele>
        <time>2019-05-19T17:16:17Z</time>
      </trkpt>
      <trkpt lat="46.4617" lon="5.79522">
        <ele>833</ele>
        <time>2019-05-19T17:16:39Z</time>
      </trkpt>
      <trkpt lat="46.46147" lon="5.79505">
        <ele>831</ele>
        <time>2019-05-19T17:16:44Z</time>
      </trkpt>
      <trkpt lat="46.46128" lon="5.79502">
        <ele>831</ele>
        <time>2019-05-19T17:16:47Z</time>
      </trkpt>
      <trkpt lat="46.46105" lon="5.79502">
        <ele>831</ele>
        <time>2019-05-19T17:16:51Z</time>
      </trkpt>
      <trkpt lat="46.46078" lon="5.79513">
        <ele>832</ele>
        <time>2019-05-19T17:16:56Z</time>
      </trkpt>
      <trkpt lat="46.46017" lon="5.79551">
        <ele>830</ele>
        <time>2019-05-19T17:17:08Z</time>
      </trkpt>
      <trkpt lat="46.45899" lon="5.79699">
        <ele>821</ele>
        <time>2019-05-19T17:17:36Z</time>
      </trkpt>
      <trkpt lat="46.45854" lon="5.79804">
        <ele>824</ele>
        <time>2019-05-19T17:17:51Z</time>
      </trkpt>
      <trkpt lat="46.45848" lon="5.79848">
        <ele>823</ele>
        <time>2019-05-19T17:17:56Z</time>
      </trkpt>
      <trkpt lat="46.45848" lon="5.79886">
        <ele>821</ele>
        <time>2019-05-19T17:18:01Z</time>
      </trkpt>
      <trkpt lat="46.45861" lon="5.80086">
        <ele>822</ele>
        <time>2019-05-19T17:18:26Z</time>
      </trkpt>
      <trkpt lat="46.45851" lon="5.80116">
        <ele>824</ele>
        <time>2019-05-19T17:18:30Z</time>
      </trkpt>
      <trkpt lat="46.45832" lon="5.80116">
        <ele>822</ele>
        <time>2019-05-19T17:18:33Z</time>
      </trkpt>
      <trkpt lat="46.45807" lon="5.80108">
        <ele>818</ele>
        <time>2019-05-19T17:18:38Z</time>
      </trkpt>
      <trkpt lat="46.45789" lon="5.80112">
        <ele>817</ele>
        <time>2019-05-19T17:18:41Z</time>
      </trkpt>
      <trkpt lat="46.45728" lon="5.8016">
        <ele>818</ele>
        <time>2019-05-19T17:18:53Z</time>
      </trkpt>
      <trkpt lat="46.45676" lon="5.80205">
        <ele>823</ele>
        <time>2019-05-19T17:19:04Z</time>
      </trkpt>
      <trkpt lat="46.45584" lon="5.80255">
        <ele>814</ele>
        <time>2019-05-19T17:19:22Z</time>
      </trkpt>
      <trkpt lat="46.45406" lon="5.80313">
        <ele>812</ele>
        <time>2019-05-19T17:19:54Z</time>
      </trkpt>
      <trkpt lat="46.45315" lon="5.80291">
        <ele>800</ele>
        <time>2019-05-19T17:20:10Z</time>
      </trkpt>
      <trkpt lat="46.45108" lon="5.80342">
        <ele>791</ele>
        <time>2019-05-19T17:20:48Z</time>
      </trkpt>
      <trkpt lat="46.45057" lon="5.80366">
        <ele>796</ele>
        <time>2019-05-19T17:20:57Z</time>
      </trkpt>
      <trkpt lat="46.45033" lon="5.80362">
        <ele>794</ele>
        <time>2019-05-19T17:21:02Z</time>
      </trkpt>
      <trkpt lat="46.45015" lon="5.80341">
        <ele>786</ele>
        <time>2019-05-19T17:21:06Z</time>
      </trkpt>
      <trkpt lat="46.45001" lon="5.80335">
        <ele>784</ele>
        <time>2019-05-19T17:21:08Z</time>
      </trkpt>
      <trkpt lat="46.44971" lon="5.80338">
        <ele>784</ele>
        <time>2019-05-19T17:21:14Z</time>
      </trkpt>
      <trkpt lat="46.44924" lon="5.80306">
        <ele>775</ele>
        <time>2019-05-19T17:21:23Z</time>
      </trkpt>
      <trkpt lat="46.44903" lon="5.80305">
        <ele>771</ele>
        <time>2019-05-19T17:21:27Z</time>
      </trkpt>
      <trkpt lat="46.4487" lon="5.80329">
        <ele>764</ele>
        <time>2019-05-19T17:21:33Z</time>
      </trkpt>
      <trkpt lat="46.44845" lon="5.80378">
        <ele>760</ele>
        <time>2019-05-19T17:21:41Z</time>
      </trkpt>
      <trkpt lat="46.44819" lon="5.80474">
        <ele>753</ele>
        <time>2019-05-19T17:21:53Z</time>
      </trkpt>
      <trkpt lat="46.44829" lon="5.80504">
        <ele>754</ele>
        <time>2019-05-19T17:21:57Z</time>
      </trkpt>
      <trkpt lat="46.44933" lon="5.80582">
        <ele>765</ele>
        <time>2019-05-19T17:22:18Z</time>
      </trkpt>
      <trkpt lat="46.44986" lon="5.80615">
        <ele>775</ele>
        <time>2019-05-19T17:22:29Z</time>
      </trkpt>
      <trkpt lat="46.44999" lon="5.80637">
        <ele>773</ele>
        <time>2019-05-19T17:22:32Z</time>
      </trkpt>
      <trkpt lat="46.44998" lon="5.80662">
        <ele>767</ele>
        <time>2019-05-19T17:22:35Z</time>
      </trkpt>
      <trkpt lat="46.44987" lon="5.80681">
        <ele>768</ele>
        <time>2019-05-19T17:22:38Z</time>
      </trkpt>
      <trkpt lat="46.44969" lon="5.80681">
        <ele>767</ele>
        <time>2019-05-19T17:22:41Z</time>
      </trkpt>
      <trkpt lat="46.44944" lon="5.80667">
        <ele>761</ele>
        <time>2019-05-19T17:22:46Z</time>
      </trkpt>
      <trkpt lat="46.44904" lon="5.80635">
        <ele>759</ele>
        <time>2019-05-19T17:22:54Z</time>
      </trkpt>
      <trkpt lat="46.44873" lon="5.8062">
        <ele>758</ele>
        <time>2019-05-19T17:23:00Z</time>
      </trkpt>
      <trkpt lat="46.44847" lon="5.80621">
        <ele>758</ele>
        <time>2019-05-19T17:23:05Z</time>
      </trkpt>
      <trkpt lat="46.44776" lon="5.80591">
        <ele>749</ele>
        <time>2019-05-19T17:23:18Z</time>
      </trkpt>
      <trkpt lat="46.44766" lon="5.80585">
        <ele>747</ele>
        <time>2019-05-19T17:23:20Z</time>
      </trkpt>
      <trkpt lat="46.44747" lon="5.8058">
        <ele>746</ele>
        <time>2019-05-19T17:23:23Z</time>
      </trkpt>
      <trkpt lat="46.44727" lon="5.80583">
        <ele>746</ele>
        <time>2019-05-19T17:23:27Z</time>
      </trkpt>
      <trkpt lat="46.44691" lon="5.80594">
        <ele>751</ele>
        <time>2019-05-19T17:23:33Z</time>
      </trkpt>
      <trkpt lat="46.44679" lon="5.80592">
        <ele>751</ele>
        <time>2019-05-19T17:23:36Z</time>
      </trkpt>
      <trkpt lat="46.44661" lon="5.80581">
        <ele>748</ele>
        <time>2019-05-19T17:23:39Z</time>
      </trkpt>
      <trkpt lat="46.44641" lon="5.80563">
        <ele>744</ele>
        <time>2019-05-19T17:23:43Z</time>
      </trkpt>
      <trkpt lat="46.44628" lon="5.80559">
        <ele>743</ele>
        <time>2019-05-19T17:23:46Z</time>
      </trkpt>
      <trkpt lat="46.44566" lon="5.80566">
        <ele>742</ele>
        <time>2019-05-19T17:23:57Z</time>
      </trkpt>
      <trkpt lat="46.44532" lon="5.80587">
        <ele>741</ele>
        <time>2019-05-19T17:24:03Z</time>
      </trkpt>
      <trkpt lat="46.44483" lon="5.80624">
        <ele>743</ele>
        <time>2019-05-19T17:24:13Z</time>
      </trkpt>
      <trkpt lat="46.44437" lon="5.80673">
        <ele>737</ele>
        <time>2019-05-19T17:24:23Z</time>
      </trkpt>
      <trkpt lat="46.44413" lon="5.80712">
        <ele>741</ele>
        <time>2019-05-19T17:24:30Z</time>
      </trkpt>
      <trkpt lat="46.44387" lon="5.80759">
        <ele>748</ele>
        <time>2019-05-19T17:24:37Z</time>
      </trkpt>
      <trkpt lat="46.44364" lon="5.80796">
        <ele>751</ele>
        <time>2019-05-19T17:24:43Z</time>
      </trkpt>
      <trkpt lat="46.44281" lon="5.80874">
        <ele>741</ele>
        <time>2019-05-19T17:25:01Z</time>
      </trkpt>
      <trkpt lat="46.44258" lon="5.80898">
        <ele>737</ele>
        <time>2019-05-19T17:25:06Z</time>
      </trkpt>
      <trkpt lat="46.44225" lon="5.80927">
        <ele>735</ele>
        <time>2019-05-19T17:25:13Z</time>
      </trkpt>
      <trkpt lat="46.44165" lon="5.80972">
        <ele>732</ele>
        <time>2019-05-19T17:25:25Z</time>
      </trkpt>
      <trkpt lat="46.44087" lon="5.8101">
        <ele>717</ele>
        <time>2019-05-19T17:25:39Z</time>
      </trkpt>
      <trkpt lat="46.44067" lon="5.81026">
        <ele>716</ele>
        <time>2019-05-19T17:25:43Z</time>
      </trkpt>
      <trkpt lat="46.44047" lon="5.8105">
        <ele>714</ele>
        <time>2019-05-19T17:25:48Z</time>
      </trkpt>
      <trkpt lat="46.44038" lon="5.81071">
        <ele>713</ele>
        <time>2019-05-19T17:25:51Z</time>
      </trkpt>
      <trkpt lat="46.44026" lon="5.81114">
        <ele>714</ele>
        <time>2019-05-19T17:25:57Z</time>
      </trkpt>
      <trkpt lat="46.4401" lon="5.81146">
        <ele>710</ele>
        <time>2019-05-19T17:26:01Z</time>
      </trkpt>
      <trkpt lat="46.44006" lon="5.81164">
        <ele>710</ele>
        <time>2019-05-19T17:26:04Z</time>
      </trkpt>
      <trkpt lat="46.44006" lon="5.81199">
        <ele>713</ele>
        <time>2019-05-19T17:26:08Z</time>
      </trkpt>
      <trkpt lat="46.44003" lon="5.81214">
        <ele>712</ele>
        <time>2019-05-19T17:26:10Z</time>
      </trkpt>
      <trkpt lat="46.43987" lon="5.81247">
        <ele>708</ele>
        <time>2019-05-19T17:26:15Z</time>
      </trkpt>
      <trkpt lat="46.43987" lon="5.8126">
        <ele>709</ele>
        <time>2019-05-19T17:26:17Z</time>
      </trkpt>
      <trkpt lat="46.43999" lon="5.81319">
        <ele>718</ele>
        <time>2019-05-19T17:26:24Z</time>
      </trkpt>
      <trkpt lat="46.43999" lon="5.8134">
        <ele>720</ele>
        <time>2019-05-19T17:26:27Z</time>
      </trkpt>
      <trkpt lat="46.43994" lon="5.81357">
        <ele>720</ele>
        <time>2019-05-19T17:26:29Z</time>
      </trkpt>
      <trkpt lat="46.43986" lon="5.81366">
        <ele>718</ele>
        <time>2019-05-19T17:26:31Z</time>
      </trkpt>
      <trkpt lat="46.43915" lon="5.8141">
        <ele>703</ele>
        <time>2019-05-19T17:26:44Z</time>
      </trkpt>
      <trkpt lat="46.43901" lon="5.81426">
        <ele>701</ele>
        <time>2019-05-19T17:26:48Z</time>
      </trkpt>
      <trkpt lat="46.43896" lon="5.81438">
        <ele>700</ele>
        <time>2019-05-19T17:26:49Z</time>
      </trkpt>
      <trkpt lat="46.43894" lon="5.81471">
        <ele>700</ele>
        <time>2019-05-19T17:26:53Z</time>
      </trkpt>
      <trkpt lat="46.43902" lon="5.81519">
        <ele>701</ele>
        <time>2019-05-19T17:26:59Z</time>
      </trkpt>
      <trkpt lat="46.43911" lon="5.81568">
        <ele>698</ele>
        <time>2019-05-19T17:27:06Z</time>
      </trkpt>
      <trkpt lat="46.4391" lon="5.81587">
        <ele>698</ele>
        <time>2019-05-19T17:27:08Z</time>
      </trkpt>
      <trkpt lat="46.43904" lon="5.81629">
        <ele>704</ele>
        <time>2019-05-19T17:27:13Z</time>
      </trkpt>
      <trkpt lat="46.43875" lon="5.81624">
        <ele>705</ele>
        <time>2019-05-19T17:27:18Z</time>
      </trkpt>
      <trkpt lat="46.43799" lon="5.81572">
        <ele>701</ele>
        <time>2019-05-19T17:27:33Z</time>
      </trkpt>
      <trkpt lat="46.4374" lon="5.81524">
        <ele>698</ele>
        <time>2019-05-19T17:27:45Z</time>
      </trkpt>
      <trkpt lat="46.43583" lon="5.81319">
        <ele>679</ele>
        <time>2019-05-19T17:28:23Z</time>
      </trkpt>
      <trkpt lat="46.43561" lon="5.813">
        <ele>677</ele>
        <time>2019-05-19T17:28:28Z</time>
      </trkpt>
      <trkpt lat="46.43491" lon="5.8127">
        <ele>678</ele>
        <time>2019-05-19T17:28:41Z</time>
      </trkpt>
      <trkpt lat="46.43473" lon="5.81265">
        <ele>677</ele>
        <time>2019-05-19T17:28:44Z</time>
      </trkpt>
      <trkpt lat="46.43456" lon="5.81266">
        <ele>676</ele>
        <time>2019-05-19T17:28:47Z</time>
      </trkpt>
      <trkpt lat="46.43442" lon="5.81271">
        <ele>676</ele>
        <time>2019-05-19T17:28:49Z</time>
      </trkpt>
      <trkpt lat="46.43388" lon="5.81313">
        <ele>675</ele>
        <time>2019-05-19T17:29:00Z</time>
      </trkpt>
      <trkpt lat="46.43358" lon="5.81325">
        <ele>673</ele>
        <time>2019-05-19T17:29:06Z</time>
      </trkpt>
      <trkpt lat="46.4336" lon="5.81344">
        <ele>675</ele>
        <time>2019-05-19T17:29:08Z</time>
      </trkpt>
      <trkpt lat="46.43358" lon="5.81359">
        <ele>677</ele>
        <time>2019-05-19T17:29:10Z</time>
      </trkpt>
      <trkpt lat="46.43353" lon="5.81366">
        <ele>678</ele>
        <time>2019-05-19T17:29:11Z</time>
      </trkpt>
      <trkpt lat="46.43342" lon="5.81368">
        <ele>677</ele>
        <time>2019-05-19T17:29:13Z</time>
      </trkpt>
      <trkpt lat="46.43328" lon="5.81365">
        <ele>677</ele>
        <time>2019-05-19T17:29:16Z</time>
      </trkpt>
      <trkpt lat="46.43309" lon="5.81355">
        <ele>679</ele>
        <time>2019-05-19T17:29:19Z</time>
      </trkpt>
      <trkpt lat="46.4327" lon="5.81314">
        <ele>677</ele>
        <time>2019-05-19T17:29:28Z</time>
      </trkpt>
      <trkpt lat="46.43239" lon="5.81303">
        <ele>678</ele>
        <time>2019-05-19T17:29:34Z</time>
      </trkpt>
      <trkpt lat="46.43195" lon="5.81298">
        <ele>684</ele>
        <time>2019-05-19T17:29:42Z</time>
      </trkpt>
      <trkpt lat="46.43159" lon="5.81258">
        <ele>678</ele>
        <time>2019-05-19T17:29:50Z</time>
      </trkpt>
      <trkpt lat="46.43121" lon="5.81211">
        <ele>676</ele>
        <time>2019-05-19T17:29:58Z</time>
      </trkpt>
      <trkpt lat="46.43079" lon="5.8117">
        <ele>674</ele>
        <time>2019-05-19T17:30:07Z</time>
      </trkpt>
      <trkpt lat="46.43038" lon="5.81142">
        <ele>672</ele>
        <time>2019-05-19T17:30:16Z</time>
      </trkpt>
      <trkpt lat="46.42993" lon="5.8113">
        <ele>672</ele>
        <time>2019-05-19T17:30:24Z</time>
      </trkpt>
      <trkpt lat="46.42956" lon="5.81143">
        <ele>675</ele>
        <time>2019-05-19T17:30:30Z</time>
      </trkpt>
      <trkpt lat="46.42883" lon="5.81174">
        <ele>679</ele>
        <time>2019-05-19T17:30:44Z</time>
      </trkpt>
      <trkpt lat="46.42808" lon="5.81181">
        <ele>672</ele>
        <time>2019-05-19T17:30:57Z</time>
      </trkpt>
      <trkpt lat="46.42757" lon="5.8119">
        <ele>668</ele>
        <time>2019-05-19T17:31:07Z</time>
      </trkpt>
      <trkpt lat="46.42672" lon="5.81222">
        <ele>667</ele>
        <time>2019-05-19T17:31:22Z</time>
      </trkpt>
      <trkpt lat="46.42627" lon="5.81235">
        <ele>666</ele>
        <time>2019-05-19T17:31:30Z</time>
      </trkpt>
      <trkpt lat="46.42543" lon="5.81234">
        <ele>663</ele>
        <time>2019-05-19T17:31:45Z</time>
      </trkpt>
      <trkpt lat="46.42479" lon="5.81227">
        <ele>660</ele>
        <time>2019-05-19T17:31:57Z</time>
      </trkpt>
      <trkpt lat="46.42434" lon="5.81231">
        <ele>659</ele>
        <time>2019-05-19T17:32:05Z</time>
      </trkpt>
      <trkpt lat="46.4239" lon="5.81215">
        <ele>655</ele>
        <time>2019-05-19T17:32:13Z</time>
      </trkpt>
      <trkpt lat="46.42358" lon="5.81175">
        <ele>649</ele>
        <time>2019-05-19T17:32:20Z</time>
      </trkpt>
      <trkpt lat="46.42335" lon="5.81131">
        <ele>644</ele>
        <time>2019-05-19T17:32:27Z</time>
      </trkpt>
      <trkpt lat="46.42257" lon="5.81112">
        <ele>644</ele>
        <time>2019-05-19T17:32:41Z</time>
      </trkpt>
      <trkpt lat="46.42174" lon="5.81082">
        <ele>646</ele>
        <time>2019-05-19T17:32:56Z</time>
      </trkpt>
      <trkpt lat="46.42112" lon="5.8104">
        <ele>641</ele>
        <time>2019-05-19T17:33:09Z</time>
      </trkpt>
      <trkpt lat="46.42083" lon="5.80998">
        <ele>640</ele>
        <time>2019-05-19T17:33:16Z</time>
      </trkpt>
      <trkpt lat="46.42049" lon="5.80988">
        <ele>640</ele>
        <time>2019-05-19T17:33:22Z</time>
      </trkpt>
      <trkpt lat="46.42017" lon="5.8095">
        <ele>639</ele>
        <time>2019-05-19T17:33:29Z</time>
      </trkpt>
      <trkpt lat="46.41996" lon="5.80917">
        <ele>639</ele>
        <time>2019-05-19T17:33:35Z</time>
      </trkpt>
      <trkpt lat="46.41909" lon="5.80866">
        <ele>636</ele>
        <time>2019-05-19T17:33:52Z</time>
      </trkpt>
      <trkpt lat="46.41829" lon="5.80829">
        <ele>634</ele>
        <time>2019-05-19T17:34:06Z</time>
      </trkpt>
      <trkpt lat="46.41737" lon="5.80794">
        <ele>633</ele>
        <time>2019-05-19T17:34:23Z</time>
      </trkpt>
      <trkpt lat="46.41701" lon="5.80812">
        <ele>632</ele>
        <time>2019-05-19T17:34:30Z</time>
      </trkpt>
      <trkpt lat="46.41653" lon="5.80843">
        <ele>631</ele>
        <time>2019-05-19T17:34:40Z</time>
      </trkpt>
      <trkpt lat="46.41632" lon="5.80837">
        <ele>631</ele>
        <time>2019-05-19T17:34:43Z</time>
      </trkpt>
      <trkpt lat="46.41609" lon="5.80825">
        <ele>630</ele>
        <time>2019-05-19T17:34:48Z</time>
      </trkpt>
      <trkpt lat="46.41583" lon="5.80813">
        <ele>629</ele>
        <time>2019-05-19T17:34:53Z</time>
      </trkpt>
      <trkpt lat="46.41554" lon="5.8081">
        <ele>628</ele>
        <time>2019-05-19T17:34:58Z</time>
      </trkpt>
      <trkpt lat="46.41533" lon="5.80784">
        <ele>627</ele>
        <time>2019-05-19T17:35:03Z</time>
      </trkpt>
      <trkpt lat="46.41521" lon="5.80761">
        <ele>626</ele>
        <time>2019-05-19T17:35:06Z</time>
      </trkpt>
      <trkpt lat="46.41521" lon="5.80717">
        <ele>626</ele>
        <time>2019-05-19T17:35:12Z</time>
      </trkpt>
      <trkpt lat="46.41513" lon="5.8068">
        <ele>625</ele>
        <time>2019-05-19T17:35:16Z</time>
      </trkpt>
      <trkpt lat="46.41475" lon="5.80591">
        <ele>622</ele>
        <time>2019-05-19T17:35:29Z</time>
      </trkpt>
      <trkpt lat="46.41465" lon="5.80577">
        <ele>621</ele>
        <time>2019-05-19T17:35:32Z</time>
      </trkpt>
      <trkpt lat="46.4142" lon="5.80477">
        <ele>615</ele>
        <time>2019-05-19T17:35:46Z</time>
      </trkpt>
      <trkpt lat="46.41409" lon="5.80435">
        <ele>611</ele>
        <time>2019-05-19T17:35:52Z</time>
      </trkpt>
      <trkpt lat="46.41415" lon="5.80383">
        <ele>609</ele>
        <time>2019-05-19T17:35:58Z</time>
      </trkpt>
      <trkpt lat="46.41429" lon="5.80348">
        <ele>608</ele>
        <time>2019-05-19T17:36:03Z</time>
      </trkpt>
      <trkpt lat="46.41468" lon="5.80293">
        <ele>609</ele>
        <time>2019-05-19T17:36:13Z</time>
      </trkpt>
      <trkpt lat="46.41473" lon="5.80259">
        <ele>607</ele>
        <time>2019-05-19T17:36:17Z</time>
      </trkpt>
      <trkpt lat="46.41469" lon="5.80216">
        <ele>605</ele>
        <time>2019-05-19T17:36:22Z</time>
      </trkpt>
      <trkpt lat="46.41451" lon="5.80159">
        <ele>598</ele>
        <time>2019-05-19T17:36:30Z</time>
      </trkpt>
      <trkpt lat="46.41448" lon="5.80139">
        <ele>597</ele>
        <time>2019-05-19T17:36:33Z</time>
      </trkpt>
      <trkpt lat="46.41451" lon="5.8012">
        <ele>596</ele>
        <time>2019-05-19T17:36:35Z</time>
      </trkpt>
      <trkpt lat="46.4146" lon="5.80095">
        <ele>596</ele>
        <time>2019-05-19T17:36:39Z</time>
      </trkpt>
      <trkpt lat="46.41492" lon="5.80027">
        <ele>595</ele>
        <time>2019-05-19T17:36:49Z</time>
      </trkpt>
      <trkpt lat="46.41501" lon="5.8">
        <ele>593</ele>
        <time>2019-05-19T17:36:52Z</time>
      </trkpt>
      <trkpt lat="46.41497" lon="5.79981">
        <ele>593</ele>
        <time>2019-05-19T17:36:55Z</time>
      </trkpt>
      <trkpt lat="46.41488" lon="5.79953">
        <ele>592</ele>
        <time>2019-05-19T17:36:59Z</time>
      </trkpt>
      <trkpt lat="46.41475" lon="5.79919">
        <ele>592</ele>
        <time>2019-05-19T17:37:03Z</time>
      </trkpt>
      <trkpt lat="46.41464" lon="5.799">
        <ele>593</ele>
        <time>2019-05-19T17:37:06Z</time>
      </trkpt>
      <trkpt lat="46.41452" lon="5.7989">
        <ele>594</ele>
        <time>2019-05-19T17:37:09Z</time>
      </trkpt>
      <trkpt lat="46.41404" lon="5.79879">
        <ele>595</ele>
        <time>2019-05-19T17:37:17Z</time>
      </trkpt>
      <trkpt lat="46.41389" lon="5.79872">
        <ele>595</ele>
        <time>2019-05-19T17:37:20Z</time>
      </trkpt>
      <trkpt lat="46.41376" lon="5.79862">
        <ele>595</ele>
        <time>2019-05-19T17:37:23Z</time>
      </trkpt>
      <trkpt lat="46.41354" lon="5.79837">
        <ele>597</ele>
        <time>2019-05-19T17:37:28Z</time>
      </trkpt>
      <trkpt lat="46.41246" lon="5.79701">
        <ele>606</ele>
        <time>2019-05-19T17:37:53Z</time>
      </trkpt>
      <trkpt lat="46.41223" lon="5.79676">
        <ele>607</ele>
        <time>2019-05-19T17:37:58Z</time>
      </trkpt>
      <trkpt lat="46.4119" lon="5.79645">
        <ele>610</ele>
        <time>2019-05-19T17:38:05Z</time>
      </trkpt>
      <trkpt lat="46.41153" lon="5.79622">
        <ele>613</ele>
        <time>2019-05-19T17:38:13Z</time>
      </trkpt>
      <trkpt lat="46.41064" lon="5.79577">
        <ele>621</ele>
        <time>2019-05-19T17:38:29Z</time>
      </trkpt>
      <trkpt lat="46.40994" lon="5.79537">
        <ele>623</ele>
        <time>2019-05-19T17:38:43Z</time>
      </trkpt>
      <trkpt lat="46.40991" lon="5.79535">
        <ele>623</ele>
        <time>2019-05-19T17:38:43Z</time>
      </trkpt>
      <trkpt lat="46.40988" lon="5.79525">
        <ele>622</ele>
        <time>2019-05-19T17:38:45Z</time>
      </trkpt>
      <trkpt lat="46.40969" lon="5.79524">
        <ele>621</ele>
        <time>2019-05-19T17:38:48Z</time>
      </trkpt>
      <trkpt lat="46.40906" lon="5.79507">
        <ele>617</ele>
        <time>2019-05-19T17:38:59Z</time>
      </trkpt>
      <trkpt lat="46.40836" lon="5.79474">
        <ele>612</ele>
        <time>2019-05-19T17:39:13Z</time>
      </trkpt>
      <trkpt lat="46.40821" lon="5.79471">
        <ele>610</ele>
        <time>2019-05-19T17:39:15Z</time>
      </trkpt>
      <trkpt lat="46.40743" lon="5.79464">
        <ele>604</ele>
        <time>2019-05-19T17:39:29Z</time>
      </trkpt>
      <trkpt lat="46.40649" lon="5.79436">
        <ele>602</ele>
        <time>2019-05-19T17:39:46Z</time>
      </trkpt>
      <trkpt lat="46.40575" lon="5.79411">
        <ele>600</ele>
        <time>2019-05-19T17:40:00Z</time>
      </trkpt>
      <trkpt lat="46.40495" lon="5.79389">
        <ele>599</ele>
        <time>2019-05-19T17:40:14Z</time>
      </trkpt>
      <trkpt lat="46.40495" lon="5.79378">
        <ele>600</ele>
        <time>2019-05-19T17:40:16Z</time>
      </trkpt>
      <trkpt lat="46.40494" lon="5.7937">
        <ele>600</ele>
        <time>2019-05-19T17:40:17Z</time>
      </trkpt>
      <trkpt lat="46.40426" lon="5.79241">
        <ele>601</ele>
        <time>2019-05-19T17:40:36Z</time>
      </trkpt>
      <trkpt lat="46.40363" lon="5.79149">
        <ele>603</ele>
        <time>2019-05-19T17:40:52Z</time>
      </trkpt>
      <trkpt lat="46.40323" lon="5.79108">
        <ele>603</ele>
        <time>2019-05-19T17:41:01Z</time>
      </trkpt>
      <trkpt lat="46.40289" lon="5.79068">
        <ele>603</ele>
        <time>2019-05-19T17:41:09Z</time>
      </trkpt>
      <trkpt lat="46.40204" lon="5.78987">
        <ele>601</ele>
        <time>2019-05-19T17:41:27Z</time>
      </trkpt>
      <trkpt lat="46.40102" lon="5.78885">
        <ele>608</ele>
        <time>2019-05-19T17:41:49Z</time>
      </trkpt>
      <trkpt lat="46.40096" lon="5.78877">
        <ele>609</ele>
        <time>2019-05-19T17:41:51Z</time>
      </trkpt>
      <trkpt lat="46.40117" lon="5.78847">
        <ele>609</ele>
        <time>2019-05-19T17:41:56Z</time>
      </trkpt>
      <trkpt lat="46.40122" lon="5.78833">
        <ele>609</ele>
        <time>2019-05-19T17:41:58Z</time>
      </trkpt>
      <trkpt lat="46.40129" lon="5.78798">
        <ele>610</ele>
        <time>2019-05-19T17:42:02Z</time>
      </trkpt>
      <trkpt lat="46.40131" lon="5.78776">
        <ele>611</ele>
        <time>2019-05-19T17:42:05Z</time>
      </trkpt>
      <trkpt lat="46.4013" lon="5.78755">
        <ele>612</ele>
        <time>2019-05-19T17:42:07Z</time>
      </trkpt>
      <trkpt lat="46.4012" lon="5.78681">
        <ele>621</ele>
        <time>2019-05-19T17:42:17Z</time>
      </trkpt>
      <trkpt lat="46.40105" lon="5.78607">
        <ele>631</ele>
        <time>2019-05-19T17:42:26Z</time>
      </trkpt>
      <trkpt lat="46.40099" lon="5.78563">
        <ele>634</ele>
        <time>2019-05-19T17:42:32Z</time>
      </trkpt>
      <trkpt lat="46.40098" lon="5.78535">
        <ele>636</ele>
        <time>2019-05-19T17:42:35Z</time>
      </trkpt>
      <trkpt lat="46.40089" lon="5.78499">
        <ele>636</ele>
        <time>2019-05-19T17:42:40Z</time>
      </trkpt>
      <trkpt lat="46.40071" lon="5.78458">
        <ele>640</ele>
        <time>2019-05-19T17:42:46Z</time>
      </trkpt>
      <trkpt lat="46.40009" lon="5.78354">
        <ele>644</ele>
        <time>2019-05-19T17:43:03Z</time>
      </trkpt>
      <trkpt lat="46.39964" lon="5.78268">
        <ele>651</ele>
        <time>2019-05-19T17:43:16Z</time>
      </trkpt>
      <trkpt lat="46.39896" lon="5.78165">
        <ele>657</ele>
        <time>2019-05-19T17:43:33Z</time>
      </trkpt>
      <trkpt lat="46.39776" lon="5.77969">
        <ele>671</ele>
        <time>2019-05-19T17:44:06Z</time>
      </trkpt>
      <trkpt lat="46.39745" lon="5.77911">
        <ele>676</ele>
        <time>2019-05-19T17:44:15Z</time>
      </trkpt>
      <trkpt lat="46.39729" lon="5.77867">
        <ele>678</ele>
        <time>2019-05-19T17:44:21Z</time>
      </trkpt>
      <trkpt lat="46.39724" lon="5.77834">
        <ele>681</ele>
        <time>2019-05-19T17:44:25Z</time>
      </trkpt>
      <trkpt lat="46.39721" lon="5.77822">
        <ele>682</ele>
        <time>2019-05-19T17:44:26Z</time>
      </trkpt>
      <trkpt lat="46.39714" lon="5.77811">
        <ele>682</ele>
        <time>2019-05-19T17:44:28Z</time>
      </trkpt>
      <trkpt lat="46.39665" lon="5.77763">
        <ele>683</ele>
        <time>2019-05-19T17:44:39Z</time>
      </trkpt>
      <trkpt lat="46.39634" lon="5.77716">
        <ele>683</ele>
        <time>2019-05-19T17:44:47Z</time>
      </trkpt>
      <trkpt lat="46.39617" lon="5.77682">
        <ele>683</ele>
        <time>2019-05-19T17:44:52Z</time>
      </trkpt>
      <trkpt lat="46.396" lon="5.7764">
        <ele>683</ele>
        <time>2019-05-19T17:44:58Z</time>
      </trkpt>
      <trkpt lat="46.39589" lon="5.77605">
        <ele>683</ele>
        <time>2019-05-19T17:45:03Z</time>
      </trkpt>
      <trkpt lat="46.39583" lon="5.77578">
        <ele>684</ele>
        <time>2019-05-19T17:45:06Z</time>
      </trkpt>
      <trkpt lat="46.3957" lon="5.77578">
        <ele>682</ele>
        <time>2019-05-19T17:45:08Z</time>
      </trkpt>
      <trkpt lat="46.39518" lon="5.77551">
        <ele>678</ele>
        <time>2019-05-19T17:45:18Z</time>
      </trkpt>
      <trkpt lat="46.39501" lon="5.77533">
        <ele>677</ele>
        <time>2019-05-19T17:45:22Z</time>
      </trkpt>
      <trkpt lat="46.39484" lon="5.77505">
        <ele>676</ele>
        <time>2019-05-19T17:45:27Z</time>
      </trkpt>
      <trkpt lat="46.39426" lon="5.7744">
        <ele>671</ele>
        <time>2019-05-19T17:45:40Z</time>
      </trkpt>
      <trkpt lat="46.39407" lon="5.77415">
        <ele>670</ele>
        <time>2019-05-19T17:45:44Z</time>
      </trkpt>
      <trkpt lat="46.39393" lon="5.77366">
        <ele>669</ele>
        <time>2019-05-19T17:45:51Z</time>
      </trkpt>
      <trkpt lat="46.39381" lon="5.77353">
        <ele>667</ele>
        <time>2019-05-19T17:45:53Z</time>
      </trkpt>
      <trkpt lat="46.39305" lon="5.77294">
        <ele>660</ele>
        <time>2019-05-19T17:46:09Z</time>
      </trkpt>
      <trkpt lat="46.39221" lon="5.77204">
        <ele>656</ele>
        <time>2019-05-19T17:46:27Z</time>
      </trkpt>
      <trkpt lat="46.39155" lon="5.77162">
        <ele>652</ele>
        <time>2019-05-19T17:46:40Z</time>
      </trkpt>
      <trkpt lat="46.39122" lon="5.77138">
        <ele>650</ele>
        <time>2019-05-19T17:46:47Z</time>
      </trkpt>
      <trkpt lat="46.3908" lon="5.77085">
        <ele>648</ele>
        <time>2019-05-19T17:46:57Z</time>
      </trkpt>
      <trkpt lat="46.39048" lon="5.77059">
        <ele>645</ele>
        <time>2019-05-19T17:47:03Z</time>
      </trkpt>
      <trkpt lat="46.39014" lon="5.77044">
        <ele>642</ele>
        <time>2019-05-19T17:47:09Z</time>
      </trkpt>
      <trkpt lat="46.38988" lon="5.77037">
        <ele>639</ele>
        <time>2019-05-19T17:47:14Z</time>
      </trkpt>
      <trkpt lat="46.38979" lon="5.77038">
        <ele>639</ele>
        <time>2019-05-19T17:47:16Z</time>
      </trkpt>
      <trkpt lat="46.38968" lon="5.77028">
        <ele>638</ele>
        <time>2019-05-19T17:47:18Z</time>
      </trkpt>
      <trkpt lat="46.38964" lon="5.7702">
        <ele>638</ele>
        <time>2019-05-19T17:47:19Z</time>
      </trkpt>
      <trkpt lat="46.3896" lon="5.76951">
        <ele>641</ele>
        <time>2019-05-19T17:47:28Z</time>
      </trkpt>
      <trkpt lat="46.38957" lon="5.76938">
        <ele>642</ele>
        <time>2019-05-19T17:47:29Z</time>
      </trkpt>
      <trkpt lat="46.3895" lon="5.76921">
        <ele>642</ele>
        <time>2019-05-19T17:47:32Z</time>
      </trkpt>
      <trkpt lat="46.38934" lon="5.76892">
        <ele>645</ele>
        <time>2019-05-19T17:47:36Z</time>
      </trkpt>
      <trkpt lat="46.38932" lon="5.76875">
        <ele>646</ele>
        <time>2019-05-19T17:47:38Z</time>
      </trkpt>
      <trkpt lat="46.38939" lon="5.76813">
        <ele>653</ele>
        <time>2019-05-19T17:47:46Z</time>
      </trkpt>
      <trkpt lat="46.38939" lon="5.76799">
        <ele>654</ele>
        <time>2019-05-19T17:47:48Z</time>
      </trkpt>
      <trkpt lat="46.38936" lon="5.76785">
        <ele>655</ele>
        <time>2019-05-19T17:47:50Z</time>
      </trkpt>
      <trkpt lat="46.38927" lon="5.76764">
        <ele>657</ele>
        <time>2019-05-19T17:47:53Z</time>
      </trkpt>
      <trkpt lat="46.38881" lon="5.76707">
        <ele>660</ele>
        <time>2019-05-19T17:48:04Z</time>
      </trkpt>
      <trkpt lat="46.38818" lon="5.76639">
        <ele>674</ele>
        <time>2019-05-19T17:48:17Z</time>
      </trkpt>
      <trkpt lat="46.38801" lon="5.76622">
        <ele>679</ele>
        <time>2019-05-19T17:48:21Z</time>
      </trkpt>
      <trkpt lat="46.38772" lon="5.76607">
        <ele>682</ele>
        <time>2019-05-19T17:48:27Z</time>
      </trkpt>
      <trkpt lat="46.38756" lon="5.76607">
        <ele>680</ele>
        <time>2019-05-19T17:48:29Z</time>
      </trkpt>
      <trkpt lat="46.38739" lon="5.76609">
        <ele>679</ele>
        <time>2019-05-19T17:48:33Z</time>
      </trkpt>
      <trkpt lat="46.38712" lon="5.76618">
        <ele>676</ele>
        <time>2019-05-19T17:48:37Z</time>
      </trkpt>
      <trkpt lat="46.38685" lon="5.76615">
        <ele>676</ele>
        <time>2019-05-19T17:48:42Z</time>
      </trkpt>
      <trkpt lat="46.38633" lon="5.76603">
        <ele>675</ele>
        <time>2019-05-19T17:48:52Z</time>
      </trkpt>
      <trkpt lat="46.3859" lon="5.76581">
        <ele>675</ele>
        <time>2019-05-19T17:49:00Z</time>
      </trkpt>
      <trkpt lat="46.3855" lon="5.76553">
        <ele>677</ele>
        <time>2019-05-19T17:49:08Z</time>
      </trkpt>
      <trkpt lat="46.38526" lon="5.76504">
        <ele>685</ele>
        <time>2019-05-19T17:49:15Z</time>
      </trkpt>
      <trkpt lat="46.38491" lon="5.76466">
        <ele>693</ele>
        <time>2019-05-19T17:49:23Z</time>
      </trkpt>
      <trkpt lat="46.38297" lon="5.76332">
        <ele>700</ele>
        <time>2019-05-19T17:50:01Z</time>
      </trkpt>
      <trkpt lat="46.38239" lon="5.76312">
        <ele>697</ele>
        <time>2019-05-19T17:50:12Z</time>
      </trkpt>
      <trkpt lat="46.38164" lon="5.763">
        <ele>699</ele>
        <time>2019-05-19T17:50:25Z</time>
      </trkpt>
      <trkpt lat="46.38075" lon="5.76273">
        <ele>702</ele>
        <time>2019-05-19T17:50:41Z</time>
      </trkpt>
      <trkpt lat="46.37977" lon="5.762">
        <ele>703</ele>
        <time>2019-05-19T17:51:01Z</time>
      </trkpt>
      <trkpt lat="46.37952" lon="5.76199">
        <ele>703</ele>
        <time>2019-05-19T17:51:05Z</time>
      </trkpt>
      <trkpt lat="46.37927" lon="5.76212">
        <ele>700</ele>
        <time>2019-05-19T17:51:10Z</time>
      </trkpt>
      <trkpt lat="46.37876" lon="5.7625">
        <ele>694</ele>
        <time>2019-05-19T17:51:20Z</time>
      </trkpt>
      <trkpt lat="46.37853" lon="5.7626">
        <ele>694</ele>
        <time>2019-05-19T17:51:25Z</time>
      </trkpt>
      <trkpt lat="46.37834" lon="5.76274">
        <ele>694</ele>
        <time>2019-05-19T17:51:28Z</time>
      </trkpt>
      <trkpt lat="46.37814" lon="5.7631">
        <ele>688</ele>
        <time>2019-05-19T17:51:34Z</time>
      </trkpt>
      <trkpt lat="46.37805" lon="5.76321">
        <ele>686</ele>
        <time>2019-05-19T17:51:36Z</time>
      </trkpt>
      <trkpt lat="46.37793" lon="5.76318">
        <ele>686</ele>
        <time>2019-05-19T17:51:38Z</time>
      </trkpt>
      <trkpt lat="46.37765" lon="5.76294">
        <ele>685</ele>
        <time>2019-05-19T17:51:44Z</time>
      </trkpt>
      <trkpt lat="46.3775" lon="5.76278">
        <ele>685</ele>
        <time>2019-05-19T17:51:47Z</time>
      </trkpt>
      <trkpt lat="46.37671" lon="5.76148">
        <ele>686</ele>
        <time>2019-05-19T17:52:09Z</time>
      </trkpt>
      <trkpt lat="46.37644" lon="5.76099">
        <ele>688</ele>
        <time>2019-05-19T17:52:16Z</time>
      </trkpt>
      <trkpt lat="46.37629" lon="5.76096">
        <ele>685</ele>
        <time>2019-05-19T17:52:19Z</time>
      </trkpt>
      <trkpt lat="46.37634" lon="5.76069">
        <ele>689</ele>
        <time>2019-05-19T17:52:22Z</time>
      </trkpt>
      <trkpt lat="46.37634" lon="5.76053">
        <ele>691</ele>
        <time>2019-05-19T17:52:24Z</time>
      </trkpt>
      <trkpt lat="46.3763" lon="5.76032">
        <ele>692</ele>
        <time>2019-05-19T17:52:27Z</time>
      </trkpt>
      <trkpt lat="46.37592" lon="5.75945">
        <ele>690</ele>
        <time>2019-05-19T17:52:40Z</time>
      </trkpt>
      <trkpt lat="46.37566" lon="5.75876">
        <ele>694</ele>
        <time>2019-05-19T17:52:49Z</time>
      </trkpt>
      <trkpt lat="46.37559" lon="5.75851">
        <ele>696</ele>
        <time>2019-05-19T17:52:53Z</time>
      </trkpt>
      <trkpt lat="46.37554" lon="5.75823">
        <ele>698</ele>
        <time>2019-05-19T17:52:56Z</time>
      </trkpt>
      <trkpt lat="46.37552" lon="5.7578">
        <ele>702</ele>
        <time>2019-05-19T17:53:02Z</time>
      </trkpt>
      <trkpt lat="46.37554" lon="5.75737">
        <ele>708</ele>
        <time>2019-05-19T17:53:07Z</time>
      </trkpt>
      <trkpt lat="46.37558" lon="5.75714">
        <ele>711</ele>
        <time>2019-05-19T17:53:10Z</time>
      </trkpt>
      <trkpt lat="46.37566" lon="5.75682">
        <ele>715</ele>
        <time>2019-05-19T17:53:14Z</time>
      </trkpt>
      <trkpt lat="46.37584" lon="5.75637">
        <ele>715</ele>
        <time>2019-05-19T17:53:20Z</time>
      </trkpt>
      <trkpt lat="46.37598" lon="5.75613">
        <ele>715</ele>
        <time>2019-05-19T17:53:24Z</time>
      </trkpt>
      <trkpt lat="46.37615" lon="5.7559">
        <ele>715</ele>
        <time>2019-05-19T17:53:28Z</time>
      </trkpt>
      <trkpt lat="46.37644" lon="5.75562">
        <ele>714</ele>
        <time>2019-05-19T17:53:34Z</time>
      </trkpt>
      <trkpt lat="46.37656" lon="5.75555">
        <ele>714</ele>
        <time>2019-05-19T17:53:37Z</time>
      </trkpt>
      <trkpt lat="46.37762" lon="5.755">
        <ele>719</ele>
        <time>2019-05-19T17:53:57Z</time>
      </trkpt>
      <trkpt lat="46.37857" lon="5.75441">
        <ele>725</ele>
        <time>2019-05-19T17:54:15Z</time>
      </trkpt>
      <trkpt lat="46.38031" lon="5.75324">
        <ele>724</ele>
        <time>2019-05-19T17:54:49Z</time>
      </trkpt>
      <trkpt lat="46.38074" lon="5.75287">
        <ele>725</ele>
        <time>2019-05-19T17:54:58Z</time>
      </trkpt>
      <trkpt lat="46.38155" lon="5.75162">
        <ele>729</ele>
        <time>2019-05-19T17:55:19Z</time>
      </trkpt>
      <trkpt lat="46.38257" lon="5.75025">
        <ele>735</ele>
        <time>2019-05-19T17:55:44Z</time>
      </trkpt>
      <trkpt lat="46.38306" lon="5.74951">
        <ele>736</ele>
        <time>2019-05-19T17:55:57Z</time>
      </trkpt>
      <trkpt lat="46.3843" lon="5.74683">
        <ele>735</ele>
        <time>2019-05-19T17:56:36Z</time>
      </trkpt>
      <trkpt lat="46.38478" lon="5.74599">
        <ele>739</ele>
        <time>2019-05-19T17:56:50Z</time>
      </trkpt>
      <trkpt lat="46.38509" lon="5.74565">
        <ele>741</ele>
        <time>2019-05-19T17:56:57Z</time>
      </trkpt>
      <trkpt lat="46.38545" lon="5.74537">
        <ele>743</ele>
        <time>2019-05-19T17:57:04Z</time>
      </trkpt>
      <trkpt lat="46.38635" lon="5.74483">
        <ele>749</ele>
        <time>2019-05-19T17:57:21Z</time>
      </trkpt>
      <trkpt lat="46.38714" lon="5.74428">
        <ele>753</ele>
        <time>2019-05-19T17:57:37Z</time>
      </trkpt>
      <trkpt lat="46.38868" lon="5.74289">
        <ele>763</ele>
        <time>2019-05-19T17:58:09Z</time>
      </trkpt>
      <trkpt lat="46.39017" lon="5.74179">
        <ele>763</ele>
        <time>2019-05-19T17:58:39Z</time>
      </trkpt>
      <trkpt lat="46.39047" lon="5.74151">
        <ele>760</ele>
        <time>2019-05-19T17:58:45Z</time>
      </trkpt>
      <trkpt lat="46.39078" lon="5.74116">
        <ele>753</ele>
        <time>2019-05-19T17:58:52Z</time>
      </trkpt>
      <trkpt lat="46.39177" lon="5.73991">
        <ele>738</ele>
        <time>2019-05-19T17:59:15Z</time>
      </trkpt>
      <trkpt lat="46.39244" lon="5.73931">
        <ele>731</ele>
        <time>2019-05-19T17:59:29Z</time>
      </trkpt>
      <trkpt lat="46.39297" lon="5.73896">
        <ele>728</ele>
        <time>2019-05-19T17:59:40Z</time>
      </trkpt>
      <trkpt lat="46.39382" lon="5.73858">
        <ele>725</ele>
        <time>2019-05-19T17:59:56Z</time>
      </trkpt>
      <trkpt lat="46.39406" lon="5.73843">
        <ele>724</ele>
        <time>2019-05-19T18:00:00Z</time>
      </trkpt>
      <trkpt lat="46.3943" lon="5.73822">
        <ele>727</ele>
        <time>2019-05-19T18:00:05Z</time>
      </trkpt>
      <trkpt lat="46.39462" lon="5.73783">
        <ele>733</ele>
        <time>2019-05-19T18:00:13Z</time>
      </trkpt>
      <trkpt lat="46.39581" lon="5.73596">
        <ele>711</ele>
        <time>2019-05-19T18:00:44Z</time>
      </trkpt>
      <trkpt lat="46.39606" lon="5.73569">
        <ele>708</ele>
        <time>2019-05-19T18:00:49Z</time>
      </trkpt>
      <trkpt lat="46.39633" lon="5.73547">
        <ele>706</ele>
        <time>2019-05-19T18:00:55Z</time>
      </trkpt>
      <trkpt lat="46.39658" lon="5.73535">
        <ele>705</ele>
        <time>2019-05-19T18:01:00Z</time>
      </trkpt>
      <trkpt lat="46.39711" lon="5.73515">
        <ele>704</ele>
        <time>2019-05-19T18:01:09Z</time>
      </trkpt>
      <trkpt lat="46.39732" lon="5.73502">
        <ele>703</ele>
        <time>2019-05-19T18:01:13Z</time>
      </trkpt>
      <trkpt lat="46.3979" lon="5.73457">
        <ele>699</ele>
        <time>2019-05-19T18:01:25Z</time>
      </trkpt>
      <trkpt lat="46.39838" lon="5.73432">
        <ele>697</ele>
        <time>2019-05-19T18:01:34Z</time>
      </trkpt>
      <trkpt lat="46.3989" lon="5.73409">
        <ele>694</ele>
        <time>2019-05-19T18:01:44Z</time>
      </trkpt>
      <trkpt lat="46.3997" lon="5.73387">
        <ele>690</ele>
        <time>2019-05-19T18:01:58Z</time>
      </trkpt>
      <trkpt lat="46.40116" lon="5.73384">
        <ele>684</ele>
        <time>2019-05-19T18:02:24Z</time>
      </trkpt>
      <trkpt lat="46.40226" lon="5.73389">
        <ele>682</ele>
        <time>2019-05-19T18:02:44Z</time>
      </trkpt>
      <trkpt lat="46.40555" lon="5.73426">
        <ele>682</ele>
        <time>2019-05-19T18:03:43Z</time>
      </trkpt>
      <trkpt lat="46.40835" lon="5.73446">
        <ele>677</ele>
        <time>2019-05-19T18:04:33Z</time>
      </trkpt>
      <trkpt lat="46.40849" lon="5.73444">
        <ele>676</ele>
        <time>2019-05-19T18:04:35Z</time>
      </trkpt>
      <trkpt lat="46.40884" lon="5.73431">
        <ele>673</ele>
        <time>2019-05-19T18:04:42Z</time>
      </trkpt>
      <trkpt lat="46.40912" lon="5.73412">
        <ele>670</ele>
        <time>2019-05-19T18:04:47Z</time>
      </trkpt>
      <trkpt lat="46.40939" lon="5.73388">
        <ele>665</ele>
        <time>2019-05-19T18:04:53Z</time>
      </trkpt>
      <trkpt lat="46.40957" lon="5.73358">
        <ele>661</ele>
        <time>2019-05-19T18:04:58Z</time>
      </trkpt>
      <trkpt lat="46.40975" lon="5.73326">
        <ele>656</ele>
        <time>2019-05-19T18:05:03Z</time>
      </trkpt>
      <trkpt lat="46.41195" lon="5.72745">
        <ele>660</ele>
        <time>2019-05-19T18:06:24Z</time>
      </trkpt>
      <trkpt lat="46.41228" lon="5.72664">
        <ele>668</ele>
        <time>2019-05-19T18:06:35Z</time>
      </trkpt>
      <trkpt lat="46.41261" lon="5.726">
        <ele>668</ele>
        <time>2019-05-19T18:06:45Z</time>
      </trkpt>
      <trkpt lat="46.41304" lon="5.72541">
        <ele>668</ele>
        <time>2019-05-19T18:06:56Z</time>
      </trkpt>
      <trkpt lat="46.41334" lon="5.72496">
        <ele>665</ele>
        <time>2019-05-19T18:07:03Z</time>
      </trkpt>
      <trkpt lat="46.41348" lon="5.7245">
        <ele>660</ele>
        <time>2019-05-19T18:07:10Z</time>
      </trkpt>
      <trkpt lat="46.41351" lon="5.72391">
        <ele>654</ele>
        <time>2019-05-19T18:07:17Z</time>
      </trkpt>
      <trkpt lat="46.41358" lon="5.72383">
        <ele>654</ele>
        <time>2019-05-19T18:07:18Z</time>
      </trkpt>
      <trkpt lat="46.41364" lon="5.72373">
        <ele>654</ele>
        <time>2019-05-19T18:07:20Z</time>
      </trkpt>
      <trkpt lat="46.41367" lon="5.72361">
        <ele>653</ele>
        <time>2019-05-19T18:07:22Z</time>
      </trkpt>
      <trkpt lat="46.41368" lon="5.72349">
        <ele>652</ele>
        <time>2019-05-19T18:07:23Z</time>
      </trkpt>
      <trkpt lat="46.41364" lon="5.72328">
        <ele>651</ele>
        <time>2019-05-19T18:07:26Z</time>
      </trkpt>
      <trkpt lat="46.4136" lon="5.7232">
        <ele>651</ele>
        <time>2019-05-19T18:07:27Z</time>
      </trkpt>
      <trkpt lat="46.41353" lon="5.72311">
        <ele>650</ele>
        <time>2019-05-19T18:07:29Z</time>
      </trkpt>
      <trkpt lat="46.41343" lon="5.72305">
        <ele>650</ele>
        <time>2019-05-19T18:07:31Z</time>
      </trkpt>
      <trkpt lat="46.41333" lon="5.72304">
        <ele>650</ele>
        <time>2019-05-19T18:07:32Z</time>
      </trkpt>
      <trkpt lat="46.4132" lon="5.7231">
        <ele>650</ele>
        <time>2019-05-19T18:07:35Z</time>
      </trkpt>
      <trkpt lat="46.41304" lon="5.72307">
        <ele>651</ele>
        <time>2019-05-19T18:07:38Z</time>
      </trkpt>
      <trkpt lat="46.41291" lon="5.72289">
        <ele>652</ele>
        <time>2019-05-19T18:07:41Z</time>
      </trkpt>
      <trkpt lat="46.41287" lon="5.72262">
        <ele>651</ele>
        <time>2019-05-19T18:07:44Z</time>
      </trkpt>
      <trkpt lat="46.41289" lon="5.72249">
        <ele>651</ele>
        <time>2019-05-19T18:07:46Z</time>
      </trkpt>
      <trkpt lat="46.41304" lon="5.72196">
        <ele>653</ele>
        <time>2019-05-19T18:07:53Z</time>
      </trkpt>
      <trkpt lat="46.41321" lon="5.72083">
        <ele>662</ele>
        <time>2019-05-19T18:08:07Z</time>
      </trkpt>
      <trkpt lat="46.41334" lon="5.72017">
        <ele>671</ele>
        <time>2019-05-19T18:08:16Z</time>
      </trkpt>
      <trkpt lat="46.41376" lon="5.71894">
        <ele>670</ele>
        <time>2019-05-19T18:08:32Z</time>
      </trkpt>
      <trkpt lat="46.41375" lon="5.71873">
        <ele>669</ele>
        <time>2019-05-19T18:08:35Z</time>
      </trkpt>
      <trkpt lat="46.41368" lon="5.7184">
        <ele>670</ele>
        <time>2019-05-19T18:08:39Z</time>
      </trkpt>
      <trkpt lat="46.41358" lon="5.71803">
        <ele>669</ele>
        <time>2019-05-19T18:08:44Z</time>
      </trkpt>
      <trkpt lat="46.41349" lon="5.71784">
        <ele>669</ele>
        <time>2019-05-19T18:08:47Z</time>
      </trkpt>
      <trkpt lat="46.4134" lon="5.71771">
        <ele>669</ele>
        <time>2019-05-19T18:08:49Z</time>
      </trkpt>
      <trkpt lat="46.41279" lon="5.7171">
        <ele>680</ele>
        <time>2019-05-19T18:09:02Z</time>
      </trkpt>
      <trkpt lat="46.41269" lon="5.71693">
        <ele>681</ele>
        <time>2019-05-19T18:09:05Z</time>
      </trkpt>
      <trkpt lat="46.41264" lon="5.71675">
        <ele>680</ele>
        <time>2019-05-19T18:09:07Z</time>
      </trkpt>
      <trkpt lat="46.41262" lon="5.71655">
        <ele>679</ele>
        <time>2019-05-19T18:09:10Z</time>
      </trkpt>
      <trkpt lat="46.41266" lon="5.71596">
        <ele>672</ele>
        <time>2019-05-19T18:09:17Z</time>
      </trkpt>
      <trkpt lat="46.41264" lon="5.71573">
        <ele>671</ele>
        <time>2019-05-19T18:09:20Z</time>
      </trkpt>
      <trkpt lat="46.41224" lon="5.71419">
        <ele>674</ele>
        <time>2019-05-19T18:09:40Z</time>
      </trkpt>
      <trkpt lat="46.41214" lon="5.71392">
        <ele>677</ele>
        <time>2019-05-19T18:09:44Z</time>
      </trkpt>
      <trkpt lat="46.41207" lon="5.7138">
        <ele>679</ele>
        <time>2019-05-19T18:09:46Z</time>
      </trkpt>
      <trkpt lat="46.41197" lon="5.71372">
        <ele>680</ele>
        <time>2019-05-19T18:09:48Z</time>
      </trkpt>
      <trkpt lat="46.41183" lon="5.71366">
        <ele>682</ele>
        <time>2019-05-19T18:09:51Z</time>
      </trkpt>
      <trkpt lat="46.4115" lon="5.71366">
        <ele>684</ele>
        <time>2019-05-19T18:09:56Z</time>
      </trkpt>
      <trkpt lat="46.41125" lon="5.71362">
        <ele>685</ele>
        <time>2019-05-19T18:10:01Z</time>
      </trkpt>
      <trkpt lat="46.4108" lon="5.71348">
        <ele>687</ele>
        <time>2019-05-19T18:10:09Z</time>
      </trkpt>
      <trkpt lat="46.40945" lon="5.71298">
        <ele>700</ele>
        <time>2019-05-19T18:10:34Z</time>
      </trkpt>
      <trkpt lat="46.40923" lon="5.71295">
        <ele>701</ele>
        <time>2019-05-19T18:10:38Z</time>
      </trkpt>
      <trkpt lat="46.40887" lon="5.71298">
        <ele>702</ele>
        <time>2019-05-19T18:10:44Z</time>
      </trkpt>
      <trkpt lat="46.4088" lon="5.71294">
        <ele>703</ele>
        <time>2019-05-19T18:10:46Z</time>
      </trkpt>
      <trkpt lat="46.40872" lon="5.71284">
        <ele>704</ele>
        <time>2019-05-19T18:10:47Z</time>
      </trkpt>
      <trkpt lat="46.40869" lon="5.71276">
        <ele>705</ele>
        <time>2019-05-19T18:10:49Z</time>
      </trkpt>
      <trkpt lat="46.40869" lon="5.71268">
        <ele>705</ele>
        <time>2019-05-19T18:10:50Z</time>
      </trkpt>
      <trkpt lat="46.40873" lon="5.71255">
        <ele>706</ele>
        <time>2019-05-19T18:10:51Z</time>
      </trkpt>
      <trkpt lat="46.40878" lon="5.7125">
        <ele>707</ele>
        <time>2019-05-19T18:10:52Z</time>
      </trkpt>
      <trkpt lat="46.40886" lon="5.71247">
        <ele>707</ele>
        <time>2019-05-19T18:10:54Z</time>
      </trkpt>
      <trkpt lat="46.40896" lon="5.7125">
        <ele>707</ele>
        <time>2019-05-19T18:10:56Z</time>
      </trkpt>
      <trkpt lat="46.40923" lon="5.71261">
        <ele>705</ele>
        <time>2019-05-19T18:11:01Z</time>
      </trkpt>
      <trkpt lat="46.40934" lon="5.71262">
        <ele>705</ele>
        <time>2019-05-19T18:11:03Z</time>
      </trkpt>
      <trkpt lat="46.40943" lon="5.7126">
        <ele>705</ele>
        <time>2019-05-19T18:11:04Z</time>
      </trkpt>
      <trkpt lat="46.40964" lon="5.71249">
        <ele>706</ele>
        <time>2019-05-19T18:11:08Z</time>
      </trkpt>
      <trkpt lat="46.41003" lon="5.71219">
        <ele>711</ele>
        <time>2019-05-19T18:11:16Z</time>
      </trkpt>
      <trkpt lat="46.4102" lon="5.71199">
        <ele>713</ele>
        <time>2019-05-19T18:11:20Z</time>
      </trkpt>
      <trkpt lat="46.41049" lon="5.71154">
        <ele>719</ele>
        <time>2019-05-19T18:11:28Z</time>
      </trkpt>
      <trkpt lat="46.41062" lon="5.71126">
        <ele>721</ele>
        <time>2019-05-19T18:11:32Z</time>
      </trkpt>
      <trkpt lat="46.41083" lon="5.71046">
        <ele>726</ele>
        <time>2019-05-19T18:11:42Z</time>
      </trkpt>
      <trkpt lat="46.41116" lon="5.70955">
        <ele>727</ele>
        <time>2019-05-19T18:11:55Z</time>
      </trkpt>
      <trkpt lat="46.41144" lon="5.70893">
        <ele>726</ele>
        <time>2019-05-19T18:12:04Z</time>
      </trkpt>
      <trkpt lat="46.41149" lon="5.70878">
        <ele>725</ele>
        <time>2019-05-19T18:12:06Z</time>
      </trkpt>
      <trkpt lat="46.41153" lon="5.70848">
        <ele>726</ele>
        <time>2019-05-19T18:12:10Z</time>
      </trkpt>
      <trkpt lat="46.41158" lon="5.70824">
        <ele>726</ele>
        <time>2019-05-19T18:12:13Z</time>
      </trkpt>
      <trkpt lat="46.41173" lon="5.70787">
        <ele>726</ele>
        <time>2019-05-19T18:12:18Z</time>
      </trkpt>
      <trkpt lat="46.41193" lon="5.70744">
        <ele>724</ele>
        <time>2019-05-19T18:12:24Z</time>
      </trkpt>
      <trkpt lat="46.41208" lon="5.70706">
        <ele>723</ele>
        <time>2019-05-19T18:12:30Z</time>
      </trkpt>
      <trkpt lat="46.41217" lon="5.70669">
        <ele>724</ele>
        <time>2019-05-19T18:12:35Z</time>
      </trkpt>
      <trkpt lat="46.41222" lon="5.70596">
        <ele>722</ele>
        <time>2019-05-19T18:12:44Z</time>
      </trkpt>
      <trkpt lat="46.41223" lon="5.70492">
        <ele>721</ele>
        <time>2019-05-19T18:12:56Z</time>
      </trkpt>
      <trkpt lat="46.41221" lon="5.70469">
        <ele>722</ele>
        <time>2019-05-19T18:12:59Z</time>
      </trkpt>
      <trkpt lat="46.41218" lon="5.70449">
        <ele>722</ele>
        <time>2019-05-19T18:13:02Z</time>
      </trkpt>
      <trkpt lat="46.41194" lon="5.70352">
        <ele>720</ele>
        <time>2019-05-19T18:13:14Z</time>
      </trkpt>
      <trkpt lat="46.41182" lon="5.70292">
        <ele>719</ele>
        <time>2019-05-19T18:13:22Z</time>
      </trkpt>
      <trkpt lat="46.41177" lon="5.70278">
        <ele>719</ele>
        <time>2019-05-19T18:13:24Z</time>
      </trkpt>
      <trkpt lat="46.41154" lon="5.70246">
        <ele>720</ele>
        <time>2019-05-19T18:13:30Z</time>
      </trkpt>
      <trkpt lat="46.41149" lon="5.70231">
        <ele>721</ele>
        <time>2019-05-19T18:13:32Z</time>
      </trkpt>
      <trkpt lat="46.41147" lon="5.70215">
        <ele>721</ele>
        <time>2019-05-19T18:13:34Z</time>
      </trkpt>
      <trkpt lat="46.41149" lon="5.70152">
        <ele>721</ele>
        <time>2019-05-19T18:13:41Z</time>
      </trkpt>
      <trkpt lat="46.41148" lon="5.70121">
        <ele>721</ele>
        <time>2019-05-19T18:13:45Z</time>
      </trkpt>
      <trkpt lat="46.41142" lon="5.70081">
        <ele>721</ele>
        <time>2019-05-19T18:13:50Z</time>
      </trkpt>
      <trkpt lat="46.41132" lon="5.70035">
        <ele>722</ele>
        <time>2019-05-19T18:13:56Z</time>
      </trkpt>
      <trkpt lat="46.41128" lon="5.70002">
        <ele>722</ele>
        <time>2019-05-19T18:14:00Z</time>
      </trkpt>
      <trkpt lat="46.41126" lon="5.69907">
        <ele>715</ele>
        <time>2019-05-19T18:14:12Z</time>
      </trkpt>
      <trkpt lat="46.41124" lon="5.69896">
        <ele>714</ele>
        <time>2019-05-19T18:14:13Z</time>
      </trkpt>
      <trkpt lat="46.4112" lon="5.69887">
        <ele>714</ele>
        <time>2019-05-19T18:14:15Z</time>
      </trkpt>
      <trkpt lat="46.41113" lon="5.69877">
        <ele>714</ele>
        <time>2019-05-19T18:14:16Z</time>
      </trkpt>
      <trkpt lat="46.41106" lon="5.69873">
        <ele>714</ele>
        <time>2019-05-19T18:14:18Z</time>
      </trkpt>
      <trkpt lat="46.41064" lon="5.69867">
        <ele>718</ele>
        <time>2019-05-19T18:14:25Z</time>
      </trkpt>
      <trkpt lat="46.41054" lon="5.69863">
        <ele>719</ele>
        <time>2019-05-19T18:14:27Z</time>
      </trkpt>
      <trkpt lat="46.4104" lon="5.69849">
        <ele>719</ele>
        <time>2019-05-19T18:14:30Z</time>
      </trkpt>
      <trkpt lat="46.41028" lon="5.69829">
        <ele>718</ele>
        <time>2019-05-19T18:14:33Z</time>
      </trkpt>
      <trkpt lat="46.41014" lon="5.69801">
        <ele>715</ele>
        <time>2019-05-19T18:14:38Z</time>
      </trkpt>
      <trkpt lat="46.40998" lon="5.6976">
        <ele>709</ele>
        <time>2019-05-19T18:14:43Z</time>
      </trkpt>
      <trkpt lat="46.40975" lon="5.69708">
        <ele>704</ele>
        <time>2019-05-19T18:14:51Z</time>
      </trkpt>
      <trkpt lat="46.4095" lon="5.69682">
        <ele>703</ele>
        <time>2019-05-19T18:14:56Z</time>
      </trkpt>
      <trkpt lat="46.4094" lon="5.69669">
        <ele>703</ele>
        <time>2019-05-19T18:14:59Z</time>
      </trkpt>
      <trkpt lat="46.40932" lon="5.69646">
        <ele>701</ele>
        <time>2019-05-19T18:15:02Z</time>
      </trkpt>
      <trkpt lat="46.40924" lon="5.69604">
        <ele>699</ele>
        <time>2019-05-19T18:15:07Z</time>
      </trkpt>
      <trkpt lat="46.40909" lon="5.69572">
        <ele>698</ele>
        <time>2019-05-19T18:15:12Z</time>
      </trkpt>
      <trkpt lat="46.40905" lon="5.69558">
        <ele>698</ele>
        <time>2019-05-19T18:15:14Z</time>
      </trkpt>
      <trkpt lat="46.40904" lon="5.69545">
        <ele>698</ele>
        <time>2019-05-19T18:15:16Z</time>
      </trkpt>
      <trkpt lat="46.40902" lon="5.69455">
        <ele>692</ele>
        <time>2019-05-19T18:15:27Z</time>
      </trkpt>
      <trkpt lat="46.409" lon="5.69442">
        <ele>691</ele>
        <time>2019-05-19T18:15:28Z</time>
      </trkpt>
      <trkpt lat="46.40896" lon="5.69429">
        <ele>691</ele>
        <time>2019-05-19T18:15:30Z</time>
      </trkpt>
      <trkpt lat="46.40886" lon="5.69415">
        <ele>691</ele>
        <time>2019-05-19T18:15:32Z</time>
      </trkpt>
      <trkpt lat="46.40871" lon="5.69398">
        <ele>691</ele>
        <time>2019-05-19T18:15:36Z</time>
      </trkpt>
      <trkpt lat="46.40863" lon="5.69385">
        <ele>692</ele>
        <time>2019-05-19T18:15:38Z</time>
      </trkpt>
      <trkpt lat="46.40858" lon="5.69372">
        <ele>692</ele>
        <time>2019-05-19T18:15:40Z</time>
      </trkpt>
      <trkpt lat="46.40857" lon="5.6936">
        <ele>691</ele>
        <time>2019-05-19T18:15:41Z</time>
      </trkpt>
      <trkpt lat="46.4086" lon="5.69313">
        <ele>689</ele>
        <time>2019-05-19T18:15:47Z</time>
      </trkpt>
      <trkpt lat="46.40867" lon="5.69264">
        <ele>686</ele>
        <time>2019-05-19T18:15:53Z</time>
      </trkpt>
      <trkpt lat="46.40874" lon="5.69242">
        <ele>684</ele>
        <time>2019-05-19T18:15:56Z</time>
      </trkpt>
      <trkpt lat="46.4088" lon="5.69212">
        <ele>682</ele>
        <time>2019-05-19T18:16:00Z</time>
      </trkpt>
      <trkpt lat="46.40881" lon="5.69194">
        <ele>681</ele>
        <time>2019-05-19T18:16:02Z</time>
      </trkpt>
      <trkpt lat="46.40878" lon="5.69117">
        <ele>676</ele>
        <time>2019-05-19T18:16:12Z</time>
      </trkpt>
      <trkpt lat="46.40875" lon="5.69093">
        <ele>674</ele>
        <time>2019-05-19T18:16:15Z</time>
      </trkpt>
      <trkpt lat="46.40869" lon="5.69079">
        <ele>673</ele>
        <time>2019-05-19T18:16:17Z</time>
      </trkpt>
      <trkpt lat="46.40828" lon="5.69023">
        <ele>669</ele>
        <time>2019-05-19T18:16:27Z</time>
      </trkpt>
      <trkpt lat="46.40817" lon="5.69015">
        <ele>667</ele>
        <time>2019-05-19T18:16:29Z</time>
      </trkpt>
      <trkpt lat="46.40806" lon="5.69012">
        <ele>666</ele>
        <time>2019-05-19T18:16:31Z</time>
      </trkpt>
      <trkpt lat="46.40792" lon="5.69013">
        <ele>666</ele>
        <time>2019-05-19T18:16:33Z</time>
      </trkpt>
      <trkpt lat="46.40757" lon="5.69022">
        <ele>666</ele>
        <time>2019-05-19T18:16:40Z</time>
      </trkpt>
      <trkpt lat="46.407" lon="5.69004">
        <ele>664</ele>
        <time>2019-05-19T18:16:50Z</time>
      </trkpt>
      <trkpt lat="46.40661" lon="5.69006">
        <ele>666</ele>
        <time>2019-05-19T18:16:57Z</time>
      </trkpt>
      <trkpt lat="46.40649" lon="5.69">
        <ele>667</ele>
        <time>2019-05-19T18:16:59Z</time>
      </trkpt>
      <trkpt lat="46.40637" lon="5.68991">
        <ele>666</ele>
        <time>2019-05-19T18:17:02Z</time>
      </trkpt>
      <trkpt lat="46.40626" lon="5.6898">
        <ele>666</ele>
        <time>2019-05-19T18:17:04Z</time>
      </trkpt>
      <trkpt lat="46.40607" lon="5.68949">
        <ele>661</ele>
        <time>2019-05-19T18:17:09Z</time>
      </trkpt>
      <trkpt lat="46.40567" lon="5.68872">
        <ele>652</ele>
        <time>2019-05-19T18:17:21Z</time>
      </trkpt>
      <trkpt lat="46.40559" lon="5.68861">
        <ele>651</ele>
        <time>2019-05-19T18:17:23Z</time>
      </trkpt>
      <trkpt lat="46.40547" lon="5.68851">
        <ele>649</ele>
        <time>2019-05-19T18:17:25Z</time>
      </trkpt>
      <trkpt lat="46.4053" lon="5.68844">
        <ele>649</ele>
        <time>2019-05-19T18:17:29Z</time>
      </trkpt>
      <trkpt lat="46.40454" lon="5.68827">
        <ele>650</ele>
        <time>2019-05-19T18:17:42Z</time>
      </trkpt>
      <trkpt lat="46.40436" lon="5.68821">
        <ele>650</ele>
        <time>2019-05-19T18:17:46Z</time>
      </trkpt>
      <trkpt lat="46.4042" lon="5.68812">
        <ele>649</ele>
        <time>2019-05-19T18:17:49Z</time>
      </trkpt>
      <trkpt lat="46.40404" lon="5.68799">
        <ele>648</ele>
        <time>2019-05-19T18:17:52Z</time>
      </trkpt>
      <trkpt lat="46.40377" lon="5.68763">
        <ele>643</ele>
        <time>2019-05-19T18:17:58Z</time>
      </trkpt>
      <trkpt lat="46.40316" lon="5.68702">
        <ele>638</ele>
        <time>2019-05-19T18:18:12Z</time>
      </trkpt>
      <trkpt lat="46.40233" lon="5.68631">
        <ele>634</ele>
        <time>2019-05-19T18:18:29Z</time>
      </trkpt>
      <trkpt lat="46.40217" lon="5.68621">
        <ele>634</ele>
        <time>2019-05-19T18:18:32Z</time>
      </trkpt>
      <trkpt lat="46.40195" lon="5.68614">
        <ele>635</ele>
        <time>2019-05-19T18:18:36Z</time>
      </trkpt>
      <trkpt lat="46.40177" lon="5.68604">
        <ele>634</ele>
        <time>2019-05-19T18:18:39Z</time>
      </trkpt>
      <trkpt lat="46.40168" lon="5.68596">
        <ele>634</ele>
        <time>2019-05-19T18:18:41Z</time>
      </trkpt>
      <trkpt lat="46.4016" lon="5.68585">
        <ele>633</ele>
        <time>2019-05-19T18:18:43Z</time>
      </trkpt>
      <trkpt lat="46.40155" lon="5.68572">
        <ele>632</ele>
        <time>2019-05-19T18:18:45Z</time>
      </trkpt>
      <trkpt lat="46.40145" lon="5.68524">
        <ele>627</ele>
        <time>2019-05-19T18:18:51Z</time>
      </trkpt>
      <trkpt lat="46.40137" lon="5.6851">
        <ele>626</ele>
        <time>2019-05-19T18:18:53Z</time>
      </trkpt>
      <trkpt lat="46.40098" lon="5.68474">
        <ele>622</ele>
        <time>2019-05-19T18:19:01Z</time>
      </trkpt>
      <trkpt lat="46.40081" lon="5.68453">
        <ele>619</ele>
        <time>2019-05-19T18:19:05Z</time>
      </trkpt>
      <trkpt lat="46.40067" lon="5.68431">
        <ele>617</ele>
        <time>2019-05-19T18:19:09Z</time>
      </trkpt>
      <trkpt lat="46.40051" lon="5.68416">
        <ele>616</ele>
        <time>2019-05-19T18:19:13Z</time>
      </trkpt>
      <trkpt lat="46.40025" lon="5.68402">
        <ele>617</ele>
        <time>2019-05-19T18:19:17Z</time>
      </trkpt>
      <trkpt lat="46.39992" lon="5.68378">
        <ele>614</ele>
        <time>2019-05-19T18:19:24Z</time>
      </trkpt>
      <trkpt lat="46.39927" lon="5.68342">
        <ele>608</ele>
        <time>2019-05-19T18:19:36Z</time>
      </trkpt>
      <trkpt lat="46.39917" lon="5.68338">
        <ele>607</ele>
        <time>2019-05-19T18:19:38Z</time>
      </trkpt>
      <trkpt lat="46.39853" lon="5.68332">
        <ele>604</ele>
        <time>2019-05-19T18:19:50Z</time>
      </trkpt>
      <trkpt lat="46.39797" lon="5.68321">
        <ele>601</ele>
        <time>2019-05-19T18:20:00Z</time>
      </trkpt>
      <trkpt lat="46.39728" lon="5.68304">
        <ele>599</ele>
        <time>2019-05-19T18:20:12Z</time>
      </trkpt>
      <trkpt lat="46.39669" lon="5.68284">
        <ele>594</ele>
        <time>2019-05-19T18:20:23Z</time>
      </trkpt>
      <trkpt lat="46.39658" lon="5.68278">
        <ele>593</ele>
        <time>2019-05-19T18:20:25Z</time>
      </trkpt>
      <trkpt lat="46.39651" lon="5.68271">
        <ele>592</ele>
        <time>2019-05-19T18:20:27Z</time>
      </trkpt>
      <trkpt lat="46.39639" lon="5.68254">
        <ele>589</ele>
        <time>2019-05-19T18:20:30Z</time>
      </trkpt>
      <trkpt lat="46.39608" lon="5.68186">
        <ele>583</ele>
        <time>2019-05-19T18:20:40Z</time>
      </trkpt>
      <trkpt lat="46.39594" lon="5.68165">
        <ele>581</ele>
        <time>2019-05-19T18:20:43Z</time>
      </trkpt>
      <trkpt lat="46.39573" lon="5.68145">
        <ele>580</ele>
        <time>2019-05-19T18:20:48Z</time>
      </trkpt>
      <trkpt lat="46.39525" lon="5.68101">
        <ele>575</ele>
        <time>2019-05-19T18:20:58Z</time>
      </trkpt>
      <trkpt lat="46.39506" lon="5.6808">
        <ele>573</ele>
        <time>2019-05-19T18:21:02Z</time>
      </trkpt>
      <trkpt lat="46.39468" lon="5.68027">
        <ele>572</ele>
        <time>2019-05-19T18:21:11Z</time>
      </trkpt>
      <trkpt lat="46.39405" lon="5.67955">
        <ele>568</ele>
        <time>2019-05-19T18:21:26Z</time>
      </trkpt>
      <trkpt lat="46.39366" lon="5.67864">
        <ele>563</ele>
        <time>2019-05-19T18:21:39Z</time>
      </trkpt>
      <trkpt lat="46.39351" lon="5.67835">
        <ele>562</ele>
        <time>2019-05-19T18:21:43Z</time>
      </trkpt>
      <trkpt lat="46.39339" lon="5.67821">
        <ele>561</ele>
        <time>2019-05-19T18:21:46Z</time>
      </trkpt>
      <trkpt lat="46.39328" lon="5.67813">
        <ele>560</ele>
        <time>2019-05-19T18:21:48Z</time>
      </trkpt>
      <trkpt lat="46.39313" lon="5.67809">
        <ele>559</ele>
        <time>2019-05-19T18:21:51Z</time>
      </trkpt>
      <trkpt lat="46.39264" lon="5.67809">
        <ele>556</ele>
        <time>2019-05-19T18:22:00Z</time>
      </trkpt>
      <trkpt lat="46.39243" lon="5.67802">
        <ele>554</ele>
        <time>2019-05-19T18:22:03Z</time>
      </trkpt>
      <trkpt lat="46.39149" lon="5.67757">
        <ele>546</ele>
        <time>2019-05-19T18:22:21Z</time>
      </trkpt>
      <trkpt lat="46.39115" lon="5.67738">
        <ele>544</ele>
        <time>2019-05-19T18:22:28Z</time>
      </trkpt>
      <trkpt lat="46.39079" lon="5.67707">
        <ele>541</ele>
        <time>2019-05-19T18:22:35Z</time>
      </trkpt>
      <trkpt lat="46.39038" lon="5.67683">
        <ele>538</ele>
        <time>2019-05-19T18:22:43Z</time>
      </trkpt>
      <trkpt lat="46.38981" lon="5.67657">
        <ele>534</ele>
        <time>2019-05-19T18:22:53Z</time>
      </trkpt>
      <trkpt lat="46.38971" lon="5.67649">
        <ele>533</ele>
        <time>2019-05-19T18:22:55Z</time>
      </trkpt>
      <trkpt lat="46.38947" lon="5.67626">
        <ele>531</ele>
        <time>2019-05-19T18:23:01Z</time>
      </trkpt>
      <trkpt lat="46.38929" lon="5.67587">
        <ele>529</ele>
        <time>2019-05-19T18:23:06Z</time>
      </trkpt>
      <trkpt lat="46.38912" lon="5.67559">
        <ele>527</ele>
        <time>2019-05-19T18:23:11Z</time>
      </trkpt>
      <trkpt lat="46.38906" lon="5.67551">
        <ele>526</ele>
        <time>2019-05-19T18:23:12Z</time>
      </trkpt>
      <trkpt lat="46.38898" lon="5.67546">
        <ele>525</ele>
        <time>2019-05-19T18:23:14Z</time>
      </trkpt>
      <trkpt lat="46.38887" lon="5.67547">
        <ele>524</ele>
        <time>2019-05-19T18:23:16Z</time>
      </trkpt>
      <trkpt lat="46.38877" lon="5.67553">
        <ele>523</ele>
        <time>2019-05-19T18:23:18Z</time>
      </trkpt>
      <trkpt lat="46.38859" lon="5.67568">
        <ele>521</ele>
        <time>2019-05-19T18:23:22Z</time>
      </trkpt>
      <trkpt lat="46.38843" lon="5.67577">
        <ele>520</ele>
        <time>2019-05-19T18:23:25Z</time>
      </trkpt>
      <trkpt lat="46.38824" lon="5.67599">
        <ele>519</ele>
        <time>2019-05-19T18:23:29Z</time>
      </trkpt>
      <trkpt lat="46.38821" lon="5.676">
        <ele>519</ele>
        <time>2019-05-19T18:23:29Z</time>
      </trkpt>
      <trkpt lat="46.38815" lon="5.67595">
        <ele>518</ele>
        <time>2019-05-19T18:23:31Z</time>
      </trkpt>
      <trkpt lat="46.38793" lon="5.67571">
        <ele>515</ele>
        <time>2019-05-19T18:23:36Z</time>
      </trkpt>
      <trkpt lat="46.38781" lon="5.67563">
        <ele>514</ele>
        <time>2019-05-19T18:23:38Z</time>
      </trkpt>
      <trkpt lat="46.38767" lon="5.67557">
        <ele>513</ele>
        <time>2019-05-19T18:23:41Z</time>
      </trkpt>
      <trkpt lat="46.38701" lon="5.67554">
        <ele>505</ele>
        <time>2019-05-19T18:23:52Z</time>
      </trkpt>
      <trkpt lat="46.38689" lon="5.67555">
        <ele>504</ele>
        <time>2019-05-19T18:23:54Z</time>
      </trkpt>
      <trkpt lat="46.38659" lon="5.6757">
        <ele>501</ele>
        <time>2019-05-19T18:24:00Z</time>
      </trkpt>
      <trkpt lat="46.38648" lon="5.67573">
        <ele>500</ele>
        <time>2019-05-19T18:24:02Z</time>
      </trkpt>
      <trkpt lat="46.38615" lon="5.67575">
        <ele>497</ele>
        <time>2019-05-19T18:24:08Z</time>
      </trkpt>
      <trkpt lat="46.38548" lon="5.67591">
        <ele>490</ele>
        <time>2019-05-19T18:24:20Z</time>
      </trkpt>
      <trkpt lat="46.38527" lon="5.676">
        <ele>489</ele>
        <time>2019-05-19T18:24:24Z</time>
      </trkpt>
      <trkpt lat="46.38501" lon="5.67622">
        <ele>487</ele>
        <time>2019-05-19T18:24:29Z</time>
      </trkpt>
      <trkpt lat="46.38492" lon="5.67621">
        <ele>486</ele>
        <time>2019-05-19T18:24:31Z</time>
      </trkpt>
      <trkpt lat="46.38485" lon="5.67614">
        <ele>485</ele>
        <time>2019-05-19T18:24:32Z</time>
      </trkpt>
      <trkpt lat="46.38481" lon="5.67605">
        <ele>485</ele>
        <time>2019-05-19T18:24:34Z</time>
      </trkpt>
      <trkpt lat="46.3848" lon="5.67593">
        <ele>484</ele>
        <time>2019-05-19T18:24:35Z</time>
      </trkpt>
      <trkpt lat="46.38485" lon="5.67564">
        <ele>483</ele>
        <time>2019-05-19T18:24:39Z</time>
      </trkpt>
      <trkpt lat="46.38484" lon="5.67548">
        <ele>482</ele>
        <time>2019-05-19T18:24:41Z</time>
      </trkpt>
      <trkpt lat="46.3848" lon="5.67533">
        <ele>481</ele>
        <time>2019-05-19T18:24:43Z</time>
      </trkpt>
      <trkpt lat="46.38462" lon="5.67497">
        <ele>478</ele>
        <time>2019-05-19T18:24:48Z</time>
      </trkpt>
      <trkpt lat="46.38443" lon="5.67452">
        <ele>475</ele>
        <time>2019-05-19T18:24:55Z</time>
      </trkpt>
      <trkpt lat="46.38436" lon="5.67437">
        <ele>473</ele>
        <time>2019-05-19T18:24:57Z</time>
      </trkpt>
      <trkpt lat="46.38427" lon="5.67425">
        <ele>472</ele>
        <time>2019-05-19T18:24:59Z</time>
      </trkpt>
      <trkpt lat="46.38399" lon="5.67401">
        <ele>469</ele>
        <time>2019-05-19T18:25:05Z</time>
      </trkpt>
      <trkpt lat="46.38381" lon="5.67382">
        <ele>467</ele>
        <time>2019-05-19T18:25:09Z</time>
      </trkpt>
      <trkpt lat="46.38357" lon="5.67348">
        <ele>463</ele>
        <time>2019-05-19T18:25:15Z</time>
      </trkpt>
      <trkpt lat="46.38341" lon="5.67323">
        <ele>461</ele>
        <time>2019-05-19T18:25:19Z</time>
      </trkpt>
      <trkpt lat="46.38319" lon="5.67272">
        <ele>460</ele>
        <time>2019-05-19T18:25:26Z</time>
      </trkpt>
      <trkpt lat="46.38309" lon="5.67244">
        <ele>459</ele>
        <time>2019-05-19T18:25:30Z</time>
      </trkpt>
      <trkpt lat="46.38305" lon="5.6722">
        <ele>459</ele>
        <time>2019-05-19T18:25:33Z</time>
      </trkpt>
      <trkpt lat="46.38302" lon="5.67181">
        <ele>458</ele>
        <time>2019-05-19T18:25:38Z</time>
      </trkpt>
      <trkpt lat="46.38293" lon="5.67105">
        <ele>456</ele>
        <time>2019-05-19T18:25:48Z</time>
      </trkpt>
      <trkpt lat="46.38288" lon="5.67091">
        <ele>456</ele>
        <time>2019-05-19T18:25:50Z</time>
      </trkpt>
      <trkpt lat="46.38279" lon="5.67076">
        <ele>454</ele>
        <time>2019-05-19T18:25:52Z</time>
      </trkpt>
      <trkpt lat="46.3827" lon="5.67056">
        <ele>453</ele>
        <time>2019-05-19T18:25:55Z</time>
      </trkpt>
      <trkpt lat="46.38268" lon="5.67044">
        <ele>452</ele>
        <time>2019-05-19T18:25:56Z</time>
      </trkpt>
      <trkpt lat="46.38269" lon="5.67026">
        <ele>452</ele>
        <time>2019-05-19T18:25:59Z</time>
      </trkpt>
      <trkpt lat="46.38287" lon="5.66946">
        <ele>450</ele>
        <time>2019-05-19T18:26:09Z</time>
      </trkpt>
      <trkpt lat="46.38294" lon="5.66929">
        <ele>449</ele>
        <time>2019-05-19T18:26:11Z</time>
      </trkpt>
      <trkpt lat="46.38314" lon="5.66894">
        <ele>449</ele>
        <time>2019-05-19T18:26:17Z</time>
      </trkpt>
      <trkpt lat="46.38317" lon="5.6688">
        <ele>449</ele>
        <time>2019-05-19T18:26:19Z</time>
      </trkpt>
      <trkpt lat="46.38316" lon="5.66866">
        <ele>448</ele>
        <time>2019-05-19T18:26:21Z</time>
      </trkpt>
      <trkpt lat="46.38312" lon="5.66852">
        <ele>447</ele>
        <time>2019-05-19T18:26:22Z</time>
      </trkpt>
      <trkpt lat="46.38301" lon="5.66837">
        <ele>445</ele>
        <time>2019-05-19T18:26:25Z</time>
      </trkpt>
      <trkpt lat="46.38249" lon="5.66802">
        <ele>439</ele>
        <time>2019-05-19T18:26:35Z</time>
      </trkpt>
      <trkpt lat="46.3823" lon="5.66784">
        <ele>437</ele>
        <time>2019-05-19T18:26:39Z</time>
      </trkpt>
      <trkpt lat="46.3822" lon="5.66772">
        <ele>436</ele>
        <time>2019-05-19T18:26:42Z</time>
      </trkpt>
      <trkpt lat="46.38215" lon="5.66758">
        <ele>435</ele>
        <time>2019-05-19T18:26:44Z</time>
      </trkpt>
      <trkpt lat="46.38213" lon="5.66738">
        <ele>432</ele>
        <time>2019-05-19T18:26:46Z</time>
      </trkpt>
      <trkpt lat="46.38217" lon="5.66717">
        <ele>429</ele>
        <time>2019-05-19T18:26:49Z</time>
      </trkpt>
      <trkpt lat="46.38231" lon="5.66687">
        <ele>426</ele>
        <time>2019-05-19T18:26:53Z</time>
      </trkpt>
      <trkpt lat="46.3825" lon="5.66652">
        <ele>420</ele>
        <time>2019-05-19T18:26:59Z</time>
      </trkpt>
      <trkpt lat="46.38266" lon="5.66637">
        <ele>418</ele>
        <time>2019-05-19T18:27:02Z</time>
      </trkpt>
      <trkpt lat="46.38358" lon="5.66579">
        <ele>416</ele>
        <time>2019-05-19T18:27:20Z</time>
      </trkpt>
      <trkpt lat="46.38433" lon="5.66547">
        <ele>415</ele>
        <time>2019-05-19T18:27:34Z</time>
      </trkpt>
      <trkpt lat="46.38473" lon="5.66534">
        <ele>413</ele>
        <time>2019-05-19T18:27:41Z</time>
      </trkpt>
      <trkpt lat="46.38502" lon="5.66518">
        <ele>408</ele>
        <time>2019-05-19T18:27:47Z</time>
      </trkpt>
      <trkpt lat="46.38536" lon="5.66503">
        <ele>405</ele>
        <time>2019-05-19T18:27:53Z</time>
      </trkpt>
      <trkpt lat="46.38596" lon="5.66486">
        <ele>405</ele>
        <time>2019-05-19T18:28:04Z</time>
      </trkpt>
      <trkpt lat="46.38633" lon="5.66471">
        <ele>402</ele>
        <time>2019-05-19T18:28:11Z</time>
      </trkpt>
      <trkpt lat="46.38686" lon="5.66429">
        <ele>393</ele>
        <time>2019-05-19T18:28:21Z</time>
      </trkpt>
      <trkpt lat="46.3874" lon="5.66393">
        <ele>392</ele>
        <time>2019-05-19T18:28:32Z</time>
      </trkpt>
      <trkpt lat="46.38762" lon="5.66381">
        <ele>393</ele>
        <time>2019-05-19T18:28:36Z</time>
      </trkpt>
      <trkpt lat="46.38768" lon="5.66368">
        <ele>391</ele>
        <time>2019-05-19T18:28:38Z</time>
      </trkpt>
      <trkpt lat="46.38791" lon="5.66352">
        <ele>391</ele>
        <time>2019-05-19T18:28:43Z</time>
      </trkpt>
      <trkpt lat="46.38798" lon="5.66342">
        <ele>390</ele>
        <time>2019-05-19T18:28:44Z</time>
      </trkpt>
      <trkpt lat="46.38807" lon="5.66321">
        <ele>387</ele>
        <time>2019-05-19T18:28:47Z</time>
      </trkpt>
      <trkpt lat="46.38815" lon="5.6631">
        <ele>386</ele>
        <time>2019-05-19T18:28:49Z</time>
      </trkpt>
      <trkpt lat="46.38842" lon="5.66295">
        <ele>385</ele>
        <time>2019-05-19T18:28:54Z</time>
      </trkpt>
      <trkpt lat="46.38856" lon="5.66286">
        <ele>385</ele>
        <time>2019-05-19T18:28:57Z</time>
      </trkpt>
      <trkpt lat="46.38875" lon="5.66278">
        <ele>386</ele>
        <time>2019-05-19T18:29:01Z</time>
      </trkpt>
      <trkpt lat="46.38884" lon="5.66267">
        <ele>385</ele>
        <time>2019-05-19T18:29:03Z</time>
      </trkpt>
      <trkpt lat="46.38898" lon="5.66234">
        <ele>381</ele>
        <time>2019-05-19T18:29:08Z</time>
      </trkpt>
      <trkpt lat="46.38908" lon="5.66218">
        <ele>379</ele>
        <time>2019-05-19T18:29:10Z</time>
      </trkpt>
      <trkpt lat="46.38927" lon="5.66201">
        <ele>377</ele>
        <time>2019-05-19T18:29:14Z</time>
      </trkpt>
      <trkpt lat="46.38946" lon="5.66188">
        <ele>376</ele>
        <time>2019-05-19T18:29:18Z</time>
      </trkpt>
      <trkpt lat="46.3896" lon="5.66176">
        <ele>375</ele>
        <time>2019-05-19T18:29:21Z</time>
      </trkpt>
      <trkpt lat="46.38966" lon="5.66164">
        <ele>374</ele>
        <time>2019-05-19T18:29:23Z</time>
      </trkpt>
      <trkpt lat="46.3897" lon="5.66149">
        <ele>373</ele>
        <time>2019-05-19T18:29:25Z</time>
      </trkpt>
      <trkpt lat="46.38969" lon="5.66082">
        <ele>368</ele>
        <time>2019-05-19T18:29:33Z</time>
      </trkpt>
      <trkpt lat="46.38983" lon="5.6595">
        <ele>367</ele>
        <time>2019-05-19T18:29:49Z</time>
      </trkpt>
      <trkpt lat="46.38977" lon="5.65906">
        <ele>366</ele>
        <time>2019-05-19T18:29:55Z</time>
      </trkpt>
      <trkpt lat="46.38958" lon="5.65841">
        <ele>363</ele>
        <time>2019-05-19T18:30:03Z</time>
      </trkpt>
      <trkpt lat="46.38968" lon="5.65711">
        <ele>356</ele>
        <time>2019-05-19T18:30:19Z</time>
      </trkpt>
      <trkpt lat="46.38953" lon="5.65621">
        <ele>355</ele>
        <time>2019-05-19T18:30:31Z</time>
      </trkpt>
      <trkpt lat="46.38919" lon="5.655">
        <ele>351</ele>
        <time>2019-05-19T18:30:47Z</time>
      </trkpt>
      <trkpt lat="46.38897" lon="5.65411">
        <ele>344</ele>
        <time>2019-05-19T18:30:58Z</time>
      </trkpt>
      <trkpt lat="46.38894" lon="5.65378">
        <ele>343</ele>
        <time>2019-05-19T18:31:03Z</time>
      </trkpt>
      <trkpt lat="46.389" lon="5.65354">
        <ele>340</ele>
        <time>2019-05-19T18:31:06Z</time>
      </trkpt>
      <trkpt lat="46.38955" lon="5.65289">
        <ele>342</ele>
        <time>2019-05-19T18:31:18Z</time>
      </trkpt>
      <trkpt lat="46.3896" lon="5.65276">
        <ele>343</ele>
        <time>2019-05-19T18:31:20Z</time>
      </trkpt>
      <trkpt lat="46.38961" lon="5.6526">
        <ele>343</ele>
        <time>2019-05-19T18:31:22Z</time>
      </trkpt>
      <trkpt lat="46.38958" lon="5.65245">
        <ele>343</ele>
        <time>2019-05-19T18:31:24Z</time>
      </trkpt>
      <trkpt lat="46.3892" lon="5.65182">
        <ele>341</ele>
        <time>2019-05-19T18:31:34Z</time>
      </trkpt>
      <trkpt lat="46.389" lon="5.65141">
        <ele>342</ele>
        <time>2019-05-19T18:31:40Z</time>
      </trkpt>
      <trkpt lat="46.38885" lon="5.65103">
        <ele>343</ele>
        <time>2019-05-19T18:31:46Z</time>
      </trkpt>
      <trkpt lat="46.38876" lon="5.65088">
        <ele>343</ele>
        <time>2019-05-19T18:31:48Z</time>
      </trkpt>
      <trkpt lat="46.38857" lon="5.65075">
        <ele>342</ele>
        <time>2019-05-19T18:31:52Z</time>
      </trkpt>
      <trkpt lat="46.38817" lon="5.65054">
        <ele>341</ele>
        <time>2019-05-19T18:32:00Z</time>
      </trkpt>
      <trkpt lat="46.38773" lon="5.65037">
        <ele>340</ele>
        <time>2019-05-19T18:32:08Z</time>
      </trkpt>
      <trkpt lat="46.38761" lon="5.65026">
        <ele>339</ele>
        <time>2019-05-19T18:32:10Z</time>
      </trkpt>
      <trkpt lat="46.38754" lon="5.6501">
        <ele>340</ele>
        <time>2019-05-19T18:32:13Z</time>
      </trkpt>
      <trkpt lat="46.38751" lon="5.64984">
        <ele>341</ele>
        <time>2019-05-19T18:32:16Z</time>
      </trkpt>
      <trkpt lat="46.38751" lon="5.64968">
        <ele>342</ele>
        <time>2019-05-19T18:32:18Z</time>
      </trkpt>
      <trkpt lat="46.38755" lon="5.64927">
        <ele>344</ele>
        <time>2019-05-19T18:32:23Z</time>
      </trkpt>
      <trkpt lat="46.3876" lon="5.64906">
        <ele>345</ele>
        <time>2019-05-19T18:32:26Z</time>
      </trkpt>
      <trkpt lat="46.38763" lon="5.64898">
        <ele>346</ele>
        <time>2019-05-19T18:32:27Z</time>
      </trkpt>
      <trkpt lat="46.38774" lon="5.6488">
        <ele>347</ele>
        <time>2019-05-19T18:32:30Z</time>
      </trkpt>
      <trkpt lat="46.38781" lon="5.64873">
        <ele>348</ele>
        <time>2019-05-19T18:32:31Z</time>
      </trkpt>
      <trkpt lat="46.38809" lon="5.6486">
        <ele>351</ele>
        <time>2019-05-19T18:32:36Z</time>
      </trkpt>
      <trkpt lat="46.38817" lon="5.64854">
        <ele>351</ele>
        <time>2019-05-19T18:32:38Z</time>
      </trkpt>
      <trkpt lat="46.38825" lon="5.64846">
        <ele>352</ele>
        <time>2019-05-19T18:32:40Z</time>
      </trkpt>
      <trkpt lat="46.38832" lon="5.64833">
        <ele>353</ele>
        <time>2019-05-19T18:32:42Z</time>
      </trkpt>
      <trkpt lat="46.38844" lon="5.64805">
        <ele>354</ele>
        <time>2019-05-19T18:32:46Z</time>
      </trkpt>
      <trkpt lat="46.38852" lon="5.64792">
        <ele>355</ele>
        <time>2019-05-19T18:32:48Z</time>
      </trkpt>
      <trkpt lat="46.38862" lon="5.6478">
        <ele>355</ele>
        <time>2019-05-19T18:32:50Z</time>
      </trkpt>
      <trkpt lat="46.38873" lon="5.64762">
        <ele>356</ele>
        <time>2019-05-19T18:32:53Z</time>
      </trkpt>
      <trkpt lat="46.38883" lon="5.64742">
        <ele>356</ele>
        <time>2019-05-19T18:32:56Z</time>
      </trkpt>
      <trkpt lat="46.38886" lon="5.64729">
        <ele>357</ele>
        <time>2019-05-19T18:32:58Z</time>
      </trkpt>
      <trkpt lat="46.38899" lon="5.64729">
        <ele>357</ele>
        <time>2019-05-19T18:33:00Z</time>
      </trkpt>
      <trkpt lat="46.39016" lon="5.64709">
        <ele>359</ele>
        <time>2019-05-19T18:33:21Z</time>
      </trkpt>
      <trkpt lat="46.39057" lon="5.64705">
        <ele>360</ele>
        <time>2019-05-19T18:33:28Z</time>
      </trkpt>
      <trkpt lat="46.39111" lon="5.64709">
        <ele>361</ele>
        <time>2019-05-19T18:33:38Z</time>
      </trkpt>
      <trkpt lat="46.3918" lon="5.6472">
        <ele>363</ele>
        <time>2019-05-19T18:33:50Z</time>
      </trkpt>
      <trkpt lat="46.39226" lon="5.64735">
        <ele>365</ele>
        <time>2019-05-19T18:33:59Z</time>
      </trkpt>
      <trkpt lat="46.39238" lon="5.64742">
        <ele>365</ele>
        <time>2019-05-19T18:34:01Z</time>
      </trkpt>
      <trkpt lat="46.39256" lon="5.64787">
        <ele>364</ele>
        <time>2019-05-19T18:34:07Z</time>
      </trkpt>
      <trkpt lat="46.39423" lon="5.65129">
        <ele>381</ele>
        <time>2019-05-19T18:34:59Z</time>
      </trkpt>
      <trkpt lat="46.39437" lon="5.65163">
        <ele>385</ele>
        <time>2019-05-19T18:35:04Z</time>
      </trkpt>
      <trkpt lat="46.39457" lon="5.65237">
        <ele>389</ele>
        <time>2019-05-19T18:35:14Z</time>
      </trkpt>
      <trkpt lat="46.39464" lon="5.6528">
        <ele>391</ele>
        <time>2019-05-19T18:35:19Z</time>
      </trkpt>
      <trkpt lat="46.39497" lon="5.65567">
        <ele>401</ele>
        <time>2019-05-19T18:35:55Z</time>
      </trkpt>
      <trkpt lat="46.39496" lon="5.65617">
        <ele>401</ele>
        <time>2019-05-19T18:36:01Z</time>
      </trkpt>
      <trkpt lat="46.39492" lon="5.65677">
        <ele>400</ele>
        <time>2019-05-19T18:36:08Z</time>
      </trkpt>
      <trkpt lat="46.39493" lon="5.65706">
        <ele>400</ele>
        <time>2019-05-19T18:36:12Z</time>
      </trkpt>
      <trkpt lat="46.39497" lon="5.65733">
        <ele>401</ele>
        <time>2019-05-19T18:36:15Z</time>
      </trkpt>
      <trkpt lat="46.39525" lon="5.6585">
        <ele>407</ele>
        <time>2019-05-19T18:36:30Z</time>
      </trkpt>
      <trkpt lat="46.39537" lon="5.65883">
        <ele>409</ele>
        <time>2019-05-19T18:36:35Z</time>
      </trkpt>
      <trkpt lat="46.39554" lon="5.65915">
        <ele>412</ele>
        <time>2019-05-19T18:36:40Z</time>
      </trkpt>
      <trkpt lat="46.39634" lon="5.6603">
        <ele>421</ele>
        <time>2019-05-19T18:37:00Z</time>
      </trkpt>
      <trkpt lat="46.3966" lon="5.66075">
        <ele>422</ele>
        <time>2019-05-19T18:37:07Z</time>
      </trkpt>
      <trkpt lat="46.39665" lon="5.66088">
        <ele>422</ele>
        <time>2019-05-19T18:37:09Z</time>
      </trkpt>
      <trkpt lat="46.39668" lon="5.66105">
        <ele>423</ele>
        <time>2019-05-19T18:37:11Z</time>
      </trkpt>
      <trkpt lat="46.39669" lon="5.66159">
        <ele>423</ele>
        <time>2019-05-19T18:37:18Z</time>
      </trkpt>
      <trkpt lat="46.3967" lon="5.66176">
        <ele>422</ele>
        <time>2019-05-19T18:37:20Z</time>
      </trkpt>
      <trkpt lat="46.39677" lon="5.66201">
        <ele>421</ele>
        <time>2019-05-19T18:37:23Z</time>
      </trkpt>
      <trkpt lat="46.39683" lon="5.66213">
        <ele>422</ele>
        <time>2019-05-19T18:37:25Z</time>
      </trkpt>
      <trkpt lat="46.39703" lon="5.66237">
        <ele>429</ele>
        <time>2019-05-19T18:37:30Z</time>
      </trkpt>
      <trkpt lat="46.39731" lon="5.6626">
        <ele>438</ele>
        <time>2019-05-19T18:37:35Z</time>
      </trkpt>
      <trkpt lat="46.39841" lon="5.66377">
        <ele>448</ele>
        <time>2019-05-19T18:38:00Z</time>
      </trkpt>
      <trkpt lat="46.399" lon="5.66458">
        <ele>452</ele>
        <time>2019-05-19T18:38:14Z</time>
      </trkpt>
      <trkpt lat="46.39961" lon="5.66559">
        <ele>454</ele>
        <time>2019-05-19T18:38:30Z</time>
      </trkpt>
      <trkpt lat="46.39979" lon="5.66583">
        <ele>455</ele>
        <time>2019-05-19T18:38:35Z</time>
      </trkpt>
      <trkpt lat="46.39997" lon="5.666">
        <ele>458</ele>
        <time>2019-05-19T18:38:39Z</time>
      </trkpt>
      <trkpt lat="46.40016" lon="5.66614">
        <ele>462</ele>
        <time>2019-05-19T18:38:42Z</time>
      </trkpt>
      <trkpt lat="46.40034" lon="5.66633">
        <ele>464</ele>
        <time>2019-05-19T18:38:46Z</time>
      </trkpt>
      <trkpt lat="46.40263" lon="5.66878">
        <ele>473</ele>
        <time>2019-05-19T18:39:37Z</time>
      </trkpt>
      <trkpt lat="46.40276" lon="5.66889">
        <ele>473</ele>
        <time>2019-05-19T18:39:40Z</time>
      </trkpt>
      <trkpt lat="46.40287" lon="5.66894">
        <ele>474</ele>
        <time>2019-05-19T18:39:42Z</time>
      </trkpt>
      <trkpt lat="46.40298" lon="5.66894">
        <ele>476</ele>
        <time>2019-05-19T18:39:44Z</time>
      </trkpt>
      <trkpt lat="46.40307" lon="5.66891">
        <ele>478</ele>
        <time>2019-05-19T18:39:45Z</time>
      </trkpt>
      <trkpt lat="46.40312" lon="5.66886">
        <ele>480</ele>
        <time>2019-05-19T18:39:46Z</time>
      </trkpt>
      <trkpt lat="46.40324" lon="5.66866">
        <ele>485</ele>
        <time>2019-05-19T18:39:50Z</time>
      </trkpt>
      <trkpt lat="46.40328" lon="5.66849">
        <ele>487</ele>
        <time>2019-05-19T18:39:52Z</time>
      </trkpt>
      <trkpt lat="46.40327" lon="5.66834">
        <ele>489</ele>
        <time>2019-05-19T18:39:54Z</time>
      </trkpt>
      <trkpt lat="46.40324" lon="5.66822">
        <ele>490</ele>
        <time>2019-05-19T18:39:55Z</time>
      </trkpt>
      <trkpt lat="46.40315" lon="5.66805">
        <ele>490</ele>
        <time>2019-05-19T18:39:58Z</time>
      </trkpt>
      <trkpt lat="46.40307" lon="5.66798">
        <ele>490</ele>
        <time>2019-05-19T18:40:00Z</time>
      </trkpt>
      <trkpt lat="46.40295" lon="5.66795">
        <ele>490</ele>
        <time>2019-05-19T18:40:02Z</time>
      </trkpt>
      <trkpt lat="46.40263" lon="5.66793">
        <ele>487</ele>
        <time>2019-05-19T18:40:07Z</time>
      </trkpt>
      <trkpt lat="46.4025" lon="5.6679">
        <ele>487</ele>
        <time>2019-05-19T18:40:10Z</time>
      </trkpt>
      <trkpt lat="46.40223" lon="5.66774">
        <ele>483</ele>
        <time>2019-05-19T18:40:15Z</time>
      </trkpt>
      <trkpt lat="46.40206" lon="5.66757">
        <ele>482</ele>
        <time>2019-05-19T18:40:19Z</time>
      </trkpt>
      <trkpt lat="46.4001" lon="5.66468">
        <ele>488</ele>
        <time>2019-05-19T18:41:08Z</time>
      </trkpt>
      <trkpt lat="46.3999" lon="5.66436">
        <ele>488</ele>
        <time>2019-05-19T18:41:14Z</time>
      </trkpt>
      <trkpt lat="46.39932" lon="5.66309">
        <ele>494</ele>
        <time>2019-05-19T18:41:32Z</time>
      </trkpt>
      <trkpt lat="46.39898" lon="5.66228">
        <ele>496</ele>
        <time>2019-05-19T18:41:44Z</time>
      </trkpt>
      <trkpt lat="46.39878" lon="5.6619">
        <ele>495</ele>
        <time>2019-05-19T18:41:50Z</time>
      </trkpt>
      <trkpt lat="46.39859" lon="5.66142">
        <ele>492</ele>
        <time>2019-05-19T18:41:57Z</time>
      </trkpt>
      <trkpt lat="46.39855" lon="5.66127">
        <ele>490</ele>
        <time>2019-05-19T18:41:59Z</time>
      </trkpt>
      <trkpt lat="46.3985" lon="5.66078">
        <ele>487</ele>
        <time>2019-05-19T18:42:05Z</time>
      </trkpt>
      <trkpt lat="46.39851" lon="5.66049">
        <ele>488</ele>
        <time>2019-05-19T18:42:08Z</time>
      </trkpt>
      <trkpt lat="46.39862" lon="5.65925">
        <ele>492</ele>
        <time>2019-05-19T18:42:24Z</time>
      </trkpt>
      <trkpt lat="46.3987" lon="5.65893">
        <ele>495</ele>
        <time>2019-05-19T18:42:28Z</time>
      </trkpt>
      <trkpt lat="46.39879" lon="5.65876">
        <ele>497</ele>
        <time>2019-05-19T18:42:30Z</time>
      </trkpt>
      <trkpt lat="46.39903" lon="5.65849">
        <ele>501</ele>
        <time>2019-05-19T18:42:36Z</time>
      </trkpt>
      <trkpt lat="46.39937" lon="5.65818">
        <ele>504</ele>
        <time>2019-05-19T18:42:43Z</time>
      </trkpt>
      <trkpt lat="46.39963" lon="5.65784">
        <ele>506</ele>
        <time>2019-05-19T18:42:49Z</time>
      </trkpt>
      <trkpt lat="46.39977" lon="5.65758">
        <ele>508</ele>
        <time>2019-05-19T18:42:53Z</time>
      </trkpt>
      <trkpt lat="46.39998" lon="5.65674">
        <ele>509</ele>
        <time>2019-05-19T18:43:04Z</time>
      </trkpt>
      <trkpt lat="46.40009" lon="5.65648">
        <ele>509</ele>
        <time>2019-05-19T18:43:08Z</time>
      </trkpt>
      <trkpt lat="46.40037" lon="5.65607">
        <ele>509</ele>
        <time>2019-05-19T18:43:15Z</time>
      </trkpt>
      <trkpt lat="46.40103" lon="5.65518">
        <ele>507</ele>
        <time>2019-05-19T18:43:31Z</time>
      </trkpt>
      <trkpt lat="46.40152" lon="5.65465">
        <ele>508</ele>
        <time>2019-05-19T18:43:42Z</time>
      </trkpt>
      <trkpt lat="46.40173" lon="5.65436">
        <ele>508</ele>
        <time>2019-05-19T18:43:47Z</time>
      </trkpt>
      <trkpt lat="46.402" lon="5.65388">
        <ele>510</ele>
        <time>2019-05-19T18:43:55Z</time>
      </trkpt>
      <trkpt lat="46.40236" lon="5.65332">
        <ele>512</ele>
        <time>2019-05-19T18:44:04Z</time>
      </trkpt>
      <trkpt lat="46.40254" lon="5.65282">
        <ele>511</ele>
        <time>2019-05-19T18:44:11Z</time>
      </trkpt>
      <trkpt lat="46.4026" lon="5.65252">
        <ele>512</ele>
        <time>2019-05-19T18:44:15Z</time>
      </trkpt>
      <trkpt lat="46.40261" lon="5.65188">
        <ele>512</ele>
        <time>2019-05-19T18:44:23Z</time>
      </trkpt>
      <trkpt lat="46.40263" lon="5.65173">
        <ele>512</ele>
        <time>2019-05-19T18:44:25Z</time>
      </trkpt>
      <trkpt lat="46.40272" lon="5.65138">
        <ele>513</ele>
        <time>2019-05-19T18:44:29Z</time>
      </trkpt>
      <trkpt lat="46.40286" lon="5.65059">
        <ele>515</ele>
        <time>2019-05-19T18:44:39Z</time>
      </trkpt>
      <trkpt lat="46.40295" lon="5.65023">
        <ele>516</ele>
        <time>2019-05-19T18:44:44Z</time>
      </trkpt>
      <trkpt lat="46.40302" lon="5.6501">
        <ele>516</ele>
        <time>2019-05-19T18:44:46Z</time>
      </trkpt>
      <trkpt lat="46.40322" lon="5.64959">
        <ele>516</ele>
        <time>2019-05-19T18:44:53Z</time>
      </trkpt>
      <trkpt lat="46.40345" lon="5.64885">
        <ele>515</ele>
        <time>2019-05-19T18:45:03Z</time>
      </trkpt>
      <trkpt lat="46.40355" lon="5.64869">
        <ele>515</ele>
        <time>2019-05-19T18:45:06Z</time>
      </trkpt>
      <trkpt lat="46.40372" lon="5.64854">
        <ele>516</ele>
        <time>2019-05-19T18:45:09Z</time>
      </trkpt>
      <trkpt lat="46.40392" lon="5.64848">
        <ele>516</ele>
        <time>2019-05-19T18:45:13Z</time>
      </trkpt>
      <trkpt lat="46.4042" lon="5.64846">
        <ele>515</ele>
        <time>2019-05-19T18:45:18Z</time>
      </trkpt>
      <trkpt lat="46.40536" lon="5.64864">
        <ele>512</ele>
        <time>2019-05-19T18:45:39Z</time>
      </trkpt>
      <trkpt lat="46.4067" lon="5.64835">
        <ele>512</ele>
        <time>2019-05-19T18:46:03Z</time>
      </trkpt>
      <trkpt lat="46.40703" lon="5.64832">
        <ele>512</ele>
        <time>2019-05-19T18:46:09Z</time>
      </trkpt>
      <trkpt lat="46.40727" lon="5.64835">
        <ele>512</ele>
        <time>2019-05-19T18:46:13Z</time>
      </trkpt>
      <trkpt lat="46.40777" lon="5.64834">
        <ele>513</ele>
        <time>2019-05-19T18:46:22Z</time>
      </trkpt>
      <trkpt lat="46.40842" lon="5.6484">
        <ele>516</ele>
        <time>2019-05-19T18:46:33Z</time>
      </trkpt>
      <trkpt lat="46.40886" lon="5.64837">
        <ele>520</ele>
        <time>2019-05-19T18:46:41Z</time>
      </trkpt>
      <trkpt lat="46.40925" lon="5.64838">
        <ele>524</ele>
        <time>2019-05-19T18:46:48Z</time>
      </trkpt>
      <trkpt lat="46.40959" lon="5.64843">
        <ele>526</ele>
        <time>2019-05-19T18:46:54Z</time>
      </trkpt>
      <trkpt lat="46.4108" lon="5.64867">
        <ele>535</ele>
        <time>2019-05-19T18:47:16Z</time>
      </trkpt>
      <trkpt lat="46.41171" lon="5.64891">
        <ele>535</ele>
        <time>2019-05-19T18:47:32Z</time>
      </trkpt>
      <trkpt lat="46.41267" lon="5.64903">
        <ele>535</ele>
        <time>2019-05-19T18:47:50Z</time>
      </trkpt>
      <trkpt lat="46.41316" lon="5.64901">
        <ele>537</ele>
        <time>2019-05-19T18:47:58Z</time>
      </trkpt>
      <trkpt lat="46.41347" lon="5.64911">
        <ele>536</ele>
        <time>2019-05-19T18:48:04Z</time>
      </trkpt>
      <trkpt lat="46.41375" lon="5.64915">
        <ele>537</ele>
        <time>2019-05-19T18:48:09Z</time>
      </trkpt>
      <trkpt lat="46.41396" lon="5.64912">
        <ele>539</ele>
        <time>2019-05-19T18:48:13Z</time>
      </trkpt>
      <trkpt lat="46.41432" lon="5.64897">
        <ele>543</ele>
        <time>2019-05-19T18:48:19Z</time>
      </trkpt>
      <trkpt lat="46.4145" lon="5.64893">
        <ele>544</ele>
        <time>2019-05-19T18:48:23Z</time>
      </trkpt>
      <trkpt lat="46.41511" lon="5.64891">
        <ele>547</ele>
        <time>2019-05-19T18:48:34Z</time>
      </trkpt>
      <trkpt lat="46.41551" lon="5.64901">
        <ele>547</ele>
        <time>2019-05-19T18:48:41Z</time>
      </trkpt>
      <trkpt lat="46.41581" lon="5.64898">
        <ele>549</ele>
        <time>2019-05-19T18:48:46Z</time>
      </trkpt>
      <trkpt lat="46.41599" lon="5.64889">
        <ele>551</ele>
        <time>2019-05-19T18:48:49Z</time>
      </trkpt>
      <trkpt lat="46.41667" lon="5.64887">
        <ele>554</ele>
        <time>2019-05-19T18:49:02Z</time>
      </trkpt>
      <trkpt lat="46.41704" lon="5.64892">
        <ele>557</ele>
        <time>2019-05-19T18:49:08Z</time>
      </trkpt>
      <trkpt lat="46.41748" lon="5.649">
        <ele>560</ele>
        <time>2019-05-19T18:49:16Z</time>
      </trkpt>
      <trkpt lat="46.41803" lon="5.64924">
        <ele>562</ele>
        <time>2019-05-19T18:49:26Z</time>
      </trkpt>
      <trkpt lat="46.41878" lon="5.64931">
        <ele>568</ele>
        <time>2019-05-19T18:49:40Z</time>
      </trkpt>
      <trkpt lat="46.41925" lon="5.64932">
        <ele>571</ele>
        <time>2019-05-19T18:49:48Z</time>
      </trkpt>
      <trkpt lat="46.4196" lon="5.64935">
        <ele>575</ele>
        <time>2019-05-19T18:49:54Z</time>
      </trkpt>
      <trkpt lat="46.41986" lon="5.64951">
        <ele>574</ele>
        <time>2019-05-19T18:49:59Z</time>
      </trkpt>
      <trkpt lat="46.42035" lon="5.64965">
        <ele>576</ele>
        <time>2019-05-19T18:50:08Z</time>
      </trkpt>
      <trkpt lat="46.42086" lon="5.64976">
        <ele>579</ele>
        <time>2019-05-19T18:50:17Z</time>
      </trkpt>
      <trkpt lat="46.4221" lon="5.64988">
        <ele>587</ele>
        <time>2019-05-19T18:50:39Z</time>
      </trkpt>
      <trkpt lat="46.42232" lon="5.64986">
        <ele>588</ele>
        <time>2019-05-19T18:50:43Z</time>
      </trkpt>
      <trkpt lat="46.42294" lon="5.64971">
        <ele>593</ele>
        <time>2019-05-19T18:50:55Z</time>
      </trkpt>
      <trkpt lat="46.42348" lon="5.64934">
        <ele>595</ele>
        <time>2019-05-19T18:51:05Z</time>
      </trkpt>
      <trkpt lat="46.42401" lon="5.64932">
        <ele>595</ele>
        <time>2019-05-19T18:51:15Z</time>
      </trkpt>
      <trkpt lat="46.42433" lon="5.64924">
        <ele>592</ele>
        <time>2019-05-19T18:51:20Z</time>
      </trkpt>
      <trkpt lat="46.42454" lon="5.64922">
        <ele>589</ele>
        <time>2019-05-19T18:51:24Z</time>
      </trkpt>
      <trkpt lat="46.42523" lon="5.64938">
        <ele>583</ele>
        <time>2019-05-19T18:51:37Z</time>
      </trkpt>
      <trkpt lat="46.42555" lon="5.64937">
        <ele>581</ele>
        <time>2019-05-19T18:51:42Z</time>
      </trkpt>
      <trkpt lat="46.42622" lon="5.64939">
        <ele>578</ele>
        <time>2019-05-19T18:51:54Z</time>
      </trkpt>
      <trkpt lat="46.42674" lon="5.64945">
        <ele>578</ele>
        <time>2019-05-19T18:52:03Z</time>
      </trkpt>
      <trkpt lat="46.42786" lon="5.6498">
        <ele>576</ele>
        <time>2019-05-19T18:52:24Z</time>
      </trkpt>
      <trkpt lat="46.42824" lon="5.64988">
        <ele>575</ele>
        <time>2019-05-19T18:52:31Z</time>
      </trkpt>
      <trkpt lat="46.42963" lon="5.65008">
        <ele>572</ele>
        <time>2019-05-19T18:52:56Z</time>
      </trkpt>
      <trkpt lat="46.42995" lon="5.65016">
        <ele>573</ele>
        <time>2019-05-19T18:53:01Z</time>
      </trkpt>
      <trkpt lat="46.43278" lon="5.65123">
        <ele>573</ele>
        <time>2019-05-19T18:53:53Z</time>
      </trkpt>
      <trkpt lat="46.43302" lon="5.6513">
        <ele>572</ele>
        <time>2019-05-19T18:53:58Z</time>
      </trkpt>
      <trkpt lat="46.43487" lon="5.65162">
        <ele>563</ele>
        <time>2019-05-19T18:54:31Z</time>
      </trkpt>
      <trkpt lat="46.43676" lon="5.65185">
        <ele>560</ele>
        <time>2019-05-19T18:55:05Z</time>
      </trkpt>
      <trkpt lat="46.43705" lon="5.65194">
        <ele>560</ele>
        <time>2019-05-19T18:55:10Z</time>
      </trkpt>
      <trkpt lat="46.43718" lon="5.65201">
        <ele>560</ele>
        <time>2019-05-19T18:55:12Z</time>
      </trkpt>
      <trkpt lat="46.43769" lon="5.65241">
        <ele>561</ele>
        <time>2019-05-19T18:55:23Z</time>
      </trkpt>
      <trkpt lat="46.43825" lon="5.65274">
        <ele>558</ele>
        <time>2019-05-19T18:55:33Z</time>
      </trkpt>
      <trkpt lat="46.43864" lon="5.65302">
        <ele>557</ele>
        <time>2019-05-19T18:55:41Z</time>
      </trkpt>
      <trkpt lat="46.43881" lon="5.6532">
        <ele>557</ele>
        <time>2019-05-19T18:55:45Z</time>
      </trkpt>
      <trkpt lat="46.43902" lon="5.65351">
        <ele>557</ele>
        <time>2019-05-19T18:55:50Z</time>
      </trkpt>
      <trkpt lat="46.43919" lon="5.65369">
        <ele>557</ele>
        <time>2019-05-19T18:55:54Z</time>
      </trkpt>
      <trkpt lat="46.43941" lon="5.65387">
        <ele>557</ele>
        <time>2019-05-19T18:55:59Z</time>
      </trkpt>
      <trkpt lat="46.44027" lon="5.65439">
        <ele>548</ele>
        <time>2019-05-19T18:56:15Z</time>
      </trkpt>
      <trkpt lat="46.4407" lon="5.65471">
        <ele>548</ele>
        <time>2019-05-19T18:56:24Z</time>
      </trkpt>
      <trkpt lat="46.44082" lon="5.65476">
        <ele>548</ele>
        <time>2019-05-19T18:56:26Z</time>
      </trkpt>
      <trkpt lat="46.44096" lon="5.65478">
        <ele>549</ele>
        <time>2019-05-19T18:56:28Z</time>
      </trkpt>
      <trkpt lat="46.44107" lon="5.65475">
        <ele>550</ele>
        <time>2019-05-19T18:56:30Z</time>
      </trkpt>
      <trkpt lat="46.44119" lon="5.65468">
        <ele>550</ele>
        <time>2019-05-19T18:56:33Z</time>
      </trkpt>
      <trkpt lat="46.44134" lon="5.65458">
        <ele>550</ele>
        <time>2019-05-19T18:56:36Z</time>
      </trkpt>
      <trkpt lat="46.44158" lon="5.65436">
        <ele>549</ele>
        <time>2019-05-19T18:56:41Z</time>
      </trkpt>
      <trkpt lat="46.44177" lon="5.65423">
        <ele>549</ele>
        <time>2019-05-19T18:56:44Z</time>
      </trkpt>
      <trkpt lat="46.44202" lon="5.65416">
        <ele>549</ele>
        <time>2019-05-19T18:56:49Z</time>
      </trkpt>
      <trkpt lat="46.44222" lon="5.65416">
        <ele>550</ele>
        <time>2019-05-19T18:56:53Z</time>
      </trkpt>
      <trkpt lat="46.44249" lon="5.65429">
        <ele>553</ele>
        <time>2019-05-19T18:56:58Z</time>
      </trkpt>
      <trkpt lat="46.44273" lon="5.65446">
        <ele>556</ele>
        <time>2019-05-19T18:57:02Z</time>
      </trkpt>
      <trkpt lat="46.44289" lon="5.65455">
        <ele>557</ele>
        <time>2019-05-19T18:57:05Z</time>
      </trkpt>
      <trkpt lat="46.44334" lon="5.65473">
        <ele>559</ele>
        <time>2019-05-19T18:57:14Z</time>
      </trkpt>
      <trkpt lat="46.44357" lon="5.65479">
        <ele>561</ele>
        <time>2019-05-19T18:57:18Z</time>
      </trkpt>
      <trkpt lat="46.44411" lon="5.65486">
        <ele>564</ele>
        <time>2019-05-19T18:57:27Z</time>
      </trkpt>
      <trkpt lat="46.44501" lon="5.65496">
        <ele>570</ele>
        <time>2019-05-19T18:57:44Z</time>
      </trkpt>
      <trkpt lat="46.4459" lon="5.65517">
        <ele>571</ele>
        <time>2019-05-19T18:58:00Z</time>
      </trkpt>
      <trkpt lat="46.44632" lon="5.6553">
        <ele>571</ele>
        <time>2019-05-19T18:58:07Z</time>
      </trkpt>
      <trkpt lat="46.44713" lon="5.65549">
        <ele>572</ele>
        <time>2019-05-19T18:58:22Z</time>
      </trkpt>
      <trkpt lat="46.44826" lon="5.65565">
        <ele>575</ele>
        <time>2019-05-19T18:58:42Z</time>
      </trkpt>
      <trkpt lat="46.44841" lon="5.65562">
        <ele>575</ele>
        <time>2019-05-19T18:58:45Z</time>
      </trkpt>
      <trkpt lat="46.44869" lon="5.65552">
        <ele>576</ele>
        <time>2019-05-19T18:58:50Z</time>
      </trkpt>
      <trkpt lat="46.44966" lon="5.65526">
        <ele>581</ele>
        <time>2019-05-19T18:59:07Z</time>
      </trkpt>
      <trkpt lat="46.45051" lon="5.65513">
        <ele>587</ele>
        <time>2019-05-19T18:59:23Z</time>
      </trkpt>
      <trkpt lat="46.45084" lon="5.65502">
        <ele>589</ele>
        <time>2019-05-19T18:59:29Z</time>
      </trkpt>
      <trkpt lat="46.45118" lon="5.65488">
        <ele>589</ele>
        <time>2019-05-19T18:59:35Z</time>
      </trkpt>
      <trkpt lat="46.45189" lon="5.65448">
        <ele>588</ele>
        <time>2019-05-19T18:59:48Z</time>
      </trkpt>
      <trkpt lat="46.45209" lon="5.6544">
        <ele>589</ele>
        <time>2019-05-19T18:59:52Z</time>
      </trkpt>
      <trkpt lat="46.45232" lon="5.65434">
        <ele>590</ele>
        <time>2019-05-19T18:59:56Z</time>
      </trkpt>
      <trkpt lat="46.4528" lon="5.6543">
        <ele>591</ele>
        <time>2019-05-19T19:00:05Z</time>
      </trkpt>
      <trkpt lat="46.4536" lon="5.65409">
        <ele>589</ele>
        <time>2019-05-19T19:00:19Z</time>
      </trkpt>
      <trkpt lat="46.45434" lon="5.65398">
        <ele>589</ele>
        <time>2019-05-19T19:00:33Z</time>
      </trkpt>
      <trkpt lat="46.45457" lon="5.65388">
        <ele>588</ele>
        <time>2019-05-19T19:00:37Z</time>
      </trkpt>
      <trkpt lat="46.45506" lon="5.6535">
        <ele>588</ele>
        <time>2019-05-19T19:00:47Z</time>
      </trkpt>
      <trkpt lat="46.45533" lon="5.65333">
        <ele>588</ele>
        <time>2019-05-19T19:00:52Z</time>
      </trkpt>
      <trkpt lat="46.4554" lon="5.65331">
        <ele>588</ele>
        <time>2019-05-19T19:00:53Z</time>
      </trkpt>
      <trkpt lat="46.45556" lon="5.65332">
        <ele>589</ele>
        <time>2019-05-19T19:00:56Z</time>
      </trkpt>
      <trkpt lat="46.45568" lon="5.65339">
        <ele>588</ele>
        <time>2019-05-19T19:00:58Z</time>
      </trkpt>
      <trkpt lat="46.45594" lon="5.65359">
        <ele>587</ele>
        <time>2019-05-19T19:01:04Z</time>
      </trkpt>
      <trkpt lat="46.45623" lon="5.65367">
        <ele>586</ele>
        <time>2019-05-19T19:01:09Z</time>
      </trkpt>
      <trkpt lat="46.45669" lon="5.65374">
        <ele>585</ele>
        <time>2019-05-19T19:01:17Z</time>
      </trkpt>
      <trkpt lat="46.45707" lon="5.65377">
        <ele>583</ele>
        <time>2019-05-19T19:01:24Z</time>
      </trkpt>
      <trkpt lat="46.45847" lon="5.65382">
        <ele>577</ele>
        <time>2019-05-19T19:01:49Z</time>
      </trkpt>
      <trkpt lat="46.45863" lon="5.65385">
        <ele>577</ele>
        <time>2019-05-19T19:01:52Z</time>
      </trkpt>
      <trkpt lat="46.45908" lon="5.65397">
        <ele>576</ele>
        <time>2019-05-19T19:02:00Z</time>
      </trkpt>
      <trkpt lat="46.45927" lon="5.65404">
        <ele>576</ele>
        <time>2019-05-19T19:02:03Z</time>
      </trkpt>
      <trkpt lat="46.45942" lon="5.65413">
        <ele>576</ele>
        <time>2019-05-19T19:02:06Z</time>
      </trkpt>
      <trkpt lat="46.45975" lon="5.65437">
        <ele>575</ele>
        <time>2019-05-19T19:02:13Z</time>
      </trkpt>
      <trkpt lat="46.46004" lon="5.6545">
        <ele>574</ele>
        <time>2019-05-19T19:02:18Z</time>
      </trkpt>
      <trkpt lat="46.46023" lon="5.65453">
        <ele>573</ele>
        <time>2019-05-19T19:02:22Z</time>
      </trkpt>
      <trkpt lat="46.46121" lon="5.6546">
        <ele>571</ele>
        <time>2019-05-19T19:02:39Z</time>
      </trkpt>
      <trkpt lat="46.46184" lon="5.65471">
        <ele>570</ele>
        <time>2019-05-19T19:02:50Z</time>
      </trkpt>
      <trkpt lat="46.46256" lon="5.65478">
        <ele>569</ele>
        <time>2019-05-19T19:03:03Z</time>
      </trkpt>
      <trkpt lat="46.4627" lon="5.65482">
        <ele>569</ele>
        <time>2019-05-19T19:03:06Z</time>
      </trkpt>
      <trkpt lat="46.46282" lon="5.65488">
        <ele>569</ele>
        <time>2019-05-19T19:03:08Z</time>
      </trkpt>
      <trkpt lat="46.46294" lon="5.65497">
        <ele>569</ele>
        <time>2019-05-19T19:03:10Z</time>
      </trkpt>
      <trkpt lat="46.46303" lon="5.6551">
        <ele>569</ele>
        <time>2019-05-19T19:03:13Z</time>
      </trkpt>
      <trkpt lat="46.46326" lon="5.65559">
        <ele>570</ele>
        <time>2019-05-19T19:03:20Z</time>
      </trkpt>
      <trkpt lat="46.46334" lon="5.65572">
        <ele>571</ele>
        <time>2019-05-19T19:03:22Z</time>
      </trkpt>
      <trkpt lat="46.46344" lon="5.6558">
        <ele>571</ele>
        <time>2019-05-19T19:03:24Z</time>
      </trkpt>
      <trkpt lat="46.46354" lon="5.65586">
        <ele>572</ele>
        <time>2019-05-19T19:03:26Z</time>
      </trkpt>
      <trkpt lat="46.4639" lon="5.65597">
        <ele>574</ele>
        <time>2019-05-19T19:03:33Z</time>
      </trkpt>
      <trkpt lat="46.46441" lon="5.65602">
        <ele>574</ele>
        <time>2019-05-19T19:03:42Z</time>
      </trkpt>
      <trkpt lat="46.46453" lon="5.65607">
        <ele>574</ele>
        <time>2019-05-19T19:03:44Z</time>
      </trkpt>
      <trkpt lat="46.46491" lon="5.65638">
        <ele>575</ele>
        <time>2019-05-19T19:03:52Z</time>
      </trkpt>
      <trkpt lat="46.46514" lon="5.65645">
        <ele>575</ele>
        <time>2019-05-19T19:03:56Z</time>
      </trkpt>
      <trkpt lat="46.46538" lon="5.65647">
        <ele>575</ele>
        <time>2019-05-19T19:04:00Z</time>
      </trkpt>
      <trkpt lat="46.46605" lon="5.65638">
        <ele>574</ele>
        <time>2019-05-19T19:04:12Z</time>
      </trkpt>
      <trkpt lat="46.46664" lon="5.65636">
        <ele>574</ele>
        <time>2019-05-19T19:04:23Z</time>
      </trkpt>
      <trkpt lat="46.46736" lon="5.65625">
        <ele>574</ele>
        <time>2019-05-19T19:04:35Z</time>
      </trkpt>
      <trkpt lat="46.46805" lon="5.65606">
        <ele>573</ele>
        <time>2019-05-19T19:04:48Z</time>
      </trkpt>
      <trkpt lat="46.46909" lon="5.65597">
        <ele>576</ele>
        <time>2019-05-19T19:05:06Z</time>
      </trkpt>
      <trkpt lat="46.4695" lon="5.6559">
        <ele>575</ele>
        <time>2019-05-19T19:05:14Z</time>
      </trkpt>
      <trkpt lat="46.47004" lon="5.65585">
        <ele>576</ele>
        <time>2019-05-19T19:05:23Z</time>
      </trkpt>
      <trkpt lat="46.47027" lon="5.65586">
        <ele>576</ele>
        <time>2019-05-19T19:05:27Z</time>
      </trkpt>
      <trkpt lat="46.47064" lon="5.65594">
        <ele>576</ele>
        <time>2019-05-19T19:05:34Z</time>
      </trkpt>
      <trkpt lat="46.47131" lon="5.65597">
        <ele>573</ele>
        <time>2019-05-19T19:05:46Z</time>
      </trkpt>
      <trkpt lat="46.47224" lon="5.65607">
        <ele>570</ele>
        <time>2019-05-19T19:06:03Z</time>
      </trkpt>
      <trkpt lat="46.47235" lon="5.65612">
        <ele>570</ele>
        <time>2019-05-19T19:06:05Z</time>
      </trkpt>
      <trkpt lat="46.47248" lon="5.65621">
        <ele>570</ele>
        <time>2019-05-19T19:06:07Z</time>
      </trkpt>
      <trkpt lat="46.4727" lon="5.65643">
        <ele>571</ele>
        <time>2019-05-19T19:06:12Z</time>
      </trkpt>
      <trkpt lat="46.47282" lon="5.65652">
        <ele>572</ele>
        <time>2019-05-19T19:06:14Z</time>
      </trkpt>
      <trkpt lat="46.47296" lon="5.65657">
        <ele>572</ele>
        <time>2019-05-19T19:06:17Z</time>
      </trkpt>
      <trkpt lat="46.47311" lon="5.65658">
        <ele>571</ele>
        <time>2019-05-19T19:06:20Z</time>
      </trkpt>
      <trkpt lat="46.47321" lon="5.65656">
        <ele>571</ele>
        <time>2019-05-19T19:06:21Z</time>
      </trkpt>
      <trkpt lat="46.47335" lon="5.65648">
        <ele>570</ele>
        <time>2019-05-19T19:06:24Z</time>
      </trkpt>
      <trkpt lat="46.47351" lon="5.65629">
        <ele>571</ele>
        <time>2019-05-19T19:06:28Z</time>
      </trkpt>
      <trkpt lat="46.47375" lon="5.65585">
        <ele>571</ele>
        <time>2019-05-19T19:06:35Z</time>
      </trkpt>
      <trkpt lat="46.47389" lon="5.65564">
        <ele>571</ele>
        <time>2019-05-19T19:06:38Z</time>
      </trkpt>
      <trkpt lat="46.47402" lon="5.6555">
        <ele>571</ele>
        <time>2019-05-19T19:06:41Z</time>
      </trkpt>
      <trkpt lat="46.4742" lon="5.65536">
        <ele>571</ele>
        <time>2019-05-19T19:06:45Z</time>
      </trkpt>
      <trkpt lat="46.47445" lon="5.65522">
        <ele>569</ele>
        <time>2019-05-19T19:06:50Z</time>
      </trkpt>
      <trkpt lat="46.47461" lon="5.65517">
        <ele>569</ele>
        <time>2019-05-19T19:06:52Z</time>
      </trkpt>
      <trkpt lat="46.47494" lon="5.65514">
        <ele>569</ele>
        <time>2019-05-19T19:06:58Z</time>
      </trkpt>
      <trkpt lat="46.47519" lon="5.65521">
        <ele>570</ele>
        <time>2019-05-19T19:07:03Z</time>
      </trkpt>
      <trkpt lat="46.47551" lon="5.65543">
        <ele>574</ele>
        <time>2019-05-19T19:07:09Z</time>
      </trkpt>
      <trkpt lat="46.47566" lon="5.65548">
        <ele>575</ele>
        <time>2019-05-19T19:07:12Z</time>
      </trkpt>
      <trkpt lat="46.47576" lon="5.65549">
        <ele>576</ele>
        <time>2019-05-19T19:07:14Z</time>
      </trkpt>
      <trkpt lat="46.47587" lon="5.65546">
        <ele>575</ele>
        <time>2019-05-19T19:07:16Z</time>
      </trkpt>
      <trkpt lat="46.47604" lon="5.65537">
        <ele>576</ele>
        <time>2019-05-19T19:07:19Z</time>
      </trkpt>
      <trkpt lat="46.47673" lon="5.65487">
        <ele>575</ele>
        <time>2019-05-19T19:07:33Z</time>
      </trkpt>
      <trkpt lat="46.47721" lon="5.65437">
        <ele>573</ele>
        <time>2019-05-19T19:07:43Z</time>
      </trkpt>
      <trkpt lat="46.47741" lon="5.6542">
        <ele>572</ele>
        <time>2019-05-19T19:07:47Z</time>
      </trkpt>
      <trkpt lat="46.47774" lon="5.65403">
        <ele>571</ele>
        <time>2019-05-19T19:07:54Z</time>
      </trkpt>
      <trkpt lat="46.47787" lon="5.65393">
        <ele>571</ele>
        <time>2019-05-19T19:07:56Z</time>
      </trkpt>
      <trkpt lat="46.47825" lon="5.65342">
        <ele>572</ele>
        <time>2019-05-19T19:08:05Z</time>
      </trkpt>
      <trkpt lat="46.47837" lon="5.65333">
        <ele>573</ele>
        <time>2019-05-19T19:08:08Z</time>
      </trkpt>
      <trkpt lat="46.47858" lon="5.6533">
        <ele>574</ele>
        <time>2019-05-19T19:08:11Z</time>
      </trkpt>
      <trkpt lat="46.47891" lon="5.65341">
        <ele>575</ele>
        <time>2019-05-19T19:08:18Z</time>
      </trkpt>
      <trkpt lat="46.47912" lon="5.65353">
        <ele>576</ele>
        <time>2019-05-19T19:08:22Z</time>
      </trkpt>
      <trkpt lat="46.47924" lon="5.65365">
        <ele>576</ele>
        <time>2019-05-19T19:08:24Z</time>
      </trkpt>
      <trkpt lat="46.47952" lon="5.65385">
        <ele>578</ele>
        <time>2019-05-19T19:08:30Z</time>
      </trkpt>
      <trkpt lat="46.47988" lon="5.65395">
        <ele>581</ele>
        <time>2019-05-19T19:08:36Z</time>
      </trkpt>
      <trkpt lat="46.48019" lon="5.65399">
        <ele>582</ele>
        <time>2019-05-19T19:08:42Z</time>
      </trkpt>
      <trkpt lat="46.48215" lon="5.65444">
        <ele>579</ele>
        <time>2019-05-19T19:09:17Z</time>
      </trkpt>
      <trkpt lat="46.48299" lon="5.65476">
        <ele>570</ele>
        <time>2019-05-19T19:09:32Z</time>
      </trkpt>
      <trkpt lat="46.48314" lon="5.65478">
        <ele>568</ele>
        <time>2019-05-19T19:09:35Z</time>
      </trkpt>
      <trkpt lat="46.48329" lon="5.65508">
        <ele>566</ele>
        <time>2019-05-19T19:09:40Z</time>
      </trkpt>
      <trkpt lat="46.48331" lon="5.65543">
        <ele>566</ele>
        <time>2019-05-19T19:09:44Z</time>
      </trkpt>
      <trkpt lat="46.48342" lon="5.65566">
        <ele>566</ele>
        <time>2019-05-19T19:09:47Z</time>
      </trkpt>
      <trkpt lat="46.48363" lon="5.65578">
        <ele>566</ele>
        <time>2019-05-19T19:09:51Z</time>
      </trkpt>
      <trkpt lat="46.48385" lon="5.65575">
        <ele>565</ele>
        <time>2019-05-19T19:09:55Z</time>
      </trkpt>
      <trkpt lat="46.48409" lon="5.65552">
        <ele>563</ele>
        <time>2019-05-19T19:10:01Z</time>
      </trkpt>
      <trkpt lat="46.4843" lon="5.65549">
        <ele>562</ele>
        <time>2019-05-19T19:10:04Z</time>
      </trkpt>
      <trkpt lat="46.48446" lon="5.65554">
        <ele>562</ele>
        <time>2019-05-19T19:10:07Z</time>
      </trkpt>
      <trkpt lat="46.48468" lon="5.65557">
        <ele>562</ele>
        <time>2019-05-19T19:10:11Z</time>
      </trkpt>
      <trkpt lat="46.48496" lon="5.65545">
        <ele>560</ele>
        <time>2019-05-19T19:10:16Z</time>
      </trkpt>
      <trkpt lat="46.48518" lon="5.65532">
        <ele>556</ele>
        <time>2019-05-19T19:10:21Z</time>
      </trkpt>
      <trkpt lat="46.48544" lon="5.65521">
        <ele>552</ele>
        <time>2019-05-19T19:10:25Z</time>
      </trkpt>
      <trkpt lat="46.48563" lon="5.65518">
        <ele>550</ele>
        <time>2019-05-19T19:10:29Z</time>
      </trkpt>
      <trkpt lat="46.48582" lon="5.65533">
        <ele>552</ele>
        <time>2019-05-19T19:10:33Z</time>
      </trkpt>
      <trkpt lat="46.48641" lon="5.65591">
        <ele>552</ele>
        <time>2019-05-19T19:10:45Z</time>
      </trkpt>
      <trkpt lat="46.48657" lon="5.65597">
        <ele>549</ele>
        <time>2019-05-19T19:10:48Z</time>
      </trkpt>
      <trkpt lat="46.48713" lon="5.65609">
        <ele>542</ele>
        <time>2019-05-19T19:10:58Z</time>
      </trkpt>
      <trkpt lat="46.48736" lon="5.65603">
        <ele>539</ele>
        <time>2019-05-19T19:11:02Z</time>
      </trkpt>
      <trkpt lat="46.48768" lon="5.65605">
        <ele>536</ele>
        <time>2019-05-19T19:11:08Z</time>
      </trkpt>
      <trkpt lat="46.48806" lon="5.6563">
        <ele>537</ele>
        <time>2019-05-19T19:11:16Z</time>
      </trkpt>
      <trkpt lat="46.48847" lon="5.65643">
        <ele>537</ele>
        <time>2019-05-19T19:11:23Z</time>
      </trkpt>
      <trkpt lat="46.48884" lon="5.6565">
        <ele>535</ele>
        <time>2019-05-19T19:11:30Z</time>
      </trkpt>
      <trkpt lat="46.48961" lon="5.65687">
        <ele>535</ele>
        <time>2019-05-19T19:11:44Z</time>
      </trkpt>
      <trkpt lat="46.49068" lon="5.65667">
        <ele>525</ele>
        <time>2019-05-19T19:12:03Z</time>
      </trkpt>
      <trkpt lat="46.49108" lon="5.65668">
        <ele>524</ele>
        <time>2019-05-19T19:12:10Z</time>
      </trkpt>
      <trkpt lat="46.49146" lon="5.65689">
        <ele>526</ele>
        <time>2019-05-19T19:12:18Z</time>
      </trkpt>
      <trkpt lat="46.49162" lon="5.65701">
        <ele>527</ele>
        <time>2019-05-19T19:12:21Z</time>
      </trkpt>
      <trkpt lat="46.49177" lon="5.65701">
        <ele>528</ele>
        <time>2019-05-19T19:12:24Z</time>
      </trkpt>
      <trkpt lat="46.492" lon="5.65694">
        <ele>529</ele>
        <time>2019-05-19T19:12:28Z</time>
      </trkpt>
      <trkpt lat="46.49226" lon="5.65669">
        <ele>527</ele>
        <time>2019-05-19T19:12:33Z</time>
      </trkpt>
      <trkpt lat="46.49279" lon="5.65631">
        <ele>526</ele>
        <time>2019-05-19T19:12:44Z</time>
      </trkpt>
      <trkpt lat="46.49314" lon="5.65591">
        <ele>523</ele>
        <time>2019-05-19T19:12:52Z</time>
      </trkpt>
      <trkpt lat="46.49325" lon="5.65581">
        <ele>523</ele>
        <time>2019-05-19T19:12:54Z</time>
      </trkpt>
      <trkpt lat="46.49359" lon="5.65558">
        <ele>525</ele>
        <time>2019-05-19T19:13:01Z</time>
      </trkpt>
      <trkpt lat="46.49377" lon="5.65543">
        <ele>525</ele>
        <time>2019-05-19T19:13:04Z</time>
      </trkpt>
      <trkpt lat="46.49426" lon="5.65477">
        <ele>517</ele>
        <time>2019-05-19T19:13:16Z</time>
      </trkpt>
      <trkpt lat="46.49446" lon="5.65445">
        <ele>511</ele>
        <time>2019-05-19T19:13:22Z</time>
      </trkpt>
      <trkpt lat="46.49471" lon="5.65437">
        <ele>511</ele>
        <time>2019-05-19T19:13:26Z</time>
      </trkpt>
      <trkpt lat="46.49535" lon="5.65438">
        <ele>514</ele>
        <time>2019-05-19T19:13:37Z</time>
      </trkpt>
      <trkpt lat="46.49567" lon="5.65427">
        <ele>510</ele>
        <time>2019-05-19T19:13:43Z</time>
      </trkpt>
      <trkpt lat="46.49624" lon="5.65418">
        <ele>507</ele>
        <time>2019-05-19T19:13:54Z</time>
      </trkpt>
      <trkpt lat="46.49638" lon="5.65419">
        <ele>507</ele>
        <time>2019-05-19T19:13:56Z</time>
      </trkpt>
      <trkpt lat="46.49663" lon="5.65418">
        <ele>506</ele>
        <time>2019-05-19T19:14:00Z</time>
      </trkpt>
      <trkpt lat="46.49681" lon="5.65423">
        <ele>507</ele>
        <time>2019-05-19T19:14:04Z</time>
      </trkpt>
      <trkpt lat="46.497" lon="5.65421">
        <ele>506</ele>
        <time>2019-05-19T19:14:07Z</time>
      </trkpt>
      <trkpt lat="46.49724" lon="5.65403">
        <ele>500</ele>
        <time>2019-05-19T19:14:12Z</time>
      </trkpt>
      <trkpt lat="46.49763" lon="5.65399">
        <ele>499</ele>
        <time>2019-05-19T19:14:19Z</time>
      </trkpt>
      <trkpt lat="46.49794" lon="5.65393">
        <ele>498</ele>
        <time>2019-05-19T19:14:24Z</time>
      </trkpt>
      <trkpt lat="46.49821" lon="5.6537">
        <ele>492</ele>
        <time>2019-05-19T19:14:30Z</time>
      </trkpt>
      <trkpt lat="46.49848" lon="5.65375">
        <ele>492</ele>
        <time>2019-05-19T19:14:35Z</time>
      </trkpt>
      <trkpt lat="46.49855" lon="5.6538">
        <ele>493</ele>
        <time>2019-05-19T19:14:36Z</time>
      </trkpt>
      <trkpt lat="46.49876" lon="5.65388">
        <ele>493</ele>
        <time>2019-05-19T19:14:40Z</time>
      </trkpt>
      <trkpt lat="46.49906" lon="5.65385">
        <ele>489</ele>
        <time>2019-05-19T19:14:45Z</time>
      </trkpt>
      <trkpt lat="46.49975" lon="5.65404">
        <ele>483</ele>
        <time>2019-05-19T19:14:58Z</time>
      </trkpt>
      <trkpt lat="46.50008" lon="5.65423">
        <ele>483</ele>
        <time>2019-05-19T19:15:04Z</time>
      </trkpt>
      <trkpt lat="46.5003" lon="5.65446">
        <ele>487</ele>
        <time>2019-05-19T19:15:09Z</time>
      </trkpt>
      <trkpt lat="46.50044" lon="5.65456">
        <ele>488</ele>
        <time>2019-05-19T19:15:12Z</time>
      </trkpt>
      <trkpt lat="46.50076" lon="5.6547">
        <ele>485</ele>
        <time>2019-05-19T19:15:18Z</time>
      </trkpt>
      <trkpt lat="46.50093" lon="5.65479">
        <ele>484</ele>
        <time>2019-05-19T19:15:21Z</time>
      </trkpt>
      <trkpt lat="46.50144" lon="5.65511">
        <ele>480</ele>
        <time>2019-05-19T19:15:31Z</time>
      </trkpt>
      <trkpt lat="46.5017" lon="5.65529">
        <ele>479</ele>
        <time>2019-05-19T19:15:36Z</time>
      </trkpt>
      <trkpt lat="46.50191" lon="5.65546">
        <ele>480</ele>
        <time>2019-05-19T19:15:40Z</time>
      </trkpt>
      <trkpt lat="46.50203" lon="5.65552">
        <ele>480</ele>
        <time>2019-05-19T19:15:43Z</time>
      </trkpt>
      <trkpt lat="46.50213" lon="5.65553">
        <ele>478</ele>
        <time>2019-05-19T19:15:44Z</time>
      </trkpt>
      <trkpt lat="46.50241" lon="5.65549">
        <ele>473</ele>
        <time>2019-05-19T19:15:49Z</time>
      </trkpt>
      <trkpt lat="46.50257" lon="5.65555">
        <ele>472</ele>
        <time>2019-05-19T19:15:52Z</time>
      </trkpt>
      <trkpt lat="46.50268" lon="5.65564">
        <ele>472</ele>
        <time>2019-05-19T19:15:55Z</time>
      </trkpt>
      <trkpt lat="46.50296" lon="5.65596">
        <ele>472</ele>
        <time>2019-05-19T19:16:01Z</time>
      </trkpt>
      <trkpt lat="46.50308" lon="5.65607">
        <ele>473</ele>
        <time>2019-05-19T19:16:03Z</time>
      </trkpt>
      <trkpt lat="46.50358" lon="5.6564">
        <ele>468</ele>
        <time>2019-05-19T19:16:13Z</time>
      </trkpt>
      <trkpt lat="46.50376" lon="5.65643">
        <ele>466</ele>
        <time>2019-05-19T19:16:16Z</time>
      </trkpt>
      <trkpt lat="46.50385" lon="5.65641">
        <ele>464</ele>
        <time>2019-05-19T19:16:18Z</time>
      </trkpt>
      <trkpt lat="46.50395" lon="5.65635">
        <ele>461</ele>
        <time>2019-05-19T19:16:20Z</time>
      </trkpt>
      <trkpt lat="46.50405" lon="5.65627">
        <ele>459</ele>
        <time>2019-05-19T19:16:22Z</time>
      </trkpt>
      <trkpt lat="46.50441" lon="5.65579">
        <ele>453</ele>
        <time>2019-05-19T19:16:31Z</time>
      </trkpt>
      <trkpt lat="46.5045" lon="5.65586">
        <ele>453</ele>
        <time>2019-05-19T19:16:33Z</time>
      </trkpt>
      <trkpt lat="46.50594" lon="5.65598">
        <ele>449</ele>
        <time>2019-05-19T19:16:58Z</time>
      </trkpt>
      <trkpt lat="46.50636" lon="5.65604">
        <ele>447</ele>
        <time>2019-05-19T19:17:06Z</time>
      </trkpt>
      <trkpt lat="46.50673" lon="5.65615">
        <ele>446</ele>
        <time>2019-05-19T19:17:12Z</time>
      </trkpt>
      <trkpt lat="46.50767" lon="5.65654">
        <ele>446</ele>
        <time>2019-05-19T19:17:30Z</time>
      </trkpt>
      <trkpt lat="46.50783" lon="5.65664">
        <ele>446</ele>
        <time>2019-05-19T19:17:33Z</time>
      </trkpt>
      <trkpt lat="46.50815" lon="5.65697">
        <ele>446</ele>
        <time>2019-05-19T19:17:40Z</time>
      </trkpt>
      <trkpt lat="46.50823" lon="5.65702">
        <ele>447</ele>
        <time>2019-05-19T19:17:41Z</time>
      </trkpt>
      <trkpt lat="46.50843" lon="5.65712">
        <ele>447</ele>
        <time>2019-05-19T19:17:45Z</time>
      </trkpt>
      <trkpt lat="46.50875" lon="5.65733">
        <ele>449</ele>
        <time>2019-05-19T19:17:51Z</time>
      </trkpt>
      <trkpt lat="46.50898" lon="5.65744">
        <ele>451</ele>
        <time>2019-05-19T19:17:56Z</time>
      </trkpt>
      <trkpt lat="46.50914" lon="5.65748">
        <ele>452</ele>
        <time>2019-05-19T19:17:59Z</time>
      </trkpt>
      <trkpt lat="46.50976" lon="5.65755">
        <ele>451</ele>
        <time>2019-05-19T19:18:10Z</time>
      </trkpt>
      <trkpt lat="46.51021" lon="5.65768">
        <ele>452</ele>
        <time>2019-05-19T19:18:18Z</time>
      </trkpt>
      <trkpt lat="46.51079" lon="5.65781">
        <ele>451</ele>
        <time>2019-05-19T19:18:28Z</time>
      </trkpt>
      <trkpt lat="46.51165" lon="5.65791">
        <ele>454</ele>
        <time>2019-05-19T19:18:44Z</time>
      </trkpt>
      <trkpt lat="46.51176" lon="5.65794">
        <ele>454</ele>
        <time>2019-05-19T19:18:46Z</time>
      </trkpt>
      <trkpt lat="46.51191" lon="5.65801">
        <ele>454</ele>
        <time>2019-05-19T19:18:48Z</time>
      </trkpt>
      <trkpt lat="46.51211" lon="5.65818">
        <ele>454</ele>
        <time>2019-05-19T19:18:53Z</time>
      </trkpt>
      <trkpt lat="46.51275" lon="5.6589">
        <ele>456</ele>
        <time>2019-05-19T19:19:07Z</time>
      </trkpt>
      <trkpt lat="46.5134" lon="5.65943">
        <ele>458</ele>
        <time>2019-05-19T19:19:20Z</time>
      </trkpt>
      <trkpt lat="46.5141" lon="5.65977">
        <ele>459</ele>
        <time>2019-05-19T19:19:33Z</time>
      </trkpt>
      <trkpt lat="46.51463" lon="5.65996">
        <ele>457</ele>
        <time>2019-05-19T19:19:43Z</time>
      </trkpt>
      <trkpt lat="46.51531" lon="5.66038">
        <ele>460</ele>
        <time>2019-05-19T19:19:56Z</time>
      </trkpt>
      <trkpt lat="46.51617" lon="5.66115">
        <ele>461</ele>
        <time>2019-05-19T19:20:14Z</time>
      </trkpt>
      <trkpt lat="46.51666" lon="5.6617">
        <ele>455</ele>
        <time>2019-05-19T19:20:25Z</time>
      </trkpt>
      <trkpt lat="46.51686" lon="5.66197">
        <ele>456</ele>
        <time>2019-05-19T19:20:30Z</time>
      </trkpt>
      <trkpt lat="46.51699" lon="5.6621">
        <ele>456</ele>
        <time>2019-05-19T19:20:33Z</time>
      </trkpt>
      <trkpt lat="46.51779" lon="5.6627">
        <ele>455</ele>
        <time>2019-05-19T19:20:49Z</time>
      </trkpt>
      <trkpt lat="46.51853" lon="5.6631">
        <ele>457</ele>
        <time>2019-05-19T19:21:03Z</time>
      </trkpt>
      <trkpt lat="46.51992" lon="5.66427">
        <ele>459</ele>
        <time>2019-05-19T19:21:32Z</time>
      </trkpt>
      <trkpt lat="46.52003" lon="5.66435">
        <ele>458</ele>
        <time>2019-05-19T19:21:34Z</time>
      </trkpt>
      <trkpt lat="46.52067" lon="5.66473">
        <ele>455</ele>
        <time>2019-05-19T19:21:46Z</time>
      </trkpt>
      <trkpt lat="46.52094" lon="5.66484">
        <ele>454</ele>
        <time>2019-05-19T19:21:51Z</time>
      </trkpt>
      <trkpt lat="46.52125" lon="5.66488">
        <ele>454</ele>
        <time>2019-05-19T19:21:57Z</time>
      </trkpt>
      <trkpt lat="46.52232" lon="5.66484">
        <ele>460</ele>
        <time>2019-05-19T19:22:16Z</time>
      </trkpt>
      <trkpt lat="46.52244" lon="5.66491">
        <ele>462</ele>
        <time>2019-05-19T19:22:18Z</time>
      </trkpt>
      <trkpt lat="46.52264" lon="5.66523">
        <ele>470</ele>
        <time>2019-05-19T19:22:23Z</time>
      </trkpt>
      <trkpt lat="46.52344" lon="5.66413">
        <ele>474</ele>
        <time>2019-05-19T19:22:43Z</time>
      </trkpt>
      <trkpt lat="46.52369" lon="5.66373">
        <ele>475</ele>
        <time>2019-05-19T19:22:49Z</time>
      </trkpt>
      <trkpt lat="46.52384" lon="5.66366">
        <ele>476</ele>
        <time>2019-05-19T19:22:52Z</time>
      </trkpt>
      <trkpt lat="46.52397" lon="5.66366">
        <ele>477</ele>
        <time>2019-05-19T19:22:55Z</time>
      </trkpt>
      <trkpt lat="46.52414" lon="5.66373">
        <ele>480</ele>
        <time>2019-05-19T19:22:58Z</time>
      </trkpt>
      <trkpt lat="46.52468" lon="5.6638">
        <ele>482</ele>
        <time>2019-05-19T19:23:07Z</time>
      </trkpt>
      <trkpt lat="46.52489" lon="5.66385">
        <ele>483</ele>
        <time>2019-05-19T19:23:11Z</time>
      </trkpt>
      <trkpt lat="46.52582" lon="5.66396">
        <ele>483</ele>
        <time>2019-05-19T19:23:28Z</time>
      </trkpt>
      <trkpt lat="46.52588" lon="5.66399">
        <ele>484</ele>
        <time>2019-05-19T19:23:29Z</time>
      </trkpt>
      <trkpt lat="46.52589" lon="5.66403">
        <ele>484</ele>
        <time>2019-05-19T19:23:29Z</time>
      </trkpt>
      <trkpt lat="46.52593" lon="5.66406">
        <ele>485</ele>
        <time>2019-05-19T19:23:30Z</time>
      </trkpt>
      <trkpt lat="46.52597" lon="5.664">
        <ele>484</ele>
        <time>2019-05-19T19:23:31Z</time>
      </trkpt>
      <trkpt lat="46.52596" lon="5.66396">
        <ele>484</ele>
        <time>2019-05-19T19:23:32Z</time>
      </trkpt>
      <trkpt lat="46.52593" lon="5.66393">
        <ele>483</ele>
        <time>2019-05-19T19:23:32Z</time>
      </trkpt>
      <trkpt lat="46.52607" lon="5.66308">
        <ele>477</ele>
        <time>2019-05-19T19:23:43Z</time>
      </trkpt>
      <trkpt lat="46.52619" lon="5.66245">
        <ele>473</ele>
        <time>2019-05-19T19:23:51Z</time>
      </trkpt>
      <trkpt lat="46.52667" lon="5.66127">
        <ele>474</ele>
        <time>2019-05-19T19:24:08Z</time>
      </trkpt>
      <trkpt lat="46.5267" lon="5.6606">
        <ele>477</ele>
        <time>2019-05-19T19:24:16Z</time>
      </trkpt>
      <trkpt lat="46.5267" lon="5.65937">
        <ele>481</ele>
        <time>2019-05-19T19:24:31Z</time>
      </trkpt>
      <trkpt lat="46.52674" lon="5.65793">
        <ele>484</ele>
        <time>2019-05-19T19:24:49Z</time>
      </trkpt>
      <trkpt lat="46.52672" lon="5.65789">
        <ele>484</ele>
        <time>2019-05-19T19:24:49Z</time>
      </trkpt>
      <trkpt lat="46.52666" lon="5.65787">
        <ele>484</ele>
        <time>2019-05-19T19:24:50Z</time>
      </trkpt>
      <trkpt lat="46.5265" lon="5.65768">
        <ele>484</ele>
        <time>2019-05-19T19:24:54Z</time>
      </trkpt>
      <trkpt lat="46.52645" lon="5.65765">
        <ele>484</ele>
        <time>2019-05-19T19:24:55Z</time>
      </trkpt>
      <trkpt lat="46.52659" lon="5.65723">
        <ele>484</ele>
        <time>2019-05-19T19:25:01Z</time>
      </trkpt>
      <trkpt lat="46.52675" lon="5.65643">
        <ele>485</ele>
        <time>2019-05-19T19:25:11Z</time>
      </trkpt>
      <trkpt lat="46.52682" lon="5.65596">
        <ele>486</ele>
        <time>2019-05-19T19:25:17Z</time>
      </trkpt>
      <trkpt lat="46.52693" lon="5.65478">
        <ele>490</ele>
        <time>2019-05-19T19:25:31Z</time>
      </trkpt>
      <trkpt lat="46.52779" lon="5.64373">
        <ele>520</ele>
        <time>2019-05-19T19:27:48Z</time>
      </trkpt>
      <trkpt lat="46.52785" lon="5.64279">
        <ele>522</ele>
        <time>2019-05-19T19:27:59Z</time>
      </trkpt>
      <trkpt lat="46.52787" lon="5.64226">
        <ele>522</ele>
        <time>2019-05-19T19:28:06Z</time>
      </trkpt>
      <trkpt lat="46.52785" lon="5.6418">
        <ele>523</ele>
        <time>2019-05-19T19:28:11Z</time>
      </trkpt>
      <trkpt lat="46.52779" lon="5.64136">
        <ele>524</ele>
        <time>2019-05-19T19:28:17Z</time>
      </trkpt>
      <trkpt lat="46.52767" lon="5.64094">
        <ele>524</ele>
        <time>2019-05-19T19:28:22Z</time>
      </trkpt>
      <trkpt lat="46.52753" lon="5.64055">
        <ele>524</ele>
        <time>2019-05-19T19:28:28Z</time>
      </trkpt>
      <trkpt lat="46.52742" lon="5.64034">
        <ele>523</ele>
        <time>2019-05-19T19:28:31Z</time>
      </trkpt>
      <trkpt lat="46.5273" lon="5.64012">
        <ele>522</ele>
        <time>2019-05-19T19:28:34Z</time>
      </trkpt>
      <trkpt lat="46.5268" lon="5.63937">
        <ele>529</ele>
        <time>2019-05-19T19:28:47Z</time>
      </trkpt>
      <trkpt lat="46.52674" lon="5.63925">
        <ele>530</ele>
        <time>2019-05-19T19:28:49Z</time>
      </trkpt>
      <trkpt lat="46.52661" lon="5.63891">
        <ele>535</ele>
        <time>2019-05-19T19:28:54Z</time>
      </trkpt>
      <trkpt lat="46.52655" lon="5.63871">
        <ele>539</ele>
        <time>2019-05-19T19:28:56Z</time>
      </trkpt>
      <trkpt lat="46.52647" lon="5.63829">
        <ele>544</ele>
        <time>2019-05-19T19:29:02Z</time>
      </trkpt>
      <trkpt lat="46.52644" lon="5.63793">
        <ele>541</ele>
        <time>2019-05-19T19:29:06Z</time>
      </trkpt>
      <trkpt lat="46.52645" lon="5.63754">
        <ele>538</ele>
        <time>2019-05-19T19:29:11Z</time>
      </trkpt>
      <trkpt lat="46.52649" lon="5.63725">
        <ele>534</ele>
        <time>2019-05-19T19:29:15Z</time>
      </trkpt>
      <trkpt lat="46.52678" lon="5.63604">
        <ele>522</ele>
        <time>2019-05-19T19:29:30Z</time>
      </trkpt>
      <trkpt lat="46.52685" lon="5.63546">
        <ele>519</ele>
        <time>2019-05-19T19:29:38Z</time>
      </trkpt>
      <trkpt lat="46.52688" lon="5.63489">
        <ele>516</ele>
        <time>2019-05-19T19:29:45Z</time>
      </trkpt>
      <trkpt lat="46.52687" lon="5.63461">
        <ele>515</ele>
        <time>2019-05-19T19:29:48Z</time>
      </trkpt>
      <trkpt lat="46.52666" lon="5.63306">
        <ele>511</ele>
        <time>2019-05-19T19:30:07Z</time>
      </trkpt>
      <trkpt lat="46.52655" lon="5.63237">
        <ele>512</ele>
        <time>2019-05-19T19:30:16Z</time>
      </trkpt>
      <trkpt lat="46.52634" lon="5.63145">
        <ele>513</ele>
        <time>2019-05-19T19:30:28Z</time>
      </trkpt>
      <trkpt lat="46.52556" lon="5.62841">
        <ele>510</ele>
        <time>2019-05-19T19:31:08Z</time>
      </trkpt>
      <trkpt lat="46.52484" lon="5.62603">
        <ele>502</ele>
        <time>2019-05-19T19:31:39Z</time>
      </trkpt>
      <trkpt lat="46.52464" lon="5.62559">
        <ele>499</ele>
        <time>2019-05-19T19:31:46Z</time>
      </trkpt>
      <trkpt lat="46.52405" lon="5.62466">
        <ele>493</ele>
        <time>2019-05-19T19:32:01Z</time>
      </trkpt>
      <trkpt lat="46.52393" lon="5.62437">
        <ele>492</ele>
        <time>2019-05-19T19:32:05Z</time>
      </trkpt>
      <trkpt lat="46.52381" lon="5.62401">
        <ele>491</ele>
        <time>2019-05-19T19:32:10Z</time>
      </trkpt>
      <trkpt lat="46.52373" lon="5.62365">
        <ele>490</ele>
        <time>2019-05-19T19:32:15Z</time>
      </trkpt>
      <trkpt lat="46.52369" lon="5.62322">
        <ele>488</ele>
        <time>2019-05-19T19:32:20Z</time>
      </trkpt>
      <trkpt lat="46.52379" lon="5.62115">
        <ele>487</ele>
        <time>2019-05-19T19:32:46Z</time>
      </trkpt>
      <trkpt lat="46.52391" lon="5.61943">
        <ele>486</ele>
        <time>2019-05-19T19:33:07Z</time>
      </trkpt>
      <trkpt lat="46.52394" lon="5.61883">
        <ele>487</ele>
        <time>2019-05-19T19:33:14Z</time>
      </trkpt>
      <trkpt lat="46.52392" lon="5.61857">
        <ele>487</ele>
        <time>2019-05-19T19:33:17Z</time>
      </trkpt>
      <trkpt lat="46.52377" lon="5.61766">
        <ele>491</ele>
        <time>2019-05-19T19:33:29Z</time>
      </trkpt>
      <trkpt lat="46.52354" lon="5.61658">
        <ele>498</ele>
        <time>2019-05-19T19:33:43Z</time>
      </trkpt>
      <trkpt lat="46.52348" lon="5.61639">
        <ele>500</ele>
        <time>2019-05-19T19:33:45Z</time>
      </trkpt>
      <trkpt lat="46.52342" lon="5.6163">
        <ele>500</ele>
        <time>2019-05-19T19:33:47Z</time>
      </trkpt>
      <trkpt lat="46.52324" lon="5.61615">
        <ele>501</ele>
        <time>2019-05-19T19:33:51Z</time>
      </trkpt>
      <trkpt lat="46.52291" lon="5.61592">
        <ele>500</ele>
        <time>2019-05-19T19:33:57Z</time>
      </trkpt>
      <trkpt lat="46.52269" lon="5.61571">
        <ele>501</ele>
        <time>2019-05-19T19:34:02Z</time>
      </trkpt>
      <trkpt lat="46.52138" lon="5.61429">
        <ele>500</ele>
        <time>2019-05-19T19:34:31Z</time>
      </trkpt>
      <trkpt lat="46.52124" lon="5.61411">
        <ele>499</ele>
        <time>2019-05-19T19:34:34Z</time>
      </trkpt>
      <trkpt lat="46.52113" lon="5.6139">
        <ele>499</ele>
        <time>2019-05-19T19:34:37Z</time>
      </trkpt>
      <trkpt lat="46.52107" lon="5.61358">
        <ele>500</ele>
        <time>2019-05-19T19:34:41Z</time>
      </trkpt>
      <trkpt lat="46.52095" lon="5.61287">
        <ele>503</ele>
        <time>2019-05-19T19:34:50Z</time>
      </trkpt>
      <trkpt lat="46.52098" lon="5.61215">
        <ele>507</ele>
        <time>2019-05-19T19:34:59Z</time>
      </trkpt>
      <trkpt lat="46.52091" lon="5.61124">
        <ele>508</ele>
        <time>2019-05-19T19:35:10Z</time>
      </trkpt>
      <trkpt lat="46.52099" lon="5.61079">
        <ele>508</ele>
        <time>2019-05-19T19:35:16Z</time>
      </trkpt>
      <trkpt lat="46.52103" lon="5.6107">
        <ele>508</ele>
        <time>2019-05-19T19:35:17Z</time>
      </trkpt>
      <trkpt lat="46.52104" lon="5.61064">
        <ele>508</ele>
        <time>2019-05-19T19:35:18Z</time>
      </trkpt>
      <trkpt lat="46.52102" lon="5.61053">
        <ele>507</ele>
        <time>2019-05-19T19:35:20Z</time>
      </trkpt>
      <trkpt lat="46.52096" lon="5.61046">
        <ele>507</ele>
        <time>2019-05-19T19:35:21Z</time>
      </trkpt>
      <trkpt lat="46.52102" lon="5.61019">
        <ele>507</ele>
        <time>2019-05-19T19:35:24Z</time>
      </trkpt>
      <trkpt lat="46.52125" lon="5.60993">
        <ele>507</ele>
        <time>2019-05-19T19:35:30Z</time>
      </trkpt>
      <trkpt lat="46.52134" lon="5.60979">
        <ele>508</ele>
        <time>2019-05-19T19:35:32Z</time>
      </trkpt>
      <trkpt lat="46.52142" lon="5.60939">
        <ele>508</ele>
        <time>2019-05-19T19:35:37Z</time>
      </trkpt>
      <trkpt lat="46.5215" lon="5.60861">
        <ele>510</ele>
        <time>2019-05-19T19:35:47Z</time>
      </trkpt>
      <trkpt lat="46.52159" lon="5.60817">
        <ele>511</ele>
        <time>2019-05-19T19:35:52Z</time>
      </trkpt>
      <trkpt lat="46.5216" lon="5.60801">
        <ele>511</ele>
        <time>2019-05-19T19:35:54Z</time>
      </trkpt>
      <trkpt lat="46.52155" lon="5.60753">
        <ele>510</ele>
        <time>2019-05-19T19:36:00Z</time>
      </trkpt>
      <trkpt lat="46.52156" lon="5.6074">
        <ele>509</ele>
        <time>2019-05-19T19:36:02Z</time>
      </trkpt>
      <trkpt lat="46.52164" lon="5.60724">
        <ele>508</ele>
        <time>2019-05-19T19:36:04Z</time>
      </trkpt>
      <trkpt lat="46.52168" lon="5.6072">
        <ele>508</ele>
        <time>2019-05-19T19:36:05Z</time>
      </trkpt>
      <trkpt lat="46.52176" lon="5.60716">
        <ele>508</ele>
        <time>2019-05-19T19:36:07Z</time>
      </trkpt>
      <trkpt lat="46.52213" lon="5.6071">
        <ele>508</ele>
        <time>2019-05-19T19:36:13Z</time>
      </trkpt>
      <trkpt lat="46.52232" lon="5.60704">
        <ele>508</ele>
        <time>2019-05-19T19:36:17Z</time>
      </trkpt>
      <trkpt lat="46.52251" lon="5.60686">
        <ele>506</ele>
        <time>2019-05-19T19:36:21Z</time>
      </trkpt>
      <trkpt lat="46.5226" lon="5.60668">
        <ele>505</ele>
        <time>2019-05-19T19:36:23Z</time>
      </trkpt>
      <trkpt lat="46.52262" lon="5.60658">
        <ele>504</ele>
        <time>2019-05-19T19:36:25Z</time>
      </trkpt>
      <trkpt lat="46.52332" lon="5.59768">
        <ele>495</ele>
        <time>2019-05-19T19:38:14Z</time>
      </trkpt>
      <trkpt lat="46.52528" lon="5.57183">
        <ele>482</ele>
        <time>2019-05-19T19:43:33Z</time>
      </trkpt>
      <trkpt lat="46.52711" lon="5.54835">
        <ele>490</ele>
        <time>2019-05-19T19:48:22Z</time>
      </trkpt>
      <trkpt lat="46.52724" lon="5.54651">
        <ele>494</ele>
        <time>2019-05-19T19:48:45Z</time>
      </trkpt>
      <trkpt lat="46.52726" lon="5.54635">
        <ele>495</ele>
        <time>2019-05-19T19:48:47Z</time>
      </trkpt>
      <trkpt lat="46.52731" lon="5.54618">
        <ele>497</ele>
        <time>2019-05-19T19:48:49Z</time>
      </trkpt>
      <trkpt lat="46.52724" lon="5.54599">
        <ele>498</ele>
        <time>2019-05-19T19:48:52Z</time>
      </trkpt>
      <trkpt lat="46.52714" lon="5.54581">
        <ele>499</ele>
        <time>2019-05-19T19:48:54Z</time>
      </trkpt>
      <trkpt lat="46.52652" lon="5.54502">
        <ele>509</ele>
        <time>2019-05-19T19:49:09Z</time>
      </trkpt>
      <trkpt lat="46.52638" lon="5.5449">
        <ele>512</ele>
        <time>2019-05-19T19:49:12Z</time>
      </trkpt>
      <trkpt lat="46.52622" lon="5.54482">
        <ele>513</ele>
        <time>2019-05-19T19:49:15Z</time>
      </trkpt>
      <trkpt lat="46.52591" lon="5.54478">
        <ele>513</ele>
        <time>2019-05-19T19:49:21Z</time>
      </trkpt>
      <trkpt lat="46.52571" lon="5.54473">
        <ele>513</ele>
        <time>2019-05-19T19:49:24Z</time>
      </trkpt>
      <trkpt lat="46.52551" lon="5.54461">
        <ele>515</ele>
        <time>2019-05-19T19:49:28Z</time>
      </trkpt>
      <trkpt lat="46.52493" lon="5.54417">
        <ele>521</ele>
        <time>2019-05-19T19:49:40Z</time>
      </trkpt>
      <trkpt lat="46.52457" lon="5.54379">
        <ele>526</ele>
        <time>2019-05-19T19:49:48Z</time>
      </trkpt>
      <trkpt lat="46.52439" lon="5.54369">
        <ele>527</ele>
        <time>2019-05-19T19:49:51Z</time>
      </trkpt>
      <trkpt lat="46.52393" lon="5.54358">
        <ele>526</ele>
        <time>2019-05-19T19:49:59Z</time>
      </trkpt>
      <trkpt lat="46.52367" lon="5.54349">
        <ele>526</ele>
        <time>2019-05-19T19:50:04Z</time>
      </trkpt>
      <trkpt lat="46.52329" lon="5.54332">
        <ele>528</ele>
        <time>2019-05-19T19:50:11Z</time>
      </trkpt>
      <trkpt lat="46.52282" lon="5.54301">
        <ele>530</ele>
        <time>2019-05-19T19:50:20Z</time>
      </trkpt>
      <trkpt lat="46.52222" lon="5.54278">
        <ele>530</ele>
        <time>2019-05-19T19:50:31Z</time>
      </trkpt>
      <trkpt lat="46.52187" lon="5.54255">
        <ele>533</ele>
        <time>2019-05-19T19:50:38Z</time>
      </trkpt>
      <trkpt lat="46.52168" lon="5.54237">
        <ele>534</ele>
        <time>2019-05-19T19:50:42Z</time>
      </trkpt>
      <trkpt lat="46.52147" lon="5.54224">
        <ele>535</ele>
        <time>2019-05-19T19:50:46Z</time>
      </trkpt>
      <trkpt lat="46.52119" lon="5.54216">
        <ele>535</ele>
        <time>2019-05-19T19:50:51Z</time>
      </trkpt>
      <trkpt lat="46.52097" lon="5.54208">
        <ele>535</ele>
        <time>2019-05-19T19:50:55Z</time>
      </trkpt>
      <trkpt lat="46.5203" lon="5.54168">
        <ele>538</ele>
        <time>2019-05-19T19:51:08Z</time>
      </trkpt>
      <trkpt lat="46.51943" lon="5.54121">
        <ele>546</ele>
        <time>2019-05-19T19:51:25Z</time>
      </trkpt>
      <trkpt lat="46.51917" lon="5.54105">
        <ele>548</ele>
        <time>2019-05-19T19:51:30Z</time>
      </trkpt>
      <trkpt lat="46.51899" lon="5.54087">
        <ele>550</ele>
        <time>2019-05-19T19:51:34Z</time>
      </trkpt>
      <trkpt lat="46.51879" lon="5.5406">
        <ele>552</ele>
        <time>2019-05-19T19:51:39Z</time>
      </trkpt>
      <trkpt lat="46.51872" lon="5.54042">
        <ele>553</ele>
        <time>2019-05-19T19:51:41Z</time>
      </trkpt>
      <trkpt lat="46.51867" lon="5.54021">
        <ele>554</ele>
        <time>2019-05-19T19:51:44Z</time>
      </trkpt>
      <trkpt lat="46.51859" lon="5.53981">
        <ele>556</ele>
        <time>2019-05-19T19:51:49Z</time>
      </trkpt>
      <trkpt lat="46.51856" lon="5.53923">
        <ele>559</ele>
        <time>2019-05-19T19:51:56Z</time>
      </trkpt>
      <trkpt lat="46.51858" lon="5.53865">
        <ele>558</ele>
        <time>2019-05-19T19:52:03Z</time>
      </trkpt>
      <trkpt lat="46.51862" lon="5.53834">
        <ele>557</ele>
        <time>2019-05-19T19:52:07Z</time>
      </trkpt>
      <trkpt lat="46.51877" lon="5.53765">
        <ele>549</ele>
        <time>2019-05-19T19:52:16Z</time>
      </trkpt>
      <trkpt lat="46.51879" lon="5.53746">
        <ele>546</ele>
        <time>2019-05-19T19:52:18Z</time>
      </trkpt>
      <trkpt lat="46.51878" lon="5.53725">
        <ele>543</ele>
        <time>2019-05-19T19:52:21Z</time>
      </trkpt>
      <trkpt lat="46.51871" lon="5.53701">
        <ele>539</ele>
        <time>2019-05-19T19:52:24Z</time>
      </trkpt>
      <trkpt lat="46.51866" lon="5.53689">
        <ele>537</ele>
        <time>2019-05-19T19:52:26Z</time>
      </trkpt>
      <trkpt lat="46.51859" lon="5.53679">
        <ele>535</ele>
        <time>2019-05-19T19:52:27Z</time>
      </trkpt>
      <trkpt lat="46.51842" lon="5.53665">
        <ele>532</ele>
        <time>2019-05-19T19:52:31Z</time>
      </trkpt>
      <trkpt lat="46.51819" lon="5.53652">
        <ele>529</ele>
        <time>2019-05-19T19:52:35Z</time>
      </trkpt>
      <trkpt lat="46.51786" lon="5.53643">
        <ele>527</ele>
        <time>2019-05-19T19:52:41Z</time>
      </trkpt>
      <trkpt lat="46.51729" lon="5.53633">
        <ele>524</ele>
        <time>2019-05-19T19:52:51Z</time>
      </trkpt>
      <trkpt lat="46.51546" lon="5.53607">
        <ele>516</ele>
        <time>2019-05-19T19:53:24Z</time>
      </trkpt>
      <trkpt lat="46.51452" lon="5.53602">
        <ele>510</ele>
        <time>2019-05-19T19:53:41Z</time>
      </trkpt>
      <trkpt lat="46.51384" lon="5.53609">
        <ele>506</ele>
        <time>2019-05-19T19:53:53Z</time>
      </trkpt>
      <trkpt lat="46.51291" lon="5.53636">
        <ele>505</ele>
        <time>2019-05-19T19:54:10Z</time>
      </trkpt>
      <trkpt lat="46.51242" lon="5.53642">
        <ele>503</ele>
        <time>2019-05-19T19:54:19Z</time>
      </trkpt>
      <trkpt lat="46.51148" lon="5.53641">
        <ele>499</ele>
        <time>2019-05-19T19:54:35Z</time>
      </trkpt>
      <trkpt lat="46.51097" lon="5.53632">
        <ele>497</ele>
        <time>2019-05-19T19:54:45Z</time>
      </trkpt>
      <trkpt lat="46.51039" lon="5.53616">
        <ele>495</ele>
        <time>2019-05-19T19:54:55Z</time>
      </trkpt>
      <trkpt lat="46.51017" lon="5.53609">
        <ele>495</ele>
        <time>2019-05-19T19:54:59Z</time>
      </trkpt>
      <trkpt lat="46.50968" lon="5.53588">
        <ele>489</ele>
        <time>2019-05-19T19:55:08Z</time>
      </trkpt>
      <trkpt lat="46.50916" lon="5.53556">
        <ele>482</ele>
        <time>2019-05-19T19:55:18Z</time>
      </trkpt>
      <trkpt lat="46.5089" lon="5.53538">
        <ele>478</ele>
        <time>2019-05-19T19:55:23Z</time>
      </trkpt>
      <trkpt lat="46.50879" lon="5.53524">
        <ele>475</ele>
        <time>2019-05-19T19:55:26Z</time>
      </trkpt>
      <trkpt lat="46.50869" lon="5.53504">
        <ele>471</ele>
        <time>2019-05-19T19:55:29Z</time>
      </trkpt>
      <trkpt lat="46.50865" lon="5.53488">
        <ele>470</ele>
        <time>2019-05-19T19:55:31Z</time>
      </trkpt>
      <trkpt lat="46.50889" lon="5.53375">
        <ele>467</ele>
        <time>2019-05-19T19:55:46Z</time>
      </trkpt>
      <trkpt lat="46.50956" lon="5.53088">
        <ele>466</ele>
        <time>2019-05-19T19:56:23Z</time>
      </trkpt>
      <trkpt lat="46.50957" lon="5.53071">
        <ele>468</ele>
        <time>2019-05-19T19:56:25Z</time>
      </trkpt>
      <trkpt lat="46.50956" lon="5.53058">
        <ele>470</ele>
        <time>2019-05-19T19:56:26Z</time>
      </trkpt>
      <trkpt lat="46.50948" lon="5.53043">
        <ele>472</ele>
        <time>2019-05-19T19:56:29Z</time>
      </trkpt>
      <trkpt lat="46.50939" lon="5.53032">
        <ele>473</ele>
        <time>2019-05-19T19:56:31Z</time>
      </trkpt>
      <trkpt lat="46.50916" lon="5.53017">
        <ele>475</ele>
        <time>2019-05-19T19:56:35Z</time>
      </trkpt>
      <trkpt lat="46.50888" lon="5.53003">
        <ele>476</ele>
        <time>2019-05-19T19:56:40Z</time>
      </trkpt>
      <trkpt lat="46.50826" lon="5.52982">
        <ele>479</ele>
        <time>2019-05-19T19:56:52Z</time>
      </trkpt>
      <trkpt lat="46.50815" lon="5.52976">
        <ele>480</ele>
        <time>2019-05-19T19:56:54Z</time>
      </trkpt>
      <trkpt lat="46.50791" lon="5.52959">
        <ele>483</ele>
        <time>2019-05-19T19:56:59Z</time>
      </trkpt>
      <trkpt lat="46.50764" lon="5.52934">
        <ele>488</ele>
        <time>2019-05-19T19:57:04Z</time>
      </trkpt>
      <trkpt lat="46.5075" lon="5.52926">
        <ele>490</ele>
        <time>2019-05-19T19:57:07Z</time>
      </trkpt>
      <trkpt lat="46.50729" lon="5.52924">
        <ele>490</ele>
        <time>2019-05-19T19:57:11Z</time>
      </trkpt>
      <trkpt lat="46.50711" lon="5.52926">
        <ele>489</ele>
        <time>2019-05-19T19:57:14Z</time>
      </trkpt>
      <trkpt lat="46.50689" lon="5.52925">
        <ele>489</ele>
        <time>2019-05-19T19:57:18Z</time>
      </trkpt>
      <trkpt lat="46.5067" lon="5.52919">
        <ele>490</ele>
        <time>2019-05-19T19:57:21Z</time>
      </trkpt>
      <trkpt lat="46.50625" lon="5.52894">
        <ele>492</ele>
        <time>2019-05-19T19:57:30Z</time>
      </trkpt>
      <trkpt lat="46.50505" lon="5.52824">
        <ele>501</ele>
        <time>2019-05-19T19:57:53Z</time>
      </trkpt>
      <trkpt lat="46.50484" lon="5.5281">
        <ele>502</ele>
        <time>2019-05-19T19:57:57Z</time>
      </trkpt>
      <trkpt lat="46.50459" lon="5.52781">
        <ele>505</ele>
        <time>2019-05-19T19:58:03Z</time>
      </trkpt>
      <trkpt lat="46.50451" lon="5.52769">
        <ele>506</ele>
        <time>2019-05-19T19:58:05Z</time>
      </trkpt>
      <trkpt lat="46.50449" lon="5.52757">
        <ele>508</ele>
        <time>2019-05-19T19:58:06Z</time>
      </trkpt>
      <trkpt lat="46.50452" lon="5.52745">
        <ele>509</ele>
        <time>2019-05-19T19:58:08Z</time>
      </trkpt>
      <trkpt lat="46.50457" lon="5.52739">
        <ele>510</ele>
        <time>2019-05-19T19:58:09Z</time>
      </trkpt>
      <trkpt lat="46.50492" lon="5.52727">
        <ele>511</ele>
        <time>2019-05-19T19:58:15Z</time>
      </trkpt>
      <trkpt lat="46.50518" lon="5.52711">
        <ele>512</ele>
        <time>2019-05-19T19:58:20Z</time>
      </trkpt>
      <trkpt lat="46.5053" lon="5.52696">
        <ele>513</ele>
        <time>2019-05-19T19:58:23Z</time>
      </trkpt>
      <trkpt lat="46.50543" lon="5.52675">
        <ele>514</ele>
        <time>2019-05-19T19:58:27Z</time>
      </trkpt>
      <trkpt lat="46.50558" lon="5.52644">
        <ele>516</ele>
        <time>2019-05-19T19:58:31Z</time>
      </trkpt>
      <trkpt lat="46.50572" lon="5.52605">
        <ele>517</ele>
        <time>2019-05-19T19:58:37Z</time>
      </trkpt>
      <trkpt lat="46.50631" lon="5.52401">
        <ele>519</ele>
        <time>2019-05-19T19:59:04Z</time>
      </trkpt>
      <trkpt lat="46.50646" lon="5.52348">
        <ele>521</ele>
        <time>2019-05-19T19:59:11Z</time>
      </trkpt>
      <trkpt lat="46.50655" lon="5.52301">
        <ele>519</ele>
        <time>2019-05-19T19:59:17Z</time>
      </trkpt>
      <trkpt lat="46.50655" lon="5.52292">
        <ele>518</ele>
        <time>2019-05-19T19:59:18Z</time>
      </trkpt>
      <trkpt lat="46.50652" lon="5.52279">
        <ele>518</ele>
        <time>2019-05-19T19:59:20Z</time>
      </trkpt>
      <trkpt lat="46.50623" lon="5.52209">
        <ele>516</ele>
        <time>2019-05-19T19:59:30Z</time>
      </trkpt>
      <trkpt lat="46.50542" lon="5.51979">
        <ele>515</ele>
        <time>2019-05-19T20:00:01Z</time>
      </trkpt>
      <trkpt lat="46.50519" lon="5.51943">
        <ele>518</ele>
        <time>2019-05-19T20:00:07Z</time>
      </trkpt>
      <trkpt lat="46.50501" lon="5.51929">
        <ele>519</ele>
        <time>2019-05-19T20:00:11Z</time>
      </trkpt>
      <trkpt lat="46.50463" lon="5.51906">
        <ele>520</ele>
        <time>2019-05-19T20:00:18Z</time>
      </trkpt>
      <trkpt lat="46.5039" lon="5.51854">
        <ele>525</ele>
        <time>2019-05-19T20:00:33Z</time>
      </trkpt>
      <trkpt lat="46.50188" lon="5.51682">
        <ele>535</ele>
        <time>2019-05-19T20:01:14Z</time>
      </trkpt>
      <trkpt lat="46.50141" lon="5.51638">
        <ele>539</ele>
        <time>2019-05-19T20:01:24Z</time>
      </trkpt>
      <trkpt lat="46.50115" lon="5.51602">
        <ele>543</ele>
        <time>2019-05-19T20:01:31Z</time>
      </trkpt>
      <trkpt lat="46.49895" lon="5.51243">
        <ele>555</ele>
        <time>2019-05-19T20:02:30Z</time>
      </trkpt>
      <trkpt lat="46.49888" lon="5.51224">
        <ele>556</ele>
        <time>2019-05-19T20:02:32Z</time>
      </trkpt>
      <trkpt lat="46.49883" lon="5.5119">
        <ele>558</ele>
        <time>2019-05-19T20:02:36Z</time>
      </trkpt>
      <trkpt lat="46.49881" lon="5.51142">
        <ele>560</ele>
        <time>2019-05-19T20:02:42Z</time>
      </trkpt>
      <trkpt lat="46.49875" lon="5.51092">
        <ele>562</ele>
        <time>2019-05-19T20:02:49Z</time>
      </trkpt>
      <trkpt lat="46.49869" lon="5.51065">
        <ele>563</ele>
        <time>2019-05-19T20:02:52Z</time>
      </trkpt>
      <trkpt lat="46.49861" lon="5.51046">
        <ele>562</ele>
        <time>2019-05-19T20:02:55Z</time>
      </trkpt>
      <trkpt lat="46.49849" lon="5.51028">
        <ele>562</ele>
        <time>2019-05-19T20:02:58Z</time>
      </trkpt>
      <trkpt lat="46.49816" lon="5.51005">
        <ele>562</ele>
        <time>2019-05-19T20:03:04Z</time>
      </trkpt>
      <trkpt lat="46.49813" lon="5.50994">
        <ele>561</ele>
        <time>2019-05-19T20:03:06Z</time>
      </trkpt>
      <trkpt lat="46.49817" lon="5.50977">
        <ele>559</ele>
        <time>2019-05-19T20:03:08Z</time>
      </trkpt>
      <trkpt lat="46.49826" lon="5.50967">
        <ele>557</ele>
        <time>2019-05-19T20:03:10Z</time>
      </trkpt>
      <trkpt lat="46.49845" lon="5.50953">
        <ele>556</ele>
        <time>2019-05-19T20:03:14Z</time>
      </trkpt>
      <trkpt lat="46.49893" lon="5.5093">
        <ele>557</ele>
        <time>2019-05-19T20:03:23Z</time>
      </trkpt>
      <trkpt lat="46.49907" lon="5.50914">
        <ele>557</ele>
        <time>2019-05-19T20:03:26Z</time>
      </trkpt>
      <trkpt lat="46.49918" lon="5.50893">
        <ele>554</ele>
        <time>2019-05-19T20:03:29Z</time>
      </trkpt>
      <trkpt lat="46.49923" lon="5.50879">
        <ele>552</ele>
        <time>2019-05-19T20:03:31Z</time>
      </trkpt>
      <trkpt lat="46.49931" lon="5.50832">
        <ele>545</ele>
        <time>2019-05-19T20:03:37Z</time>
      </trkpt>
      <trkpt lat="46.49932" lon="5.50793">
        <ele>540</ele>
        <time>2019-05-19T20:03:42Z</time>
      </trkpt>
      <trkpt lat="46.49936" lon="5.50777">
        <ele>538</ele>
        <time>2019-05-19T20:03:44Z</time>
      </trkpt>
      <trkpt lat="46.49943" lon="5.50764">
        <ele>538</ele>
        <time>2019-05-19T20:03:46Z</time>
      </trkpt>
      <trkpt lat="46.4995" lon="5.50758">
        <ele>538</ele>
        <time>2019-05-19T20:03:47Z</time>
      </trkpt>
      <trkpt lat="46.49978" lon="5.50744">
        <ele>540</ele>
        <time>2019-05-19T20:03:53Z</time>
      </trkpt>
      <trkpt lat="46.50064" lon="5.50724">
        <ele>538</ele>
        <time>2019-05-19T20:04:08Z</time>
      </trkpt>
      <trkpt lat="46.50102" lon="5.50725">
        <ele>537</ele>
        <time>2019-05-19T20:04:15Z</time>
      </trkpt>
      <trkpt lat="46.50134" lon="5.50739">
        <ele>538</ele>
        <time>2019-05-19T20:04:21Z</time>
      </trkpt>
      <trkpt lat="46.50145" lon="5.5074">
        <ele>538</ele>
        <time>2019-05-19T20:04:23Z</time>
      </trkpt>
      <trkpt lat="46.50161" lon="5.50737">
        <ele>536</ele>
        <time>2019-05-19T20:04:26Z</time>
      </trkpt>
      <trkpt lat="46.50189" lon="5.50723">
        <ele>532</ele>
        <time>2019-05-19T20:04:31Z</time>
      </trkpt>
      <trkpt lat="46.50224" lon="5.50715">
        <ele>529</ele>
        <time>2019-05-19T20:04:37Z</time>
      </trkpt>
      <trkpt lat="46.5027" lon="5.50719">
        <ele>529</ele>
        <time>2019-05-19T20:04:45Z</time>
      </trkpt>
      <trkpt lat="46.5029" lon="5.50723">
        <ele>529</ele>
        <time>2019-05-19T20:04:49Z</time>
      </trkpt>
      <trkpt lat="46.50322" lon="5.50722">
        <ele>527</ele>
        <time>2019-05-19T20:04:55Z</time>
      </trkpt>
      <trkpt lat="46.50341" lon="5.50718">
        <ele>525</ele>
        <time>2019-05-19T20:04:58Z</time>
      </trkpt>
      <trkpt lat="46.50414" lon="5.50695">
        <ele>516</ele>
        <time>2019-05-19T20:05:11Z</time>
      </trkpt>
      <trkpt lat="46.50487" lon="5.50685">
        <ele>513</ele>
        <time>2019-05-19T20:05:25Z</time>
      </trkpt>
      <trkpt lat="46.50499" lon="5.50679">
        <ele>512</ele>
        <time>2019-05-19T20:05:27Z</time>
      </trkpt>
      <trkpt lat="46.50506" lon="5.50666">
        <ele>510</ele>
        <time>2019-05-19T20:05:29Z</time>
      </trkpt>
      <trkpt lat="46.50508" lon="5.50649">
        <ele>510</ele>
        <time>2019-05-19T20:05:31Z</time>
      </trkpt>
      <trkpt lat="46.50504" lon="5.50617">
        <ele>511</ele>
        <time>2019-05-19T20:05:35Z</time>
      </trkpt>
      <trkpt lat="46.50496" lon="5.50592">
        <ele>511</ele>
        <time>2019-05-19T20:05:38Z</time>
      </trkpt>
      <trkpt lat="46.50485" lon="5.50543">
        <ele>511</ele>
        <time>2019-05-19T20:05:45Z</time>
      </trkpt>
      <trkpt lat="46.50461" lon="5.50478">
        <ele>511</ele>
        <time>2019-05-19T20:05:54Z</time>
      </trkpt>
      <trkpt lat="46.50448" lon="5.50458">
        <ele>510</ele>
        <time>2019-05-19T20:05:57Z</time>
      </trkpt>
      <trkpt lat="46.5042" lon="5.50443">
        <ele>509</ele>
        <time>2019-05-19T20:06:02Z</time>
      </trkpt>
      <trkpt lat="46.50391" lon="5.50432">
        <ele>508</ele>
        <time>2019-05-19T20:06:08Z</time>
      </trkpt>
      <trkpt lat="46.50352" lon="5.50422">
        <ele>506</ele>
        <time>2019-05-19T20:06:15Z</time>
      </trkpt>
      <trkpt lat="46.50332" lon="5.5042">
        <ele>505</ele>
        <time>2019-05-19T20:06:18Z</time>
      </trkpt>
      <trkpt lat="46.50307" lon="5.50428">
        <ele>504</ele>
        <time>2019-05-19T20:06:23Z</time>
      </trkpt>
      <trkpt lat="46.5026" lon="5.50467">
        <ele>501</ele>
        <time>2019-05-19T20:06:32Z</time>
      </trkpt>
      <trkpt lat="46.50244" lon="5.5047">
        <ele>501</ele>
        <time>2019-05-19T20:06:35Z</time>
      </trkpt>
      <trkpt lat="46.50233" lon="5.50465">
        <ele>501</ele>
        <time>2019-05-19T20:06:37Z</time>
      </trkpt>
      <trkpt lat="46.50219" lon="5.50455">
        <ele>501</ele>
        <time>2019-05-19T20:06:40Z</time>
      </trkpt>
      <trkpt lat="46.5019" lon="5.50431">
        <ele>501</ele>
        <time>2019-05-19T20:06:46Z</time>
      </trkpt>
      <trkpt lat="46.50131" lon="5.50404">
        <ele>500</ele>
        <time>2019-05-19T20:06:57Z</time>
      </trkpt>
      <trkpt lat="46.50108" lon="5.50406">
        <ele>499</ele>
        <time>2019-05-19T20:07:01Z</time>
      </trkpt>
      <trkpt lat="46.5009" lon="5.50414">
        <ele>499</ele>
        <time>2019-05-19T20:07:05Z</time>
      </trkpt>
      <trkpt lat="46.50076" lon="5.50427">
        <ele>499</ele>
        <time>2019-05-19T20:07:07Z</time>
      </trkpt>
      <trkpt lat="46.50049" lon="5.5047">
        <ele>500</ele>
        <time>2019-05-19T20:07:15Z</time>
      </trkpt>
      <trkpt lat="46.50038" lon="5.50483">
        <ele>500</ele>
        <time>2019-05-19T20:07:17Z</time>
      </trkpt>
      <trkpt lat="46.50022" lon="5.50497">
        <ele>501</ele>
        <time>2019-05-19T20:07:20Z</time>
      </trkpt>
      <trkpt lat="46.49995" lon="5.50515">
        <ele>502</ele>
        <time>2019-05-19T20:07:26Z</time>
      </trkpt>
      <trkpt lat="46.49968" lon="5.5053">
        <ele>503</ele>
        <time>2019-05-19T20:07:31Z</time>
      </trkpt>
      <trkpt lat="46.49953" lon="5.50533">
        <ele>503</ele>
        <time>2019-05-19T20:07:34Z</time>
      </trkpt>
      <trkpt lat="46.4994" lon="5.50531">
        <ele>503</ele>
        <time>2019-05-19T20:07:36Z</time>
      </trkpt>
      <trkpt lat="46.49918" lon="5.50522">
        <ele>502</ele>
        <time>2019-05-19T20:07:40Z</time>
      </trkpt>
      <trkpt lat="46.49895" lon="5.50508">
        <ele>501</ele>
        <time>2019-05-19T20:07:44Z</time>
      </trkpt>
      <trkpt lat="46.49871" lon="5.50486">
        <ele>501</ele>
        <time>2019-05-19T20:07:49Z</time>
      </trkpt>
      <trkpt lat="46.49849" lon="5.50473">
        <ele>501</ele>
        <time>2019-05-19T20:07:54Z</time>
      </trkpt>
      <trkpt lat="46.49762" lon="5.50448">
        <ele>501</ele>
        <time>2019-05-19T20:08:09Z</time>
      </trkpt>
      <trkpt lat="46.49747" lon="5.50438">
        <ele>502</ele>
        <time>2019-05-19T20:08:12Z</time>
      </trkpt>
      <trkpt lat="46.49732" lon="5.50417">
        <ele>504</ele>
        <time>2019-05-19T20:08:16Z</time>
      </trkpt>
      <trkpt lat="46.49714" lon="5.50387">
        <ele>504</ele>
        <time>2019-05-19T20:08:21Z</time>
      </trkpt>
      <trkpt lat="46.49675" lon="5.50343">
        <ele>507</ele>
        <time>2019-05-19T20:08:30Z</time>
      </trkpt>
      <trkpt lat="46.49658" lon="5.50315">
        <ele>507</ele>
        <time>2019-05-19T20:08:34Z</time>
      </trkpt>
      <trkpt lat="46.49628" lon="5.5026">
        <ele>503</ele>
        <time>2019-05-19T20:08:43Z</time>
      </trkpt>
      <trkpt lat="46.49575" lon="5.5017">
        <ele>498</ele>
        <time>2019-05-19T20:08:57Z</time>
      </trkpt>
      <trkpt lat="46.49553" lon="5.50125">
        <ele>497</ele>
        <time>2019-05-19T20:09:04Z</time>
      </trkpt>
      <trkpt lat="46.49545" lon="5.501">
        <ele>496</ele>
        <time>2019-05-19T20:09:08Z</time>
      </trkpt>
      <trkpt lat="46.49535" lon="5.50049">
        <ele>495</ele>
        <time>2019-05-19T20:09:14Z</time>
      </trkpt>
      <trkpt lat="46.49527" lon="5.50029">
        <ele>495</ele>
        <time>2019-05-19T20:09:17Z</time>
      </trkpt>
      <trkpt lat="46.49448" lon="5.49866">
        <ele>492</ele>
        <time>2019-05-19T20:09:41Z</time>
      </trkpt>
      <trkpt lat="46.4941" lon="5.49794">
        <ele>493</ele>
        <time>2019-05-19T20:09:52Z</time>
      </trkpt>
      <trkpt lat="46.49399" lon="5.49769">
        <ele>495</ele>
        <time>2019-05-19T20:09:56Z</time>
      </trkpt>
      <trkpt lat="46.49379" lon="5.49698">
        <ele>496</ele>
        <time>2019-05-19T20:10:05Z</time>
      </trkpt>
      <trkpt lat="46.49372" lon="5.49682">
        <ele>496</ele>
        <time>2019-05-19T20:10:08Z</time>
      </trkpt>
      <trkpt lat="46.49363" lon="5.49672">
        <ele>497</ele>
        <time>2019-05-19T20:10:10Z</time>
      </trkpt>
      <trkpt lat="46.49295" lon="5.49638">
        <ele>499</ele>
        <time>2019-05-19T20:10:23Z</time>
      </trkpt>
      <trkpt lat="46.49282" lon="5.49628">
        <ele>499</ele>
        <time>2019-05-19T20:10:25Z</time>
      </trkpt>
      <trkpt lat="46.49253" lon="5.49589">
        <ele>498</ele>
        <time>2019-05-19T20:10:32Z</time>
      </trkpt>
      <trkpt lat="46.49242" lon="5.4957">
        <ele>497</ele>
        <time>2019-05-19T20:10:35Z</time>
      </trkpt>
      <trkpt lat="46.49238" lon="5.49554">
        <ele>497</ele>
        <time>2019-05-19T20:10:37Z</time>
      </trkpt>
      <trkpt lat="46.49237" lon="5.49539">
        <ele>496</ele>
        <time>2019-05-19T20:10:39Z</time>
      </trkpt>
      <trkpt lat="46.49239" lon="5.49527">
        <ele>496</ele>
        <time>2019-05-19T20:10:41Z</time>
      </trkpt>
      <trkpt lat="46.4927" lon="5.49443">
        <ele>494</ele>
        <time>2019-05-19T20:10:52Z</time>
      </trkpt>
      <trkpt lat="46.49279" lon="5.49407">
        <ele>494</ele>
        <time>2019-05-19T20:10:57Z</time>
      </trkpt>
      <trkpt lat="46.49291" lon="5.49332">
        <ele>491</ele>
        <time>2019-05-19T20:11:07Z</time>
      </trkpt>
      <trkpt lat="46.49295" lon="5.493">
        <ele>489</ele>
        <time>2019-05-19T20:11:11Z</time>
      </trkpt>
      <trkpt lat="46.49295" lon="5.49277">
        <ele>488</ele>
        <time>2019-05-19T20:11:13Z</time>
      </trkpt>
      <trkpt lat="46.49291" lon="5.49253">
        <ele>488</ele>
        <time>2019-05-19T20:11:16Z</time>
      </trkpt>
      <trkpt lat="46.49229" lon="5.49044">
        <ele>482</ele>
        <time>2019-05-19T20:11:44Z</time>
      </trkpt>
      <trkpt lat="46.49185" lon="5.48912">
        <ele>482</ele>
        <time>2019-05-19T20:12:02Z</time>
      </trkpt>
      <trkpt lat="46.49148" lon="5.48817">
        <ele>483</ele>
        <time>2019-05-19T20:12:16Z</time>
      </trkpt>
      <trkpt lat="46.49122" lon="5.4876">
        <ele>482</ele>
        <time>2019-05-19T20:12:24Z</time>
      </trkpt>
      <trkpt lat="46.49111" lon="5.48739">
        <ele>482</ele>
        <time>2019-05-19T20:12:27Z</time>
      </trkpt>
      <trkpt lat="46.49101" lon="5.48726">
        <ele>483</ele>
        <time>2019-05-19T20:12:30Z</time>
      </trkpt>
      <trkpt lat="46.49091" lon="5.48716">
        <ele>484</ele>
        <time>2019-05-19T20:12:32Z</time>
      </trkpt>
      <trkpt lat="46.49068" lon="5.487">
        <ele>487</ele>
        <time>2019-05-19T20:12:36Z</time>
      </trkpt>
      <trkpt lat="46.49056" lon="5.48688">
        <ele>487</ele>
        <time>2019-05-19T20:12:39Z</time>
      </trkpt>
      <trkpt lat="46.49038" lon="5.48663">
        <ele>489</ele>
        <time>2019-05-19T20:12:43Z</time>
      </trkpt>
      <trkpt lat="46.49001" lon="5.4861">
        <ele>488</ele>
        <time>2019-05-19T20:12:53Z</time>
      </trkpt>
      <trkpt lat="46.48988" lon="5.48585">
        <ele>487</ele>
        <time>2019-05-19T20:12:56Z</time>
      </trkpt>
      <trkpt lat="46.48967" lon="5.48537">
        <ele>484</ele>
        <time>2019-05-19T20:13:03Z</time>
      </trkpt>
      <trkpt lat="46.48957" lon="5.48524">
        <ele>484</ele>
        <time>2019-05-19T20:13:06Z</time>
      </trkpt>
      <trkpt lat="46.48929" lon="5.48498">
        <ele>484</ele>
        <time>2019-05-19T20:13:12Z</time>
      </trkpt>
      <trkpt lat="46.48872" lon="5.4844">
        <ele>479</ele>
        <time>2019-05-19T20:13:24Z</time>
      </trkpt>
      <trkpt lat="46.48789" lon="5.48369">
        <ele>477</ele>
        <time>2019-05-19T20:13:41Z</time>
      </trkpt>
      <trkpt lat="46.48725" lon="5.48297">
        <ele>476</ele>
        <time>2019-05-19T20:13:56Z</time>
      </trkpt>
      <trkpt lat="46.48692" lon="5.48268">
        <ele>474</ele>
        <time>2019-05-19T20:14:02Z</time>
      </trkpt>
      <trkpt lat="46.48588" lon="5.48186">
        <ele>464</ele>
        <time>2019-05-19T20:14:23Z</time>
      </trkpt>
      <trkpt lat="46.48548" lon="5.48151">
        <ele>458</ele>
        <time>2019-05-19T20:14:32Z</time>
      </trkpt>
      <trkpt lat="46.48517" lon="5.4812">
        <ele>452</ele>
        <time>2019-05-19T20:14:38Z</time>
      </trkpt>
      <trkpt lat="46.4847" lon="5.48083">
        <ele>442</ele>
        <time>2019-05-19T20:14:48Z</time>
      </trkpt>
      <trkpt lat="46.48422" lon="5.48055">
        <ele>438</ele>
        <time>2019-05-19T20:14:57Z</time>
      </trkpt>
      <trkpt lat="46.4825" lon="5.47982">
        <ele>424</ele>
        <time>2019-05-19T20:15:29Z</time>
      </trkpt>
      <trkpt lat="46.48191" lon="5.47949">
        <ele>421</ele>
        <time>2019-05-19T20:15:40Z</time>
      </trkpt>
      <trkpt lat="46.48162" lon="5.47929">
        <ele>419</ele>
        <time>2019-05-19T20:15:46Z</time>
      </trkpt>
      <trkpt lat="46.48146" lon="5.47915">
        <ele>421</ele>
        <time>2019-05-19T20:15:49Z</time>
      </trkpt>
      <trkpt lat="46.48128" lon="5.47893">
        <ele>423</ele>
        <time>2019-05-19T20:15:54Z</time>
      </trkpt>
      <trkpt lat="46.48099" lon="5.47834">
        <ele>420</ele>
        <time>2019-05-19T20:16:02Z</time>
      </trkpt>
      <trkpt lat="46.48078" lon="5.47774">
        <ele>416</ele>
        <time>2019-05-19T20:16:11Z</time>
      </trkpt>
      <trkpt lat="46.48072" lon="5.47734">
        <ele>413</ele>
        <time>2019-05-19T20:16:16Z</time>
      </trkpt>
      <trkpt lat="46.4807" lon="5.47692">
        <ele>412</ele>
        <time>2019-05-19T20:16:21Z</time>
      </trkpt>
      <trkpt lat="46.48072" lon="5.47664">
        <ele>409</ele>
        <time>2019-05-19T20:16:24Z</time>
      </trkpt>
      <trkpt lat="46.4809" lon="5.47588">
        <ele>406</ele>
        <time>2019-05-19T20:16:34Z</time>
      </trkpt>
      <trkpt lat="46.48098" lon="5.47541">
        <ele>407</ele>
        <time>2019-05-19T20:16:40Z</time>
      </trkpt>
      <trkpt lat="46.48102" lon="5.475">
        <ele>407</ele>
        <time>2019-05-19T20:16:45Z</time>
      </trkpt>
      <trkpt lat="46.48103" lon="5.47441">
        <ele>405</ele>
        <time>2019-05-19T20:16:52Z</time>
      </trkpt>
      <trkpt lat="46.48099" lon="5.47392">
        <ele>402</ele>
        <time>2019-05-19T20:16:58Z</time>
      </trkpt>
      <trkpt lat="46.48078" lon="5.4731">
        <ele>395</ele>
        <time>2019-05-19T20:17:09Z</time>
      </trkpt>
      <trkpt lat="46.48076" lon="5.47291">
        <ele>394</ele>
        <time>2019-05-19T20:17:12Z</time>
      </trkpt>
      <trkpt lat="46.48077" lon="5.47274">
        <ele>394</ele>
        <time>2019-05-19T20:17:14Z</time>
      </trkpt>
      <trkpt lat="46.48103" lon="5.47152">
        <ele>392</ele>
        <time>2019-05-19T20:17:29Z</time>
      </trkpt>
      <trkpt lat="46.48113" lon="5.47113">
        <ele>390</ele>
        <time>2019-05-19T20:17:34Z</time>
      </trkpt>
      <trkpt lat="46.48125" lon="5.47077">
        <ele>389</ele>
        <time>2019-05-19T20:17:39Z</time>
      </trkpt>
      <trkpt lat="46.4814" lon="5.47044">
        <ele>387</ele>
        <time>2019-05-19T20:17:44Z</time>
      </trkpt>
      <trkpt lat="46.48204" lon="5.46946">
        <ele>381</ele>
        <time>2019-05-19T20:18:01Z</time>
      </trkpt>
      <trkpt lat="46.48216" lon="5.46921">
        <ele>380</ele>
        <time>2019-05-19T20:18:04Z</time>
      </trkpt>
      <trkpt lat="46.48368" lon="5.4654">
        <ele>377</ele>
        <time>2019-05-19T20:18:58Z</time>
      </trkpt>
      <trkpt lat="46.48386" lon="5.46494">
        <ele>378</ele>
        <time>2019-05-19T20:19:05Z</time>
      </trkpt>
      <trkpt lat="46.48388" lon="5.46484">
        <ele>378</ele>
        <time>2019-05-19T20:19:06Z</time>
      </trkpt>
      <trkpt lat="46.48388" lon="5.46427">
        <ele>378</ele>
        <time>2019-05-19T20:19:13Z</time>
      </trkpt>
      <trkpt lat="46.48391" lon="5.46404">
        <ele>378</ele>
        <time>2019-05-19T20:19:16Z</time>
      </trkpt>
      <trkpt lat="46.48406" lon="5.46362">
        <ele>378</ele>
        <time>2019-05-19T20:19:22Z</time>
      </trkpt>
      <trkpt lat="46.4844" lon="5.4629">
        <ele>381</ele>
        <time>2019-05-19T20:19:32Z</time>
      </trkpt>
      <trkpt lat="46.48444" lon="5.46279">
        <ele>381</ele>
        <time>2019-05-19T20:19:34Z</time>
      </trkpt>
      <trkpt lat="46.48444" lon="5.46269">
        <ele>382</ele>
        <time>2019-05-19T20:19:35Z</time>
      </trkpt>
      <trkpt lat="46.48434" lon="5.46249">
        <ele>383</ele>
        <time>2019-05-19T20:19:38Z</time>
      </trkpt>
      <trkpt lat="46.4843" lon="5.46235">
        <ele>383</ele>
        <time>2019-05-19T20:19:40Z</time>
      </trkpt>
      <trkpt lat="46.48419" lon="5.46178">
        <ele>385</ele>
        <time>2019-05-19T20:19:47Z</time>
      </trkpt>
      <trkpt lat="46.48414" lon="5.46165">
        <ele>385</ele>
        <time>2019-05-19T20:19:49Z</time>
      </trkpt>
      <trkpt lat="46.48378" lon="5.4609">
        <ele>385</ele>
        <time>2019-05-19T20:20:00Z</time>
      </trkpt>
      <trkpt lat="46.48308" lon="5.45966">
        <ele>383</ele>
        <time>2019-05-19T20:20:20Z</time>
      </trkpt>
      <trkpt lat="46.48294" lon="5.45947">
        <ele>383</ele>
        <time>2019-05-19T20:20:23Z</time>
      </trkpt>
      <trkpt lat="46.48252" lon="5.45882">
        <ele>382</ele>
        <time>2019-05-19T20:20:34Z</time>
      </trkpt>
      <trkpt lat="46.48134" lon="5.45733">
        <ele>378</ele>
        <time>2019-05-19T20:21:02Z</time>
      </trkpt>
      <trkpt lat="46.48114" lon="5.45708">
        <ele>377</ele>
        <time>2019-05-19T20:21:07Z</time>
      </trkpt>
      <trkpt lat="46.48092" lon="5.45684">
        <ele>377</ele>
        <time>2019-05-19T20:21:12Z</time>
      </trkpt>
      <trkpt lat="46.48067" lon="5.45663">
        <ele>376</ele>
        <time>2019-05-19T20:21:17Z</time>
      </trkpt>
      <trkpt lat="46.48047" lon="5.4565">
        <ele>376</ele>
        <time>2019-05-19T20:21:21Z</time>
      </trkpt>
      <trkpt lat="46.48026" lon="5.4564">
        <ele>375</ele>
        <time>2019-05-19T20:21:25Z</time>
      </trkpt>
      <trkpt lat="46.47837" lon="5.45564">
        <ele>381</ele>
        <time>2019-05-19T20:22:00Z</time>
      </trkpt>
      <trkpt lat="46.47771" lon="5.4555">
        <ele>381</ele>
        <time>2019-05-19T20:22:11Z</time>
      </trkpt>
      <trkpt lat="46.47758" lon="5.45544">
        <ele>381</ele>
        <time>2019-05-19T20:22:14Z</time>
      </trkpt>
      <trkpt lat="46.47747" lon="5.45537">
        <ele>381</ele>
        <time>2019-05-19T20:22:16Z</time>
      </trkpt>
      <trkpt lat="46.47704" lon="5.45496">
        <ele>380</ele>
        <time>2019-05-19T20:22:25Z</time>
      </trkpt>
      <trkpt lat="46.47713" lon="5.45468">
        <ele>382</ele>
        <time>2019-05-19T20:22:29Z</time>
      </trkpt>
      <trkpt lat="46.47715" lon="5.45446">
        <ele>383</ele>
        <time>2019-05-19T20:22:32Z</time>
      </trkpt>
      <trkpt lat="46.47715" lon="5.45431">
        <ele>383</ele>
        <time>2019-05-19T20:22:34Z</time>
      </trkpt>
      <trkpt lat="46.47775" lon="5.45394">
        <ele>384</ele>
        <time>2019-05-19T20:22:45Z</time>
      </trkpt>
      <trkpt lat="46.47794" lon="5.45391">
        <ele>385</ele>
        <time>2019-05-19T20:22:49Z</time>
      </trkpt>
      <trkpt lat="46.47808" lon="5.45381">
        <ele>385</ele>
        <time>2019-05-19T20:22:51Z</time>
      </trkpt>
      <trkpt lat="46.47982" lon="5.45163">
        <ele>392</ele>
        <time>2019-05-19T20:23:32Z</time>
      </trkpt>
      <trkpt lat="46.4801" lon="5.45126">
        <ele>396</ele>
        <time>2019-05-19T20:23:39Z</time>
      </trkpt>
      <trkpt lat="46.48018" lon="5.45103">
        <ele>399</ele>
        <time>2019-05-19T20:23:42Z</time>
      </trkpt>
      <trkpt lat="46.48021" lon="5.4509">
        <ele>401</ele>
        <time>2019-05-19T20:23:44Z</time>
      </trkpt>
      <trkpt lat="46.48022" lon="5.45056">
        <ele>406</ele>
        <time>2019-05-19T20:23:48Z</time>
      </trkpt>
      <trkpt lat="46.4802" lon="5.45031">
        <ele>409</ele>
        <time>2019-05-19T20:23:51Z</time>
      </trkpt>
      <trkpt lat="46.48015" lon="5.45">
        <ele>412</ele>
        <time>2019-05-19T20:23:55Z</time>
      </trkpt>
      <trkpt lat="46.48002" lon="5.44963">
        <ele>418</ele>
        <time>2019-05-19T20:24:00Z</time>
      </trkpt>
      <trkpt lat="46.47993" lon="5.44946">
        <ele>421</ele>
        <time>2019-05-19T20:24:03Z</time>
      </trkpt>
      <trkpt lat="46.47984" lon="5.44933">
        <ele>423</ele>
        <time>2019-05-19T20:24:05Z</time>
      </trkpt>
      <trkpt lat="46.47931" lon="5.44893">
        <ele>424</ele>
        <time>2019-05-19T20:24:16Z</time>
      </trkpt>
      <trkpt lat="46.47827" lon="5.44794">
        <ele>430</ele>
        <time>2019-05-19T20:24:38Z</time>
      </trkpt>
      <trkpt lat="46.47797" lon="5.4476">
        <ele>432</ele>
        <time>2019-05-19T20:24:44Z</time>
      </trkpt>
      <trkpt lat="46.47753" lon="5.44716">
        <ele>435</ele>
        <time>2019-05-19T20:24:54Z</time>
      </trkpt>
      <trkpt lat="46.47679" lon="5.44634">
        <ele>441</ele>
        <time>2019-05-19T20:25:10Z</time>
      </trkpt>
      <trkpt lat="46.47656" lon="5.44604">
        <ele>444</ele>
        <time>2019-05-19T20:25:16Z</time>
      </trkpt>
      <trkpt lat="46.47621" lon="5.44563">
        <ele>447</ele>
        <time>2019-05-19T20:25:24Z</time>
      </trkpt>
      <trkpt lat="46.47503" lon="5.44431">
        <ele>451</ele>
        <time>2019-05-19T20:25:50Z</time>
      </trkpt>
      <trkpt lat="46.47475" lon="5.44413">
        <ele>450</ele>
        <time>2019-05-19T20:25:56Z</time>
      </trkpt>
      <trkpt lat="46.47469" lon="5.44402">
        <ele>451</ele>
        <time>2019-05-19T20:25:58Z</time>
      </trkpt>
      <trkpt lat="46.47471" lon="5.44393">
        <ele>455</ele>
        <time>2019-05-19T20:25:59Z</time>
      </trkpt>
      <trkpt lat="46.47473" lon="5.44391">
        <ele>456</ele>
        <time>2019-05-19T20:25:59Z</time>
      </trkpt>
      <trkpt lat="46.47481" lon="5.44392">
        <ele>457</ele>
        <time>2019-05-19T20:26:01Z</time>
      </trkpt>
      <trkpt lat="46.47497" lon="5.44411">
        <ele>456</ele>
        <time>2019-05-19T20:26:04Z</time>
      </trkpt>
      <trkpt lat="46.47511" lon="5.44423">
        <ele>456</ele>
        <time>2019-05-19T20:26:07Z</time>
      </trkpt>
      <trkpt lat="46.47543" lon="5.44446">
        <ele>458</ele>
        <time>2019-05-19T20:26:14Z</time>
      </trkpt>
      <trkpt lat="46.47606" lon="5.44487">
        <ele>465</ele>
        <time>2019-05-19T20:26:26Z</time>
      </trkpt>
      <trkpt lat="46.47629" lon="5.44505">
        <ele>466</ele>
        <time>2019-05-19T20:26:31Z</time>
      </trkpt>
      <trkpt lat="46.47729" lon="5.44573">
        <ele>472</ele>
        <time>2019-05-19T20:26:50Z</time>
      </trkpt>
      <trkpt lat="46.47804" lon="5.44629">
        <ele>474</ele>
        <time>2019-05-19T20:27:05Z</time>
      </trkpt>
      <trkpt lat="46.47842" lon="5.44653">
        <ele>476</ele>
        <time>2019-05-19T20:27:13Z</time>
      </trkpt>
      <trkpt lat="46.47925" lon="5.44692">
        <ele>481</ele>
        <time>2019-05-19T20:27:28Z</time>
      </trkpt>
      <trkpt lat="46.47981" lon="5.44707">
        <ele>486</ele>
        <time>2019-05-19T20:27:38Z</time>
      </trkpt>
      <trkpt lat="46.48006" lon="5.44709">
        <ele>490</ele>
        <time>2019-05-19T20:27:43Z</time>
      </trkpt>
      <trkpt lat="46.48018" lon="5.44703">
        <ele>492</ele>
        <time>2019-05-19T20:27:45Z</time>
      </trkpt>
      <trkpt lat="46.48031" lon="5.44688">
        <ele>496</ele>
        <time>2019-05-19T20:27:48Z</time>
      </trkpt>
      <trkpt lat="46.48038" lon="5.44668">
        <ele>499</ele>
        <time>2019-05-19T20:27:51Z</time>
      </trkpt>
      <trkpt lat="46.48055" lon="5.44608">
        <ele>503</ele>
        <time>2019-05-19T20:27:59Z</time>
      </trkpt>
      <trkpt lat="46.48058" lon="5.44586">
        <ele>503</ele>
        <time>2019-05-19T20:28:01Z</time>
      </trkpt>
      <trkpt lat="46.48056" lon="5.44571">
        <ele>503</ele>
        <time>2019-05-19T20:28:03Z</time>
      </trkpt>
      <trkpt lat="46.48035" lon="5.44494">
        <ele>501</ele>
        <time>2019-05-19T20:28:13Z</time>
      </trkpt>
      <trkpt lat="46.48012" lon="5.44386">
        <ele>498</ele>
        <time>2019-05-19T20:28:27Z</time>
      </trkpt>
      <trkpt lat="46.47974" lon="5.44277">
        <ele>498</ele>
        <time>2019-05-19T20:28:42Z</time>
      </trkpt>
      <trkpt lat="46.47939" lon="5.44158">
        <ele>495</ele>
        <time>2019-05-19T20:28:58Z</time>
      </trkpt>
      <trkpt lat="46.47935" lon="5.44134">
        <ele>493</ele>
        <time>2019-05-19T20:29:01Z</time>
      </trkpt>
      <trkpt lat="46.47936" lon="5.44021">
        <ele>485</ele>
        <time>2019-05-19T20:29:15Z</time>
      </trkpt>
      <trkpt lat="46.4794" lon="5.43874">
        <ele>485</ele>
        <time>2019-05-19T20:29:33Z</time>
      </trkpt>
      <trkpt lat="46.47938" lon="5.43681">
        <ele>492</ele>
        <time>2019-05-19T20:29:57Z</time>
      </trkpt>
      <trkpt lat="46.47928" lon="5.43582">
        <ele>500</ele>
        <time>2019-05-19T20:30:09Z</time>
      </trkpt>
      <trkpt lat="46.47928" lon="5.4355">
        <ele>501</ele>
        <time>2019-05-19T20:30:13Z</time>
      </trkpt>
      <trkpt lat="46.47932" lon="5.43386">
        <ele>503</ele>
        <time>2019-05-19T20:30:33Z</time>
      </trkpt>
      <trkpt lat="46.47929" lon="5.4336">
        <ele>503</ele>
        <time>2019-05-19T20:30:36Z</time>
      </trkpt>
      <trkpt lat="46.47924" lon="5.43346">
        <ele>502</ele>
        <time>2019-05-19T20:30:38Z</time>
      </trkpt>
      <trkpt lat="46.47915" lon="5.43331">
        <ele>501</ele>
        <time>2019-05-19T20:30:40Z</time>
      </trkpt>
      <trkpt lat="46.47889" lon="5.43298">
        <ele>502</ele>
        <time>2019-05-19T20:30:47Z</time>
      </trkpt>
      <trkpt lat="46.47882" lon="5.43285">
        <ele>503</ele>
        <time>2019-05-19T20:30:49Z</time>
      </trkpt>
      <trkpt lat="46.47875" lon="5.43266">
        <ele>504</ele>
        <time>2019-05-19T20:30:51Z</time>
      </trkpt>
      <trkpt lat="46.47864" lon="5.43217">
        <ele>508</ele>
        <time>2019-05-19T20:30:58Z</time>
      </trkpt>
      <trkpt lat="46.4785" lon="5.4318">
        <ele>510</ele>
        <time>2019-05-19T20:31:03Z</time>
      </trkpt>
      <trkpt lat="46.47836" lon="5.43154">
        <ele>512</ele>
        <time>2019-05-19T20:31:07Z</time>
      </trkpt>
      <trkpt lat="46.47821" lon="5.4313">
        <ele>515</ele>
        <time>2019-05-19T20:31:11Z</time>
      </trkpt>
      <trkpt lat="46.47808" lon="5.43114">
        <ele>517</ele>
        <time>2019-05-19T20:31:14Z</time>
      </trkpt>
      <trkpt lat="46.47775" lon="5.43084">
        <ele>519</ele>
        <time>2019-05-19T20:31:21Z</time>
      </trkpt>
      <trkpt lat="46.47767" lon="5.43069">
        <ele>520</ele>
        <time>2019-05-19T20:31:23Z</time>
      </trkpt>
      <trkpt lat="46.47764" lon="5.43052">
        <ele>521</ele>
        <time>2019-05-19T20:31:25Z</time>
      </trkpt>
      <trkpt lat="46.47765" lon="5.4304">
        <ele>522</ele>
        <time>2019-05-19T20:31:27Z</time>
      </trkpt>
      <trkpt lat="46.47769" lon="5.43013">
        <ele>524</ele>
        <time>2019-05-19T20:31:30Z</time>
      </trkpt>
      <trkpt lat="46.4777" lon="5.42996">
        <ele>526</ele>
        <time>2019-05-19T20:31:32Z</time>
      </trkpt>
      <trkpt lat="46.47767" lon="5.4298">
        <ele>527</ele>
        <time>2019-05-19T20:31:34Z</time>
      </trkpt>
      <trkpt lat="46.47762" lon="5.42964">
        <ele>528</ele>
        <time>2019-05-19T20:31:36Z</time>
      </trkpt>
      <trkpt lat="46.4775" lon="5.4294">
        <ele>529</ele>
        <time>2019-05-19T20:31:40Z</time>
      </trkpt>
      <trkpt lat="46.47742" lon="5.42928">
        <ele>530</ele>
        <time>2019-05-19T20:31:42Z</time>
      </trkpt>
      <trkpt lat="46.47734" lon="5.42921">
        <ele>531</ele>
        <time>2019-05-19T20:31:44Z</time>
      </trkpt>
      <trkpt lat="46.47726" lon="5.42917">
        <ele>532</ele>
        <time>2019-05-19T20:31:45Z</time>
      </trkpt>
      <trkpt lat="46.47631" lon="5.42912">
        <ele>539</ele>
        <time>2019-05-19T20:32:02Z</time>
      </trkpt>
      <trkpt lat="46.47623" lon="5.42908">
        <ele>541</ele>
        <time>2019-05-19T20:32:04Z</time>
      </trkpt>
      <trkpt lat="46.47617" lon="5.42902">
        <ele>543</ele>
        <time>2019-05-19T20:32:05Z</time>
      </trkpt>
      <trkpt lat="46.47614" lon="5.42891">
        <ele>545</ele>
        <time>2019-05-19T20:32:06Z</time>
      </trkpt>
      <trkpt lat="46.47613" lon="5.42882">
        <ele>546</ele>
        <time>2019-05-19T20:32:07Z</time>
      </trkpt>
      <trkpt lat="46.47615" lon="5.42872">
        <ele>547</ele>
        <time>2019-05-19T20:32:09Z</time>
      </trkpt>
      <trkpt lat="46.4762" lon="5.42861">
        <ele>547</ele>
        <time>2019-05-19T20:32:10Z</time>
      </trkpt>
      <trkpt lat="46.47654" lon="5.42817">
        <ele>544</ele>
        <time>2019-05-19T20:32:18Z</time>
      </trkpt>
      <trkpt lat="46.47677" lon="5.42795">
        <ele>543</ele>
        <time>2019-05-19T20:32:23Z</time>
      </trkpt>
      <trkpt lat="46.47686" lon="5.42789">
        <ele>543</ele>
        <time>2019-05-19T20:32:25Z</time>
      </trkpt>
      <trkpt lat="46.47697" lon="5.42785">
        <ele>542</ele>
        <time>2019-05-19T20:32:27Z</time>
      </trkpt>
      <trkpt lat="46.47728" lon="5.42785">
        <ele>540</ele>
        <time>2019-05-19T20:32:33Z</time>
      </trkpt>
      <trkpt lat="46.47749" lon="5.42783">
        <ele>539</ele>
        <time>2019-05-19T20:32:36Z</time>
      </trkpt>
      <trkpt lat="46.47765" lon="5.42778">
        <ele>540</ele>
        <time>2019-05-19T20:32:39Z</time>
      </trkpt>
      <trkpt lat="46.47775" lon="5.42773">
        <ele>540</ele>
        <time>2019-05-19T20:32:41Z</time>
      </trkpt>
      <trkpt lat="46.47786" lon="5.42762">
        <ele>541</ele>
        <time>2019-05-19T20:32:44Z</time>
      </trkpt>
      <trkpt lat="46.47792" lon="5.4275">
        <ele>541</ele>
        <time>2019-05-19T20:32:45Z</time>
      </trkpt>
      <trkpt lat="46.47804" lon="5.4271">
        <ele>539</ele>
        <time>2019-05-19T20:32:51Z</time>
      </trkpt>
      <trkpt lat="46.4781" lon="5.42669">
        <ele>536</ele>
        <time>2019-05-19T20:32:56Z</time>
      </trkpt>
      <trkpt lat="46.47805" lon="5.42544">
        <ele>527</ele>
        <time>2019-05-19T20:33:11Z</time>
      </trkpt>
      <trkpt lat="46.47802" lon="5.42508">
        <ele>524</ele>
        <time>2019-05-19T20:33:16Z</time>
      </trkpt>
      <trkpt lat="46.47787" lon="5.42415">
        <ele>518</ele>
        <time>2019-05-19T20:33:27Z</time>
      </trkpt>
      <trkpt lat="46.47769" lon="5.42337">
        <ele>513</ele>
        <time>2019-05-19T20:33:37Z</time>
      </trkpt>
      <trkpt lat="46.47815" lon="5.42239">
        <ele>507</ele>
        <time>2019-05-19T20:33:52Z</time>
      </trkpt>
      <trkpt lat="46.47835" lon="5.422">
        <ele>506</ele>
        <time>2019-05-19T20:33:58Z</time>
      </trkpt>
      <trkpt lat="46.47847" lon="5.42182">
        <ele>506</ele>
        <time>2019-05-19T20:34:01Z</time>
      </trkpt>
      <trkpt lat="46.4792" lon="5.42106">
        <ele>505</ele>
        <time>2019-05-19T20:34:17Z</time>
      </trkpt>
      <trkpt lat="46.47988" lon="5.4204">
        <ele>504</ele>
        <time>2019-05-19T20:34:32Z</time>
      </trkpt>
      <trkpt lat="46.48037" lon="5.41999">
        <ele>504</ele>
        <time>2019-05-19T20:34:42Z</time>
      </trkpt>
      <trkpt lat="46.48082" lon="5.41991">
        <ele>505</ele>
        <time>2019-05-19T20:34:50Z</time>
      </trkpt>
      <trkpt lat="46.48105" lon="5.41989">
        <ele>504</ele>
        <time>2019-05-19T20:34:54Z</time>
      </trkpt>
      <trkpt lat="46.48115" lon="5.41994">
        <ele>504</ele>
        <time>2019-05-19T20:34:56Z</time>
      </trkpt>
      <trkpt lat="46.4814" lon="5.42019">
        <ele>502</ele>
        <time>2019-05-19T20:35:01Z</time>
      </trkpt>
      <trkpt lat="46.48186" lon="5.42052">
        <ele>500</ele>
        <time>2019-05-19T20:35:10Z</time>
      </trkpt>
      <trkpt lat="46.48216" lon="5.42071">
        <ele>498</ele>
        <time>2019-05-19T20:35:16Z</time>
      </trkpt>
      <trkpt lat="46.48276" lon="5.42102">
        <ele>496</ele>
        <time>2019-05-19T20:35:27Z</time>
      </trkpt>
      <trkpt lat="46.48304" lon="5.4212">
        <ele>496</ele>
        <time>2019-05-19T20:35:33Z</time>
      </trkpt>
      <trkpt lat="46.48394" lon="5.4217">
        <ele>493</ele>
        <time>2019-05-19T20:35:50Z</time>
      </trkpt>
      <trkpt lat="46.48429" lon="5.42192">
        <ele>493</ele>
        <time>2019-05-19T20:35:57Z</time>
      </trkpt>
      <trkpt lat="46.48555" lon="5.42297">
        <ele>491</ele>
        <time>2019-05-19T20:36:23Z</time>
      </trkpt>
      <trkpt lat="46.48566" lon="5.42302">
        <ele>490</ele>
        <time>2019-05-19T20:36:25Z</time>
      </trkpt>
      <trkpt lat="46.48597" lon="5.42281">
        <ele>487</ele>
        <time>2019-05-19T20:36:31Z</time>
      </trkpt>
      <trkpt lat="46.48632" lon="5.42252">
        <ele>485</ele>
        <time>2019-05-19T20:36:38Z</time>
      </trkpt>
      <trkpt lat="46.48649" lon="5.42249">
        <ele>484</ele>
        <time>2019-05-19T20:36:41Z</time>
      </trkpt>
      <trkpt lat="46.48712" lon="5.42264">
        <ele>483</ele>
        <time>2019-05-19T20:36:52Z</time>
      </trkpt>
      <trkpt lat="46.48769" lon="5.42289">
        <ele>483</ele>
        <time>2019-05-19T20:37:03Z</time>
      </trkpt>
      <trkpt lat="46.48824" lon="5.42316">
        <ele>483</ele>
        <time>2019-05-19T20:37:13Z</time>
      </trkpt>
      <trkpt lat="46.4884" lon="5.4232">
        <ele>483</ele>
        <time>2019-05-19T20:37:16Z</time>
      </trkpt>
      <trkpt lat="46.48849" lon="5.42254">
        <ele>482</ele>
        <time>2019-05-19T20:37:24Z</time>
      </trkpt>
      <trkpt lat="46.48851" lon="5.42246">
        <ele>482</ele>
        <time>2019-05-19T20:37:25Z</time>
      </trkpt>
      <trkpt lat="46.48855" lon="5.42238">
        <ele>483</ele>
        <time>2019-05-19T20:37:27Z</time>
      </trkpt>
      <trkpt lat="46.48866" lon="5.42228">
        <ele>484</ele>
        <time>2019-05-19T20:37:29Z</time>
      </trkpt>
      <trkpt lat="46.48872" lon="5.42226">
        <ele>484</ele>
        <time>2019-05-19T20:37:30Z</time>
      </trkpt>
      <trkpt lat="46.48881" lon="5.42226">
        <ele>484</ele>
        <time>2019-05-19T20:37:32Z</time>
      </trkpt>
      <trkpt lat="46.48945" lon="5.42237">
        <ele>486</ele>
        <time>2019-05-19T20:37:43Z</time>
      </trkpt>
      <trkpt lat="46.48976" lon="5.42235">
        <ele>487</ele>
        <time>2019-05-19T20:37:49Z</time>
      </trkpt>
      <trkpt lat="46.49043" lon="5.42225">
        <ele>492</ele>
        <time>2019-05-19T20:38:01Z</time>
      </trkpt>
      <trkpt lat="46.49085" lon="5.42223">
        <ele>495</ele>
        <time>2019-05-19T20:38:08Z</time>
      </trkpt>
      <trkpt lat="46.49111" lon="5.42224">
        <ele>498</ele>
        <time>2019-05-19T20:38:13Z</time>
      </trkpt>
      <trkpt lat="46.49204" lon="5.42239">
        <ele>508</ele>
        <time>2019-05-19T20:38:29Z</time>
      </trkpt>
      <trkpt lat="46.49275" lon="5.4228">
        <ele>512</ele>
        <time>2019-05-19T20:38:43Z</time>
      </trkpt>
      <trkpt lat="46.49314" lon="5.42308">
        <ele>515</ele>
        <time>2019-05-19T20:38:51Z</time>
      </trkpt>
      <trkpt lat="46.49412" lon="5.42372">
        <ele>525</ele>
        <time>2019-05-19T20:39:10Z</time>
      </trkpt>
      <trkpt lat="46.49454" lon="5.42405">
        <ele>527</ele>
        <time>2019-05-19T20:39:18Z</time>
      </trkpt>
      <trkpt lat="46.49486" lon="5.42438">
        <ele>527</ele>
        <time>2019-05-19T20:39:25Z</time>
      </trkpt>
      <trkpt lat="46.49513" lon="5.42457">
        <ele>528</ele>
        <time>2019-05-19T20:39:31Z</time>
      </trkpt>
      <trkpt lat="46.49584" lon="5.42492">
        <ele>534</ele>
        <time>2019-05-19T20:39:44Z</time>
      </trkpt>
      <trkpt lat="46.49623" lon="5.42505">
        <ele>536</ele>
        <time>2019-05-19T20:39:51Z</time>
      </trkpt>
      <trkpt lat="46.49632" lon="5.42502">
        <ele>537</ele>
        <time>2019-05-19T20:39:53Z</time>
      </trkpt>
      <trkpt lat="46.49649" lon="5.42492">
        <ele>541</ele>
        <time>2019-05-19T20:39:56Z</time>
      </trkpt>
      <trkpt lat="46.49664" lon="5.42486">
        <ele>544</ele>
        <time>2019-05-19T20:39:59Z</time>
      </trkpt>
      <trkpt lat="46.49672" lon="5.42485">
        <ele>545</ele>
        <time>2019-05-19T20:40:00Z</time>
      </trkpt>
      <trkpt lat="46.49678" lon="5.42487">
        <ele>545</ele>
        <time>2019-05-19T20:40:01Z</time>
      </trkpt>
      <trkpt lat="46.49684" lon="5.42493">
        <ele>545</ele>
        <time>2019-05-19T20:40:03Z</time>
      </trkpt>
      <trkpt lat="46.49689" lon="5.42505">
        <ele>543</ele>
        <time>2019-05-19T20:40:04Z</time>
      </trkpt>
      <trkpt lat="46.49699" lon="5.42515">
        <ele>543</ele>
        <time>2019-05-19T20:40:06Z</time>
      </trkpt>
      <trkpt lat="46.4971" lon="5.42523">
        <ele>543</ele>
        <time>2019-05-19T20:40:09Z</time>
      </trkpt>
      <trkpt lat="46.49728" lon="5.42531">
        <ele>545</ele>
        <time>2019-05-19T20:40:12Z</time>
      </trkpt>
      <trkpt lat="46.49792" lon="5.42551">
        <ele>550</ele>
        <time>2019-05-19T20:40:24Z</time>
      </trkpt>
      <trkpt lat="46.49825" lon="5.42552">
        <ele>555</ele>
        <time>2019-05-19T20:40:29Z</time>
      </trkpt>
      <trkpt lat="46.49868" lon="5.42562">
        <ele>558</ele>
        <time>2019-05-19T20:40:37Z</time>
      </trkpt>
      <trkpt lat="46.49961" lon="5.42597">
        <ele>557</ele>
        <time>2019-05-19T20:40:54Z</time>
      </trkpt>
      <trkpt lat="46.50046" lon="5.42619">
        <ele>558</ele>
        <time>2019-05-19T20:41:10Z</time>
      </trkpt>
      <trkpt lat="46.50077" lon="5.42623">
        <ele>560</ele>
        <time>2019-05-19T20:41:15Z</time>
      </trkpt>
      <trkpt lat="46.50144" lon="5.42626">
        <ele>559</ele>
        <time>2019-05-19T20:41:27Z</time>
      </trkpt>
      <trkpt lat="46.50169" lon="5.42624">
        <ele>560</ele>
        <time>2019-05-19T20:41:32Z</time>
      </trkpt>
      <trkpt lat="46.50196" lon="5.42618">
        <ele>559</ele>
        <time>2019-05-19T20:41:36Z</time>
      </trkpt>
      <trkpt lat="46.50225" lon="5.42601">
        <ele>561</ele>
        <time>2019-05-19T20:41:42Z</time>
      </trkpt>
      <trkpt lat="46.50269" lon="5.42565">
        <ele>569</ele>
        <time>2019-05-19T20:41:51Z</time>
      </trkpt>
      <trkpt lat="46.50278" lon="5.4256">
        <ele>570</ele>
        <time>2019-05-19T20:41:53Z</time>
      </trkpt>
      <trkpt lat="46.50293" lon="5.42557">
        <ele>570</ele>
        <time>2019-05-19T20:41:55Z</time>
      </trkpt>
      <trkpt lat="46.50325" lon="5.42557">
        <ele>567</ele>
        <time>2019-05-19T20:42:01Z</time>
      </trkpt>
      <trkpt lat="46.50357" lon="5.4255">
        <ele>567</ele>
        <time>2019-05-19T20:42:07Z</time>
      </trkpt>
      <trkpt lat="46.50391" lon="5.42525">
        <ele>573</ele>
        <time>2019-05-19T20:42:14Z</time>
      </trkpt>
      <trkpt lat="46.50405" lon="5.42523">
        <ele>572</ele>
        <time>2019-05-19T20:42:16Z</time>
      </trkpt>
      <trkpt lat="46.50429" lon="5.42529">
        <ele>569</ele>
        <time>2019-05-19T20:42:20Z</time>
      </trkpt>
      <trkpt lat="46.50452" lon="5.42525">
        <ele>568</ele>
        <time>2019-05-19T20:42:25Z</time>
      </trkpt>
      <trkpt lat="46.5054" lon="5.42491">
        <ele>569</ele>
        <time>2019-05-19T20:42:41Z</time>
      </trkpt>
      <trkpt lat="46.50574" lon="5.42483">
        <ele>567</ele>
        <time>2019-05-19T20:42:47Z</time>
      </trkpt>
      <trkpt lat="46.506" lon="5.42472">
        <ele>566</ele>
        <time>2019-05-19T20:42:52Z</time>
      </trkpt>
      <trkpt lat="46.50622" lon="5.42453">
        <ele>567</ele>
        <time>2019-05-19T20:42:56Z</time>
      </trkpt>
      <trkpt lat="46.50629" lon="5.42442">
        <ele>568</ele>
        <time>2019-05-19T20:42:58Z</time>
      </trkpt>
      <trkpt lat="46.50646" lon="5.424">
        <ele>573</ele>
        <time>2019-05-19T20:43:04Z</time>
      </trkpt>
      <trkpt lat="46.50651" lon="5.42393">
        <ele>572</ele>
        <time>2019-05-19T20:43:05Z</time>
      </trkpt>
      <trkpt lat="46.50677" lon="5.42369">
        <ele>570</ele>
        <time>2019-05-19T20:43:11Z</time>
      </trkpt>
      <trkpt lat="46.50686" lon="5.42358">
        <ele>569</ele>
        <time>2019-05-19T20:43:13Z</time>
      </trkpt>
      <trkpt lat="46.50691" lon="5.42348">
        <ele>570</ele>
        <time>2019-05-19T20:43:14Z</time>
      </trkpt>
      <trkpt lat="46.50695" lon="5.42337">
        <ele>570</ele>
        <time>2019-05-19T20:43:16Z</time>
      </trkpt>
      <trkpt lat="46.50697" lon="5.42321">
        <ele>571</ele>
        <time>2019-05-19T20:43:18Z</time>
      </trkpt>
      <trkpt lat="46.507" lon="5.42269">
        <ele>574</ele>
        <time>2019-05-19T20:43:24Z</time>
      </trkpt>
      <trkpt lat="46.50702" lon="5.42256">
        <ele>574</ele>
        <time>2019-05-19T20:43:26Z</time>
      </trkpt>
      <trkpt lat="46.50706" lon="5.42244">
        <ele>573</ele>
        <time>2019-05-19T20:43:28Z</time>
      </trkpt>
      <trkpt lat="46.50722" lon="5.42212">
        <ele>570</ele>
        <time>2019-05-19T20:43:32Z</time>
      </trkpt>
      <trkpt lat="46.50725" lon="5.42204">
        <ele>570</ele>
        <time>2019-05-19T20:43:34Z</time>
      </trkpt>
      <trkpt lat="46.50727" lon="5.42188">
        <ele>569</ele>
        <time>2019-05-19T20:43:36Z</time>
      </trkpt>
      <trkpt lat="46.50725" lon="5.42178">
        <ele>570</ele>
        <time>2019-05-19T20:43:37Z</time>
      </trkpt>
      <trkpt lat="46.50718" lon="5.42162">
        <ele>571</ele>
        <time>2019-05-19T20:43:39Z</time>
      </trkpt>
      <trkpt lat="46.50709" lon="5.42154">
        <ele>572</ele>
        <time>2019-05-19T20:43:41Z</time>
      </trkpt>
      <trkpt lat="46.50684" lon="5.42141">
        <ele>576</ele>
        <time>2019-05-19T20:43:46Z</time>
      </trkpt>
      <trkpt lat="46.50676" lon="5.42132">
        <ele>578</ele>
        <time>2019-05-19T20:43:48Z</time>
      </trkpt>
      <trkpt lat="46.50671" lon="5.42121">
        <ele>579</ele>
        <time>2019-05-19T20:43:49Z</time>
      </trkpt>
      <trkpt lat="46.50668" lon="5.42109">
        <ele>579</ele>
        <time>2019-05-19T20:43:51Z</time>
      </trkpt>
      <trkpt lat="46.50664" lon="5.42056">
        <ele>579</ele>
        <time>2019-05-19T20:43:57Z</time>
      </trkpt>
      <trkpt lat="46.5066" lon="5.42028">
        <ele>579</ele>
        <time>2019-05-19T20:44:01Z</time>
      </trkpt>
      <trkpt lat="46.50648" lon="5.41978">
        <ele>581</ele>
        <time>2019-05-19T20:44:07Z</time>
      </trkpt>
      <trkpt lat="46.50641" lon="5.4194">
        <ele>579</ele>
        <time>2019-05-19T20:44:12Z</time>
      </trkpt>
      <trkpt lat="46.50631" lon="5.41908">
        <ele>579</ele>
        <time>2019-05-19T20:44:16Z</time>
      </trkpt>
      <trkpt lat="46.50624" lon="5.41897">
        <ele>580</ele>
        <time>2019-05-19T20:44:18Z</time>
      </trkpt>
      <trkpt lat="46.50564" lon="5.41816">
        <ele>586</ele>
        <time>2019-05-19T20:44:33Z</time>
      </trkpt>
      <trkpt lat="46.50512" lon="5.41765">
        <ele>595</ele>
        <time>2019-05-19T20:44:44Z</time>
      </trkpt>
      <trkpt lat="46.50495" lon="5.41734">
        <ele>596</ele>
        <time>2019-05-19T20:44:49Z</time>
      </trkpt>
      <trkpt lat="46.50488" lon="5.41713">
        <ele>596</ele>
        <time>2019-05-19T20:44:52Z</time>
      </trkpt>
      <trkpt lat="46.50481" lon="5.41698">
        <ele>596</ele>
        <time>2019-05-19T20:44:54Z</time>
      </trkpt>
      <trkpt lat="46.50465" lon="5.41676">
        <ele>597</ele>
        <time>2019-05-19T20:44:58Z</time>
      </trkpt>
      <trkpt lat="46.5045" lon="5.41659">
        <ele>598</ele>
        <time>2019-05-19T20:45:01Z</time>
      </trkpt>
      <trkpt lat="46.50433" lon="5.41645">
        <ele>599</ele>
        <time>2019-05-19T20:45:05Z</time>
      </trkpt>
      <trkpt lat="46.50418" lon="5.41637">
        <ele>600</ele>
        <time>2019-05-19T20:45:07Z</time>
      </trkpt>
      <trkpt lat="46.5041" lon="5.4163">
        <ele>600</ele>
        <time>2019-05-19T20:45:09Z</time>
      </trkpt>
      <trkpt lat="46.50404" lon="5.41622">
        <ele>599</ele>
        <time>2019-05-19T20:45:11Z</time>
      </trkpt>
      <trkpt lat="46.50401" lon="5.41613">
        <ele>599</ele>
        <time>2019-05-19T20:45:12Z</time>
      </trkpt>
      <trkpt lat="46.50399" lon="5.41595">
        <ele>597</ele>
        <time>2019-05-19T20:45:14Z</time>
      </trkpt>
      <trkpt lat="46.50401" lon="5.41586">
        <ele>597</ele>
        <time>2019-05-19T20:45:15Z</time>
      </trkpt>
      <trkpt lat="46.50406" lon="5.41575">
        <ele>596</ele>
        <time>2019-05-19T20:45:17Z</time>
      </trkpt>
      <trkpt lat="46.50413" lon="5.41568">
        <ele>596</ele>
        <time>2019-05-19T20:45:18Z</time>
      </trkpt>
      <trkpt lat="46.50428" lon="5.41565">
        <ele>595</ele>
        <time>2019-05-19T20:45:21Z</time>
      </trkpt>
      <trkpt lat="46.5044" lon="5.41567">
        <ele>595</ele>
        <time>2019-05-19T20:45:23Z</time>
      </trkpt>
      <trkpt lat="46.50471" lon="5.41579">
        <ele>595</ele>
        <time>2019-05-19T20:45:29Z</time>
      </trkpt>
      <trkpt lat="46.5048" lon="5.4158">
        <ele>595</ele>
        <time>2019-05-19T20:45:30Z</time>
      </trkpt>
      <trkpt lat="46.50487" lon="5.41579">
        <ele>595</ele>
        <time>2019-05-19T20:45:32Z</time>
      </trkpt>
      <trkpt lat="46.50494" lon="5.41574">
        <ele>595</ele>
        <time>2019-05-19T20:45:33Z</time>
      </trkpt>
      <trkpt lat="46.50502" lon="5.41557">
        <ele>595</ele>
        <time>2019-05-19T20:45:36Z</time>
      </trkpt>
      <trkpt lat="46.50505" lon="5.41544">
        <ele>595</ele>
        <time>2019-05-19T20:45:37Z</time>
      </trkpt>
      <trkpt lat="46.50502" lon="5.41527">
        <ele>594</ele>
        <time>2019-05-19T20:45:39Z</time>
      </trkpt>
      <trkpt lat="46.50498" lon="5.41518">
        <ele>594</ele>
        <time>2019-05-19T20:45:41Z</time>
      </trkpt>
      <trkpt lat="46.50491" lon="5.41511">
        <ele>594</ele>
        <time>2019-05-19T20:45:42Z</time>
      </trkpt>
      <trkpt lat="46.50447" lon="5.41488">
        <ele>593</ele>
        <time>2019-05-19T20:45:51Z</time>
      </trkpt>
      <trkpt lat="46.50387" lon="5.41449">
        <ele>590</ele>
        <time>2019-05-19T20:46:02Z</time>
      </trkpt>
      <trkpt lat="46.50333" lon="5.41419">
        <ele>583</ele>
        <time>2019-05-19T20:46:13Z</time>
      </trkpt>
      <trkpt lat="46.50324" lon="5.41413">
        <ele>582</ele>
        <time>2019-05-19T20:46:14Z</time>
      </trkpt>
      <trkpt lat="46.50317" lon="5.41407">
        <ele>582</ele>
        <time>2019-05-19T20:46:16Z</time>
      </trkpt>
      <trkpt lat="46.50288" lon="5.41368">
        <ele>581</ele>
        <time>2019-05-19T20:46:23Z</time>
      </trkpt>
      <trkpt lat="46.50272" lon="5.4135">
        <ele>580</ele>
        <time>2019-05-19T20:46:26Z</time>
      </trkpt>
      <trkpt lat="46.50259" lon="5.41338">
        <ele>579</ele>
        <time>2019-05-19T20:46:29Z</time>
      </trkpt>
      <trkpt lat="46.50233" lon="5.4132">
        <ele>576</ele>
        <time>2019-05-19T20:46:34Z</time>
      </trkpt>
      <trkpt lat="46.50215" lon="5.41306">
        <ele>573</ele>
        <time>2019-05-19T20:46:38Z</time>
      </trkpt>
      <trkpt lat="46.50205" lon="5.41294">
        <ele>572</ele>
        <time>2019-05-19T20:46:40Z</time>
      </trkpt>
      <trkpt lat="46.50172" lon="5.41245">
        <ele>568</ele>
        <time>2019-05-19T20:46:49Z</time>
      </trkpt>
      <trkpt lat="46.50164" lon="5.41237">
        <ele>567</ele>
        <time>2019-05-19T20:46:50Z</time>
      </trkpt>
      <trkpt lat="46.50139" lon="5.41221">
        <ele>565</ele>
        <time>2019-05-19T20:46:55Z</time>
      </trkpt>
      <trkpt lat="46.50113" lon="5.41208">
        <ele>563</ele>
        <time>2019-05-19T20:47:00Z</time>
      </trkpt>
      <trkpt lat="46.50062" lon="5.41187">
        <ele>559</ele>
        <time>2019-05-19T20:47:10Z</time>
      </trkpt>
      <trkpt lat="46.5005" lon="5.41178">
        <ele>557</ele>
        <time>2019-05-19T20:47:12Z</time>
      </trkpt>
      <trkpt lat="46.50034" lon="5.41161">
        <ele>555</ele>
        <time>2019-05-19T20:47:15Z</time>
      </trkpt>
      <trkpt lat="46.50021" lon="5.41143">
        <ele>553</ele>
        <time>2019-05-19T20:47:19Z</time>
      </trkpt>
      <trkpt lat="46.50013" lon="5.41127">
        <ele>551</ele>
        <time>2019-05-19T20:47:21Z</time>
      </trkpt>
      <trkpt lat="46.49994" lon="5.41074">
        <ele>549</ele>
        <time>2019-05-19T20:47:28Z</time>
      </trkpt>
      <trkpt lat="46.49988" lon="5.41063">
        <ele>548</ele>
        <time>2019-05-19T20:47:30Z</time>
      </trkpt>
      <trkpt lat="46.49971" lon="5.41016">
        <ele>545</ele>
        <time>2019-05-19T20:47:37Z</time>
      </trkpt>
      <trkpt lat="46.49962" lon="5.40984">
        <ele>543</ele>
        <time>2019-05-19T20:47:41Z</time>
      </trkpt>
      <trkpt lat="46.4996" lon="5.40952">
        <ele>542</ele>
        <time>2019-05-19T20:47:45Z</time>
      </trkpt>
      <trkpt lat="46.49962" lon="5.4092">
        <ele>542</ele>
        <time>2019-05-19T20:47:49Z</time>
      </trkpt>
      <trkpt lat="46.49973" lon="5.40814">
        <ele>537</ele>
        <time>2019-05-19T20:48:02Z</time>
      </trkpt>
      <trkpt lat="46.49974" lon="5.40781">
        <ele>536</ele>
        <time>2019-05-19T20:48:06Z</time>
      </trkpt>
      <trkpt lat="46.49971" lon="5.40748">
        <ele>535</ele>
        <time>2019-05-19T20:48:10Z</time>
      </trkpt>
      <trkpt lat="46.49973" lon="5.40659">
        <ele>531</ele>
        <time>2019-05-19T20:48:21Z</time>
      </trkpt>
      <trkpt lat="46.49975" lon="5.4064">
        <ele>530</ele>
        <time>2019-05-19T20:48:23Z</time>
      </trkpt>
      <trkpt lat="46.49979" lon="5.40626">
        <ele>529</ele>
        <time>2019-05-19T20:48:25Z</time>
      </trkpt>
      <trkpt lat="46.49984" lon="5.40619">
        <ele>528</ele>
        <time>2019-05-19T20:48:26Z</time>
      </trkpt>
      <trkpt lat="46.49993" lon="5.40611">
        <ele>528</ele>
        <time>2019-05-19T20:48:28Z</time>
      </trkpt>
      <trkpt lat="46.5" lon="5.4061">
        <ele>527</ele>
        <time>2019-05-19T20:48:29Z</time>
      </trkpt>
      <trkpt lat="46.50011" lon="5.40613">
        <ele>525</ele>
        <time>2019-05-19T20:48:31Z</time>
      </trkpt>
      <trkpt lat="46.50019" lon="5.40624">
        <ele>523</ele>
        <time>2019-05-19T20:48:33Z</time>
      </trkpt>
      <trkpt lat="46.50076" lon="5.40756">
        <ele>524</ele>
        <time>2019-05-19T20:48:53Z</time>
      </trkpt>
      <trkpt lat="46.50094" lon="5.40804">
        <ele>526</ele>
        <time>2019-05-19T20:48:59Z</time>
      </trkpt>
      <trkpt lat="46.50103" lon="5.40823">
        <ele>527</ele>
        <time>2019-05-19T20:49:02Z</time>
      </trkpt>
      <trkpt lat="46.50121" lon="5.40839">
        <ele>528</ele>
        <time>2019-05-19T20:49:06Z</time>
      </trkpt>
      <trkpt lat="46.50137" lon="5.40843">
        <ele>528</ele>
        <time>2019-05-19T20:49:09Z</time>
      </trkpt>
      <trkpt lat="46.5015" lon="5.4084">
        <ele>527</ele>
        <time>2019-05-19T20:49:11Z</time>
      </trkpt>
      <trkpt lat="46.50196" lon="5.40822">
        <ele>519</ele>
        <time>2019-05-19T20:49:20Z</time>
      </trkpt>
      <trkpt lat="46.50216" lon="5.40821">
        <ele>517</ele>
        <time>2019-05-19T20:49:23Z</time>
      </trkpt>
      <trkpt lat="46.50275" lon="5.40853">
        <ele>524</ele>
        <time>2019-05-19T20:49:34Z</time>
      </trkpt>
      <trkpt lat="46.50293" lon="5.40853">
        <ele>522</ele>
        <time>2019-05-19T20:49:37Z</time>
      </trkpt>
      <trkpt lat="46.50329" lon="5.40847">
        <ele>515</ele>
        <time>2019-05-19T20:49:44Z</time>
      </trkpt>
      <trkpt lat="46.5034" lon="5.4085">
        <ele>515</ele>
        <time>2019-05-19T20:49:46Z</time>
      </trkpt>
      <trkpt lat="46.50408" lon="5.40896">
        <ele>522</ele>
        <time>2019-05-19T20:49:59Z</time>
      </trkpt>
      <trkpt lat="46.50509" lon="5.40942">
        <ele>515</ele>
        <time>2019-05-19T20:50:18Z</time>
      </trkpt>
      <trkpt lat="46.50612" lon="5.40975">
        <ele>513</ele>
        <time>2019-05-19T20:50:37Z</time>
      </trkpt>
      <trkpt lat="46.5064" lon="5.40991">
        <ele>515</ele>
        <time>2019-05-19T20:50:42Z</time>
      </trkpt>
      <trkpt lat="46.50658" lon="5.40996">
        <ele>514</ele>
        <time>2019-05-19T20:50:45Z</time>
      </trkpt>
      <trkpt lat="46.50675" lon="5.40992">
        <ele>512</ele>
        <time>2019-05-19T20:50:49Z</time>
      </trkpt>
      <trkpt lat="46.50702" lon="5.40977">
        <ele>508</ele>
        <time>2019-05-19T20:50:54Z</time>
      </trkpt>
      <trkpt lat="46.50738" lon="5.40946">
        <ele>499</ele>
        <time>2019-05-19T20:51:01Z</time>
      </trkpt>
      <trkpt lat="46.50747" lon="5.4094">
        <ele>498</ele>
        <time>2019-05-19T20:51:03Z</time>
      </trkpt>
      <trkpt lat="46.50783" lon="5.40932">
        <ele>494</ele>
        <time>2019-05-19T20:51:09Z</time>
      </trkpt>
      <trkpt lat="46.50837" lon="5.40907">
        <ele>486</ele>
        <time>2019-05-19T20:51:19Z</time>
      </trkpt>
      <trkpt lat="46.50858" lon="5.40903">
        <ele>486</ele>
        <time>2019-05-19T20:51:23Z</time>
      </trkpt>
      <trkpt lat="46.50868" lon="5.40899">
        <ele>486</ele>
        <time>2019-05-19T20:51:25Z</time>
      </trkpt>
      <trkpt lat="46.50871" lon="5.40895">
        <ele>485</ele>
        <time>2019-05-19T20:51:26Z</time>
      </trkpt>
      <trkpt lat="46.50875" lon="5.40883">
        <ele>483</ele>
        <time>2019-05-19T20:51:27Z</time>
      </trkpt>
      <trkpt lat="46.50874" lon="5.40876">
        <ele>481</ele>
        <time>2019-05-19T20:51:28Z</time>
      </trkpt>
      <trkpt lat="46.50871" lon="5.4087">
        <ele>480</ele>
        <time>2019-05-19T20:51:29Z</time>
      </trkpt>
      <trkpt lat="46.50867" lon="5.40866">
        <ele>479</ele>
        <time>2019-05-19T20:51:30Z</time>
      </trkpt>
      <trkpt lat="46.50862" lon="5.40865">
        <ele>479</ele>
        <time>2019-05-19T20:51:31Z</time>
      </trkpt>
      <trkpt lat="46.50855" lon="5.40867">
        <ele>479</ele>
        <time>2019-05-19T20:51:32Z</time>
      </trkpt>
      <trkpt lat="46.5083" lon="5.40885">
        <ele>482</ele>
        <time>2019-05-19T20:51:37Z</time>
      </trkpt>
      <trkpt lat="46.50823" lon="5.40888">
        <ele>483</ele>
        <time>2019-05-19T20:51:39Z</time>
      </trkpt>
      <trkpt lat="46.50813" lon="5.40889">
        <ele>483</ele>
        <time>2019-05-19T20:51:40Z</time>
      </trkpt>
      <trkpt lat="46.50792" lon="5.40886">
        <ele>482</ele>
        <time>2019-05-19T20:51:44Z</time>
      </trkpt>
      <trkpt lat="46.50788" lon="5.40884">
        <ele>481</ele>
        <time>2019-05-19T20:51:45Z</time>
      </trkpt>
      <trkpt lat="46.50779" lon="5.40872">
        <ele>479</ele>
        <time>2019-05-19T20:51:47Z</time>
      </trkpt>
      <trkpt lat="46.50778" lon="5.40864">
        <ele>477</ele>
        <time>2019-05-19T20:51:48Z</time>
      </trkpt>
      <trkpt lat="46.50779" lon="5.40855">
        <ele>475</ele>
        <time>2019-05-19T20:51:49Z</time>
      </trkpt>
      <trkpt lat="46.50783" lon="5.40847">
        <ele>473</ele>
        <time>2019-05-19T20:51:50Z</time>
      </trkpt>
      <trkpt lat="46.50791" lon="5.40841">
        <ele>472</ele>
        <time>2019-05-19T20:51:52Z</time>
      </trkpt>
      <trkpt lat="46.50826" lon="5.40837">
        <ele>473</ele>
        <time>2019-05-19T20:51:58Z</time>
      </trkpt>
      <trkpt lat="46.50836" lon="5.40833">
        <ele>473</ele>
        <time>2019-05-19T20:52:00Z</time>
      </trkpt>
      <trkpt lat="46.50861" lon="5.40818">
        <ele>469</ele>
        <time>2019-05-19T20:52:05Z</time>
      </trkpt>
      <trkpt lat="46.50874" lon="5.40813">
        <ele>468</ele>
        <time>2019-05-19T20:52:07Z</time>
      </trkpt>
      <trkpt lat="46.50882" lon="5.40812">
        <ele>468</ele>
        <time>2019-05-19T20:52:09Z</time>
      </trkpt>
      <trkpt lat="46.50921" lon="5.4082">
        <ele>468</ele>
        <time>2019-05-19T20:52:16Z</time>
      </trkpt>
      <trkpt lat="46.50949" lon="5.40819">
        <ele>466</ele>
        <time>2019-05-19T20:52:21Z</time>
      </trkpt>
      <trkpt lat="46.50962" lon="5.40821">
        <ele>465</ele>
        <time>2019-05-19T20:52:23Z</time>
      </trkpt>
      <trkpt lat="46.51008" lon="5.40841">
        <ele>465</ele>
        <time>2019-05-19T20:52:31Z</time>
      </trkpt>
      <trkpt lat="46.51018" lon="5.40838">
        <ele>462</ele>
        <time>2019-05-19T20:52:33Z</time>
      </trkpt>
      <trkpt lat="46.51021" lon="5.40833">
        <ele>460</ele>
        <time>2019-05-19T20:52:34Z</time>
      </trkpt>
      <trkpt lat="46.51023" lon="5.40818">
        <ele>457</ele>
        <time>2019-05-19T20:52:36Z</time>
      </trkpt>
      <trkpt lat="46.5102" lon="5.40807">
        <ele>455</ele>
        <time>2019-05-19T20:52:37Z</time>
      </trkpt>
      <trkpt lat="46.5101" lon="5.40801">
        <ele>456</ele>
        <time>2019-05-19T20:52:39Z</time>
      </trkpt>
      <trkpt lat="46.50988" lon="5.40799">
        <ele>458</ele>
        <time>2019-05-19T20:52:43Z</time>
      </trkpt>
      <trkpt lat="46.50969" lon="5.40795">
        <ele>459</ele>
        <time>2019-05-19T20:52:47Z</time>
      </trkpt>
      <trkpt lat="46.50947" lon="5.40781">
        <ele>457</ele>
        <time>2019-05-19T20:52:51Z</time>
      </trkpt>
      <trkpt lat="46.50923" lon="5.40762">
        <ele>455</ele>
        <time>2019-05-19T20:52:56Z</time>
      </trkpt>
      <trkpt lat="46.50912" lon="5.40751">
        <ele>453</ele>
        <time>2019-05-19T20:52:58Z</time>
      </trkpt>
      <trkpt lat="46.50866" lon="5.40687">
        <ele>447</ele>
        <time>2019-05-19T20:53:10Z</time>
      </trkpt>
      <trkpt lat="46.50849" lon="5.40673">
        <ele>446</ele>
        <time>2019-05-19T20:53:13Z</time>
      </trkpt>
      <trkpt lat="46.50863" lon="5.40643">
        <ele>442</ele>
        <time>2019-05-19T20:53:17Z</time>
      </trkpt>
      <trkpt lat="46.50886" lon="5.40586">
        <ele>436</ele>
        <time>2019-05-19T20:53:26Z</time>
      </trkpt>
      <trkpt lat="46.50896" lon="5.40559">
        <ele>435</ele>
        <time>2019-05-19T20:53:29Z</time>
      </trkpt>
      <trkpt lat="46.50903" lon="5.40545">
        <ele>434</ele>
        <time>2019-05-19T20:53:31Z</time>
      </trkpt>
      <trkpt lat="46.50906" lon="5.40533">
        <ele>434</ele>
        <time>2019-05-19T20:53:33Z</time>
      </trkpt>
      <trkpt lat="46.50908" lon="5.40506">
        <ele>433</ele>
        <time>2019-05-19T20:53:36Z</time>
      </trkpt>
      <trkpt lat="46.50916" lon="5.40486">
        <ele>435</ele>
        <time>2019-05-19T20:53:39Z</time>
      </trkpt>
      <trkpt lat="46.50925" lon="5.40485">
        <ele>435</ele>
        <time>2019-05-19T20:53:41Z</time>
      </trkpt>
      <trkpt lat="46.51009" lon="5.40527">
        <ele>434</ele>
        <time>2019-05-19T20:53:57Z</time>
      </trkpt>
      <trkpt lat="46.51037" lon="5.40533">
        <ele>428</ele>
        <time>2019-05-19T20:54:02Z</time>
      </trkpt>
      <trkpt lat="46.5104" lon="5.40536">
        <ele>428</ele>
        <time>2019-05-19T20:54:02Z</time>
      </trkpt>
      <trkpt lat="46.51041" lon="5.40565">
        <ele>425</ele>
        <time>2019-05-19T20:54:06Z</time>
      </trkpt>
      <trkpt lat="46.51063" lon="5.40653">
        <ele>424</ele>
        <time>2019-05-19T20:54:17Z</time>
      </trkpt>
      <trkpt lat="46.5107" lon="5.40676">
        <ele>425</ele>
        <time>2019-05-19T20:54:20Z</time>
      </trkpt>
      <trkpt lat="46.51076" lon="5.40691">
        <ele>426</ele>
        <time>2019-05-19T20:54:22Z</time>
      </trkpt>
      <trkpt lat="46.51119" lon="5.40757">
        <ele>428</ele>
        <time>2019-05-19T20:54:34Z</time>
      </trkpt>
      <trkpt lat="46.51143" lon="5.40787">
        <ele>429</ele>
        <time>2019-05-19T20:54:39Z</time>
      </trkpt>
      <trkpt lat="46.5116" lon="5.40813">
        <ele>432</ele>
        <time>2019-05-19T20:54:44Z</time>
      </trkpt>
      <trkpt lat="46.51169" lon="5.40834">
        <ele>435</ele>
        <time>2019-05-19T20:54:47Z</time>
      </trkpt>
      <trkpt lat="46.51173" lon="5.40838">
        <ele>435</ele>
        <time>2019-05-19T20:54:48Z</time>
      </trkpt>
      <trkpt lat="46.51181" lon="5.40841">
        <ele>435</ele>
        <time>2019-05-19T20:54:49Z</time>
      </trkpt>
      <trkpt lat="46.51191" lon="5.4084">
        <ele>433</ele>
        <time>2019-05-19T20:54:51Z</time>
      </trkpt>
      <trkpt lat="46.51237" lon="5.40831">
        <ele>425</ele>
        <time>2019-05-19T20:54:59Z</time>
      </trkpt>
      <trkpt lat="46.51309" lon="5.40844">
        <ele>420</ele>
        <time>2019-05-19T20:55:12Z</time>
      </trkpt>
      <trkpt lat="46.51319" lon="5.40847">
        <ele>420</ele>
        <time>2019-05-19T20:55:14Z</time>
      </trkpt>
      <trkpt lat="46.5134" lon="5.40861">
        <ele>422</ele>
        <time>2019-05-19T20:55:18Z</time>
      </trkpt>
      <trkpt lat="46.51351" lon="5.40865">
        <ele>422</ele>
        <time>2019-05-19T20:55:20Z</time>
      </trkpt>
      <trkpt lat="46.51411" lon="5.40879">
        <ele>424</ele>
        <time>2019-05-19T20:55:31Z</time>
      </trkpt>
      <trkpt lat="46.51424" lon="5.4088">
        <ele>424</ele>
        <time>2019-05-19T20:55:33Z</time>
      </trkpt>
      <trkpt lat="46.51479" lon="5.40871">
        <ele>419</ele>
        <time>2019-05-19T20:55:43Z</time>
      </trkpt>
      <trkpt lat="46.51502" lon="5.4087">
        <ele>417</ele>
        <time>2019-05-19T20:55:47Z</time>
      </trkpt>
      <trkpt lat="46.5156" lon="5.40881">
        <ele>418</ele>
        <time>2019-05-19T20:55:57Z</time>
      </trkpt>
      <trkpt lat="46.51596" lon="5.40885">
        <ele>418</ele>
        <time>2019-05-19T20:56:04Z</time>
      </trkpt>
      <trkpt lat="46.51643" lon="5.40882">
        <ele>421</ele>
        <time>2019-05-19T20:56:12Z</time>
      </trkpt>
      <trkpt lat="46.5166" lon="5.40873">
        <ele>420</ele>
        <time>2019-05-19T20:56:15Z</time>
      </trkpt>
      <trkpt lat="46.51675" lon="5.40856">
        <ele>420</ele>
        <time>2019-05-19T20:56:19Z</time>
      </trkpt>
      <trkpt lat="46.51689" lon="5.40824">
        <ele>419</ele>
        <time>2019-05-19T20:56:23Z</time>
      </trkpt>
      <trkpt lat="46.51725" lon="5.4071">
        <ele>404</ele>
        <time>2019-05-19T20:56:39Z</time>
      </trkpt>
      <trkpt lat="46.51732" lon="5.40697">
        <ele>403</ele>
        <time>2019-05-19T20:56:41Z</time>
      </trkpt>
      <trkpt lat="46.51741" lon="5.40686">
        <ele>403</ele>
        <time>2019-05-19T20:56:43Z</time>
      </trkpt>
      <trkpt lat="46.51787" lon="5.40643">
        <ele>400</ele>
        <time>2019-05-19T20:56:53Z</time>
      </trkpt>
      <trkpt lat="46.5179" lon="5.40631">
        <ele>397</ele>
        <time>2019-05-19T20:56:54Z</time>
      </trkpt>
      <trkpt lat="46.51803" lon="5.40623">
        <ele>398</ele>
        <time>2019-05-19T20:56:57Z</time>
      </trkpt>
      <trkpt lat="46.51829" lon="5.40614">
        <ele>400</ele>
        <time>2019-05-19T20:57:01Z</time>
      </trkpt>
      <trkpt lat="46.5185" lon="5.40599">
        <ele>398</ele>
        <time>2019-05-19T20:57:06Z</time>
      </trkpt>
      <trkpt lat="46.5187" lon="5.40579">
        <ele>394</ele>
        <time>2019-05-19T20:57:10Z</time>
      </trkpt>
      <trkpt lat="46.51889" lon="5.40565">
        <ele>393</ele>
        <time>2019-05-19T20:57:14Z</time>
      </trkpt>
      <trkpt lat="46.51919" lon="5.40549">
        <ele>390</ele>
        <time>2019-05-19T20:57:19Z</time>
      </trkpt>
      <trkpt lat="46.51954" lon="5.40525">
        <ele>388</ele>
        <time>2019-05-19T20:57:26Z</time>
      </trkpt>
      <trkpt lat="46.51985" lon="5.40512">
        <ele>389</ele>
        <time>2019-05-19T20:57:32Z</time>
      </trkpt>
      <trkpt lat="46.51998" lon="5.405">
        <ele>388</ele>
        <time>2019-05-19T20:57:35Z</time>
      </trkpt>
      <trkpt lat="46.5201" lon="5.40477">
        <ele>387</ele>
        <time>2019-05-19T20:57:38Z</time>
      </trkpt>
      <trkpt lat="46.52051" lon="5.40384">
        <ele>380</ele>
        <time>2019-05-19T20:57:52Z</time>
      </trkpt>
      <trkpt lat="46.52068" lon="5.40366">
        <ele>378</ele>
        <time>2019-05-19T20:57:56Z</time>
      </trkpt>
      <trkpt lat="46.52083" lon="5.40356">
        <ele>378</ele>
        <time>2019-05-19T20:57:58Z</time>
      </trkpt>
      <trkpt lat="46.52112" lon="5.40343">
        <ele>374</ele>
        <time>2019-05-19T20:58:04Z</time>
      </trkpt>
      <trkpt lat="46.52141" lon="5.40333">
        <ele>370</ele>
        <time>2019-05-19T20:58:09Z</time>
      </trkpt>
      <trkpt lat="46.52183" lon="5.40336">
        <ele>369</ele>
        <time>2019-05-19T20:58:17Z</time>
      </trkpt>
      <trkpt lat="46.52203" lon="5.4034">
        <ele>367</ele>
        <time>2019-05-19T20:58:20Z</time>
      </trkpt>
      <trkpt lat="46.52218" lon="5.40348">
        <ele>367</ele>
        <time>2019-05-19T20:58:23Z</time>
      </trkpt>
      <trkpt lat="46.52266" lon="5.40381">
        <ele>365</ele>
        <time>2019-05-19T20:58:33Z</time>
      </trkpt>
      <trkpt lat="46.52285" lon="5.40398">
        <ele>362</ele>
        <time>2019-05-19T20:58:37Z</time>
      </trkpt>
      <trkpt lat="46.52309" lon="5.40425">
        <ele>359</ele>
        <time>2019-05-19T20:58:42Z</time>
      </trkpt>
      <trkpt lat="46.52325" lon="5.40447">
        <ele>356</ele>
        <time>2019-05-19T20:58:46Z</time>
      </trkpt>
      <trkpt lat="46.52338" lon="5.40472">
        <ele>354</ele>
        <time>2019-05-19T20:58:50Z</time>
      </trkpt>
      <trkpt lat="46.52353" lon="5.40522">
        <ele>355</ele>
        <time>2019-05-19T20:58:56Z</time>
      </trkpt>
      <trkpt lat="46.52357" lon="5.40543">
        <ele>355</ele>
        <time>2019-05-19T20:58:59Z</time>
      </trkpt>
      <trkpt lat="46.52362" lon="5.40582">
        <ele>356</ele>
        <time>2019-05-19T20:59:04Z</time>
      </trkpt>
      <trkpt lat="46.52365" lon="5.40593">
        <ele>355</ele>
        <time>2019-05-19T20:59:05Z</time>
      </trkpt>
      <trkpt lat="46.52369" lon="5.40598">
        <ele>353</ele>
        <time>2019-05-19T20:59:06Z</time>
      </trkpt>
      <trkpt lat="46.52372" lon="5.40598">
        <ele>352</ele>
        <time>2019-05-19T20:59:07Z</time>
      </trkpt>
      <trkpt lat="46.52375" lon="5.40593">
        <ele>351</ele>
        <time>2019-05-19T20:59:08Z</time>
      </trkpt>
      <trkpt lat="46.52378" lon="5.40583">
        <ele>350</ele>
        <time>2019-05-19T20:59:09Z</time>
      </trkpt>
      <trkpt lat="46.52371" lon="5.40501">
        <ele>347</ele>
        <time>2019-05-19T20:59:19Z</time>
      </trkpt>
      <trkpt lat="46.52366" lon="5.40469">
        <ele>345</ele>
        <time>2019-05-19T20:59:23Z</time>
      </trkpt>
      <trkpt lat="46.52362" lon="5.40455">
        <ele>344</ele>
        <time>2019-05-19T20:59:25Z</time>
      </trkpt>
      <trkpt lat="46.5231" lon="5.40325">
        <ele>341</ele>
        <time>2019-05-19T20:59:43Z</time>
      </trkpt>
      <trkpt lat="46.52283" lon="5.40263">
        <ele>340</ele>
        <time>2019-05-19T20:59:52Z</time>
      </trkpt>
      <trkpt lat="46.52279" lon="5.40246">
        <ele>339</ele>
        <time>2019-05-19T20:59:55Z</time>
      </trkpt>
      <trkpt lat="46.52281" lon="5.40228">
        <ele>337</ele>
        <time>2019-05-19T20:59:57Z</time>
      </trkpt>
      <trkpt lat="46.52287" lon="5.40216">
        <ele>335</ele>
        <time>2019-05-19T20:59:59Z</time>
      </trkpt>
      <trkpt lat="46.52302" lon="5.40195">
        <ele>331</ele>
        <time>2019-05-19T21:00:02Z</time>
      </trkpt>
      <trkpt lat="46.52339" lon="5.40127">
        <ele>326</ele>
        <time>2019-05-19T21:00:13Z</time>
      </trkpt>
      <trkpt lat="46.52352" lon="5.40143">
        <ele>326</ele>
        <time>2019-05-19T21:00:16Z</time>
      </trkpt>
      <trkpt lat="46.5237" lon="5.40172">
        <ele>326</ele>
        <time>2019-05-19T21:00:21Z</time>
      </trkpt>
      <trkpt lat="46.52391" lon="5.40211">
        <ele>324</ele>
        <time>2019-05-19T21:00:27Z</time>
      </trkpt>
      <trkpt lat="46.52433" lon="5.40312">
        <ele>316</ele>
        <time>2019-05-19T21:00:41Z</time>
      </trkpt>
      <trkpt lat="46.5245" lon="5.40343">
        <ele>314</ele>
        <time>2019-05-19T21:00:46Z</time>
      </trkpt>
      <trkpt lat="46.52474" lon="5.4038">
        <ele>310</ele>
        <time>2019-05-19T21:00:52Z</time>
      </trkpt>
      <trkpt lat="46.52483" lon="5.40385">
        <ele>308</ele>
        <time>2019-05-19T21:00:54Z</time>
      </trkpt>
      <trkpt lat="46.52508" lon="5.40386">
        <ele>304</ele>
        <time>2019-05-19T21:00:58Z</time>
      </trkpt>
      <trkpt lat="46.52535" lon="5.40392">
        <ele>301</ele>
        <time>2019-05-19T21:01:03Z</time>
      </trkpt>
      <trkpt lat="46.52558" lon="5.40403">
        <ele>297</ele>
        <time>2019-05-19T21:01:08Z</time>
      </trkpt>
      <trkpt lat="46.52572" lon="5.40419">
        <ele>293</ele>
        <time>2019-05-19T21:01:11Z</time>
      </trkpt>
      <trkpt lat="46.52628" lon="5.40498">
        <ele>279</ele>
        <time>2019-05-19T21:01:25Z</time>
      </trkpt>
      <trkpt lat="46.52634" lon="5.40512">
        <ele>278</ele>
        <time>2019-05-19T21:01:27Z</time>
      </trkpt>
      <trkpt lat="46.52633" lon="5.4053">
        <ele>277</ele>
        <time>2019-05-19T21:01:29Z</time>
      </trkpt>
      <trkpt lat="46.52624" lon="5.40588">
        <ele>273</ele>
        <time>2019-05-19T21:01:36Z</time>
      </trkpt>
      <trkpt lat="46.52601" lon="5.40668">
        <ele>271</ele>
        <time>2019-05-19T21:01:47Z</time>
      </trkpt>
      <trkpt lat="46.52598" lon="5.4069">
        <ele>272</ele>
        <time>2019-05-19T21:01:50Z</time>
      </trkpt>
      <trkpt lat="46.526" lon="5.40711">
        <ele>271</ele>
        <time>2019-05-19T21:01:52Z</time>
      </trkpt>
      <trkpt lat="46.52608" lon="5.40728">
        <ele>269</ele>
        <time>2019-05-19T21:01:55Z</time>
      </trkpt>
      <trkpt lat="46.52626" lon="5.40755">
        <ele>266</ele>
        <time>2019-05-19T21:01:59Z</time>
      </trkpt>
      <trkpt lat="46.52634" lon="5.40776">
        <ele>264</ele>
        <time>2019-05-19T21:02:02Z</time>
      </trkpt>
      <trkpt lat="46.52639" lon="5.40801">
        <ele>262</ele>
        <time>2019-05-19T21:02:05Z</time>
      </trkpt>
      <trkpt lat="46.52647" lon="5.4083">
        <ele>261</ele>
        <time>2019-05-19T21:02:09Z</time>
      </trkpt>
      <trkpt lat="46.52679" lon="5.40891">
        <ele>255</ele>
        <time>2019-05-19T21:02:19Z</time>
      </trkpt>
      <trkpt lat="46.52688" lon="5.40924">
        <ele>252</ele>
        <time>2019-05-19T21:02:23Z</time>
      </trkpt>
      <trkpt lat="46.52693" lon="5.40963">
        <ele>251</ele>
        <time>2019-05-19T21:02:28Z</time>
      </trkpt>
      <trkpt lat="46.52695" lon="5.41001">
        <ele>250</ele>
        <time>2019-05-19T21:02:32Z</time>
      </trkpt>
      <trkpt lat="46.52695" lon="5.41019">
        <ele>249</ele>
        <time>2019-05-19T21:02:35Z</time>
      </trkpt>
      <trkpt lat="46.52691" lon="5.41043">
        <ele>249</ele>
        <time>2019-05-19T21:02:38Z</time>
      </trkpt>
      <trkpt lat="46.52678" lon="5.41079">
        <ele>250</ele>
        <time>2019-05-19T21:02:43Z</time>
      </trkpt>
      <trkpt lat="46.52677" lon="5.41101">
        <ele>250</ele>
        <time>2019-05-19T21:02:45Z</time>
      </trkpt>
      <trkpt lat="46.52679" lon="5.41108">
        <ele>249</ele>
        <time>2019-05-19T21:02:46Z</time>
      </trkpt>
      <trkpt lat="46.52682" lon="5.41111">
        <ele>249</ele>
        <time>2019-05-19T21:02:47Z</time>
      </trkpt>
      <trkpt lat="46.5273" lon="5.41139">
        <ele>241</ele>
        <time>2019-05-19T21:02:56Z</time>
      </trkpt>
      <trkpt lat="46.52753" lon="5.41148">
        <ele>238</ele>
        <time>2019-05-19T21:03:00Z</time>
      </trkpt>
      <trkpt lat="46.52774" lon="5.41153">
        <ele>239</ele>
        <time>2019-05-19T21:03:04Z</time>
      </trkpt>
      <trkpt lat="46.52778" lon="5.41172">
        <ele>239</ele>
        <time>2019-05-19T21:03:07Z</time>
      </trkpt>
      <trkpt lat="46.52779" lon="5.412">
        <ele>239</ele>
        <time>2019-05-19T21:03:10Z</time>
      </trkpt>
      <trkpt lat="46.52776" lon="5.41301">
        <ele>237</ele>
        <time>2019-05-19T21:03:22Z</time>
      </trkpt>
      <trkpt lat="46.52772" lon="5.41324">
        <ele>237</ele>
        <time>2019-05-19T21:03:25Z</time>
      </trkpt>
      <trkpt lat="46.52764" lon="5.41351">
        <ele>237</ele>
        <time>2019-05-19T21:03:29Z</time>
      </trkpt>
      <trkpt lat="46.5276" lon="5.41369">
        <ele>236</ele>
        <time>2019-05-19T21:03:31Z</time>
      </trkpt>
      <trkpt lat="46.52763" lon="5.41444">
        <ele>236</ele>
        <time>2019-05-19T21:03:40Z</time>
      </trkpt>
      <trkpt lat="46.5277" lon="5.41547">
        <ele>241</ele>
        <time>2019-05-19T21:03:53Z</time>
      </trkpt>
      <trkpt lat="46.5278" lon="5.4162">
        <ele>243</ele>
        <time>2019-05-19T21:04:02Z</time>
      </trkpt>
      <trkpt lat="46.5278" lon="5.41648">
        <ele>243</ele>
        <time>2019-05-19T21:04:06Z</time>
      </trkpt>
      <trkpt lat="46.52771" lon="5.41684">
        <ele>244</ele>
        <time>2019-05-19T21:04:10Z</time>
      </trkpt>
      <trkpt lat="46.52767" lon="5.41712">
        <ele>244</ele>
        <time>2019-05-19T21:04:14Z</time>
      </trkpt>
      <trkpt lat="46.52767" lon="5.41731">
        <ele>244</ele>
        <time>2019-05-19T21:04:16Z</time>
      </trkpt>
      <trkpt lat="46.52764" lon="5.41743">
        <ele>244</ele>
        <time>2019-05-19T21:04:18Z</time>
      </trkpt>
      <trkpt lat="46.52759" lon="5.41752">
        <ele>244</ele>
        <time>2019-05-19T21:04:19Z</time>
      </trkpt>
      <trkpt lat="46.52734" lon="5.41769">
        <ele>248</ele>
        <time>2019-05-19T21:04:24Z</time>
      </trkpt>
      <trkpt lat="46.52726" lon="5.41778">
        <ele>250</ele>
        <time>2019-05-19T21:04:26Z</time>
      </trkpt>
      <trkpt lat="46.52722" lon="5.41787">
        <ele>252</ele>
        <time>2019-05-19T21:04:27Z</time>
      </trkpt>
      <trkpt lat="46.5272" lon="5.41797">
        <ele>253</ele>
        <time>2019-05-19T21:04:28Z</time>
      </trkpt>
      <trkpt lat="46.5272" lon="5.41818">
        <ele>253</ele>
        <time>2019-05-19T21:04:31Z</time>
      </trkpt>
      <trkpt lat="46.52726" lon="5.41846">
        <ele>253</ele>
        <time>2019-05-19T21:04:35Z</time>
      </trkpt>
      <trkpt lat="46.52728" lon="5.41867">
        <ele>253</ele>
        <time>2019-05-19T21:04:37Z</time>
      </trkpt>
      <trkpt lat="46.52728" lon="5.41934">
        <ele>256</ele>
        <time>2019-05-19T21:04:45Z</time>
      </trkpt>
      <trkpt lat="46.52723" lon="5.41979">
        <ele>259</ele>
        <time>2019-05-19T21:04:51Z</time>
      </trkpt>
      <trkpt lat="46.52723" lon="5.41995">
        <ele>260</ele>
        <time>2019-05-19T21:04:53Z</time>
      </trkpt>
      <trkpt lat="46.52727" lon="5.42015">
        <ele>260</ele>
        <time>2019-05-19T21:04:55Z</time>
      </trkpt>
      <trkpt lat="46.52733" lon="5.42034">
        <ele>259</ele>
        <time>2019-05-19T21:04:58Z</time>
      </trkpt>
      <trkpt lat="46.52772" lon="5.42103">
        <ele>255</ele>
        <time>2019-05-19T21:05:09Z</time>
      </trkpt>
      <trkpt lat="46.5279" lon="5.42119">
        <ele>254</ele>
        <time>2019-05-19T21:05:13Z</time>
      </trkpt>
      <trkpt lat="46.52815" lon="5.42137">
        <ele>253</ele>
        <time>2019-05-19T21:05:18Z</time>
      </trkpt>
      <trkpt lat="46.52815" lon="5.42143">
        <ele>253</ele>
        <time>2019-05-19T21:05:18Z</time>
      </trkpt>
      <trkpt lat="46.52867" lon="5.42235">
        <ele>261</ele>
        <time>2019-05-19T21:05:33Z</time>
      </trkpt>
      <trkpt lat="46.52869" lon="5.42242">
        <ele>261</ele>
        <time>2019-05-19T21:05:34Z</time>
      </trkpt>
      <trkpt lat="46.5287" lon="5.42251">
        <ele>261</ele>
        <time>2019-05-19T21:05:35Z</time>
      </trkpt>
      <trkpt lat="46.52856" lon="5.42349">
        <ele>262</ele>
        <time>2019-05-19T21:05:47Z</time>
      </trkpt>
      <trkpt lat="46.52851" lon="5.42365">
        <ele>264</ele>
        <time>2019-05-19T21:05:49Z</time>
      </trkpt>
      <trkpt lat="46.52835" lon="5.42396">
        <ele>265</ele>
        <time>2019-05-19T21:05:54Z</time>
      </trkpt>
      <trkpt lat="46.52809" lon="5.42429">
        <ele>271</ele>
        <time>2019-05-19T21:06:00Z</time>
      </trkpt>
      <trkpt lat="46.52798" lon="5.42452">
        <ele>275</ele>
        <time>2019-05-19T21:06:04Z</time>
      </trkpt>
      <trkpt lat="46.52795" lon="5.42468">
        <ele>277</ele>
        <time>2019-05-19T21:06:06Z</time>
      </trkpt>
      <trkpt lat="46.52795" lon="5.42484">
        <ele>278</ele>
        <time>2019-05-19T21:06:08Z</time>
      </trkpt>
      <trkpt lat="46.52803" lon="5.42546">
        <ele>290</ele>
        <time>2019-05-19T21:06:15Z</time>
      </trkpt>
      <trkpt lat="46.52806" lon="5.42548">
        <ele>290</ele>
        <time>2019-05-19T21:06:16Z</time>
      </trkpt>
      <trkpt lat="46.52809" lon="5.42546">
        <ele>290</ele>
        <time>2019-05-19T21:06:17Z</time>
      </trkpt>
      <trkpt lat="46.52815" lon="5.42529">
        <ele>287</ele>
        <time>2019-05-19T21:06:19Z</time>
      </trkpt>
      <trkpt lat="46.52825" lon="5.42514">
        <ele>285</ele>
        <time>2019-05-19T21:06:22Z</time>
      </trkpt>
      <trkpt lat="46.52844" lon="5.4249">
        <ele>285</ele>
        <time>2019-05-19T21:06:26Z</time>
      </trkpt>
      <trkpt lat="46.52879" lon="5.42459">
        <ele>289</ele>
        <time>2019-05-19T21:06:33Z</time>
      </trkpt>
      <trkpt lat="46.52914" lon="5.42436">
        <ele>292</ele>
        <time>2019-05-19T21:06:40Z</time>
      </trkpt>
      <trkpt lat="46.5293" lon="5.4243">
        <ele>294</ele>
        <time>2019-05-19T21:06:43Z</time>
      </trkpt>
      <trkpt lat="46.52948" lon="5.42429">
        <ele>297</ele>
        <time>2019-05-19T21:06:46Z</time>
      </trkpt>
      <trkpt lat="46.52999" lon="5.42438">
        <ele>310</ele>
        <time>2019-05-19T21:06:55Z</time>
      </trkpt>
      <trkpt lat="46.53045" lon="5.42436">
        <ele>319</ele>
        <time>2019-05-19T21:07:04Z</time>
      </trkpt>
      <trkpt lat="46.53088" lon="5.42448">
        <ele>331</ele>
        <time>2019-05-19T21:07:11Z</time>
      </trkpt>
      <trkpt lat="46.53099" lon="5.42449">
        <ele>334</ele>
        <time>2019-05-19T21:07:13Z</time>
      </trkpt>
      <trkpt lat="46.5312" lon="5.42444">
        <ele>337</ele>
        <time>2019-05-19T21:07:17Z</time>
      </trkpt>
      <trkpt lat="46.53126" lon="5.42448">
        <ele>339</ele>
        <time>2019-05-19T21:07:18Z</time>
      </trkpt>
      <trkpt lat="46.5313" lon="5.42451">
        <ele>341</ele>
        <time>2019-05-19T21:07:19Z</time>
      </trkpt>
      <trkpt lat="46.5313" lon="5.42455">
        <ele>341</ele>
        <time>2019-05-19T21:07:20Z</time>
      </trkpt>
      <trkpt lat="46.53129" lon="5.42461">
        <ele>342</ele>
        <time>2019-05-19T21:07:20Z</time>
      </trkpt>
      <trkpt lat="46.53125" lon="5.42464">
        <ele>342</ele>
        <time>2019-05-19T21:07:21Z</time>
      </trkpt>
      <trkpt lat="46.53056" lon="5.42471">
        <ele>332</ele>
        <time>2019-05-19T21:07:34Z</time>
      </trkpt>
      <trkpt lat="46.53044" lon="5.42474">
        <ele>331</ele>
        <time>2019-05-19T21:07:36Z</time>
      </trkpt>
      <trkpt lat="46.53019" lon="5.4249">
        <ele>332</ele>
        <time>2019-05-19T21:07:41Z</time>
      </trkpt>
      <trkpt lat="46.53005" lon="5.42503">
        <ele>334</ele>
        <time>2019-05-19T21:07:43Z</time>
      </trkpt>
      <trkpt lat="46.52988" lon="5.42522">
        <ele>336</ele>
        <time>2019-05-19T21:07:47Z</time>
      </trkpt>
      <trkpt lat="46.52964" lon="5.42573">
        <ele>342</ele>
        <time>2019-05-19T21:07:55Z</time>
      </trkpt>
      <trkpt lat="46.52934" lon="5.4266">
        <ele>352</ele>
        <time>2019-05-19T21:08:07Z</time>
      </trkpt>
      <trkpt lat="46.52929" lon="5.42666">
        <ele>352</ele>
        <time>2019-05-19T21:08:08Z</time>
      </trkpt>
      <trkpt lat="46.52917" lon="5.42675">
        <ele>351</ele>
        <time>2019-05-19T21:08:10Z</time>
      </trkpt>
      <trkpt lat="46.52914" lon="5.4268">
        <ele>351</ele>
        <time>2019-05-19T21:08:11Z</time>
      </trkpt>
      <trkpt lat="46.52915" lon="5.42684">
        <ele>353</ele>
        <time>2019-05-19T21:08:12Z</time>
      </trkpt>
      <trkpt lat="46.52919" lon="5.42687">
        <ele>355</ele>
        <time>2019-05-19T21:08:12Z</time>
      </trkpt>
      <trkpt lat="46.52928" lon="5.42682">
        <ele>357</ele>
        <time>2019-05-19T21:08:14Z</time>
      </trkpt>
      <trkpt lat="46.52941" lon="5.42673">
        <ele>358</ele>
        <time>2019-05-19T21:08:17Z</time>
      </trkpt>
      <trkpt lat="46.52969" lon="5.42646">
        <ele>361</ele>
        <time>2019-05-19T21:08:23Z</time>
      </trkpt>
      <trkpt lat="46.53001" lon="5.42601">
        <ele>360</ele>
        <time>2019-05-19T21:08:31Z</time>
      </trkpt>
      <trkpt lat="46.5301" lon="5.42592">
        <ele>360</ele>
        <time>2019-05-19T21:08:33Z</time>
      </trkpt>
      <trkpt lat="46.53028" lon="5.42583">
        <ele>361</ele>
        <time>2019-05-19T21:08:36Z</time>
      </trkpt>
      <trkpt lat="46.53058" lon="5.4257">
        <ele>363</ele>
        <time>2019-05-19T21:08:42Z</time>
      </trkpt>
      <trkpt lat="46.53081" lon="5.42567">
        <ele>366</ele>
        <time>2019-05-19T21:08:46Z</time>
      </trkpt>
      <trkpt lat="46.53112" lon="5.42572">
        <ele>372</ele>
        <time>2019-05-19T21:08:51Z</time>
      </trkpt>
      <trkpt lat="46.53199" lon="5.4257">
        <ele>380</ele>
        <time>2019-05-19T21:09:07Z</time>
      </trkpt>
      <trkpt lat="46.53213" lon="5.42575">
        <ele>383</ele>
        <time>2019-05-19T21:09:09Z</time>
      </trkpt>
      <trkpt lat="46.53301" lon="5.42616">
        <ele>398</ele>
        <time>2019-05-19T21:09:26Z</time>
      </trkpt>
      <trkpt lat="46.5333" lon="5.42637">
        <ele>401</ele>
        <time>2019-05-19T21:09:31Z</time>
      </trkpt>
      <trkpt lat="46.53368" lon="5.42649">
        <ele>406</ele>
        <time>2019-05-19T21:09:38Z</time>
      </trkpt>
      <trkpt lat="46.534" lon="5.42656">
        <ele>409</ele>
        <time>2019-05-19T21:09:44Z</time>
      </trkpt>
      <trkpt lat="46.53412" lon="5.42663">
        <ele>410</ele>
        <time>2019-05-19T21:09:46Z</time>
      </trkpt>
      <trkpt lat="46.53422" lon="5.42675">
        <ele>411</ele>
        <time>2019-05-19T21:09:49Z</time>
      </trkpt>
      <trkpt lat="46.53437" lon="5.42707">
        <ele>412</ele>
        <time>2019-05-19T21:09:53Z</time>
      </trkpt>
      <trkpt lat="46.5344" lon="5.42747">
        <ele>412</ele>
        <time>2019-05-19T21:09:58Z</time>
      </trkpt>
      <trkpt lat="46.53465" lon="5.42752">
        <ele>413</ele>
        <time>2019-05-19T21:10:03Z</time>
      </trkpt>
      <trkpt lat="46.53499" lon="5.42775">
        <ele>414</ele>
        <time>2019-05-19T21:10:10Z</time>
      </trkpt>
      <trkpt lat="46.53509" lon="5.42786">
        <ele>414</ele>
        <time>2019-05-19T21:10:12Z</time>
      </trkpt>
      <trkpt lat="46.53545" lon="5.4284">
        <ele>412</ele>
        <time>2019-05-19T21:10:21Z</time>
      </trkpt>
      <trkpt lat="46.53564" lon="5.42872">
        <ele>410</ele>
        <time>2019-05-19T21:10:26Z</time>
      </trkpt>
      <trkpt lat="46.53588" lon="5.4292">
        <ele>408</ele>
        <time>2019-05-19T21:10:33Z</time>
      </trkpt>
      <trkpt lat="46.53617" lon="5.42984">
        <ele>408</ele>
        <time>2019-05-19T21:10:43Z</time>
      </trkpt>
      <trkpt lat="46.53652" lon="5.43045">
        <ele>408</ele>
        <time>2019-05-19T21:10:53Z</time>
      </trkpt>
      <trkpt lat="46.53679" lon="5.43102">
        <ele>407</ele>
        <time>2019-05-19T21:11:01Z</time>
      </trkpt>
      <trkpt lat="46.53714" lon="5.43165">
        <ele>406</ele>
        <time>2019-05-19T21:11:11Z</time>
      </trkpt>
      <trkpt lat="46.53718" lon="5.43176">
        <ele>406</ele>
        <time>2019-05-19T21:11:12Z</time>
      </trkpt>
      <trkpt lat="46.5372" lon="5.43191">
        <ele>405</ele>
        <time>2019-05-19T21:11:14Z</time>
      </trkpt>
      <trkpt lat="46.53716" lon="5.43227">
        <ele>403</ele>
        <time>2019-05-19T21:11:19Z</time>
      </trkpt>
      <trkpt lat="46.53716" lon="5.43239">
        <ele>402</ele>
        <time>2019-05-19T21:11:20Z</time>
      </trkpt>
      <trkpt lat="46.53719" lon="5.4325">
        <ele>401</ele>
        <time>2019-05-19T21:11:22Z</time>
      </trkpt>
      <trkpt lat="46.53806" lon="5.43398">
        <ele>398</ele>
        <time>2019-05-19T21:11:46Z</time>
      </trkpt>
      <trkpt lat="46.53815" lon="5.4342">
        <ele>398</ele>
        <time>2019-05-19T21:11:49Z</time>
      </trkpt>
      <trkpt lat="46.53829" lon="5.4347">
        <ele>397</ele>
        <time>2019-05-19T21:11:55Z</time>
      </trkpt>
      <trkpt lat="46.53848" lon="5.43528">
        <ele>395</ele>
        <time>2019-05-19T21:12:03Z</time>
      </trkpt>
      <trkpt lat="46.53884" lon="5.43595">
        <ele>393</ele>
        <time>2019-05-19T21:12:14Z</time>
      </trkpt>
      <trkpt lat="46.53926" lon="5.43665">
        <ele>394</ele>
        <time>2019-05-19T21:12:25Z</time>
      </trkpt>
      <trkpt lat="46.53961" lon="5.43708">
        <ele>395</ele>
        <time>2019-05-19T21:12:33Z</time>
      </trkpt>
      <trkpt lat="46.53971" lon="5.43724">
        <ele>396</ele>
        <time>2019-05-19T21:12:36Z</time>
      </trkpt>
      <trkpt lat="46.54007" lon="5.43791">
        <ele>396</ele>
        <time>2019-05-19T21:12:46Z</time>
      </trkpt>
      <trkpt lat="46.54067" lon="5.43887">
        <ele>397</ele>
        <time>2019-05-19T21:13:02Z</time>
      </trkpt>
      <trkpt lat="46.54094" lon="5.43939">
        <ele>397</ele>
        <time>2019-05-19T21:13:10Z</time>
      </trkpt>
      <trkpt lat="46.54141" lon="5.44012">
        <ele>397</ele>
        <time>2019-05-19T21:13:22Z</time>
      </trkpt>
      <trkpt lat="46.54187" lon="5.44075">
        <ele>398</ele>
        <time>2019-05-19T21:13:33Z</time>
      </trkpt>
      <trkpt lat="46.54216" lon="5.44127">
        <ele>398</ele>
        <time>2019-05-19T21:13:42Z</time>
      </trkpt>
      <trkpt lat="46.54226" lon="5.44149">
        <ele>398</ele>
        <time>2019-05-19T21:13:45Z</time>
      </trkpt>
      <trkpt lat="46.54233" lon="5.44179">
        <ele>397</ele>
        <time>2019-05-19T21:13:49Z</time>
      </trkpt>
      <trkpt lat="46.54235" lon="5.44201">
        <ele>397</ele>
        <time>2019-05-19T21:13:51Z</time>
      </trkpt>
      <trkpt lat="46.54229" lon="5.44226">
        <ele>397</ele>
        <time>2019-05-19T21:13:55Z</time>
      </trkpt>
      <trkpt lat="46.54223" lon="5.44243">
        <ele>396</ele>
        <time>2019-05-19T21:13:57Z</time>
      </trkpt>
      <trkpt lat="46.54229" lon="5.44226">
        <ele>397</ele>
        <time>2019-05-19T21:13:59Z</time>
      </trkpt>
      <trkpt lat="46.54235" lon="5.44201">
        <ele>397</ele>
        <time>2019-05-19T21:14:03Z</time>
      </trkpt>
      <trkpt lat="46.54246" lon="5.44236">
        <ele>397</ele>
        <time>2019-05-19T21:14:07Z</time>
      </trkpt>
      <trkpt lat="46.54261" lon="5.44269">
        <ele>398</ele>
        <time>2019-05-19T21:14:12Z</time>
      </trkpt>
      <trkpt lat="46.54305" lon="5.44347">
        <ele>401</ele>
        <time>2019-05-19T21:14:25Z</time>
      </trkpt>
      <trkpt lat="46.54338" lon="5.44391">
        <ele>402</ele>
        <time>2019-05-19T21:14:32Z</time>
      </trkpt>
      <trkpt lat="46.54349" lon="5.44408">
        <ele>403</ele>
        <time>2019-05-19T21:14:35Z</time>
      </trkpt>
      <trkpt lat="46.54358" lon="5.4443">
        <ele>403</ele>
        <time>2019-05-19T21:14:38Z</time>
      </trkpt>
      <trkpt lat="46.5437" lon="5.4448">
        <ele>403</ele>
        <time>2019-05-19T21:14:45Z</time>
      </trkpt>
      <trkpt lat="46.5438" lon="5.44501">
        <ele>403</ele>
        <time>2019-05-19T21:14:48Z</time>
      </trkpt>
      <trkpt lat="46.54401" lon="5.44532">
        <ele>404</ele>
        <time>2019-05-19T21:14:53Z</time>
      </trkpt>
      <trkpt lat="46.54424" lon="5.44575">
        <ele>405</ele>
        <time>2019-05-19T21:15:00Z</time>
      </trkpt>
      <trkpt lat="46.54451" lon="5.44642">
        <ele>403</ele>
        <time>2019-05-19T21:15:10Z</time>
      </trkpt>
      <trkpt lat="46.54464" lon="5.44683">
        <ele>403</ele>
        <time>2019-05-19T21:15:15Z</time>
      </trkpt>
      <trkpt lat="46.54481" lon="5.44745">
        <ele>404</ele>
        <time>2019-05-19T21:15:23Z</time>
      </trkpt>
      <trkpt lat="46.54488" lon="5.44764">
        <ele>404</ele>
        <time>2019-05-19T21:15:26Z</time>
      </trkpt>
      <trkpt lat="46.54498" lon="5.44781">
        <ele>405</ele>
        <time>2019-05-19T21:15:29Z</time>
      </trkpt>
      <trkpt lat="46.54524" lon="5.44817">
        <ele>407</ele>
        <time>2019-05-19T21:15:35Z</time>
      </trkpt>
      <trkpt lat="46.54552" lon="5.44874">
        <ele>407</ele>
        <time>2019-05-19T21:15:44Z</time>
      </trkpt>
      <trkpt lat="46.54584" lon="5.44932">
        <ele>406</ele>
        <time>2019-05-19T21:15:53Z</time>
      </trkpt>
      <trkpt lat="46.54617" lon="5.44979">
        <ele>409</ele>
        <time>2019-05-19T21:16:01Z</time>
      </trkpt>
      <trkpt lat="46.54661" lon="5.45039">
        <ele>411</ele>
        <time>2019-05-19T21:16:12Z</time>
      </trkpt>
      <trkpt lat="46.54691" lon="5.45083">
        <ele>412</ele>
        <time>2019-05-19T21:16:19Z</time>
      </trkpt>
      <trkpt lat="46.54724" lon="5.45116">
        <ele>412</ele>
        <time>2019-05-19T21:16:26Z</time>
      </trkpt>
      <trkpt lat="46.54784" lon="5.45172">
        <ele>415</ele>
        <time>2019-05-19T21:16:39Z</time>
      </trkpt>
      <trkpt lat="46.54854" lon="5.45241">
        <ele>413</ele>
        <time>2019-05-19T21:16:54Z</time>
      </trkpt>
      <trkpt lat="46.54868" lon="5.45249">
        <ele>413</ele>
        <time>2019-05-19T21:16:57Z</time>
      </trkpt>
      <trkpt lat="46.54898" lon="5.4526">
        <ele>414</ele>
        <time>2019-05-19T21:17:02Z</time>
      </trkpt>
      <trkpt lat="46.54907" lon="5.45267">
        <ele>414</ele>
        <time>2019-05-19T21:17:04Z</time>
      </trkpt>
      <trkpt lat="46.54952" lon="5.45323">
        <ele>414</ele>
        <time>2019-05-19T21:17:15Z</time>
      </trkpt>
      <trkpt lat="46.54987" lon="5.45362">
        <ele>415</ele>
        <time>2019-05-19T21:17:22Z</time>
      </trkpt>
      <trkpt lat="46.55013" lon="5.45403">
        <ele>416</ele>
        <time>2019-05-19T21:17:29Z</time>
      </trkpt>
      <trkpt lat="46.55039" lon="5.45453">
        <ele>418</ele>
        <time>2019-05-19T21:17:37Z</time>
      </trkpt>
      <trkpt lat="46.55046" lon="5.45487">
        <ele>418</ele>
        <time>2019-05-19T21:17:41Z</time>
      </trkpt>
      <trkpt lat="46.55069" lon="5.45565">
        <ele>417</ele>
        <time>2019-05-19T21:17:52Z</time>
      </trkpt>
      <trkpt lat="46.55079" lon="5.45588">
        <ele>417</ele>
        <time>2019-05-19T21:17:55Z</time>
      </trkpt>
      <trkpt lat="46.55098" lon="5.45616">
        <ele>417</ele>
        <time>2019-05-19T21:18:00Z</time>
      </trkpt>
      <trkpt lat="46.55115" lon="5.45651">
        <ele>417</ele>
        <time>2019-05-19T21:18:05Z</time>
      </trkpt>
      <trkpt lat="46.55133" lon="5.45712">
        <ele>420</ele>
        <time>2019-05-19T21:18:13Z</time>
      </trkpt>
      <trkpt lat="46.55138" lon="5.45769">
        <ele>425</ele>
        <time>2019-05-19T21:18:20Z</time>
      </trkpt>
      <trkpt lat="46.55155" lon="5.45828">
        <ele>430</ele>
        <time>2019-05-19T21:18:28Z</time>
      </trkpt>
      <trkpt lat="46.55165" lon="5.4584">
        <ele>430</ele>
        <time>2019-05-19T21:18:30Z</time>
      </trkpt>
      <trkpt lat="46.55184" lon="5.45854">
        <ele>430</ele>
        <time>2019-05-19T21:18:34Z</time>
      </trkpt>
      <trkpt lat="46.55188" lon="5.45859">
        <ele>430</ele>
        <time>2019-05-19T21:18:35Z</time>
      </trkpt>
      <trkpt lat="46.55189" lon="5.45867">
        <ele>431</ele>
        <time>2019-05-19T21:18:36Z</time>
      </trkpt>
      <trkpt lat="46.55187" lon="5.45874">
        <ele>432</ele>
        <time>2019-05-19T21:18:37Z</time>
      </trkpt>
      <trkpt lat="46.55162" lon="5.45872">
        <ele>432</ele>
        <time>2019-05-19T21:18:41Z</time>
      </trkpt>
      <trkpt lat="46.55155" lon="5.45879">
        <ele>433</ele>
        <time>2019-05-19T21:18:43Z</time>
      </trkpt>
      <trkpt lat="46.55121" lon="5.45951">
        <ele>441</ele>
        <time>2019-05-19T21:18:54Z</time>
      </trkpt>
      <trkpt lat="46.55097" lon="5.45987">
        <ele>443</ele>
        <time>2019-05-19T21:19:00Z</time>
      </trkpt>
      <trkpt lat="46.5508" lon="5.45996">
        <ele>444</ele>
        <time>2019-05-19T21:19:03Z</time>
      </trkpt>
      <trkpt lat="46.55072" lon="5.46003">
        <ele>445</ele>
        <time>2019-05-19T21:19:05Z</time>
      </trkpt>
      <trkpt lat="46.55062" lon="5.46024">
        <ele>446</ele>
        <time>2019-05-19T21:19:08Z</time>
      </trkpt>
      <trkpt lat="46.55058" lon="5.46079">
        <ele>449</ele>
        <time>2019-05-19T21:19:15Z</time>
      </trkpt>
      <trkpt lat="46.55047" lon="5.46111">
        <ele>449</ele>
        <time>2019-05-19T21:19:19Z</time>
      </trkpt>
      <trkpt lat="46.55034" lon="5.46135">
        <ele>448</ele>
        <time>2019-05-19T21:19:23Z</time>
      </trkpt>
      <trkpt lat="46.55002" lon="5.46181">
        <ele>445</ele>
        <time>2019-05-19T21:19:31Z</time>
      </trkpt>
      <trkpt lat="46.54992" lon="5.46198">
        <ele>445</ele>
        <time>2019-05-19T21:19:33Z</time>
      </trkpt>
      <trkpt lat="46.54985" lon="5.46216">
        <ele>445</ele>
        <time>2019-05-19T21:19:36Z</time>
      </trkpt>
      <trkpt lat="46.5498" lon="5.46235">
        <ele>445</ele>
        <time>2019-05-19T21:19:38Z</time>
      </trkpt>
      <trkpt lat="46.54997" lon="5.46247">
        <ele>446</ele>
        <time>2019-05-19T21:19:42Z</time>
      </trkpt>
      <trkpt lat="46.5505" lon="5.46275">
        <ele>450</ele>
        <time>2019-05-19T21:19:52Z</time>
      </trkpt>
      <trkpt lat="46.55111" lon="5.46316">
        <ele>454</ele>
        <time>2019-05-19T21:20:04Z</time>
      </trkpt>
      <trkpt lat="46.55125" lon="5.46322">
        <ele>456</ele>
        <time>2019-05-19T21:20:06Z</time>
      </trkpt>
      <trkpt lat="46.55151" lon="5.46325">
        <ele>458</ele>
        <time>2019-05-19T21:20:11Z</time>
      </trkpt>
      <trkpt lat="46.55174" lon="5.46338">
        <ele>459</ele>
        <time>2019-05-19T21:20:15Z</time>
      </trkpt>
      <trkpt lat="46.55197" lon="5.46356">
        <ele>460</ele>
        <time>2019-05-19T21:20:20Z</time>
      </trkpt>
      <trkpt lat="46.55303" lon="5.46457">
        <ele>464</ele>
        <time>2019-05-19T21:20:43Z</time>
      </trkpt>
      <trkpt lat="46.55314" lon="5.46473">
        <ele>464</ele>
        <time>2019-05-19T21:20:45Z</time>
      </trkpt>
      <trkpt lat="46.55323" lon="5.46493">
        <ele>463</ele>
        <time>2019-05-19T21:20:48Z</time>
      </trkpt>
      <trkpt lat="46.55337" lon="5.46537">
        <ele>464</ele>
        <time>2019-05-19T21:20:54Z</time>
      </trkpt>
      <trkpt lat="46.55343" lon="5.46553">
        <ele>465</ele>
        <time>2019-05-19T21:20:56Z</time>
      </trkpt>
      <trkpt lat="46.5538" lon="5.46614">
        <ele>469</ele>
        <time>2019-05-19T21:21:06Z</time>
      </trkpt>
      <trkpt lat="46.5539" lon="5.46626">
        <ele>470</ele>
        <time>2019-05-19T21:21:09Z</time>
      </trkpt>
      <trkpt lat="46.55418" lon="5.46646">
        <ele>472</ele>
        <time>2019-05-19T21:21:14Z</time>
      </trkpt>
      <trkpt lat="46.55472" lon="5.46698">
        <ele>475</ele>
        <time>2019-05-19T21:21:26Z</time>
      </trkpt>
      <trkpt lat="46.55479" lon="5.4671">
        <ele>475</ele>
        <time>2019-05-19T21:21:28Z</time>
      </trkpt>
      <trkpt lat="46.55484" lon="5.4672">
        <ele>475</ele>
        <time>2019-05-19T21:21:29Z</time>
      </trkpt>
      <trkpt lat="46.55484" lon="5.46735">
        <ele>476</ele>
        <time>2019-05-19T21:21:31Z</time>
      </trkpt>
      <trkpt lat="46.55479" lon="5.46769">
        <ele>477</ele>
        <time>2019-05-19T21:21:35Z</time>
      </trkpt>
      <trkpt lat="46.55479" lon="5.46786">
        <ele>478</ele>
        <time>2019-05-19T21:21:37Z</time>
      </trkpt>
      <trkpt lat="46.55482" lon="5.46799">
        <ele>478</ele>
        <time>2019-05-19T21:21:39Z</time>
      </trkpt>
      <trkpt lat="46.55498" lon="5.4683">
        <ele>479</ele>
        <time>2019-05-19T21:21:44Z</time>
      </trkpt>
      <trkpt lat="46.55536" lon="5.46876">
        <ele>481</ele>
        <time>2019-05-19T21:21:53Z</time>
      </trkpt>
      <trkpt lat="46.55547" lon="5.46883">
        <ele>481</ele>
        <time>2019-05-19T21:21:55Z</time>
      </trkpt>
      <trkpt lat="46.55612" lon="5.4691">
        <ele>480</ele>
        <time>2019-05-19T21:22:07Z</time>
      </trkpt>
      <trkpt lat="46.55623" lon="5.46923">
        <ele>481</ele>
        <time>2019-05-19T21:22:09Z</time>
      </trkpt>
      <trkpt lat="46.55635" lon="5.46947">
        <ele>483</ele>
        <time>2019-05-19T21:22:13Z</time>
      </trkpt>
      <trkpt lat="46.55663" lon="5.47025">
        <ele>490</ele>
        <time>2019-05-19T21:22:24Z</time>
      </trkpt>
      <trkpt lat="46.55675" lon="5.47051">
        <ele>494</ele>
        <time>2019-05-19T21:22:28Z</time>
      </trkpt>
      <trkpt lat="46.55687" lon="5.47068">
        <ele>496</ele>
        <time>2019-05-19T21:22:31Z</time>
      </trkpt>
      <trkpt lat="46.55703" lon="5.47084">
        <ele>496</ele>
        <time>2019-05-19T21:22:34Z</time>
      </trkpt>
      <trkpt lat="46.55757" lon="5.47122">
        <ele>497</ele>
        <time>2019-05-19T21:22:45Z</time>
      </trkpt>
      <trkpt lat="46.55772" lon="5.47129">
        <ele>498</ele>
        <time>2019-05-19T21:22:47Z</time>
      </trkpt>
      <trkpt lat="46.55822" lon="5.47143">
        <ele>500</ele>
        <time>2019-05-19T21:22:57Z</time>
      </trkpt>
      <trkpt lat="46.55855" lon="5.47158">
        <ele>502</ele>
        <time>2019-05-19T21:23:03Z</time>
      </trkpt>
      <trkpt lat="46.55915" lon="5.4719">
        <ele>508</ele>
        <time>2019-05-19T21:23:14Z</time>
      </trkpt>
      <trkpt lat="46.55929" lon="5.47195">
        <ele>508</ele>
        <time>2019-05-19T21:23:17Z</time>
      </trkpt>
      <trkpt lat="46.55959" lon="5.47196">
        <ele>507</ele>
        <time>2019-05-19T21:23:22Z</time>
      </trkpt>
      <trkpt lat="46.55983" lon="5.47201">
        <ele>507</ele>
        <time>2019-05-19T21:23:26Z</time>
      </trkpt>
      <trkpt lat="46.56206" lon="5.47276">
        <ele>524</ele>
        <time>2019-05-19T21:24:07Z</time>
      </trkpt>
      <trkpt lat="46.5622" lon="5.47276">
        <ele>525</ele>
        <time>2019-05-19T21:24:09Z</time>
      </trkpt>
      <trkpt lat="46.56274" lon="5.47262">
        <ele>529</ele>
        <time>2019-05-19T21:24:19Z</time>
      </trkpt>
      <trkpt lat="46.56286" lon="5.47261">
        <ele>531</ele>
        <time>2019-05-19T21:24:21Z</time>
      </trkpt>
      <trkpt lat="46.56295" lon="5.47265">
        <ele>532</ele>
        <time>2019-05-19T21:24:23Z</time>
      </trkpt>
      <trkpt lat="46.56307" lon="5.47274">
        <ele>533</ele>
        <time>2019-05-19T21:24:25Z</time>
      </trkpt>
      <trkpt lat="46.56326" lon="5.47295">
        <ele>532</ele>
        <time>2019-05-19T21:24:30Z</time>
      </trkpt>
      <trkpt lat="46.56343" lon="5.4732">
        <ele>530</ele>
        <time>2019-05-19T21:24:34Z</time>
      </trkpt>
      <trkpt lat="46.56393" lon="5.47368">
        <ele>526</ele>
        <time>2019-05-19T21:24:45Z</time>
      </trkpt>
      <trkpt lat="46.56488" lon="5.47466">
        <ele>514</ele>
        <time>2019-05-19T21:25:05Z</time>
      </trkpt>
      <trkpt lat="46.56549" lon="5.47515">
        <ele>512</ele>
        <time>2019-05-19T21:25:18Z</time>
      </trkpt>
      <trkpt lat="46.56564" lon="5.47532">
        <ele>511</ele>
        <time>2019-05-19T21:25:21Z</time>
      </trkpt>
      <trkpt lat="46.56596" lon="5.47577">
        <ele>502</ele>
        <time>2019-05-19T21:25:29Z</time>
      </trkpt>
      <trkpt lat="46.56616" lon="5.47594">
        <ele>502</ele>
        <time>2019-05-19T21:25:33Z</time>
      </trkpt>
      <trkpt lat="46.56679" lon="5.47636">
        <ele>501</ele>
        <time>2019-05-19T21:25:46Z</time>
      </trkpt>
      <trkpt lat="46.56748" lon="5.47678">
        <ele>497</ele>
        <time>2019-05-19T21:25:59Z</time>
      </trkpt>
      <trkpt lat="46.56792" lon="5.47701">
        <ele>499</ele>
        <time>2019-05-19T21:26:07Z</time>
      </trkpt>
      <trkpt lat="46.56812" lon="5.47715">
        <ele>498</ele>
        <time>2019-05-19T21:26:11Z</time>
      </trkpt>
      <trkpt lat="46.56854" lon="5.47753">
        <ele>492</ele>
        <time>2019-05-19T21:26:20Z</time>
      </trkpt>
      <trkpt lat="46.56894" lon="5.47783">
        <ele>491</ele>
        <time>2019-05-19T21:26:28Z</time>
      </trkpt>
      <trkpt lat="46.56912" lon="5.47792">
        <ele>489</ele>
        <time>2019-05-19T21:26:31Z</time>
      </trkpt>
      <trkpt lat="46.56967" lon="5.47803">
        <ele>484</ele>
        <time>2019-05-19T21:26:41Z</time>
      </trkpt>
      <trkpt lat="46.56982" lon="5.47803">
        <ele>483</ele>
        <time>2019-05-19T21:26:44Z</time>
      </trkpt>
      <trkpt lat="46.57005" lon="5.47799">
        <ele>481</ele>
        <time>2019-05-19T21:26:48Z</time>
      </trkpt>
      <trkpt lat="46.57019" lon="5.47799">
        <ele>481</ele>
        <time>2019-05-19T21:26:50Z</time>
      </trkpt>
      <trkpt lat="46.57031" lon="5.47802">
        <ele>481</ele>
        <time>2019-05-19T21:26:53Z</time>
      </trkpt>
      <trkpt lat="46.57052" lon="5.47811">
        <ele>481</ele>
        <time>2019-05-19T21:26:57Z</time>
      </trkpt>
      <trkpt lat="46.57125" lon="5.47858">
        <ele>478</ele>
        <time>2019-05-19T21:27:11Z</time>
      </trkpt>
      <trkpt lat="46.57169" lon="5.479">
        <ele>471</ele>
        <time>2019-05-19T21:27:20Z</time>
      </trkpt>
      <trkpt lat="46.57185" lon="5.47906">
        <ele>470</ele>
        <time>2019-05-19T21:27:23Z</time>
      </trkpt>
      <trkpt lat="46.57199" lon="5.47908">
        <ele>469</ele>
        <time>2019-05-19T21:27:26Z</time>
      </trkpt>
      <trkpt lat="46.57224" lon="5.47907">
        <ele>468</ele>
        <time>2019-05-19T21:27:30Z</time>
      </trkpt>
      <trkpt lat="46.57337" lon="5.47889">
        <ele>468</ele>
        <time>2019-05-19T21:27:50Z</time>
      </trkpt>
      <trkpt lat="46.57384" lon="5.4785">
        <ele>466</ele>
        <time>2019-05-19T21:28:00Z</time>
      </trkpt>
      <trkpt lat="46.57413" lon="5.47822">
        <ele>466</ele>
        <time>2019-05-19T21:28:06Z</time>
      </trkpt>
      <trkpt lat="46.57437" lon="5.47806">
        <ele>466</ele>
        <time>2019-05-19T21:28:11Z</time>
      </trkpt>
      <trkpt lat="46.57458" lon="5.47799">
        <ele>467</ele>
        <time>2019-05-19T21:28:15Z</time>
      </trkpt>
      <trkpt lat="46.57517" lon="5.47795">
        <ele>467</ele>
        <time>2019-05-19T21:28:25Z</time>
      </trkpt>
      <trkpt lat="46.5755" lon="5.47797">
        <ele>465</ele>
        <time>2019-05-19T21:28:31Z</time>
      </trkpt>
      <trkpt lat="46.57579" lon="5.47802">
        <ele>464</ele>
        <time>2019-05-19T21:28:36Z</time>
      </trkpt>
      <trkpt lat="46.57638" lon="5.47825">
        <ele>462</ele>
        <time>2019-05-19T21:28:47Z</time>
      </trkpt>
      <trkpt lat="46.57671" lon="5.47845">
        <ele>462</ele>
        <time>2019-05-19T21:28:53Z</time>
      </trkpt>
      <trkpt lat="46.57756" lon="5.47903">
        <ele>463</ele>
        <time>2019-05-19T21:29:10Z</time>
      </trkpt>
      <trkpt lat="46.57765" lon="5.47905">
        <ele>463</ele>
        <time>2019-05-19T21:29:12Z</time>
      </trkpt>
      <trkpt lat="46.57796" lon="5.479">
        <ele>461</ele>
        <time>2019-05-19T21:29:17Z</time>
      </trkpt>
      <trkpt lat="46.57828" lon="5.47897">
        <ele>460</ele>
        <time>2019-05-19T21:29:23Z</time>
      </trkpt>
      <trkpt lat="46.57838" lon="5.47894">
        <ele>459</ele>
        <time>2019-05-19T21:29:25Z</time>
      </trkpt>
      <trkpt lat="46.57884" lon="5.47893">
        <ele>454</ele>
        <time>2019-05-19T21:29:33Z</time>
      </trkpt>
      <trkpt lat="46.57898" lon="5.47896">
        <ele>454</ele>
        <time>2019-05-19T21:29:35Z</time>
      </trkpt>
      <trkpt lat="46.57918" lon="5.47913">
        <ele>455</ele>
        <time>2019-05-19T21:29:40Z</time>
      </trkpt>
      <trkpt lat="46.5793" lon="5.47933">
        <ele>455</ele>
        <time>2019-05-19T21:29:43Z</time>
      </trkpt>
      <trkpt lat="46.57956" lon="5.47989">
        <ele>459</ele>
        <time>2019-05-19T21:29:51Z</time>
      </trkpt>
      <trkpt lat="46.57963" lon="5.48">
        <ele>460</ele>
        <time>2019-05-19T21:29:53Z</time>
      </trkpt>
      <trkpt lat="46.57972" lon="5.48005">
        <ele>458</ele>
        <time>2019-05-19T21:29:55Z</time>
      </trkpt>
      <trkpt lat="46.58004" lon="5.48015">
        <ele>452</ele>
        <time>2019-05-19T21:30:00Z</time>
      </trkpt>
      <trkpt lat="46.58031" lon="5.48019">
        <ele>447</ele>
        <time>2019-05-19T21:30:05Z</time>
      </trkpt>
      <trkpt lat="46.58052" lon="5.48032">
        <ele>445</ele>
        <time>2019-05-19T21:30:09Z</time>
      </trkpt>
      <trkpt lat="46.58086" lon="5.48063">
        <ele>444</ele>
        <time>2019-05-19T21:30:17Z</time>
      </trkpt>
      <trkpt lat="46.58095" lon="5.48076">
        <ele>443</ele>
        <time>2019-05-19T21:30:19Z</time>
      </trkpt>
      <trkpt lat="46.58098" lon="5.48087">
        <ele>444</ele>
        <time>2019-05-19T21:30:20Z</time>
      </trkpt>
      <trkpt lat="46.58106" lon="5.4814">
        <ele>449</ele>
        <time>2019-05-19T21:30:27Z</time>
      </trkpt>
      <trkpt lat="46.58109" lon="5.48154">
        <ele>450</ele>
        <time>2019-05-19T21:30:29Z</time>
      </trkpt>
      <trkpt lat="46.58114" lon="5.48161">
        <ele>450</ele>
        <time>2019-05-19T21:30:30Z</time>
      </trkpt>
      <trkpt lat="46.58262" lon="5.48221">
        <ele>446</ele>
        <time>2019-05-19T21:30:57Z</time>
      </trkpt>
      <trkpt lat="46.58344" lon="5.48244">
        <ele>440</ele>
        <time>2019-05-19T21:31:12Z</time>
      </trkpt>
      <trkpt lat="46.58365" lon="5.48246">
        <ele>439</ele>
        <time>2019-05-19T21:31:16Z</time>
      </trkpt>
      <trkpt lat="46.58402" lon="5.48241">
        <ele>434</ele>
        <time>2019-05-19T21:31:22Z</time>
      </trkpt>
      <trkpt lat="46.58414" lon="5.4824">
        <ele>433</ele>
        <time>2019-05-19T21:31:25Z</time>
      </trkpt>
      <trkpt lat="46.58423" lon="5.48243">
        <ele>433</ele>
        <time>2019-05-19T21:31:26Z</time>
      </trkpt>
      <trkpt lat="46.58434" lon="5.4825">
        <ele>434</ele>
        <time>2019-05-19T21:31:28Z</time>
      </trkpt>
      <trkpt lat="46.5846" lon="5.48275">
        <ele>432</ele>
        <time>2019-05-19T21:31:34Z</time>
      </trkpt>
      <trkpt lat="46.585" lon="5.48304">
        <ele>425</ele>
        <time>2019-05-19T21:31:42Z</time>
      </trkpt>
      <trkpt lat="46.58522" lon="5.48314">
        <ele>423</ele>
        <time>2019-05-19T21:31:46Z</time>
      </trkpt>
      <trkpt lat="46.58544" lon="5.48321">
        <ele>420</ele>
        <time>2019-05-19T21:31:50Z</time>
      </trkpt>
      <trkpt lat="46.58594" lon="5.48324">
        <ele>416</ele>
        <time>2019-05-19T21:31:59Z</time>
      </trkpt>
      <trkpt lat="46.58617" lon="5.48321">
        <ele>414</ele>
        <time>2019-05-19T21:32:03Z</time>
      </trkpt>
      <trkpt lat="46.58642" lon="5.48315">
        <ele>412</ele>
        <time>2019-05-19T21:32:07Z</time>
      </trkpt>
      <trkpt lat="46.58659" lon="5.48308">
        <ele>411</ele>
        <time>2019-05-19T21:32:11Z</time>
      </trkpt>
      <trkpt lat="46.58666" lon="5.48302">
        <ele>410</ele>
        <time>2019-05-19T21:32:12Z</time>
      </trkpt>
      <trkpt lat="46.5867" lon="5.48293">
        <ele>410</ele>
        <time>2019-05-19T21:32:13Z</time>
      </trkpt>
      <trkpt lat="46.5867" lon="5.48277">
        <ele>411</ele>
        <time>2019-05-19T21:32:15Z</time>
      </trkpt>
      <trkpt lat="46.58652" lon="5.48186">
        <ele>408</ele>
        <time>2019-05-19T21:32:27Z</time>
      </trkpt>
      <trkpt lat="46.58637" lon="5.48132">
        <ele>406</ele>
        <time>2019-05-19T21:32:34Z</time>
      </trkpt>
      <trkpt lat="46.58628" lon="5.48111">
        <ele>406</ele>
        <time>2019-05-19T21:32:37Z</time>
      </trkpt>
      <trkpt lat="46.58608" lon="5.48049">
        <ele>404</ele>
        <time>2019-05-19T21:32:45Z</time>
      </trkpt>
      <trkpt lat="46.58601" lon="5.4802">
        <ele>403</ele>
        <time>2019-05-19T21:32:49Z</time>
      </trkpt>
      <trkpt lat="46.58595" lon="5.47974">
        <ele>400</ele>
        <time>2019-05-19T21:32:55Z</time>
      </trkpt>
      <trkpt lat="46.58586" lon="5.47921">
        <ele>399</ele>
        <time>2019-05-19T21:33:02Z</time>
      </trkpt>
      <trkpt lat="46.5858" lon="5.47904">
        <ele>398</ele>
        <time>2019-05-19T21:33:04Z</time>
      </trkpt>
      <trkpt lat="46.58569" lon="5.47888">
        <ele>396</ele>
        <time>2019-05-19T21:33:07Z</time>
      </trkpt>
      <trkpt lat="46.58553" lon="5.47873">
        <ele>395</ele>
        <time>2019-05-19T21:33:10Z</time>
      </trkpt>
      <trkpt lat="46.58532" lon="5.47868">
        <ele>394</ele>
        <time>2019-05-19T21:33:14Z</time>
      </trkpt>
      <trkpt lat="46.58498" lon="5.47871">
        <ele>394</ele>
        <time>2019-05-19T21:33:20Z</time>
      </trkpt>
      <trkpt lat="46.58473" lon="5.47883">
        <ele>391</ele>
        <time>2019-05-19T21:33:25Z</time>
      </trkpt>
      <trkpt lat="46.58466" lon="5.47881">
        <ele>390</ele>
        <time>2019-05-19T21:33:26Z</time>
      </trkpt>
      <trkpt lat="46.58461" lon="5.47876">
        <ele>388</ele>
        <time>2019-05-19T21:33:27Z</time>
      </trkpt>
      <trkpt lat="46.5846" lon="5.47868">
        <ele>387</ele>
        <time>2019-05-19T21:33:28Z</time>
      </trkpt>
      <trkpt lat="46.58463" lon="5.47856">
        <ele>386</ele>
        <time>2019-05-19T21:33:30Z</time>
      </trkpt>
      <trkpt lat="46.58513" lon="5.47812">
        <ele>387</ele>
        <time>2019-05-19T21:33:40Z</time>
      </trkpt>
      <trkpt lat="46.58558" lon="5.47778">
        <ele>383</ele>
        <time>2019-05-19T21:33:49Z</time>
      </trkpt>
      <trkpt lat="46.58577" lon="5.47768">
        <ele>382</ele>
        <time>2019-05-19T21:33:53Z</time>
      </trkpt>
      <trkpt lat="46.58589" lon="5.47766">
        <ele>380</ele>
        <time>2019-05-19T21:33:55Z</time>
      </trkpt>
      <trkpt lat="46.586" lon="5.47767">
        <ele>378</ele>
        <time>2019-05-19T21:33:57Z</time>
      </trkpt>
      <trkpt lat="46.58626" lon="5.47777">
        <ele>374</ele>
        <time>2019-05-19T21:34:01Z</time>
      </trkpt>
      <trkpt lat="46.58649" lon="5.47789">
        <ele>372</ele>
        <time>2019-05-19T21:34:06Z</time>
      </trkpt>
      <trkpt lat="46.5867" lon="5.47806">
        <ele>370</ele>
        <time>2019-05-19T21:34:10Z</time>
      </trkpt>
      <trkpt lat="46.58681" lon="5.47823">
        <ele>368</ele>
        <time>2019-05-19T21:34:13Z</time>
      </trkpt>
      <trkpt lat="46.58687" lon="5.4784">
        <ele>367</ele>
        <time>2019-05-19T21:34:15Z</time>
      </trkpt>
      <trkpt lat="46.5869" lon="5.47888">
        <ele>369</ele>
        <time>2019-05-19T21:34:21Z</time>
      </trkpt>
      <trkpt lat="46.58688" lon="5.47983">
        <ele>375</ele>
        <time>2019-05-19T21:34:33Z</time>
      </trkpt>
      <trkpt lat="46.58691" lon="5.48032">
        <ele>379</ele>
        <time>2019-05-19T21:34:39Z</time>
      </trkpt>
      <trkpt lat="46.58699" lon="5.4806">
        <ele>379</ele>
        <time>2019-05-19T21:34:43Z</time>
      </trkpt>
      <trkpt lat="46.58712" lon="5.48079">
        <ele>377</ele>
        <time>2019-05-19T21:34:46Z</time>
      </trkpt>
      <trkpt lat="46.58728" lon="5.48094">
        <ele>374</ele>
        <time>2019-05-19T21:34:49Z</time>
      </trkpt>
      <trkpt lat="46.58749" lon="5.4813">
        <ele>375</ele>
        <time>2019-05-19T21:34:55Z</time>
      </trkpt>
      <trkpt lat="46.5876" lon="5.48138">
        <ele>375</ele>
        <time>2019-05-19T21:34:57Z</time>
      </trkpt>
      <trkpt lat="46.58787" lon="5.48145">
        <ele>371</ele>
        <time>2019-05-19T21:35:02Z</time>
      </trkpt>
      <trkpt lat="46.58818" lon="5.4815">
        <ele>367</ele>
        <time>2019-05-19T21:35:08Z</time>
      </trkpt>
      <trkpt lat="46.58854" lon="5.4815">
        <ele>361</ele>
        <time>2019-05-19T21:35:14Z</time>
      </trkpt>
      <trkpt lat="46.58874" lon="5.48156">
        <ele>358</ele>
        <time>2019-05-19T21:35:18Z</time>
      </trkpt>
      <trkpt lat="46.58914" lon="5.48174">
        <ele>354</ele>
        <time>2019-05-19T21:35:25Z</time>
      </trkpt>
      <trkpt lat="46.58941" lon="5.48192">
        <ele>351</ele>
        <time>2019-05-19T21:35:30Z</time>
      </trkpt>
      <trkpt lat="46.58959" lon="5.48212">
        <ele>350</ele>
        <time>2019-05-19T21:35:34Z</time>
      </trkpt>
      <trkpt lat="46.58975" lon="5.48237">
        <ele>348</ele>
        <time>2019-05-19T21:35:39Z</time>
      </trkpt>
      <trkpt lat="46.58995" lon="5.48282">
        <ele>344</ele>
        <time>2019-05-19T21:35:45Z</time>
      </trkpt>
      <trkpt lat="46.59013" lon="5.48313">
        <ele>341</ele>
        <time>2019-05-19T21:35:50Z</time>
      </trkpt>
      <trkpt lat="46.59051" lon="5.48365">
        <ele>337</ele>
        <time>2019-05-19T21:35:59Z</time>
      </trkpt>
      <trkpt lat="46.59062" lon="5.48377">
        <ele>337</ele>
        <time>2019-05-19T21:36:02Z</time>
      </trkpt>
      <trkpt lat="46.5907" lon="5.48381">
        <ele>337</ele>
        <time>2019-05-19T21:36:03Z</time>
      </trkpt>
      <trkpt lat="46.59078" lon="5.48381">
        <ele>337</ele>
        <time>2019-05-19T21:36:05Z</time>
      </trkpt>
      <trkpt lat="46.59086" lon="5.48379">
        <ele>337</ele>
        <time>2019-05-19T21:36:06Z</time>
      </trkpt>
      <trkpt lat="46.59094" lon="5.48372">
        <ele>336</ele>
        <time>2019-05-19T21:36:08Z</time>
      </trkpt>
      <trkpt lat="46.59096" lon="5.48361">
        <ele>335</ele>
        <time>2019-05-19T21:36:09Z</time>
      </trkpt>
      <trkpt lat="46.59093" lon="5.48353">
        <ele>335</ele>
        <time>2019-05-19T21:36:10Z</time>
      </trkpt>
      <trkpt lat="46.59066" lon="5.48326">
        <ele>335</ele>
        <time>2019-05-19T21:36:16Z</time>
      </trkpt>
      <trkpt lat="46.59049" lon="5.48298">
        <ele>333</ele>
        <time>2019-05-19T21:36:21Z</time>
      </trkpt>
      <trkpt lat="46.59032" lon="5.48264">
        <ele>333</ele>
        <time>2019-05-19T21:36:26Z</time>
      </trkpt>
      <trkpt lat="46.59023" lon="5.48233">
        <ele>332</ele>
        <time>2019-05-19T21:36:30Z</time>
      </trkpt>
      <trkpt lat="46.59019" lon="5.48207">
        <ele>331</ele>
        <time>2019-05-19T21:36:33Z</time>
      </trkpt>
      <trkpt lat="46.59012" lon="5.4818">
        <ele>330</ele>
        <time>2019-05-19T21:36:37Z</time>
      </trkpt>
      <trkpt lat="46.5899" lon="5.48123">
        <ele>329</ele>
        <time>2019-05-19T21:36:45Z</time>
      </trkpt>
      <trkpt lat="46.58978" lon="5.48067">
        <ele>325</ele>
        <time>2019-05-19T21:36:52Z</time>
      </trkpt>
      <trkpt lat="46.58975" lon="5.48028">
        <ele>324</ele>
        <time>2019-05-19T21:36:57Z</time>
      </trkpt>
      <trkpt lat="46.58977" lon="5.48016">
        <ele>324</ele>
        <time>2019-05-19T21:36:58Z</time>
      </trkpt>
      <trkpt lat="46.58983" lon="5.48007">
        <ele>323</ele>
        <time>2019-05-19T21:37:00Z</time>
      </trkpt>
      <trkpt lat="46.59014" lon="5.47984">
        <ele>319</ele>
        <time>2019-05-19T21:37:06Z</time>
      </trkpt>
      <trkpt lat="46.59021" lon="5.47977">
        <ele>318</ele>
        <time>2019-05-19T21:37:07Z</time>
      </trkpt>
      <trkpt lat="46.59025" lon="5.47968">
        <ele>317</ele>
        <time>2019-05-19T21:37:09Z</time>
      </trkpt>
      <trkpt lat="46.59027" lon="5.47957">
        <ele>316</ele>
        <time>2019-05-19T21:37:10Z</time>
      </trkpt>
      <trkpt lat="46.59027" lon="5.47942">
        <ele>315</ele>
        <time>2019-05-19T21:37:12Z</time>
      </trkpt>
      <trkpt lat="46.59022" lon="5.47927">
        <ele>315</ele>
        <time>2019-05-19T21:37:14Z</time>
      </trkpt>
      <trkpt lat="46.59012" lon="5.47913">
        <ele>314</ele>
        <time>2019-05-19T21:37:17Z</time>
      </trkpt>
      <trkpt lat="46.5899" lon="5.47895">
        <ele>314</ele>
        <time>2019-05-19T21:37:21Z</time>
      </trkpt>
      <trkpt lat="46.58939" lon="5.47861">
        <ele>312</ele>
        <time>2019-05-19T21:37:31Z</time>
      </trkpt>
      <trkpt lat="46.58911" lon="5.47847">
        <ele>312</ele>
        <time>2019-05-19T21:37:36Z</time>
      </trkpt>
      <trkpt lat="46.58897" lon="5.47836">
        <ele>311</ele>
        <time>2019-05-19T21:37:39Z</time>
      </trkpt>
      <trkpt lat="46.58886" lon="5.47819">
        <ele>310</ele>
        <time>2019-05-19T21:37:42Z</time>
      </trkpt>
      <trkpt lat="46.58877" lon="5.47795">
        <ele>309</ele>
        <time>2019-05-19T21:37:45Z</time>
      </trkpt>
      <trkpt lat="46.58876" lon="5.47753">
        <ele>307</ele>
        <time>2019-05-19T21:37:50Z</time>
      </trkpt>
      <trkpt lat="46.58877" lon="5.47719">
        <ele>307</ele>
        <time>2019-05-19T21:37:55Z</time>
      </trkpt>
      <trkpt lat="46.58883" lon="5.47711">
        <ele>306</ele>
        <time>2019-05-19T21:37:56Z</time>
      </trkpt>
      <trkpt lat="46.58918" lon="5.47682">
        <ele>304</ele>
        <time>2019-05-19T21:38:03Z</time>
      </trkpt>
      <trkpt lat="46.58946" lon="5.47671">
        <ele>303</ele>
        <time>2019-05-19T21:38:08Z</time>
      </trkpt>
      <trkpt lat="46.58957" lon="5.47669">
        <ele>303</ele>
        <time>2019-05-19T21:38:10Z</time>
      </trkpt>
      <trkpt lat="46.59004" lon="5.47681">
        <ele>302</ele>
        <time>2019-05-19T21:38:19Z</time>
      </trkpt>
      <trkpt lat="46.59018" lon="5.47679">
        <ele>300</ele>
        <time>2019-05-19T21:38:21Z</time>
      </trkpt>
      <trkpt lat="46.5903" lon="5.47669">
        <ele>299</ele>
        <time>2019-05-19T21:38:24Z</time>
      </trkpt>
      <trkpt lat="46.5905" lon="5.47647">
        <ele>297</ele>
        <time>2019-05-19T21:38:28Z</time>
      </trkpt>
      <trkpt lat="46.59081" lon="5.47603">
        <ele>294</ele>
        <time>2019-05-19T21:38:36Z</time>
      </trkpt>
      <trkpt lat="46.59107" lon="5.4756">
        <ele>291</ele>
        <time>2019-05-19T21:38:43Z</time>
      </trkpt>
      <trkpt lat="46.59185" lon="5.47398">
        <ele>282</ele>
        <time>2019-05-19T21:39:07Z</time>
      </trkpt>
      <trkpt lat="46.59194" lon="5.47384">
        <ele>282</ele>
        <time>2019-05-19T21:39:09Z</time>
      </trkpt>
      <trkpt lat="46.59226" lon="5.47348">
        <ele>277</ele>
        <time>2019-05-19T21:39:17Z</time>
      </trkpt>
      <trkpt lat="46.59228" lon="5.4734">
        <ele>277</ele>
        <time>2019-05-19T21:39:18Z</time>
      </trkpt>
      <trkpt lat="46.59229" lon="5.47331">
        <ele>276</ele>
        <time>2019-05-19T21:39:19Z</time>
      </trkpt>
      <trkpt lat="46.59223" lon="5.47311">
        <ele>276</ele>
        <time>2019-05-19T21:39:22Z</time>
      </trkpt>
      <trkpt lat="46.59207" lon="5.4727">
        <ele>276</ele>
        <time>2019-05-19T21:39:27Z</time>
      </trkpt>
      <trkpt lat="46.59203" lon="5.47256">
        <ele>276</ele>
        <time>2019-05-19T21:39:29Z</time>
      </trkpt>
      <trkpt lat="46.59203" lon="5.4724">
        <ele>276</ele>
        <time>2019-05-19T21:39:31Z</time>
      </trkpt>
      <trkpt lat="46.59206" lon="5.47223">
        <ele>276</ele>
        <time>2019-05-19T21:39:33Z</time>
      </trkpt>
      <trkpt lat="46.59214" lon="5.47199">
        <ele>275</ele>
        <time>2019-05-19T21:39:36Z</time>
      </trkpt>
      <trkpt lat="46.59228" lon="5.47172">
        <ele>273</ele>
        <time>2019-05-19T21:39:41Z</time>
      </trkpt>
      <trkpt lat="46.59239" lon="5.47158">
        <ele>272</ele>
        <time>2019-05-19T21:39:43Z</time>
      </trkpt>
      <trkpt lat="46.59252" lon="5.47148">
        <ele>270</ele>
        <time>2019-05-19T21:39:46Z</time>
      </trkpt>
      <trkpt lat="46.59274" lon="5.47135">
        <ele>267</ele>
        <time>2019-05-19T21:39:50Z</time>
      </trkpt>
      <trkpt lat="46.59285" lon="5.47125">
        <ele>266</ele>
        <time>2019-05-19T21:39:52Z</time>
      </trkpt>
      <trkpt lat="46.59296" lon="5.47104">
        <ele>265</ele>
        <time>2019-05-19T21:39:56Z</time>
      </trkpt>
      <trkpt lat="46.59299" lon="5.47093">
        <ele>265</ele>
        <time>2019-05-19T21:39:57Z</time>
      </trkpt>
      <trkpt lat="46.59299" lon="5.47081">
        <ele>266</ele>
        <time>2019-05-19T21:39:59Z</time>
      </trkpt>
      <trkpt lat="46.59296" lon="5.47068">
        <ele>266</ele>
        <time>2019-05-19T21:40:00Z</time>
      </trkpt>
      <trkpt lat="46.59284" lon="5.47036">
        <ele>266</ele>
        <time>2019-05-19T21:40:05Z</time>
      </trkpt>
      <trkpt lat="46.5928" lon="5.47015">
        <ele>265</ele>
        <time>2019-05-19T21:40:07Z</time>
      </trkpt>
      <trkpt lat="46.5928" lon="5.47002">
        <ele>265</ele>
        <time>2019-05-19T21:40:09Z</time>
      </trkpt>
      <trkpt lat="46.59285" lon="5.46977">
        <ele>263</ele>
        <time>2019-05-19T21:40:12Z</time>
      </trkpt>
      <trkpt lat="46.59301" lon="5.46932">
        <ele>260</ele>
        <time>2019-05-19T21:40:18Z</time>
      </trkpt>
      <trkpt lat="46.59306" lon="5.46914">
        <ele>258</ele>
        <time>2019-05-19T21:40:21Z</time>
      </trkpt>
      <trkpt lat="46.5932" lon="5.46914">
        <ele>256</ele>
        <time>2019-05-19T21:40:23Z</time>
      </trkpt>
      <trkpt lat="46.59325" lon="5.46917">
        <ele>255</ele>
        <time>2019-05-19T21:40:24Z</time>
      </trkpt>
      <trkpt lat="46.5933" lon="5.46925">
        <ele>255</ele>
        <time>2019-05-19T21:40:25Z</time>
      </trkpt>
      <trkpt lat="46.59345" lon="5.46975">
        <ele>255</ele>
        <time>2019-05-19T21:40:32Z</time>
      </trkpt>
      <trkpt lat="46.59353" lon="5.46991">
        <ele>255</ele>
        <time>2019-05-19T21:40:35Z</time>
      </trkpt>
      <trkpt lat="46.59363" lon="5.47001">
        <ele>255</ele>
        <time>2019-05-19T21:40:37Z</time>
      </trkpt>
      <trkpt lat="46.59438" lon="5.4704">
        <ele>248</ele>
        <time>2019-05-19T21:40:51Z</time>
      </trkpt>
      <trkpt lat="46.59447" lon="5.47047">
        <ele>247</ele>
        <time>2019-05-19T21:40:53Z</time>
      </trkpt>
      <trkpt lat="46.59453" lon="5.47058">
        <ele>246</ele>
        <time>2019-05-19T21:40:54Z</time>
      </trkpt>
      <trkpt lat="46.59455" lon="5.47068">
        <ele>246</ele>
        <time>2019-05-19T21:40:56Z</time>
      </trkpt>
      <trkpt lat="46.59455" lon="5.47078">
        <ele>246</ele>
        <time>2019-05-19T21:40:57Z</time>
      </trkpt>
      <trkpt lat="46.59451" lon="5.47091">
        <ele>246</ele>
        <time>2019-05-19T21:40:59Z</time>
      </trkpt>
      <trkpt lat="46.59429" lon="5.47129">
        <ele>246</ele>
        <time>2019-05-19T21:41:05Z</time>
      </trkpt>
      <trkpt lat="46.59425" lon="5.47141">
        <ele>245</ele>
        <time>2019-05-19T21:41:06Z</time>
      </trkpt>
      <trkpt lat="46.59425" lon="5.47152">
        <ele>244</ele>
        <time>2019-05-19T21:41:08Z</time>
      </trkpt>
      <trkpt lat="46.59426" lon="5.47162">
        <ele>244</ele>
        <time>2019-05-19T21:41:09Z</time>
      </trkpt>
      <trkpt lat="46.59431" lon="5.47175">
        <ele>243</ele>
        <time>2019-05-19T21:41:11Z</time>
      </trkpt>
      <trkpt lat="46.59439" lon="5.47185">
        <ele>243</ele>
        <time>2019-05-19T21:41:13Z</time>
      </trkpt>
      <trkpt lat="46.59495" lon="5.47238">
        <ele>239</ele>
        <time>2019-05-19T21:41:24Z</time>
      </trkpt>
      <trkpt lat="46.5951" lon="5.47248">
        <ele>239</ele>
        <time>2019-05-19T21:41:27Z</time>
      </trkpt>
      <trkpt lat="46.59522" lon="5.47251">
        <ele>238</ele>
        <time>2019-05-19T21:41:30Z</time>
      </trkpt>
      <trkpt lat="46.5957" lon="5.47251">
        <ele>237</ele>
        <time>2019-05-19T21:41:38Z</time>
      </trkpt>
      <trkpt lat="46.59573" lon="5.4729">
        <ele>236</ele>
        <time>2019-05-19T21:41:43Z</time>
      </trkpt>
      <trkpt lat="46.59572" lon="5.47331">
        <ele>234</ele>
        <time>2019-05-19T21:41:48Z</time>
      </trkpt>
      <trkpt lat="46.59575" lon="5.47339">
        <ele>234</ele>
        <time>2019-05-19T21:41:49Z</time>
      </trkpt>
      <trkpt lat="46.59594" lon="5.47366">
        <ele>232</ele>
        <time>2019-05-19T21:41:54Z</time>
      </trkpt>
      <trkpt lat="46.59616" lon="5.47403">
        <ele>229</ele>
        <time>2019-05-19T21:42:00Z</time>
      </trkpt>
      <trkpt lat="46.5962" lon="5.4742">
        <ele>229</ele>
        <time>2019-05-19T21:42:02Z</time>
      </trkpt>
      <trkpt lat="46.59623" lon="5.47445">
        <ele>228</ele>
        <time>2019-05-19T21:42:05Z</time>
      </trkpt>
      <trkpt lat="46.59622" lon="5.47471">
        <ele>227</ele>
        <time>2019-05-19T21:42:08Z</time>
      </trkpt>
      <trkpt lat="46.59617" lon="5.47508">
        <ele>226</ele>
        <time>2019-05-19T21:42:13Z</time>
      </trkpt>
      <trkpt lat="46.59617" lon="5.47522">
        <ele>226</ele>
        <time>2019-05-19T21:42:15Z</time>
      </trkpt>
      <trkpt lat="46.59618" lon="5.47535">
        <ele>225</ele>
        <time>2019-05-19T21:42:16Z</time>
      </trkpt>
      <trkpt lat="46.59622" lon="5.47546">
        <ele>225</ele>
        <time>2019-05-19T21:42:18Z</time>
      </trkpt>
      <trkpt lat="46.59649" lon="5.47582">
        <ele>222</ele>
        <time>2019-05-19T21:42:24Z</time>
      </trkpt>
      <trkpt lat="46.59656" lon="5.47594">
        <ele>221</ele>
        <time>2019-05-19T21:42:26Z</time>
      </trkpt>
      <trkpt lat="46.59662" lon="5.47619">
        <ele>220</ele>
        <time>2019-05-19T21:42:29Z</time>
      </trkpt>
      <trkpt lat="46.59663" lon="5.47634">
        <ele>219</ele>
        <time>2019-05-19T21:42:31Z</time>
      </trkpt>
      <trkpt lat="46.59658" lon="5.47672">
        <ele>218</ele>
        <time>2019-05-19T21:42:36Z</time>
      </trkpt>
      <trkpt lat="46.59659" lon="5.47682">
        <ele>219</ele>
        <time>2019-05-19T21:42:37Z</time>
      </trkpt>
      <trkpt lat="46.597" lon="5.47753">
        <ele>219</ele>
        <time>2019-05-19T21:42:49Z</time>
      </trkpt>
      <trkpt lat="46.59705" lon="5.47774">
        <ele>219</ele>
        <time>2019-05-19T21:42:51Z</time>
      </trkpt>
      <trkpt lat="46.59709" lon="5.47818">
        <ele>218</ele>
        <time>2019-05-19T21:42:57Z</time>
      </trkpt>
      <trkpt lat="46.59717" lon="5.47866">
        <ele>218</ele>
        <time>2019-05-19T21:43:03Z</time>
      </trkpt>
      <trkpt lat="46.59741" lon="5.47986">
        <ele>220</ele>
        <time>2019-05-19T21:43:18Z</time>
      </trkpt>
      <trkpt lat="46.59746" lon="5.48002">
        <ele>220</ele>
        <time>2019-05-19T21:43:20Z</time>
      </trkpt>
      <trkpt lat="46.59753" lon="5.48016">
        <ele>220</ele>
        <time>2019-05-19T21:43:22Z</time>
      </trkpt>
      <trkpt lat="46.59744" lon="5.4803">
        <ele>220</ele>
        <time>2019-05-19T21:43:25Z</time>
      </trkpt>
      <trkpt lat="46.59737" lon="5.48052">
        <ele>220</ele>
        <time>2019-05-19T21:43:28Z</time>
      </trkpt>
      <trkpt lat="46.59732" lon="5.48073">
        <ele>221</ele>
        <time>2019-05-19T21:43:30Z</time>
      </trkpt>
      <trkpt lat="46.59723" lon="5.48162">
        <ele>223</ele>
        <time>2019-05-19T21:43:41Z</time>
      </trkpt>
      <trkpt lat="46.59727" lon="5.48206">
        <ele>223</ele>
        <time>2019-05-19T21:43:47Z</time>
      </trkpt>
      <trkpt lat="46.59731" lon="5.48286">
        <ele>223</ele>
        <time>2019-05-19T21:43:57Z</time>
      </trkpt>
      <trkpt lat="46.59736" lon="5.48326">
        <ele>223</ele>
        <time>2019-05-19T21:44:01Z</time>
      </trkpt>
      <trkpt lat="46.59745" lon="5.48368">
        <ele>223</ele>
        <time>2019-05-19T21:44:07Z</time>
      </trkpt>
      <trkpt lat="46.59762" lon="5.48434">
        <ele>222</ele>
        <time>2019-05-19T21:44:15Z</time>
      </trkpt>
      <trkpt lat="46.59775" lon="5.4852">
        <ele>223</ele>
        <time>2019-05-19T21:44:26Z</time>
      </trkpt>
      <trkpt lat="46.59775" lon="5.48576">
        <ele>225</ele>
        <time>2019-05-19T21:44:33Z</time>
      </trkpt>
      <trkpt lat="46.59796" lon="5.48653">
        <ele>227</ele>
        <time>2019-05-19T21:44:43Z</time>
      </trkpt>
      <trkpt lat="46.59801" lon="5.48663">
        <ele>227</ele>
        <time>2019-05-19T21:44:45Z</time>
      </trkpt>
      <trkpt lat="46.59808" lon="5.48667">
        <ele>226</ele>
        <time>2019-05-19T21:44:46Z</time>
      </trkpt>
      <trkpt lat="46.59824" lon="5.48653">
        <ele>224</ele>
        <time>2019-05-19T21:44:49Z</time>
      </trkpt>
      <trkpt lat="46.59835" lon="5.48648">
        <ele>223</ele>
        <time>2019-05-19T21:44:51Z</time>
      </trkpt>
      <trkpt lat="46.59863" lon="5.48639">
        <ele>222</ele>
        <time>2019-05-19T21:44:57Z</time>
      </trkpt>
      <trkpt lat="46.59875" lon="5.4864">
        <ele>222</ele>
        <time>2019-05-19T21:44:59Z</time>
      </trkpt>
      <trkpt lat="46.59912" lon="5.48648">
        <ele>222</ele>
        <time>2019-05-19T21:45:05Z</time>
      </trkpt>
      <trkpt lat="46.59927" lon="5.4865">
        <ele>224</ele>
        <time>2019-05-19T21:45:08Z</time>
      </trkpt>
      <trkpt lat="46.59929" lon="5.48676">
        <ele>224</ele>
        <time>2019-05-19T21:45:11Z</time>
      </trkpt>
      <trkpt lat="46.59924" lon="5.48721">
        <ele>224</ele>
        <time>2019-05-19T21:45:17Z</time>
      </trkpt>
      <trkpt lat="46.59923" lon="5.48765">
        <ele>225</ele>
        <time>2019-05-19T21:45:22Z</time>
      </trkpt>
      <trkpt lat="46.59921" lon="5.48781">
        <ele>227</ele>
        <time>2019-05-19T21:45:24Z</time>
      </trkpt>
      <trkpt lat="46.59887" lon="5.48893">
        <ele>238</ele>
        <time>2019-05-19T21:45:39Z</time>
      </trkpt>
      <trkpt lat="46.5987" lon="5.4899">
        <ele>242</ele>
        <time>2019-05-19T21:45:51Z</time>
      </trkpt>
      <trkpt lat="46.59868" lon="5.49026">
        <ele>242</ele>
        <time>2019-05-19T21:45:56Z</time>
      </trkpt>
      <trkpt lat="46.59871" lon="5.49065">
        <ele>242</ele>
        <time>2019-05-19T21:46:01Z</time>
      </trkpt>
      <trkpt lat="46.59875" lon="5.49096">
        <ele>242</ele>
        <time>2019-05-19T21:46:04Z</time>
      </trkpt>
      <trkpt lat="46.59889" lon="5.49182">
        <ele>241</ele>
        <time>2019-05-19T21:46:15Z</time>
      </trkpt>
      <trkpt lat="46.59899" lon="5.49221">
        <ele>240</ele>
        <time>2019-05-19T21:46:20Z</time>
      </trkpt>
      <trkpt lat="46.59901" lon="5.4925">
        <ele>240</ele>
        <time>2019-05-19T21:46:24Z</time>
      </trkpt>
      <trkpt lat="46.59898" lon="5.49289">
        <ele>239</ele>
        <time>2019-05-19T21:46:29Z</time>
      </trkpt>
      <trkpt lat="46.59897" lon="5.49309">
        <ele>239</ele>
        <time>2019-05-19T21:46:31Z</time>
      </trkpt>
      <trkpt lat="46.59899" lon="5.49322">
        <ele>239</ele>
        <time>2019-05-19T21:46:33Z</time>
      </trkpt>
      <trkpt lat="46.59913" lon="5.49372">
        <ele>235</ele>
        <time>2019-05-19T21:46:39Z</time>
      </trkpt>
      <trkpt lat="46.59923" lon="5.4942">
        <ele>233</ele>
        <time>2019-05-19T21:46:45Z</time>
      </trkpt>
      <trkpt lat="46.59921" lon="5.49474">
        <ele>232</ele>
        <time>2019-05-19T21:46:52Z</time>
      </trkpt>
      <trkpt lat="46.59922" lon="5.49495">
        <ele>232</ele>
        <time>2019-05-19T21:46:55Z</time>
      </trkpt>
      <trkpt lat="46.5993" lon="5.49534">
        <ele>234</ele>
        <time>2019-05-19T21:47:00Z</time>
      </trkpt>
      <trkpt lat="46.59939" lon="5.4956">
        <ele>234</ele>
        <time>2019-05-19T21:47:03Z</time>
      </trkpt>
      <trkpt lat="46.59942" lon="5.49574">
        <ele>235</ele>
        <time>2019-05-19T21:47:05Z</time>
      </trkpt>
      <trkpt lat="46.59947" lon="5.49638">
        <ele>234</ele>
        <time>2019-05-19T21:47:13Z</time>
      </trkpt>
      <trkpt lat="46.59946" lon="5.49731">
        <ele>236</ele>
        <time>2019-05-19T21:47:24Z</time>
      </trkpt>
      <trkpt lat="46.59942" lon="5.49779">
        <ele>237</ele>
        <time>2019-05-19T21:47:30Z</time>
      </trkpt>
      <trkpt lat="46.59927" lon="5.49855">
        <ele>237</ele>
        <time>2019-05-19T21:47:40Z</time>
      </trkpt>
      <trkpt lat="46.59922" lon="5.49888">
        <ele>238</ele>
        <time>2019-05-19T21:47:44Z</time>
      </trkpt>
      <trkpt lat="46.59919" lon="5.49927">
        <ele>239</ele>
        <time>2019-05-19T21:47:49Z</time>
      </trkpt>
      <trkpt lat="46.59918" lon="5.49964">
        <ele>239</ele>
        <time>2019-05-19T21:47:53Z</time>
      </trkpt>
      <trkpt lat="46.5992" lon="5.49977">
        <ele>240</ele>
        <time>2019-05-19T21:47:55Z</time>
      </trkpt>
      <trkpt lat="46.59916" lon="5.50004">
        <ele>240</ele>
        <time>2019-05-19T21:47:58Z</time>
      </trkpt>
      <trkpt lat="46.59912" lon="5.50014">
        <ele>241</ele>
        <time>2019-05-19T21:48:00Z</time>
      </trkpt>
      <trkpt lat="46.59891" lon="5.50054">
        <ele>242</ele>
        <time>2019-05-19T21:48:06Z</time>
      </trkpt>
      <trkpt lat="46.59866" lon="5.50108">
        <ele>246</ele>
        <time>2019-05-19T21:48:14Z</time>
      </trkpt>
      <trkpt lat="46.59855" lon="5.50124">
        <ele>248</ele>
        <time>2019-05-19T21:48:17Z</time>
      </trkpt>
      <trkpt lat="46.59839" lon="5.50141">
        <ele>249</ele>
        <time>2019-05-19T21:48:20Z</time>
      </trkpt>
      <trkpt lat="46.59826" lon="5.5016">
        <ele>250</ele>
        <time>2019-05-19T21:48:23Z</time>
      </trkpt>
      <trkpt lat="46.59814" lon="5.50173">
        <ele>252</ele>
        <time>2019-05-19T21:48:26Z</time>
      </trkpt>
      <trkpt lat="46.59784" lon="5.50204">
        <ele>254</ele>
        <time>2019-05-19T21:48:33Z</time>
      </trkpt>
      <trkpt lat="46.59771" lon="5.50211">
        <ele>254</ele>
        <time>2019-05-19T21:48:35Z</time>
      </trkpt>
      <trkpt lat="46.59751" lon="5.50216">
        <ele>252</ele>
        <time>2019-05-19T21:48:39Z</time>
      </trkpt>
      <trkpt lat="46.59729" lon="5.50224">
        <ele>251</ele>
        <time>2019-05-19T21:48:43Z</time>
      </trkpt>
      <trkpt lat="46.59688" lon="5.50246">
        <ele>251</ele>
        <time>2019-05-19T21:48:50Z</time>
      </trkpt>
      <trkpt lat="46.59683" lon="5.50252">
        <ele>251</ele>
        <time>2019-05-19T21:48:52Z</time>
      </trkpt>
      <trkpt lat="46.59681" lon="5.50262">
        <ele>252</ele>
        <time>2019-05-19T21:48:53Z</time>
      </trkpt>
      <trkpt lat="46.59682" lon="5.50276">
        <ele>253</ele>
        <time>2019-05-19T21:48:55Z</time>
      </trkpt>
      <trkpt lat="46.59687" lon="5.50291">
        <ele>255</ele>
        <time>2019-05-19T21:48:57Z</time>
      </trkpt>
      <trkpt lat="46.59692" lon="5.50297">
        <ele>257</ele>
        <time>2019-05-19T21:48:58Z</time>
      </trkpt>
      <trkpt lat="46.59696" lon="5.50299">
        <ele>257</ele>
        <time>2019-05-19T21:48:59Z</time>
      </trkpt>
      <trkpt lat="46.59706" lon="5.50298">
        <ele>258</ele>
        <time>2019-05-19T21:49:00Z</time>
      </trkpt>
      <trkpt lat="46.59728" lon="5.50285">
        <ele>259</ele>
        <time>2019-05-19T21:49:05Z</time>
      </trkpt>
      <trkpt lat="46.59796" lon="5.50237">
        <ele>262</ele>
        <time>2019-05-19T21:49:18Z</time>
      </trkpt>
      <trkpt lat="46.59845" lon="5.50206">
        <ele>263</ele>
        <time>2019-05-19T21:49:28Z</time>
      </trkpt>
      <trkpt lat="46.5987" lon="5.50196">
        <ele>264</ele>
        <time>2019-05-19T21:49:32Z</time>
      </trkpt>
      <trkpt lat="46.59905" lon="5.50188">
        <ele>267</ele>
        <time>2019-05-19T21:49:38Z</time>
      </trkpt>
      <trkpt lat="46.59951" lon="5.50185">
        <ele>266</ele>
        <time>2019-05-19T21:49:47Z</time>
      </trkpt>
      <trkpt lat="46.59959" lon="5.50188">
        <ele>266</ele>
        <time>2019-05-19T21:49:48Z</time>
      </trkpt>
      <trkpt lat="46.59966" lon="5.50194">
        <ele>267</ele>
        <time>2019-05-19T21:49:50Z</time>
      </trkpt>
      <trkpt lat="46.59971" lon="5.50207">
        <ele>270</ele>
        <time>2019-05-19T21:49:51Z</time>
      </trkpt>
      <trkpt lat="46.59979" lon="5.50233">
        <ele>275</ele>
        <time>2019-05-19T21:49:55Z</time>
      </trkpt>
      <trkpt lat="46.59984" lon="5.50246">
        <ele>277</ele>
        <time>2019-05-19T21:49:57Z</time>
      </trkpt>
      <trkpt lat="46.59998" lon="5.50262">
        <ele>281</ele>
        <time>2019-05-19T21:50:00Z</time>
      </trkpt>
      <trkpt lat="46.60021" lon="5.5028">
        <ele>286</ele>
        <time>2019-05-19T21:50:05Z</time>
      </trkpt>
      <trkpt lat="46.60045" lon="5.50288">
        <ele>287</ele>
        <time>2019-05-19T21:50:09Z</time>
      </trkpt>
      <trkpt lat="46.60086" lon="5.50289">
        <ele>282</ele>
        <time>2019-05-19T21:50:16Z</time>
      </trkpt>
      <trkpt lat="46.60097" lon="5.50292">
        <ele>283</ele>
        <time>2019-05-19T21:50:18Z</time>
      </trkpt>
      <trkpt lat="46.6011" lon="5.50298">
        <ele>284</ele>
        <time>2019-05-19T21:50:21Z</time>
      </trkpt>
      <trkpt lat="46.60194" lon="5.50352">
        <ele>295</ele>
        <time>2019-05-19T21:50:37Z</time>
      </trkpt>
      <trkpt lat="46.60208" lon="5.50357">
        <ele>296</ele>
        <time>2019-05-19T21:50:40Z</time>
      </trkpt>
      <trkpt lat="46.60267" lon="5.50361">
        <ele>295</ele>
        <time>2019-05-19T21:50:50Z</time>
      </trkpt>
      <trkpt lat="46.60287" lon="5.50375">
        <ele>297</ele>
        <time>2019-05-19T21:50:54Z</time>
      </trkpt>
      <trkpt lat="46.6034" lon="5.50434">
        <ele>300</ele>
        <time>2019-05-19T21:51:06Z</time>
      </trkpt>
      <trkpt lat="46.60346" lon="5.50444">
        <ele>301</ele>
        <time>2019-05-19T21:51:07Z</time>
      </trkpt>
      <trkpt lat="46.60358" lon="5.50483">
        <ele>305</ele>
        <time>2019-05-19T21:51:13Z</time>
      </trkpt>
      <trkpt lat="46.60367" lon="5.50507">
        <ele>306</ele>
        <time>2019-05-19T21:51:16Z</time>
      </trkpt>
      <trkpt lat="46.60378" lon="5.50528">
        <ele>308</ele>
        <time>2019-05-19T21:51:19Z</time>
      </trkpt>
      <trkpt lat="46.60392" lon="5.50549">
        <ele>309</ele>
        <time>2019-05-19T21:51:23Z</time>
      </trkpt>
      <trkpt lat="46.60405" lon="5.50565">
        <ele>309</ele>
        <time>2019-05-19T21:51:26Z</time>
      </trkpt>
      <trkpt lat="46.60435" lon="5.50593">
        <ele>310</ele>
        <time>2019-05-19T21:51:32Z</time>
      </trkpt>
      <trkpt lat="46.60491" lon="5.50634">
        <ele>314</ele>
        <time>2019-05-19T21:51:43Z</time>
      </trkpt>
      <trkpt lat="46.60508" lon="5.50642">
        <ele>315</ele>
        <time>2019-05-19T21:51:47Z</time>
      </trkpt>
      <trkpt lat="46.60552" lon="5.50653">
        <ele>318</ele>
        <time>2019-05-19T21:51:54Z</time>
      </trkpt>
      <trkpt lat="46.60563" lon="5.50652">
        <ele>318</ele>
        <time>2019-05-19T21:51:56Z</time>
      </trkpt>
      <trkpt lat="46.60587" lon="5.50643">
        <ele>318</ele>
        <time>2019-05-19T21:52:01Z</time>
      </trkpt>
      <trkpt lat="46.60611" lon="5.50638">
        <ele>319</ele>
        <time>2019-05-19T21:52:05Z</time>
      </trkpt>
      <trkpt lat="46.60626" lon="5.50639">
        <ele>320</ele>
        <time>2019-05-19T21:52:08Z</time>
      </trkpt>
      <trkpt lat="46.60707" lon="5.5065">
        <ele>325</ele>
        <time>2019-05-19T21:52:22Z</time>
      </trkpt>
      <trkpt lat="46.60754" lon="5.50643">
        <ele>325</ele>
        <time>2019-05-19T21:52:31Z</time>
      </trkpt>
      <trkpt lat="46.60769" lon="5.50645">
        <ele>325</ele>
        <time>2019-05-19T21:52:33Z</time>
      </trkpt>
      <trkpt lat="46.60781" lon="5.50651">
        <ele>326</ele>
        <time>2019-05-19T21:52:36Z</time>
      </trkpt>
      <trkpt lat="46.60804" lon="5.5067">
        <ele>327</ele>
        <time>2019-05-19T21:52:40Z</time>
      </trkpt>
      <trkpt lat="46.60817" lon="5.50684">
        <ele>329</ele>
        <time>2019-05-19T21:52:43Z</time>
      </trkpt>
      <trkpt lat="46.60821" lon="5.50693">
        <ele>331</ele>
        <time>2019-05-19T21:52:45Z</time>
      </trkpt>
      <trkpt lat="46.60821" lon="5.50703">
        <ele>332</ele>
        <time>2019-05-19T21:52:46Z</time>
      </trkpt>
      <trkpt lat="46.60818" lon="5.50712">
        <ele>333</ele>
        <time>2019-05-19T21:52:47Z</time>
      </trkpt>
      <trkpt lat="46.60812" lon="5.50717">
        <ele>334</ele>
        <time>2019-05-19T21:52:48Z</time>
      </trkpt>
      <trkpt lat="46.60738" lon="5.50714">
        <ele>334</ele>
        <time>2019-05-19T21:53:01Z</time>
      </trkpt>
      <trkpt lat="46.60727" lon="5.50717">
        <ele>335</ele>
        <time>2019-05-19T21:53:03Z</time>
      </trkpt>
      <trkpt lat="46.6071" lon="5.50725">
        <ele>336</ele>
        <time>2019-05-19T21:53:07Z</time>
      </trkpt>
      <trkpt lat="46.60664" lon="5.50752">
        <ele>339</ele>
        <time>2019-05-19T21:53:15Z</time>
      </trkpt>
      <trkpt lat="46.60643" lon="5.50762">
        <ele>341</ele>
        <time>2019-05-19T21:53:19Z</time>
      </trkpt>
      <trkpt lat="46.60628" lon="5.50766">
        <ele>342</ele>
        <time>2019-05-19T21:53:22Z</time>
      </trkpt>
      <trkpt lat="46.60529" lon="5.50774">
        <ele>346</ele>
        <time>2019-05-19T21:53:40Z</time>
      </trkpt>
      <trkpt lat="46.60492" lon="5.50772">
        <ele>347</ele>
        <time>2019-05-19T21:53:46Z</time>
      </trkpt>
      <trkpt lat="46.60419" lon="5.50758">
        <ele>348</ele>
        <time>2019-05-19T21:53:59Z</time>
      </trkpt>
      <trkpt lat="46.60359" lon="5.50735">
        <ele>351</ele>
        <time>2019-05-19T21:54:10Z</time>
      </trkpt>
      <trkpt lat="46.60338" lon="5.50729">
        <ele>353</ele>
        <time>2019-05-19T21:54:14Z</time>
      </trkpt>
      <trkpt lat="46.60316" lon="5.50725">
        <ele>355</ele>
        <time>2019-05-19T21:54:18Z</time>
      </trkpt>
      <trkpt lat="46.60245" lon="5.50728">
        <ele>366</ele>
        <time>2019-05-19T21:54:31Z</time>
      </trkpt>
      <trkpt lat="46.60225" lon="5.50726">
        <ele>369</ele>
        <time>2019-05-19T21:54:34Z</time>
      </trkpt>
      <trkpt lat="46.60145" lon="5.50686">
        <ele>376</ele>
        <time>2019-05-19T21:54:49Z</time>
      </trkpt>
      <trkpt lat="46.60116" lon="5.50668">
        <ele>377</ele>
        <time>2019-05-19T21:54:55Z</time>
      </trkpt>
      <trkpt lat="46.60066" lon="5.50622">
        <ele>375</ele>
        <time>2019-05-19T21:55:06Z</time>
      </trkpt>
      <trkpt lat="46.60011" lon="5.50566">
        <ele>373</ele>
        <time>2019-05-19T21:55:17Z</time>
      </trkpt>
      <trkpt lat="46.59997" lon="5.50553">
        <ele>371</ele>
        <time>2019-05-19T21:55:20Z</time>
      </trkpt>
      <trkpt lat="46.59964" lon="5.5054">
        <ele>365</ele>
        <time>2019-05-19T21:55:27Z</time>
      </trkpt>
      <trkpt lat="46.59953" lon="5.50539">
        <ele>364</ele>
        <time>2019-05-19T21:55:28Z</time>
      </trkpt>
      <trkpt lat="46.59942" lon="5.50543">
        <ele>363</ele>
        <time>2019-05-19T21:55:31Z</time>
      </trkpt>
      <trkpt lat="46.59935" lon="5.50553">
        <ele>364</ele>
        <time>2019-05-19T21:55:32Z</time>
      </trkpt>
      <trkpt lat="46.59931" lon="5.50564">
        <ele>365</ele>
        <time>2019-05-19T21:55:34Z</time>
      </trkpt>
      <trkpt lat="46.59931" lon="5.50574">
        <ele>367</ele>
        <time>2019-05-19T21:55:35Z</time>
      </trkpt>
      <trkpt lat="46.59933" lon="5.50584">
        <ele>368</ele>
        <time>2019-05-19T21:55:36Z</time>
      </trkpt>
      <trkpt lat="46.59937" lon="5.50589">
        <ele>370</ele>
        <time>2019-05-19T21:55:37Z</time>
      </trkpt>
      <trkpt lat="46.59945" lon="5.5059">
        <ele>371</ele>
        <time>2019-05-19T21:55:39Z</time>
      </trkpt>
      <trkpt lat="46.59967" lon="5.50578">
        <ele>372</ele>
        <time>2019-05-19T21:55:43Z</time>
      </trkpt>
      <trkpt lat="46.59983" lon="5.50577">
        <ele>374</ele>
        <time>2019-05-19T21:55:46Z</time>
      </trkpt>
      <trkpt lat="46.59988" lon="5.5058">
        <ele>376</ele>
        <time>2019-05-19T21:55:47Z</time>
      </trkpt>
      <trkpt lat="46.60012" lon="5.50606">
        <ele>381</ele>
        <time>2019-05-19T21:55:52Z</time>
      </trkpt>
      <trkpt lat="46.60031" lon="5.50623">
        <ele>381</ele>
        <time>2019-05-19T21:55:56Z</time>
      </trkpt>
      <trkpt lat="46.60035" lon="5.50632">
        <ele>383</ele>
        <time>2019-05-19T21:55:57Z</time>
      </trkpt>
      <trkpt lat="46.60036" lon="5.50643">
        <ele>385</ele>
        <time>2019-05-19T21:55:59Z</time>
      </trkpt>
      <trkpt lat="46.60033" lon="5.50649">
        <ele>387</ele>
        <time>2019-05-19T21:55:59Z</time>
      </trkpt>
      <trkpt lat="46.60028" lon="5.50652">
        <ele>388</ele>
        <time>2019-05-19T21:56:00Z</time>
      </trkpt>
      <trkpt lat="46.60022" lon="5.50652">
        <ele>389</ele>
        <time>2019-05-19T21:56:02Z</time>
      </trkpt>
      <trkpt lat="46.60016" lon="5.50647">
        <ele>389</ele>
        <time>2019-05-19T21:56:03Z</time>
      </trkpt>
      <trkpt lat="46.59994" lon="5.50616">
        <ele>384</ele>
        <time>2019-05-19T21:56:08Z</time>
      </trkpt>
      <trkpt lat="46.59985" lon="5.50609">
        <ele>381</ele>
        <time>2019-05-19T21:56:10Z</time>
      </trkpt>
      <trkpt lat="46.59973" lon="5.50605">
        <ele>378</ele>
        <time>2019-05-19T21:56:12Z</time>
      </trkpt>
      <trkpt lat="46.59966" lon="5.50605">
        <ele>377</ele>
        <time>2019-05-19T21:56:13Z</time>
      </trkpt>
      <trkpt lat="46.59958" lon="5.50611">
        <ele>376</ele>
        <time>2019-05-19T21:56:15Z</time>
      </trkpt>
      <trkpt lat="46.59952" lon="5.50624">
        <ele>377</ele>
        <time>2019-05-19T21:56:17Z</time>
      </trkpt>
      <trkpt lat="46.59942" lon="5.50687">
        <ele>386</ele>
        <time>2019-05-19T21:56:25Z</time>
      </trkpt>
      <trkpt lat="46.59937" lon="5.50709">
        <ele>390</ele>
        <time>2019-05-19T21:56:28Z</time>
      </trkpt>
      <trkpt lat="46.59919" lon="5.50749">
        <ele>394</ele>
        <time>2019-05-19T21:56:34Z</time>
      </trkpt>
      <trkpt lat="46.59888" lon="5.50813">
        <ele>392</ele>
        <time>2019-05-19T21:56:43Z</time>
      </trkpt>
      <trkpt lat="46.59882" lon="5.50833">
        <ele>393</ele>
        <time>2019-05-19T21:56:46Z</time>
      </trkpt>
      <trkpt lat="46.5988" lon="5.50861">
        <ele>395</ele>
        <time>2019-05-19T21:56:49Z</time>
      </trkpt>
      <trkpt lat="46.59882" lon="5.50872">
        <ele>396</ele>
        <time>2019-05-19T21:56:51Z</time>
      </trkpt>
      <trkpt lat="46.59888" lon="5.50884">
        <ele>400</ele>
        <time>2019-05-19T21:56:52Z</time>
      </trkpt>
      <trkpt lat="46.5991" lon="5.50906">
        <ele>409</ele>
        <time>2019-05-19T21:56:57Z</time>
      </trkpt>
      <trkpt lat="46.59917" lon="5.5092">
        <ele>412</ele>
        <time>2019-05-19T21:56:59Z</time>
      </trkpt>
      <trkpt lat="46.59921" lon="5.50938">
        <ele>415</ele>
        <time>2019-05-19T21:57:02Z</time>
      </trkpt>
      <trkpt lat="46.59921" lon="5.50953">
        <ele>416</ele>
        <time>2019-05-19T21:57:03Z</time>
      </trkpt>
      <trkpt lat="46.59917" lon="5.50977">
        <ele>416</ele>
        <time>2019-05-19T21:57:06Z</time>
      </trkpt>
      <trkpt lat="46.59905" lon="5.51012">
        <ele>419</ele>
        <time>2019-05-19T21:57:11Z</time>
      </trkpt>
      <trkpt lat="46.5989" lon="5.51031">
        <ele>423</ele>
        <time>2019-05-19T21:57:15Z</time>
      </trkpt>
      <trkpt lat="46.59858" lon="5.51046">
        <ele>423</ele>
        <time>2019-05-19T21:57:21Z</time>
      </trkpt>
      <trkpt lat="46.59792" lon="5.51066">
        <ele>432</ele>
        <time>2019-05-19T21:57:33Z</time>
      </trkpt>
      <trkpt lat="46.59767" lon="5.51065">
        <ele>434</ele>
        <time>2019-05-19T21:57:37Z</time>
      </trkpt>
      <trkpt lat="46.59712" lon="5.51036">
        <ele>430</ele>
        <time>2019-05-19T21:57:48Z</time>
      </trkpt>
      <trkpt lat="46.59649" lon="5.51018">
        <ele>433</ele>
        <time>2019-05-19T21:57:59Z</time>
      </trkpt>
      <trkpt lat="46.59592" lon="5.50997">
        <ele>435</ele>
        <time>2019-05-19T21:58:10Z</time>
      </trkpt>
      <trkpt lat="46.59568" lon="5.50991">
        <ele>435</ele>
        <time>2019-05-19T21:58:14Z</time>
      </trkpt>
      <trkpt lat="46.5951" lon="5.50988">
        <ele>436</ele>
        <time>2019-05-19T21:58:24Z</time>
      </trkpt>
      <trkpt lat="46.5949" lon="5.50991">
        <ele>436</ele>
        <time>2019-05-19T21:58:28Z</time>
      </trkpt>
      <trkpt lat="46.59474" lon="5.50996">
        <ele>434</ele>
        <time>2019-05-19T21:58:31Z</time>
      </trkpt>
      <trkpt lat="46.59456" lon="5.51009">
        <ele>433</ele>
        <time>2019-05-19T21:58:34Z</time>
      </trkpt>
      <trkpt lat="46.59446" lon="5.51018">
        <ele>433</ele>
        <time>2019-05-19T21:58:36Z</time>
      </trkpt>
      <trkpt lat="46.59436" lon="5.51033">
        <ele>434</ele>
        <time>2019-05-19T21:58:39Z</time>
      </trkpt>
      <trkpt lat="46.5943" lon="5.5105">
        <ele>436</ele>
        <time>2019-05-19T21:58:41Z</time>
      </trkpt>
      <trkpt lat="46.5942" lon="5.511">
        <ele>441</ele>
        <time>2019-05-19T21:58:48Z</time>
      </trkpt>
      <trkpt lat="46.59417" lon="5.51133">
        <ele>443</ele>
        <time>2019-05-19T21:58:52Z</time>
      </trkpt>
      <trkpt lat="46.59429" lon="5.51193">
        <ele>448</ele>
        <time>2019-05-19T21:58:59Z</time>
      </trkpt>
      <trkpt lat="46.59427" lon="5.5122">
        <ele>448</ele>
        <time>2019-05-19T21:59:03Z</time>
      </trkpt>
      <trkpt lat="46.59422" lon="5.51246">
        <ele>448</ele>
        <time>2019-05-19T21:59:06Z</time>
      </trkpt>
      <trkpt lat="46.59421" lon="5.51258">
        <ele>449</ele>
        <time>2019-05-19T21:59:07Z</time>
      </trkpt>
      <trkpt lat="46.59423" lon="5.51268">
        <ele>449</ele>
        <time>2019-05-19T21:59:09Z</time>
      </trkpt>
      <trkpt lat="46.59426" lon="5.51276">
        <ele>449</ele>
        <time>2019-05-19T21:59:10Z</time>
      </trkpt>
      <trkpt lat="46.59456" lon="5.51315">
        <ele>451</ele>
        <time>2019-05-19T21:59:17Z</time>
      </trkpt>
      <trkpt lat="46.59475" lon="5.51347">
        <ele>452</ele>
        <time>2019-05-19T21:59:22Z</time>
      </trkpt>
      <trkpt lat="46.59489" lon="5.51363">
        <ele>453</ele>
        <time>2019-05-19T21:59:25Z</time>
      </trkpt>
      <trkpt lat="46.59515" lon="5.5138">
        <ele>453</ele>
        <time>2019-05-19T21:59:30Z</time>
      </trkpt>
      <trkpt lat="46.5955" lon="5.51391">
        <ele>453</ele>
        <time>2019-05-19T21:59:37Z</time>
      </trkpt>
      <trkpt lat="46.59592" lon="5.51395">
        <ele>452</ele>
        <time>2019-05-19T21:59:44Z</time>
      </trkpt>
      <trkpt lat="46.59599" lon="5.51397">
        <ele>452</ele>
        <time>2019-05-19T21:59:45Z</time>
      </trkpt>
      <trkpt lat="46.59619" lon="5.51411">
        <ele>453</ele>
        <time>2019-05-19T21:59:49Z</time>
      </trkpt>
      <trkpt lat="46.5964" lon="5.5143">
        <ele>454</ele>
        <time>2019-05-19T21:59:54Z</time>
      </trkpt>
      <trkpt lat="46.59677" lon="5.51453">
        <ele>455</ele>
        <time>2019-05-19T22:00:01Z</time>
      </trkpt>
      <trkpt lat="46.59724" lon="5.51475">
        <ele>457</ele>
        <time>2019-05-19T22:00:10Z</time>
      </trkpt>
      <trkpt lat="46.59754" lon="5.51486">
        <ele>457</ele>
        <time>2019-05-19T22:00:15Z</time>
      </trkpt>
      <trkpt lat="46.59764" lon="5.51486">
        <ele>457</ele>
        <time>2019-05-19T22:00:17Z</time>
      </trkpt>
      <trkpt lat="46.59774" lon="5.5148">
        <ele>457</ele>
        <time>2019-05-19T22:00:19Z</time>
      </trkpt>
      <trkpt lat="46.59794" lon="5.51459">
        <ele>457</ele>
        <time>2019-05-19T22:00:23Z</time>
      </trkpt>
      <trkpt lat="46.59808" lon="5.51449">
        <ele>457</ele>
        <time>2019-05-19T22:00:26Z</time>
      </trkpt>
      <trkpt lat="46.59889" lon="5.5141">
        <ele>459</ele>
        <time>2019-05-19T22:00:41Z</time>
      </trkpt>
      <trkpt lat="46.59909" lon="5.51408">
        <ele>459</ele>
        <time>2019-05-19T22:00:45Z</time>
      </trkpt>
      <trkpt lat="46.59926" lon="5.51408">
        <ele>459</ele>
        <time>2019-05-19T22:00:48Z</time>
      </trkpt>
      <trkpt lat="46.59936" lon="5.51411">
        <ele>459</ele>
        <time>2019-05-19T22:00:50Z</time>
      </trkpt>
      <trkpt lat="46.59943" lon="5.51416">
        <ele>458</ele>
        <time>2019-05-19T22:00:51Z</time>
      </trkpt>
      <trkpt lat="46.59958" lon="5.51431">
        <ele>458</ele>
        <time>2019-05-19T22:00:54Z</time>
      </trkpt>
      <trkpt lat="46.59963" lon="5.51442">
        <ele>458</ele>
        <time>2019-05-19T22:00:56Z</time>
      </trkpt>
      <trkpt lat="46.59969" lon="5.51463">
        <ele>457</ele>
        <time>2019-05-19T22:00:59Z</time>
      </trkpt>
      <trkpt lat="46.59979" lon="5.51541">
        <ele>459</ele>
        <time>2019-05-19T22:01:08Z</time>
      </trkpt>
      <trkpt lat="46.59979" lon="5.51553">
        <ele>459</ele>
        <time>2019-05-19T22:01:10Z</time>
      </trkpt>
      <trkpt lat="46.59977" lon="5.51581">
        <ele>460</ele>
        <time>2019-05-19T22:01:13Z</time>
      </trkpt>
      <trkpt lat="46.59973" lon="5.51605">
        <ele>462</ele>
        <time>2019-05-19T22:01:16Z</time>
      </trkpt>
      <trkpt lat="46.59968" lon="5.5162">
        <ele>463</ele>
        <time>2019-05-19T22:01:18Z</time>
      </trkpt>
      <trkpt lat="46.59928" lon="5.51685">
        <ele>466</ele>
        <time>2019-05-19T22:01:29Z</time>
      </trkpt>
      <trkpt lat="46.5992" lon="5.51703">
        <ele>466</ele>
        <time>2019-05-19T22:01:32Z</time>
      </trkpt>
      <trkpt lat="46.59907" lon="5.51763">
        <ele>470</ele>
        <time>2019-05-19T22:01:39Z</time>
      </trkpt>
      <trkpt lat="46.59897" lon="5.51791">
        <ele>472</ele>
        <time>2019-05-19T22:01:43Z</time>
      </trkpt>
      <trkpt lat="46.59893" lon="5.51811">
        <ele>473</ele>
        <time>2019-05-19T22:01:46Z</time>
      </trkpt>
      <trkpt lat="46.59881" lon="5.51841">
        <ele>475</ele>
        <time>2019-05-19T22:01:50Z</time>
      </trkpt>
      <trkpt lat="46.59864" lon="5.51902">
        <ele>481</ele>
        <time>2019-05-19T22:01:58Z</time>
      </trkpt>
      <trkpt lat="46.59863" lon="5.51914">
        <ele>483</ele>
        <time>2019-05-19T22:02:00Z</time>
      </trkpt>
      <trkpt lat="46.59866" lon="5.51922">
        <ele>484</ele>
        <time>2019-05-19T22:02:01Z</time>
      </trkpt>
      <trkpt lat="46.59872" lon="5.51928">
        <ele>484</ele>
        <time>2019-05-19T22:02:02Z</time>
      </trkpt>
      <trkpt lat="46.59879" lon="5.51932">
        <ele>485</ele>
        <time>2019-05-19T22:02:03Z</time>
      </trkpt>
      <trkpt lat="46.59886" lon="5.51933">
        <ele>485</ele>
        <time>2019-05-19T22:02:05Z</time>
      </trkpt>
      <trkpt lat="46.59902" lon="5.51928">
        <ele>486</ele>
        <time>2019-05-19T22:02:07Z</time>
      </trkpt>
      <trkpt lat="46.59914" lon="5.51932">
        <ele>487</ele>
        <time>2019-05-19T22:02:10Z</time>
      </trkpt>
      <trkpt lat="46.59916" lon="5.51934">
        <ele>487</ele>
        <time>2019-05-19T22:02:10Z</time>
      </trkpt>
      <trkpt lat="46.59917" lon="5.5194">
        <ele>487</ele>
        <time>2019-05-19T22:02:11Z</time>
      </trkpt>
      <trkpt lat="46.59916" lon="5.51956">
        <ele>487</ele>
        <time>2019-05-19T22:02:13Z</time>
      </trkpt>
      <trkpt lat="46.59954" lon="5.51964">
        <ele>487</ele>
        <time>2019-05-19T22:02:20Z</time>
      </trkpt>
      <trkpt lat="46.60067" lon="5.51997">
        <ele>488</ele>
        <time>2019-05-19T22:02:40Z</time>
      </trkpt>
      <trkpt lat="46.60157" lon="5.52012">
        <ele>484</ele>
        <time>2019-05-19T22:02:56Z</time>
      </trkpt>
      <trkpt lat="46.60202" lon="5.5201">
        <ele>483</ele>
        <time>2019-05-19T22:03:04Z</time>
      </trkpt>
      <trkpt lat="46.60225" lon="5.52013">
        <ele>483</ele>
        <time>2019-05-19T22:03:08Z</time>
      </trkpt>
      <trkpt lat="46.6027" lon="5.52027">
        <ele>481</ele>
        <time>2019-05-19T22:03:17Z</time>
      </trkpt>
      <trkpt lat="46.60291" lon="5.52036">
        <ele>480</ele>
        <time>2019-05-19T22:03:20Z</time>
      </trkpt>
      <trkpt lat="46.60397" lon="5.52093">
        <ele>477</ele>
        <time>2019-05-19T22:03:41Z</time>
      </trkpt>
      <trkpt lat="46.60424" lon="5.5211">
        <ele>476</ele>
        <time>2019-05-19T22:03:46Z</time>
      </trkpt>
      <trkpt lat="46.60454" lon="5.52138">
        <ele>474</ele>
        <time>2019-05-19T22:03:52Z</time>
      </trkpt>
      <trkpt lat="46.60486" lon="5.5218">
        <ele>472</ele>
        <time>2019-05-19T22:04:00Z</time>
      </trkpt>
      <trkpt lat="46.605" lon="5.52195">
        <ele>472</ele>
        <time>2019-05-19T22:04:03Z</time>
      </trkpt>
      <trkpt lat="46.60527" lon="5.52216">
        <ele>470</ele>
        <time>2019-05-19T22:04:08Z</time>
      </trkpt>
      <trkpt lat="46.60551" lon="5.52231">
        <ele>468</ele>
        <time>2019-05-19T22:04:13Z</time>
      </trkpt>
      <trkpt lat="46.60572" lon="5.5224">
        <ele>467</ele>
        <time>2019-05-19T22:04:17Z</time>
      </trkpt>
      <trkpt lat="46.60655" lon="5.52247">
        <ele>463</ele>
        <time>2019-05-19T22:04:32Z</time>
      </trkpt>
      <trkpt lat="46.60675" lon="5.52254">
        <ele>462</ele>
        <time>2019-05-19T22:04:35Z</time>
      </trkpt>
      <trkpt lat="46.60698" lon="5.52266">
        <ele>462</ele>
        <time>2019-05-19T22:04:40Z</time>
      </trkpt>
      <trkpt lat="46.60715" lon="5.52281">
        <ele>462</ele>
        <time>2019-05-19T22:04:43Z</time>
      </trkpt>
      <trkpt lat="46.60804" lon="5.52376">
        <ele>458</ele>
        <time>2019-05-19T22:05:03Z</time>
      </trkpt>
      <trkpt lat="46.60829" lon="5.52399">
        <ele>457</ele>
        <time>2019-05-19T22:05:08Z</time>
      </trkpt>
      <trkpt lat="46.60852" lon="5.52417">
        <ele>457</ele>
        <time>2019-05-19T22:05:13Z</time>
      </trkpt>
      <trkpt lat="46.60927" lon="5.52469">
        <ele>454</ele>
        <time>2019-05-19T22:05:28Z</time>
      </trkpt>
      <trkpt lat="46.60973" lon="5.52496">
        <ele>452</ele>
        <time>2019-05-19T22:05:36Z</time>
      </trkpt>
      <trkpt lat="46.61169" lon="5.52594">
        <ele>453</ele>
        <time>2019-05-19T22:06:13Z</time>
      </trkpt>
      <trkpt lat="46.61194" lon="5.52608">
        <ele>451</ele>
        <time>2019-05-19T22:06:18Z</time>
      </trkpt>
      <trkpt lat="46.6124" lon="5.52648">
        <ele>449</ele>
        <time>2019-05-19T22:06:28Z</time>
      </trkpt>
      <trkpt lat="46.61327" lon="5.52731">
        <ele>445</ele>
        <time>2019-05-19T22:06:46Z</time>
      </trkpt>
      <trkpt lat="46.61377" lon="5.52772">
        <ele>444</ele>
        <time>2019-05-19T22:06:56Z</time>
      </trkpt>
      <trkpt lat="46.61396" lon="5.52784">
        <ele>444</ele>
        <time>2019-05-19T22:07:00Z</time>
      </trkpt>
      <trkpt lat="46.6142" lon="5.52794">
        <ele>444</ele>
        <time>2019-05-19T22:07:04Z</time>
      </trkpt>
      <trkpt lat="46.61527" lon="5.52827">
        <ele>444</ele>
        <time>2019-05-19T22:07:24Z</time>
      </trkpt>
      <trkpt lat="46.61573" lon="5.52835">
        <ele>444</ele>
        <time>2019-05-19T22:07:32Z</time>
      </trkpt>
      <trkpt lat="46.6169" lon="5.52848">
        <ele>443</ele>
        <time>2019-05-19T22:07:53Z</time>
      </trkpt>
      <trkpt lat="46.61717" lon="5.52848">
        <ele>444</ele>
        <time>2019-05-19T22:07:58Z</time>
      </trkpt>
      <trkpt lat="46.61911" lon="5.52814">
        <ele>442</ele>
        <time>2019-05-19T22:08:33Z</time>
      </trkpt>
      <trkpt lat="46.61952" lon="5.5281">
        <ele>442</ele>
        <time>2019-05-19T22:08:40Z</time>
      </trkpt>
      <trkpt lat="46.62165" lon="5.52804">
        <ele>438</ele>
        <time>2019-05-19T22:09:18Z</time>
      </trkpt>
      <trkpt lat="46.62213" lon="5.52804">
        <ele>437</ele>
        <time>2019-05-19T22:09:26Z</time>
      </trkpt>
      <trkpt lat="46.62246" lon="5.52807">
        <ele>437</ele>
        <time>2019-05-19T22:09:32Z</time>
      </trkpt>
      <trkpt lat="46.62283" lon="5.52818">
        <ele>436</ele>
        <time>2019-05-19T22:09:39Z</time>
      </trkpt>
      <trkpt lat="46.62319" lon="5.52832">
        <ele>436</ele>
        <time>2019-05-19T22:09:46Z</time>
      </trkpt>
      <trkpt lat="46.62366" lon="5.52856">
        <ele>434</ele>
        <time>2019-05-19T22:09:54Z</time>
      </trkpt>
      <trkpt lat="46.62459" lon="5.52912">
        <ele>436</ele>
        <time>2019-05-19T22:10:12Z</time>
      </trkpt>
      <trkpt lat="46.62488" lon="5.52926">
        <ele>437</ele>
        <time>2019-05-19T22:10:18Z</time>
      </trkpt>
      <trkpt lat="46.62538" lon="5.52944">
        <ele>440</ele>
        <time>2019-05-19T22:10:27Z</time>
      </trkpt>
      <trkpt lat="46.62708" lon="5.52994">
        <ele>440</ele>
        <time>2019-05-19T22:10:58Z</time>
      </trkpt>
      <trkpt lat="46.62753" lon="5.5301">
        <ele>436</ele>
        <time>2019-05-19T22:11:06Z</time>
      </trkpt>
      <trkpt lat="46.62779" lon="5.53025">
        <ele>436</ele>
        <time>2019-05-19T22:11:11Z</time>
      </trkpt>
      <trkpt lat="46.62796" lon="5.53044">
        <ele>435</ele>
        <time>2019-05-19T22:11:15Z</time>
      </trkpt>
      <trkpt lat="46.62803" lon="5.53055">
        <ele>435</ele>
        <time>2019-05-19T22:11:17Z</time>
      </trkpt>
      <trkpt lat="46.62816" lon="5.53082">
        <ele>433</ele>
        <time>2019-05-19T22:11:21Z</time>
      </trkpt>
      <trkpt lat="46.62845" lon="5.53164">
        <ele>430</ele>
        <time>2019-05-19T22:11:32Z</time>
      </trkpt>
      <trkpt lat="46.62893" lon="5.53342">
        <ele>431</ele>
        <time>2019-05-19T22:11:55Z</time>
      </trkpt>
      <trkpt lat="46.62904" lon="5.53374">
        <ele>430</ele>
        <time>2019-05-19T22:12:00Z</time>
      </trkpt>
      <trkpt lat="46.62919" lon="5.53404">
        <ele>430</ele>
        <time>2019-05-19T22:12:04Z</time>
      </trkpt>
      <trkpt lat="46.62936" lon="5.53431">
        <ele>430</ele>
        <time>2019-05-19T22:12:09Z</time>
      </trkpt>
      <trkpt lat="46.62949" lon="5.53445">
        <ele>430</ele>
        <time>2019-05-19T22:12:12Z</time>
      </trkpt>
      <trkpt lat="46.62963" lon="5.53454">
        <ele>430</ele>
        <time>2019-05-19T22:12:14Z</time>
      </trkpt>
      <trkpt lat="46.63058" lon="5.53498">
        <ele>426</ele>
        <time>2019-05-19T22:12:32Z</time>
      </trkpt>
      <trkpt lat="46.63081" lon="5.53506">
        <ele>424</ele>
        <time>2019-05-19T22:12:36Z</time>
      </trkpt>
      <trkpt lat="46.63102" lon="5.5351">
        <ele>424</ele>
        <time>2019-05-19T22:12:40Z</time>
      </trkpt>
      <trkpt lat="46.63151" lon="5.53511">
        <ele>424</ele>
        <time>2019-05-19T22:12:49Z</time>
      </trkpt>
      <trkpt lat="46.6317" lon="5.53514">
        <ele>423</ele>
        <time>2019-05-19T22:12:52Z</time>
      </trkpt>
      <trkpt lat="46.63192" lon="5.53523">
        <ele>423</ele>
        <time>2019-05-19T22:12:56Z</time>
      </trkpt>
      <trkpt lat="46.6322" lon="5.53547">
        <ele>421</ele>
        <time>2019-05-19T22:13:02Z</time>
      </trkpt>
      <trkpt lat="46.63319" lon="5.5365">
        <ele>410</ele>
        <time>2019-05-19T22:13:24Z</time>
      </trkpt>
      <trkpt lat="46.63416" lon="5.53739">
        <ele>402</ele>
        <time>2019-05-19T22:13:44Z</time>
      </trkpt>
      <trkpt lat="46.63434" lon="5.53753">
        <ele>401</ele>
        <time>2019-05-19T22:13:48Z</time>
      </trkpt>
      <trkpt lat="46.63474" lon="5.53779">
        <ele>399</ele>
        <time>2019-05-19T22:13:55Z</time>
      </trkpt>
      <trkpt lat="46.6352" lon="5.53803">
        <ele>396</ele>
        <time>2019-05-19T22:14:04Z</time>
      </trkpt>
      <trkpt lat="46.63535" lon="5.53815">
        <ele>394</ele>
        <time>2019-05-19T22:14:07Z</time>
      </trkpt>
      <trkpt lat="46.63548" lon="5.53829">
        <ele>392</ele>
        <time>2019-05-19T22:14:10Z</time>
      </trkpt>
      <trkpt lat="46.63637" lon="5.53956">
        <ele>387</ele>
        <time>2019-05-19T22:14:32Z</time>
      </trkpt>
      <trkpt lat="46.63659" lon="5.5399">
        <ele>386</ele>
        <time>2019-05-19T22:14:38Z</time>
      </trkpt>
      <trkpt lat="46.63663" lon="5.54001">
        <ele>385</ele>
        <time>2019-05-19T22:14:39Z</time>
      </trkpt>
      <trkpt lat="46.63665" lon="5.5401">
        <ele>383</ele>
        <time>2019-05-19T22:14:41Z</time>
      </trkpt>
      <trkpt lat="46.63663" lon="5.54019">
        <ele>381</ele>
        <time>2019-05-19T22:14:42Z</time>
      </trkpt>
      <trkpt lat="46.63659" lon="5.5403">
        <ele>379</ele>
        <time>2019-05-19T22:14:43Z</time>
      </trkpt>
      <trkpt lat="46.6365" lon="5.54038">
        <ele>378</ele>
        <time>2019-05-19T22:14:45Z</time>
      </trkpt>
      <trkpt lat="46.63599" lon="5.5406">
        <ele>381</ele>
        <time>2019-05-19T22:14:55Z</time>
      </trkpt>
      <trkpt lat="46.63497" lon="5.54112">
        <ele>385</ele>
        <time>2019-05-19T22:15:14Z</time>
      </trkpt>
      <trkpt lat="46.6346" lon="5.54136">
        <ele>382</ele>
        <time>2019-05-19T22:15:21Z</time>
      </trkpt>
      <trkpt lat="46.63397" lon="5.54184">
        <ele>372</ele>
        <time>2019-05-19T22:15:34Z</time>
      </trkpt>
      <trkpt lat="46.6338" lon="5.54193">
        <ele>370</ele>
        <time>2019-05-19T22:15:37Z</time>
      </trkpt>
      <trkpt lat="46.6336" lon="5.542">
        <ele>370</ele>
        <time>2019-05-19T22:15:41Z</time>
      </trkpt>
      <trkpt lat="46.63339" lon="5.54204">
        <ele>370</ele>
        <time>2019-05-19T22:15:44Z</time>
      </trkpt>
      <trkpt lat="46.63254" lon="5.54206">
        <ele>373</ele>
        <time>2019-05-19T22:15:59Z</time>
      </trkpt>
      <trkpt lat="46.63246" lon="5.54208">
        <ele>372</ele>
        <time>2019-05-19T22:16:01Z</time>
      </trkpt>
      <trkpt lat="46.63238" lon="5.54213">
        <ele>370</ele>
        <time>2019-05-19T22:16:02Z</time>
      </trkpt>
      <trkpt lat="46.63234" lon="5.5422">
        <ele>368</ele>
        <time>2019-05-19T22:16:04Z</time>
      </trkpt>
      <trkpt lat="46.63233" lon="5.54228">
        <ele>366</ele>
        <time>2019-05-19T22:16:05Z</time>
      </trkpt>
      <trkpt lat="46.63234" lon="5.54237">
        <ele>364</ele>
        <time>2019-05-19T22:16:06Z</time>
      </trkpt>
      <trkpt lat="46.63239" lon="5.54244">
        <ele>362</ele>
        <time>2019-05-19T22:16:07Z</time>
      </trkpt>
      <trkpt lat="46.63245" lon="5.54247">
        <ele>361</ele>
        <time>2019-05-19T22:16:08Z</time>
      </trkpt>
      <trkpt lat="46.63254" lon="5.54247">
        <ele>361</ele>
        <time>2019-05-19T22:16:10Z</time>
      </trkpt>
      <trkpt lat="46.63279" lon="5.5424">
        <ele>362</ele>
        <time>2019-05-19T22:16:14Z</time>
      </trkpt>
      <trkpt lat="46.63301" lon="5.54237">
        <ele>362</ele>
        <time>2019-05-19T22:16:18Z</time>
      </trkpt>
      <trkpt lat="46.63397" lon="5.54239">
        <ele>354</ele>
        <time>2019-05-19T22:16:35Z</time>
      </trkpt>
      <trkpt lat="46.63415" lon="5.54235">
        <ele>353</ele>
        <time>2019-05-19T22:16:38Z</time>
      </trkpt>
      <trkpt lat="46.63511" lon="5.5419">
        <ele>355</ele>
        <time>2019-05-19T22:16:56Z</time>
      </trkpt>
      <trkpt lat="46.63562" lon="5.54181">
        <ele>348</ele>
        <time>2019-05-19T22:17:06Z</time>
      </trkpt>
      <trkpt lat="46.63579" lon="5.54177">
        <ele>345</ele>
        <time>2019-05-19T22:17:09Z</time>
      </trkpt>
      <trkpt lat="46.6359" lon="5.54171">
        <ele>345</ele>
        <time>2019-05-19T22:17:11Z</time>
      </trkpt>
      <trkpt lat="46.63622" lon="5.54145">
        <ele>347</ele>
        <time>2019-05-19T22:17:17Z</time>
      </trkpt>
      <trkpt lat="46.63631" lon="5.54143">
        <ele>346</ele>
        <time>2019-05-19T22:17:19Z</time>
      </trkpt>
      <trkpt lat="46.6365" lon="5.54142">
        <ele>342</ele>
        <time>2019-05-19T22:17:22Z</time>
      </trkpt>
      <trkpt lat="46.63691" lon="5.54152">
        <ele>330</ele>
        <time>2019-05-19T22:17:30Z</time>
      </trkpt>
      <trkpt lat="46.63708" lon="5.5415">
        <ele>328</ele>
        <time>2019-05-19T22:17:33Z</time>
      </trkpt>
      <trkpt lat="46.6372" lon="5.54146">
        <ele>328</ele>
        <time>2019-05-19T22:17:35Z</time>
      </trkpt>
      <trkpt lat="46.63768" lon="5.54109">
        <ele>334</ele>
        <time>2019-05-19T22:17:45Z</time>
      </trkpt>
      <trkpt lat="46.63796" lon="5.54092">
        <ele>334</ele>
        <time>2019-05-19T22:17:50Z</time>
      </trkpt>
      <trkpt lat="46.63833" lon="5.54077">
        <ele>330</ele>
        <time>2019-05-19T22:17:57Z</time>
      </trkpt>
      <trkpt lat="46.63904" lon="5.54053">
        <ele>324</ele>
        <time>2019-05-19T22:18:10Z</time>
      </trkpt>
      <trkpt lat="46.63922" lon="5.54049">
        <ele>322</ele>
        <time>2019-05-19T22:18:13Z</time>
      </trkpt>
      <trkpt lat="46.63961" lon="5.54046">
        <ele>316</ele>
        <time>2019-05-19T22:18:20Z</time>
      </trkpt>
      <trkpt lat="46.63998" lon="5.54047">
        <ele>310</ele>
        <time>2019-05-19T22:18:26Z</time>
      </trkpt>
      <trkpt lat="46.64035" lon="5.54044">
        <ele>304</ele>
        <time>2019-05-19T22:18:33Z</time>
      </trkpt>
      <trkpt lat="46.64092" lon="5.5403">
        <ele>297</ele>
        <time>2019-05-19T22:18:43Z</time>
      </trkpt>
      <trkpt lat="46.64126" lon="5.54015">
        <ele>294</ele>
        <time>2019-05-19T22:18:50Z</time>
      </trkpt>
      <trkpt lat="46.64175" lon="5.53978">
        <ele>293</ele>
        <time>2019-05-19T22:18:59Z</time>
      </trkpt>
      <trkpt lat="46.64206" lon="5.53966">
        <ele>291</ele>
        <time>2019-05-19T22:19:05Z</time>
      </trkpt>
      <trkpt lat="46.64224" lon="5.53963">
        <ele>289</ele>
        <time>2019-05-19T22:19:08Z</time>
      </trkpt>
      <trkpt lat="46.64285" lon="5.53965">
        <ele>284</ele>
        <time>2019-05-19T22:19:19Z</time>
      </trkpt>
      <trkpt lat="46.64357" lon="5.53962">
        <ele>281</ele>
        <time>2019-05-19T22:19:32Z</time>
      </trkpt>
      <trkpt lat="46.64392" lon="5.53967">
        <ele>278</ele>
        <time>2019-05-19T22:19:38Z</time>
      </trkpt>
      <trkpt lat="46.644" lon="5.53973">
        <ele>277</ele>
        <time>2019-05-19T22:19:40Z</time>
      </trkpt>
      <trkpt lat="46.64407" lon="5.53983">
        <ele>276</ele>
        <time>2019-05-19T22:19:42Z</time>
      </trkpt>
      <trkpt lat="46.64419" lon="5.54032">
        <ele>275</ele>
        <time>2019-05-19T22:19:48Z</time>
      </trkpt>
      <trkpt lat="46.64449" lon="5.54003">
        <ele>273</ele>
        <time>2019-05-19T22:19:54Z</time>
      </trkpt>
      <trkpt lat="46.64462" lon="5.53998">
        <ele>273</ele>
        <time>2019-05-19T22:19:57Z</time>
      </trkpt>
      <trkpt lat="46.64505" lon="5.53993">
        <ele>271</ele>
        <time>2019-05-19T22:20:05Z</time>
      </trkpt>
      <trkpt lat="46.64522" lon="5.53984">
        <ele>271</ele>
        <time>2019-05-19T22:20:08Z</time>
      </trkpt>
      <trkpt lat="46.64569" lon="5.53949">
        <ele>270</ele>
        <time>2019-05-19T22:20:17Z</time>
      </trkpt>
      <trkpt lat="46.64631" lon="5.53907">
        <ele>268</ele>
        <time>2019-05-19T22:20:29Z</time>
      </trkpt>
      <trkpt lat="46.64663" lon="5.53896">
        <ele>267</ele>
        <time>2019-05-19T22:20:35Z</time>
      </trkpt>
      <trkpt lat="46.64667" lon="5.53903">
        <ele>267</ele>
        <time>2019-05-19T22:20:36Z</time>
      </trkpt>
      <trkpt lat="46.64673" lon="5.53905">
        <ele>267</ele>
        <time>2019-05-19T22:20:37Z</time>
      </trkpt>
      <trkpt lat="46.64675" lon="5.53904">
        <ele>267</ele>
        <time>2019-05-19T22:20:38Z</time>
      </trkpt>
      <trkpt lat="46.64678" lon="5.53901">
        <ele>267</ele>
        <time>2019-05-19T22:20:38Z</time>
      </trkpt>
      <trkpt lat="46.64681" lon="5.53893">
        <ele>267</ele>
        <time>2019-05-19T22:20:40Z</time>
      </trkpt>
      <trkpt lat="46.6468" lon="5.53884">
        <ele>267</ele>
        <time>2019-05-19T22:20:41Z</time>
      </trkpt>
      <trkpt lat="46.647" lon="5.5388">
        <ele>267</ele>
        <time>2019-05-19T22:20:44Z</time>
      </trkpt>
      <trkpt lat="46.64737" lon="5.53862">
        <ele>267</ele>
        <time>2019-05-19T22:20:51Z</time>
      </trkpt>
      <trkpt lat="46.64755" lon="5.53845">
        <ele>267</ele>
        <time>2019-05-19T22:20:55Z</time>
      </trkpt>
      <trkpt lat="46.64774" lon="5.53812">
        <ele>267</ele>
        <time>2019-05-19T22:21:00Z</time>
      </trkpt>
      <trkpt lat="46.64786" lon="5.53785">
        <ele>267</ele>
        <time>2019-05-19T22:21:04Z</time>
      </trkpt>
      <trkpt lat="46.64841" lon="5.53634">
        <ele>264</ele>
        <time>2019-05-19T22:21:25Z</time>
      </trkpt>
      <trkpt lat="46.6489" lon="5.53509">
        <ele>264</ele>
        <time>2019-05-19T22:21:43Z</time>
      </trkpt>
      <trkpt lat="46.64903" lon="5.53472">
        <ele>263</ele>
        <time>2019-05-19T22:21:48Z</time>
      </trkpt>
      <trkpt lat="46.64968" lon="5.53328">
        <ele>261</ele>
        <time>2019-05-19T22:22:09Z</time>
      </trkpt>
      <trkpt lat="46.65005" lon="5.53254">
        <ele>259</ele>
        <time>2019-05-19T22:22:20Z</time>
      </trkpt>
      <trkpt lat="46.65044" lon="5.53156">
        <ele>259</ele>
        <time>2019-05-19T22:22:34Z</time>
      </trkpt>
      <trkpt lat="46.65081" lon="5.53091">
        <ele>258</ele>
        <time>2019-05-19T22:22:44Z</time>
      </trkpt>
      <trkpt lat="46.65105" lon="5.53039">
        <ele>259</ele>
        <time>2019-05-19T22:22:52Z</time>
      </trkpt>
      <trkpt lat="46.65133" lon="5.5297">
        <ele>260</ele>
        <time>2019-05-19T22:23:02Z</time>
      </trkpt>
      <trkpt lat="46.65186" lon="5.5287">
        <ele>259</ele>
        <time>2019-05-19T22:23:17Z</time>
      </trkpt>
      <trkpt lat="46.65192" lon="5.52852">
        <ele>259</ele>
        <time>2019-05-19T22:23:19Z</time>
      </trkpt>
      <trkpt lat="46.65195" lon="5.52819">
        <ele>259</ele>
        <time>2019-05-19T22:23:23Z</time>
      </trkpt>
      <trkpt lat="46.65198" lon="5.52805">
        <ele>259</ele>
        <time>2019-05-19T22:23:25Z</time>
      </trkpt>
      <trkpt lat="46.65201" lon="5.52795">
        <ele>259</ele>
        <time>2019-05-19T22:23:27Z</time>
      </trkpt>
      <trkpt lat="46.65206" lon="5.52789">
        <ele>259</ele>
        <time>2019-05-19T22:23:28Z</time>
      </trkpt>
      <trkpt lat="46.65222" lon="5.52785">
        <ele>258</ele>
        <time>2019-05-19T22:23:31Z</time>
      </trkpt>
      <trkpt lat="46.65242" lon="5.52786">
        <ele>257</ele>
        <time>2019-05-19T22:23:34Z</time>
      </trkpt>
      <trkpt lat="46.65279" lon="5.52847">
        <ele>255</ele>
        <time>2019-05-19T22:23:44Z</time>
      </trkpt>
      <trkpt lat="46.65301" lon="5.52888">
        <ele>254</ele>
        <time>2019-05-19T22:23:50Z</time>
      </trkpt>
      <trkpt lat="46.65313" lon="5.5293">
        <ele>253</ele>
        <time>2019-05-19T22:23:56Z</time>
      </trkpt>
      <trkpt lat="46.65321" lon="5.52944">
        <ele>253</ele>
        <time>2019-05-19T22:23:58Z</time>
      </trkpt>
      <trkpt lat="46.65332" lon="5.5297">
        <ele>253</ele>
        <time>2019-05-19T22:24:02Z</time>
      </trkpt>
      <trkpt lat="46.65389" lon="5.52962">
        <ele>253</ele>
        <time>2019-05-19T22:24:12Z</time>
      </trkpt>
      <trkpt lat="46.65448" lon="5.52898">
        <ele>251</ele>
        <time>2019-05-19T22:24:25Z</time>
      </trkpt>
      <trkpt lat="46.65499" lon="5.52849">
        <ele>250</ele>
        <time>2019-05-19T22:24:36Z</time>
      </trkpt>
      <trkpt lat="46.65528" lon="5.52825">
        <ele>249</ele>
        <time>2019-05-19T22:24:42Z</time>
      </trkpt>
      <trkpt lat="46.65544" lon="5.52818">
        <ele>250</ele>
        <time>2019-05-19T22:24:45Z</time>
      </trkpt>
      <trkpt lat="46.65577" lon="5.52823">
        <ele>250</ele>
        <time>2019-05-19T22:24:51Z</time>
      </trkpt>
      <trkpt lat="46.65589" lon="5.52822">
        <ele>250</ele>
        <time>2019-05-19T22:24:53Z</time>
      </trkpt>
      <trkpt lat="46.65608" lon="5.52815">
        <ele>250</ele>
        <time>2019-05-19T22:24:57Z</time>
      </trkpt>
      <trkpt lat="46.65654" lon="5.52785">
        <ele>250</ele>
        <time>2019-05-19T22:25:06Z</time>
      </trkpt>
      <trkpt lat="46.65668" lon="5.52779">
        <ele>250</ele>
        <time>2019-05-19T22:25:08Z</time>
      </trkpt>
      <trkpt lat="46.65689" lon="5.52782">
        <ele>250</ele>
        <time>2019-05-19T22:25:12Z</time>
      </trkpt>
      <trkpt lat="46.65728" lon="5.52799">
        <ele>250</ele>
        <time>2019-05-19T22:25:19Z</time>
      </trkpt>
      <trkpt lat="46.6574" lon="5.528">
        <ele>251</ele>
        <time>2019-05-19T22:25:21Z</time>
      </trkpt>
      <trkpt lat="46.65752" lon="5.52796">
        <ele>251</ele>
        <time>2019-05-19T22:25:23Z</time>
      </trkpt>
      <trkpt lat="46.65798" lon="5.52762">
        <ele>250</ele>
        <time>2019-05-19T22:25:33Z</time>
      </trkpt>
      <trkpt lat="46.65838" lon="5.52743">
        <ele>249</ele>
        <time>2019-05-19T22:25:40Z</time>
      </trkpt>
      <trkpt lat="46.65909" lon="5.52716">
        <ele>252</ele>
        <time>2019-05-19T22:25:53Z</time>
      </trkpt>
      <trkpt lat="46.65979" lon="5.52678">
        <ele>254</ele>
        <time>2019-05-19T22:26:06Z</time>
      </trkpt>
      <trkpt lat="46.66004" lon="5.52667">
        <ele>255</ele>
        <time>2019-05-19T22:26:11Z</time>
      </trkpt>
      <trkpt lat="46.66051" lon="5.52656">
        <ele>259</ele>
        <time>2019-05-19T22:26:20Z</time>
      </trkpt>
      <trkpt lat="46.661" lon="5.52655">
        <ele>262</ele>
        <time>2019-05-19T22:26:28Z</time>
      </trkpt>
      <trkpt lat="46.66147" lon="5.52644">
        <ele>264</ele>
        <time>2019-05-19T22:26:37Z</time>
      </trkpt>
      <trkpt lat="46.66209" lon="5.52624">
        <ele>265</ele>
        <time>2019-05-19T22:26:48Z</time>
      </trkpt>
      <trkpt lat="46.66229" lon="5.5262">
        <ele>266</ele>
        <time>2019-05-19T22:26:52Z</time>
      </trkpt>
      <trkpt lat="46.66292" lon="5.52616">
        <ele>267</ele>
        <time>2019-05-19T22:27:03Z</time>
      </trkpt>
      <trkpt lat="46.66319" lon="5.52617">
        <ele>268</ele>
        <time>2019-05-19T22:27:08Z</time>
      </trkpt>
      <trkpt lat="46.66381" lon="5.52633">
        <ele>269</ele>
        <time>2019-05-19T22:27:19Z</time>
      </trkpt>
      <trkpt lat="46.66486" lon="5.52671">
        <ele>269</ele>
        <time>2019-05-19T22:27:38Z</time>
      </trkpt>
      <trkpt lat="46.66568" lon="5.52704">
        <ele>269</ele>
        <time>2019-05-19T22:27:53Z</time>
      </trkpt>
      <trkpt lat="46.66602" lon="5.52707">
        <ele>268</ele>
        <time>2019-05-19T22:27:59Z</time>
      </trkpt>
      <trkpt lat="46.66656" lon="5.52703">
        <ele>267</ele>
        <time>2019-05-19T22:28:09Z</time>
      </trkpt>
      <trkpt lat="46.66713" lon="5.52718">
        <ele>268</ele>
        <time>2019-05-19T22:28:19Z</time>
      </trkpt>
      <trkpt lat="46.66753" lon="5.52732">
        <ele>269</ele>
        <time>2019-05-19T22:28:27Z</time>
      </trkpt>
      <trkpt lat="46.66804" lon="5.52785">
        <ele>273</ele>
        <time>2019-05-19T22:28:38Z</time>
      </trkpt>
      <trkpt lat="46.66915" lon="5.52908">
        <ele>282</ele>
        <time>2019-05-19T22:29:03Z</time>
      </trkpt>
      <trkpt lat="46.67" lon="5.53008">
        <ele>291</ele>
        <time>2019-05-19T22:29:22Z</time>
      </trkpt>
      <trkpt lat="46.67021" lon="5.53047">
        <ele>293</ele>
        <time>2019-05-19T22:29:28Z</time>
      </trkpt>
      <trkpt lat="46.67048" lon="5.53114">
        <ele>297</ele>
        <time>2019-05-19T22:29:38Z</time>
      </trkpt>
      <trkpt lat="46.67068" lon="5.53169">
        <ele>299</ele>
        <time>2019-05-19T22:29:45Z</time>
      </trkpt>
      <trkpt lat="46.6709" lon="5.5325">
        <ele>302</ele>
        <time>2019-05-19T22:29:56Z</time>
      </trkpt>
      <trkpt lat="46.67101" lon="5.53313">
        <ele>300</ele>
        <time>2019-05-19T22:30:04Z</time>
      </trkpt>
      <trkpt lat="46.67125" lon="5.53509">
        <ele>300</ele>
        <time>2019-05-19T22:30:28Z</time>
      </trkpt>
      <trkpt lat="46.67129" lon="5.53566">
        <ele>298</ele>
        <time>2019-05-19T22:30:35Z</time>
      </trkpt>
      <trkpt lat="46.67129" lon="5.53652">
        <ele>290</ele>
        <time>2019-05-19T22:30:46Z</time>
      </trkpt>
      <trkpt lat="46.67138" lon="5.53741">
        <ele>278</ele>
        <time>2019-05-19T22:30:56Z</time>
      </trkpt>
      <trkpt lat="46.67153" lon="5.53844">
        <ele>271</ele>
        <time>2019-05-19T22:31:09Z</time>
      </trkpt>
      <trkpt lat="46.67166" lon="5.53907">
        <ele>266</ele>
        <time>2019-05-19T22:31:17Z</time>
      </trkpt>
      <trkpt lat="46.67174" lon="5.53955">
        <ele>264</ele>
        <time>2019-05-19T22:31:23Z</time>
      </trkpt>
      <trkpt lat="46.67178" lon="5.53992">
        <ele>262</ele>
        <time>2019-05-19T22:31:28Z</time>
      </trkpt>
      <trkpt lat="46.67182" lon="5.54016">
        <ele>261</ele>
        <time>2019-05-19T22:31:31Z</time>
      </trkpt>
      <trkpt lat="46.67192" lon="5.54096">
        <ele>258</ele>
        <time>2019-05-19T22:31:41Z</time>
      </trkpt>
      <trkpt lat="46.67198" lon="5.54124">
        <ele>258</ele>
        <time>2019-05-19T22:31:45Z</time>
      </trkpt>
      <trkpt lat="46.6721" lon="5.54163">
        <ele>257</ele>
        <time>2019-05-19T22:31:50Z</time>
      </trkpt>
    </trkseg>
  </trk>
</gpx>